<?xml version="1.0" encoding="UTF-8" standalone="no" ?>
<gpx xmlns="http://www.topografix.com/GPX/1/1" xmlns:xsi="http://www.w3.org/2001/XMLSchema-instance" xsi:schemaLocation="http://www.topografix.com/GPX/1/1 http://www.topografix.com/GPX/1/1/gpx.xsd" version="1.1" creator="VisuGPX - https://www.visugpx.com">
  <metadata>
    <name>20260823-Montclar sur Gervanne</name>
  </metadata>
  <trk>
    <name><![CDATA[20260823-Montclar sur Gervanne_1]]></name>
    <trkseg>
      <trkpt lat="44.74664" lon="5.14284">
        <ele>369</ele>
        <time>2026-08-23T16:25:15.000Z</time>
      </trkpt>
      <trkpt lat="44.74665" lon="5.14286">
        <ele>369</ele>
        <time>2026-08-23T16:25:18.300Z</time>
      </trkpt>
      <trkpt lat="44.74666" lon="5.14286">
        <ele>370</ele>
        <time>2026-08-23T16:25:19.300Z</time>
      </trkpt>
      <trkpt lat="44.74665" lon="5.1429">
        <ele>371</ele>
        <time>2026-08-23T16:25:22.623Z</time>
      </trkpt>
      <trkpt lat="44.74664" lon="5.14291">
        <ele>371</ele>
        <time>2026-08-23T16:25:23.623Z</time>
      </trkpt>
      <trkpt lat="44.74663" lon="5.14292">
        <ele>372</ele>
        <time>2026-08-23T16:25:24.623Z</time>
      </trkpt>
      <trkpt lat="44.74663" lon="5.14293">
        <ele>372</ele>
        <time>2026-08-23T16:25:25.623Z</time>
      </trkpt>
      <trkpt lat="44.74663" lon="5.14293">
        <ele>372</ele>
        <time>2026-08-23T16:25:26.623Z</time>
      </trkpt>
      <trkpt lat="44.74662" lon="5.14294">
        <ele>372</ele>
        <time>2026-08-23T16:25:27.623Z</time>
      </trkpt>
      <trkpt lat="44.74659" lon="5.14294">
        <ele>372</ele>
        <time>2026-08-23T16:25:28.623Z</time>
      </trkpt>
      <trkpt lat="44.74658" lon="5.14294">
        <ele>372</ele>
        <time>2026-08-23T16:25:29.623Z</time>
      </trkpt>
      <trkpt lat="44.74658" lon="5.14294">
        <ele>372</ele>
        <time>2026-08-23T16:25:30.623Z</time>
      </trkpt>
      <trkpt lat="44.74657" lon="5.14294">
        <ele>372</ele>
        <time>2026-08-23T16:25:31.623Z</time>
      </trkpt>
      <trkpt lat="44.74656" lon="5.14293">
        <ele>372</ele>
        <time>2026-08-23T16:25:32.623Z</time>
      </trkpt>
      <trkpt lat="44.74655" lon="5.14293">
        <ele>373</ele>
        <time>2026-08-23T16:25:33.623Z</time>
      </trkpt>
      <trkpt lat="44.74654" lon="5.14292">
        <ele>373</ele>
        <time>2026-08-23T16:25:34.623Z</time>
      </trkpt>
      <trkpt lat="44.74653" lon="5.14291">
        <ele>373</ele>
        <time>2026-08-23T16:25:35.623Z</time>
      </trkpt>
      <trkpt lat="44.74652" lon="5.1429">
        <ele>373</ele>
        <time>2026-08-23T16:25:36.623Z</time>
      </trkpt>
      <trkpt lat="44.74651" lon="5.14289">
        <ele>374</ele>
        <time>2026-08-23T16:25:37.623Z</time>
      </trkpt>
      <trkpt lat="44.74651" lon="5.14288">
        <ele>374</ele>
        <time>2026-08-23T16:25:38.623Z</time>
      </trkpt>
      <trkpt lat="44.7465" lon="5.14287">
        <ele>374</ele>
        <time>2026-08-23T16:25:39.623Z</time>
      </trkpt>
      <trkpt lat="44.7465" lon="5.14285">
        <ele>374</ele>
        <time>2026-08-23T16:25:40.623Z</time>
      </trkpt>
      <trkpt lat="44.7465" lon="5.14284">
        <ele>374</ele>
        <time>2026-08-23T16:25:41.623Z</time>
      </trkpt>
      <trkpt lat="44.7465" lon="5.14283">
        <ele>375</ele>
        <time>2026-08-23T16:25:42.623Z</time>
      </trkpt>
      <trkpt lat="44.7465" lon="5.14282">
        <ele>375</ele>
        <time>2026-08-23T16:25:43.623Z</time>
      </trkpt>
      <trkpt lat="44.7465" lon="5.1428">
        <ele>375</ele>
        <time>2026-08-23T16:25:44.623Z</time>
      </trkpt>
      <trkpt lat="44.74651" lon="5.14279">
        <ele>375</ele>
        <time>2026-08-23T16:25:45.623Z</time>
      </trkpt>
      <trkpt lat="44.74651" lon="5.14278">
        <ele>375</ele>
        <time>2026-08-23T16:25:46.623Z</time>
      </trkpt>
      <trkpt lat="44.74651" lon="5.14276">
        <ele>375</ele>
        <time>2026-08-23T16:25:47.623Z</time>
      </trkpt>
      <trkpt lat="44.74651" lon="5.14274">
        <ele>375</ele>
        <time>2026-08-23T16:25:48.623Z</time>
      </trkpt>
      <trkpt lat="44.74651" lon="5.14273">
        <ele>375</ele>
        <time>2026-08-23T16:25:49.623Z</time>
      </trkpt>
      <trkpt lat="44.74651" lon="5.14272">
        <ele>375</ele>
        <time>2026-08-23T16:25:50.623Z</time>
      </trkpt>
      <trkpt lat="44.7465" lon="5.1427">
        <ele>375</ele>
        <time>2026-08-23T16:25:51.623Z</time>
      </trkpt>
      <trkpt lat="44.7465" lon="5.14269">
        <ele>376</ele>
        <time>2026-08-23T16:25:52.623Z</time>
      </trkpt>
      <trkpt lat="44.74649" lon="5.14268">
        <ele>376</ele>
        <time>2026-08-23T16:25:53.623Z</time>
      </trkpt>
      <trkpt lat="44.74648" lon="5.14268">
        <ele>376</ele>
        <time>2026-08-23T16:25:54.623Z</time>
      </trkpt>
      <trkpt lat="44.74647" lon="5.14268">
        <ele>376</ele>
        <time>2026-08-23T16:25:55.623Z</time>
      </trkpt>
      <trkpt lat="44.74647" lon="5.14268">
        <ele>376</ele>
        <time>2026-08-23T16:25:56.623Z</time>
      </trkpt>
      <trkpt lat="44.74647" lon="5.14268">
        <ele>376</ele>
        <time>2026-08-23T16:25:57.623Z</time>
      </trkpt>
      <trkpt lat="44.74647" lon="5.14268">
        <ele>376</ele>
        <time>2026-08-23T16:25:58.623Z</time>
      </trkpt>
      <trkpt lat="44.74647" lon="5.14268">
        <ele>376</ele>
        <time>2026-08-23T16:25:59.623Z</time>
      </trkpt>
      <trkpt lat="44.74647" lon="5.14266">
        <ele>376</ele>
        <time>2026-08-23T16:26:18.629Z</time>
      </trkpt>
      <trkpt lat="44.74648" lon="5.14265">
        <ele>376</ele>
        <time>2026-08-23T16:26:19.629Z</time>
      </trkpt>
      <trkpt lat="44.74648" lon="5.14264">
        <ele>376</ele>
        <time>2026-08-23T16:26:20.629Z</time>
      </trkpt>
      <trkpt lat="44.74649" lon="5.14263">
        <ele>376</ele>
        <time>2026-08-23T16:26:21.629Z</time>
      </trkpt>
      <trkpt lat="44.7465" lon="5.14261">
        <ele>376</ele>
        <time>2026-08-23T16:26:22.629Z</time>
      </trkpt>
      <trkpt lat="44.74651" lon="5.1426">
        <ele>376</ele>
        <time>2026-08-23T16:26:23.629Z</time>
      </trkpt>
      <trkpt lat="44.74651" lon="5.14259">
        <ele>376</ele>
        <time>2026-08-23T16:26:24.629Z</time>
      </trkpt>
      <trkpt lat="44.74652" lon="5.14258">
        <ele>376</ele>
        <time>2026-08-23T16:26:25.629Z</time>
      </trkpt>
      <trkpt lat="44.74652" lon="5.14257">
        <ele>376</ele>
        <time>2026-08-23T16:26:26.629Z</time>
      </trkpt>
      <trkpt lat="44.74653" lon="5.14255">
        <ele>376</ele>
        <time>2026-08-23T16:26:27.629Z</time>
      </trkpt>
      <trkpt lat="44.74653" lon="5.14254">
        <ele>376</ele>
        <time>2026-08-23T16:26:28.629Z</time>
      </trkpt>
      <trkpt lat="44.74654" lon="5.14253">
        <ele>376</ele>
        <time>2026-08-23T16:26:29.629Z</time>
      </trkpt>
      <trkpt lat="44.74654" lon="5.14251">
        <ele>376</ele>
        <time>2026-08-23T16:26:30.629Z</time>
      </trkpt>
      <trkpt lat="44.74655" lon="5.1425">
        <ele>376</ele>
        <time>2026-08-23T16:26:31.629Z</time>
      </trkpt>
      <trkpt lat="44.74655" lon="5.14249">
        <ele>376</ele>
        <time>2026-08-23T16:26:32.629Z</time>
      </trkpt>
      <trkpt lat="44.74656" lon="5.14247">
        <ele>376</ele>
        <time>2026-08-23T16:26:33.629Z</time>
      </trkpt>
      <trkpt lat="44.74656" lon="5.14246">
        <ele>376</ele>
        <time>2026-08-23T16:26:34.629Z</time>
      </trkpt>
      <trkpt lat="44.74656" lon="5.14244">
        <ele>376</ele>
        <time>2026-08-23T16:26:35.629Z</time>
      </trkpt>
      <trkpt lat="44.74656" lon="5.14243">
        <ele>376</ele>
        <time>2026-08-23T16:26:36.629Z</time>
      </trkpt>
      <trkpt lat="44.74657" lon="5.14241">
        <ele>376</ele>
        <time>2026-08-23T16:26:37.629Z</time>
      </trkpt>
      <trkpt lat="44.74657" lon="5.1424">
        <ele>376</ele>
        <time>2026-08-23T16:26:38.629Z</time>
      </trkpt>
      <trkpt lat="44.74657" lon="5.14239">
        <ele>376</ele>
        <time>2026-08-23T16:26:39.629Z</time>
      </trkpt>
      <trkpt lat="44.74657" lon="5.14238">
        <ele>376</ele>
        <time>2026-08-23T16:26:40.629Z</time>
      </trkpt>
      <trkpt lat="44.74657" lon="5.14236">
        <ele>376</ele>
        <time>2026-08-23T16:26:41.629Z</time>
      </trkpt>
      <trkpt lat="44.74656" lon="5.14235">
        <ele>376</ele>
        <time>2026-08-23T16:26:42.629Z</time>
      </trkpt>
      <trkpt lat="44.74656" lon="5.14234">
        <ele>376</ele>
        <time>2026-08-23T16:26:43.629Z</time>
      </trkpt>
      <trkpt lat="44.74656" lon="5.14233">
        <ele>376</ele>
        <time>2026-08-23T16:26:44.629Z</time>
      </trkpt>
      <trkpt lat="44.74655" lon="5.14232">
        <ele>376</ele>
        <time>2026-08-23T16:26:45.629Z</time>
      </trkpt>
      <trkpt lat="44.74654" lon="5.14231">
        <ele>376</ele>
        <time>2026-08-23T16:26:46.629Z</time>
      </trkpt>
      <trkpt lat="44.74654" lon="5.1423">
        <ele>376</ele>
        <time>2026-08-23T16:26:47.629Z</time>
      </trkpt>
      <trkpt lat="44.74653" lon="5.14229">
        <ele>376</ele>
        <time>2026-08-23T16:26:48.629Z</time>
      </trkpt>
      <trkpt lat="44.74653" lon="5.14228">
        <ele>376</ele>
        <time>2026-08-23T16:26:49.629Z</time>
      </trkpt>
      <trkpt lat="44.74652" lon="5.14227">
        <ele>376</ele>
        <time>2026-08-23T16:26:50.629Z</time>
      </trkpt>
      <trkpt lat="44.74652" lon="5.14226">
        <ele>376</ele>
        <time>2026-08-23T16:26:51.629Z</time>
      </trkpt>
      <trkpt lat="44.74651" lon="5.14226">
        <ele>376</ele>
        <time>2026-08-23T16:26:52.629Z</time>
      </trkpt>
      <trkpt lat="44.74651" lon="5.14225">
        <ele>376</ele>
        <time>2026-08-23T16:26:53.629Z</time>
      </trkpt>
      <trkpt lat="44.7465" lon="5.14224">
        <ele>376</ele>
        <time>2026-08-23T16:26:54.629Z</time>
      </trkpt>
      <trkpt lat="44.7465" lon="5.14223">
        <ele>376</ele>
        <time>2026-08-23T16:26:55.629Z</time>
      </trkpt>
      <trkpt lat="44.74649" lon="5.14223">
        <ele>376</ele>
        <time>2026-08-23T16:26:56.629Z</time>
      </trkpt>
      <trkpt lat="44.74649" lon="5.14221">
        <ele>376</ele>
        <time>2026-08-23T16:26:57.629Z</time>
      </trkpt>
      <trkpt lat="44.74648" lon="5.1422">
        <ele>376</ele>
        <time>2026-08-23T16:26:58.629Z</time>
      </trkpt>
      <trkpt lat="44.74648" lon="5.14219">
        <ele>376</ele>
        <time>2026-08-23T16:26:59.629Z</time>
      </trkpt>
      <trkpt lat="44.74647" lon="5.14218">
        <ele>376</ele>
        <time>2026-08-23T16:27:00.629Z</time>
      </trkpt>
      <trkpt lat="44.74647" lon="5.14217">
        <ele>376</ele>
        <time>2026-08-23T16:27:01.629Z</time>
      </trkpt>
      <trkpt lat="44.74647" lon="5.14216">
        <ele>376</ele>
        <time>2026-08-23T16:27:02.629Z</time>
      </trkpt>
      <trkpt lat="44.74647" lon="5.14215">
        <ele>376</ele>
        <time>2026-08-23T16:27:03.629Z</time>
      </trkpt>
      <trkpt lat="44.74646" lon="5.14213">
        <ele>376</ele>
        <time>2026-08-23T16:27:04.629Z</time>
      </trkpt>
      <trkpt lat="44.74646" lon="5.14212">
        <ele>376</ele>
        <time>2026-08-23T16:27:05.629Z</time>
      </trkpt>
      <trkpt lat="44.74646" lon="5.14211">
        <ele>376</ele>
        <time>2026-08-23T16:27:06.629Z</time>
      </trkpt>
      <trkpt lat="44.74645" lon="5.1421">
        <ele>376</ele>
        <time>2026-08-23T16:27:07.629Z</time>
      </trkpt>
      <trkpt lat="44.74645" lon="5.1421">
        <ele>376</ele>
        <time>2026-08-23T16:27:08.629Z</time>
      </trkpt>
      <trkpt lat="44.74644" lon="5.14209">
        <ele>376</ele>
        <time>2026-08-23T16:27:09.629Z</time>
      </trkpt>
      <trkpt lat="44.74643" lon="5.14208">
        <ele>377</ele>
        <time>2026-08-23T16:27:10.629Z</time>
      </trkpt>
      <trkpt lat="44.74643" lon="5.14207">
        <ele>377</ele>
        <time>2026-08-23T16:27:11.629Z</time>
      </trkpt>
      <trkpt lat="44.74642" lon="5.14206">
        <ele>377</ele>
        <time>2026-08-23T16:27:12.629Z</time>
      </trkpt>
      <trkpt lat="44.74642" lon="5.14205">
        <ele>377</ele>
        <time>2026-08-23T16:27:13.629Z</time>
      </trkpt>
      <trkpt lat="44.74641" lon="5.14204">
        <ele>377</ele>
        <time>2026-08-23T16:27:14.629Z</time>
      </trkpt>
      <trkpt lat="44.7464" lon="5.14203">
        <ele>377</ele>
        <time>2026-08-23T16:27:15.629Z</time>
      </trkpt>
      <trkpt lat="44.7464" lon="5.14202">
        <ele>377</ele>
        <time>2026-08-23T16:27:16.629Z</time>
      </trkpt>
      <trkpt lat="44.7464" lon="5.14201">
        <ele>377</ele>
        <time>2026-08-23T16:27:17.629Z</time>
      </trkpt>
      <trkpt lat="44.74639" lon="5.142">
        <ele>377</ele>
        <time>2026-08-23T16:27:18.629Z</time>
      </trkpt>
      <trkpt lat="44.74638" lon="5.14199">
        <ele>377</ele>
        <time>2026-08-23T16:27:19.629Z</time>
      </trkpt>
      <trkpt lat="44.74638" lon="5.14198">
        <ele>377</ele>
        <time>2026-08-23T16:27:20.629Z</time>
      </trkpt>
      <trkpt lat="44.74637" lon="5.14197">
        <ele>377</ele>
        <time>2026-08-23T16:27:21.629Z</time>
      </trkpt>
      <trkpt lat="44.74637" lon="5.14195">
        <ele>377</ele>
        <time>2026-08-23T16:27:22.629Z</time>
      </trkpt>
      <trkpt lat="44.74636" lon="5.14194">
        <ele>377</ele>
        <time>2026-08-23T16:27:23.629Z</time>
      </trkpt>
      <trkpt lat="44.74636" lon="5.14193">
        <ele>377</ele>
        <time>2026-08-23T16:27:24.629Z</time>
      </trkpt>
      <trkpt lat="44.74635" lon="5.14192">
        <ele>377</ele>
        <time>2026-08-23T16:27:25.629Z</time>
      </trkpt>
      <trkpt lat="44.74635" lon="5.14191">
        <ele>377</ele>
        <time>2026-08-23T16:27:26.629Z</time>
      </trkpt>
      <trkpt lat="44.74634" lon="5.1419">
        <ele>377</ele>
        <time>2026-08-23T16:27:27.629Z</time>
      </trkpt>
      <trkpt lat="44.74634" lon="5.14189">
        <ele>377</ele>
        <time>2026-08-23T16:27:28.629Z</time>
      </trkpt>
      <trkpt lat="44.74634" lon="5.14188">
        <ele>377</ele>
        <time>2026-08-23T16:27:29.629Z</time>
      </trkpt>
      <trkpt lat="44.74634" lon="5.14187">
        <ele>377</ele>
        <time>2026-08-23T16:27:30.629Z</time>
      </trkpt>
      <trkpt lat="44.74634" lon="5.14186">
        <ele>377</ele>
        <time>2026-08-23T16:27:31.629Z</time>
      </trkpt>
      <trkpt lat="44.74634" lon="5.14185">
        <ele>377</ele>
        <time>2026-08-23T16:27:32.629Z</time>
      </trkpt>
      <trkpt lat="44.74634" lon="5.14185">
        <ele>377</ele>
        <time>2026-08-23T16:27:33.629Z</time>
      </trkpt>
      <trkpt lat="44.74634" lon="5.14184">
        <ele>377</ele>
        <time>2026-08-23T16:27:34.629Z</time>
      </trkpt>
      <trkpt lat="44.74634" lon="5.14184">
        <ele>377</ele>
        <time>2026-08-23T16:27:35.629Z</time>
      </trkpt>
      <trkpt lat="44.74634" lon="5.14184">
        <ele>377</ele>
        <time>2026-08-23T16:27:36.629Z</time>
      </trkpt>
      <trkpt lat="44.74634" lon="5.14183">
        <ele>378</ele>
        <time>2026-08-23T16:27:45.643Z</time>
      </trkpt>
      <trkpt lat="44.74633" lon="5.14182">
        <ele>378</ele>
        <time>2026-08-23T16:27:46.643Z</time>
      </trkpt>
      <trkpt lat="44.74633" lon="5.14181">
        <ele>378</ele>
        <time>2026-08-23T16:27:47.643Z</time>
      </trkpt>
      <trkpt lat="44.74633" lon="5.14181">
        <ele>377</ele>
        <time>2026-08-23T16:27:48.643Z</time>
      </trkpt>
      <trkpt lat="44.74632" lon="5.1418">
        <ele>377</ele>
        <time>2026-08-23T16:27:49.643Z</time>
      </trkpt>
      <trkpt lat="44.74632" lon="5.14179">
        <ele>377</ele>
        <time>2026-08-23T16:27:50.643Z</time>
      </trkpt>
      <trkpt lat="44.74631" lon="5.14179">
        <ele>377</ele>
        <time>2026-08-23T16:27:51.643Z</time>
      </trkpt>
      <trkpt lat="44.74631" lon="5.14179">
        <ele>377</ele>
        <time>2026-08-23T16:27:52.643Z</time>
      </trkpt>
      <trkpt lat="44.7463" lon="5.14179">
        <ele>377</ele>
        <time>2026-08-23T16:27:53.643Z</time>
      </trkpt>
      <trkpt lat="44.7463" lon="5.14178">
        <ele>377</ele>
        <time>2026-08-23T16:27:54.643Z</time>
      </trkpt>
      <trkpt lat="44.74629" lon="5.14177">
        <ele>378</ele>
        <time>2026-08-23T16:27:55.643Z</time>
      </trkpt>
      <trkpt lat="44.74629" lon="5.14177">
        <ele>378</ele>
        <time>2026-08-23T16:27:56.643Z</time>
      </trkpt>
      <trkpt lat="44.74628" lon="5.14176">
        <ele>378</ele>
        <time>2026-08-23T16:27:57.643Z</time>
      </trkpt>
      <trkpt lat="44.74627" lon="5.14175">
        <ele>377</ele>
        <time>2026-08-23T16:27:58.643Z</time>
      </trkpt>
      <trkpt lat="44.74627" lon="5.14174">
        <ele>377</ele>
        <time>2026-08-23T16:27:59.643Z</time>
      </trkpt>
      <trkpt lat="44.74627" lon="5.14173">
        <ele>377</ele>
        <time>2026-08-23T16:28:00.643Z</time>
      </trkpt>
      <trkpt lat="44.74626" lon="5.14171">
        <ele>377</ele>
        <time>2026-08-23T16:28:01.643Z</time>
      </trkpt>
      <trkpt lat="44.74625" lon="5.1417">
        <ele>377</ele>
        <time>2026-08-23T16:28:02.643Z</time>
      </trkpt>
      <trkpt lat="44.74625" lon="5.14169">
        <ele>377</ele>
        <time>2026-08-23T16:28:03.643Z</time>
      </trkpt>
      <trkpt lat="44.74624" lon="5.14168">
        <ele>377</ele>
        <time>2026-08-23T16:28:04.643Z</time>
      </trkpt>
      <trkpt lat="44.74623" lon="5.14168">
        <ele>377</ele>
        <time>2026-08-23T16:28:05.643Z</time>
      </trkpt>
      <trkpt lat="44.74622" lon="5.14167">
        <ele>377</ele>
        <time>2026-08-23T16:28:06.643Z</time>
      </trkpt>
      <trkpt lat="44.74622" lon="5.14166">
        <ele>377</ele>
        <time>2026-08-23T16:28:07.643Z</time>
      </trkpt>
      <trkpt lat="44.74621" lon="5.14165">
        <ele>377</ele>
        <time>2026-08-23T16:28:08.643Z</time>
      </trkpt>
      <trkpt lat="44.7462" lon="5.14164">
        <ele>377</ele>
        <time>2026-08-23T16:28:09.643Z</time>
      </trkpt>
      <trkpt lat="44.74619" lon="5.14163">
        <ele>377</ele>
        <time>2026-08-23T16:28:10.643Z</time>
      </trkpt>
      <trkpt lat="44.74619" lon="5.14162">
        <ele>377</ele>
        <time>2026-08-23T16:28:11.643Z</time>
      </trkpt>
      <trkpt lat="44.74618" lon="5.14161">
        <ele>377</ele>
        <time>2026-08-23T16:28:12.643Z</time>
      </trkpt>
      <trkpt lat="44.74618" lon="5.14159">
        <ele>377</ele>
        <time>2026-08-23T16:28:13.643Z</time>
      </trkpt>
      <trkpt lat="44.74618" lon="5.14158">
        <ele>377</ele>
        <time>2026-08-23T16:28:14.643Z</time>
      </trkpt>
      <trkpt lat="44.74617" lon="5.14157">
        <ele>377</ele>
        <time>2026-08-23T16:28:15.643Z</time>
      </trkpt>
      <trkpt lat="44.74617" lon="5.14155">
        <ele>377</ele>
        <time>2026-08-23T16:28:16.643Z</time>
      </trkpt>
      <trkpt lat="44.74616" lon="5.14154">
        <ele>377</ele>
        <time>2026-08-23T16:28:17.643Z</time>
      </trkpt>
      <trkpt lat="44.74615" lon="5.14153">
        <ele>377</ele>
        <time>2026-08-23T16:28:18.643Z</time>
      </trkpt>
      <trkpt lat="44.74615" lon="5.14152">
        <ele>376</ele>
        <time>2026-08-23T16:28:19.643Z</time>
      </trkpt>
      <trkpt lat="44.74614" lon="5.14151">
        <ele>376</ele>
        <time>2026-08-23T16:28:20.643Z</time>
      </trkpt>
      <trkpt lat="44.74613" lon="5.1415">
        <ele>376</ele>
        <time>2026-08-23T16:28:21.643Z</time>
      </trkpt>
      <trkpt lat="44.74613" lon="5.14149">
        <ele>376</ele>
        <time>2026-08-23T16:28:22.643Z</time>
      </trkpt>
      <trkpt lat="44.74612" lon="5.14148">
        <ele>376</ele>
        <time>2026-08-23T16:28:23.643Z</time>
      </trkpt>
      <trkpt lat="44.74612" lon="5.14147">
        <ele>376</ele>
        <time>2026-08-23T16:28:24.643Z</time>
      </trkpt>
      <trkpt lat="44.74611" lon="5.14146">
        <ele>376</ele>
        <time>2026-08-23T16:28:25.643Z</time>
      </trkpt>
      <trkpt lat="44.7461" lon="5.14144">
        <ele>376</ele>
        <time>2026-08-23T16:28:26.643Z</time>
      </trkpt>
      <trkpt lat="44.7461" lon="5.14143">
        <ele>376</ele>
        <time>2026-08-23T16:28:27.643Z</time>
      </trkpt>
      <trkpt lat="44.74609" lon="5.14142">
        <ele>376</ele>
        <time>2026-08-23T16:28:28.643Z</time>
      </trkpt>
      <trkpt lat="44.74609" lon="5.14141">
        <ele>376</ele>
        <time>2026-08-23T16:28:29.643Z</time>
      </trkpt>
      <trkpt lat="44.74608" lon="5.1414">
        <ele>375</ele>
        <time>2026-08-23T16:28:30.643Z</time>
      </trkpt>
      <trkpt lat="44.74608" lon="5.14139">
        <ele>375</ele>
        <time>2026-08-23T16:28:31.643Z</time>
      </trkpt>
      <trkpt lat="44.74607" lon="5.14137">
        <ele>375</ele>
        <time>2026-08-23T16:28:32.643Z</time>
      </trkpt>
      <trkpt lat="44.74607" lon="5.14135">
        <ele>375</ele>
        <time>2026-08-23T16:28:33.643Z</time>
      </trkpt>
      <trkpt lat="44.74607" lon="5.14134">
        <ele>375</ele>
        <time>2026-08-23T16:28:34.643Z</time>
      </trkpt>
      <trkpt lat="44.74606" lon="5.14134">
        <ele>375</ele>
        <time>2026-08-23T16:28:35.643Z</time>
      </trkpt>
      <trkpt lat="44.74605" lon="5.14133">
        <ele>375</ele>
        <time>2026-08-23T16:28:36.643Z</time>
      </trkpt>
      <trkpt lat="44.74605" lon="5.14132">
        <ele>375</ele>
        <time>2026-08-23T16:28:37.643Z</time>
      </trkpt>
      <trkpt lat="44.74604" lon="5.14131">
        <ele>375</ele>
        <time>2026-08-23T16:28:38.643Z</time>
      </trkpt>
      <trkpt lat="44.74603" lon="5.14129">
        <ele>375</ele>
        <time>2026-08-23T16:28:39.643Z</time>
      </trkpt>
      <trkpt lat="44.74602" lon="5.14128">
        <ele>375</ele>
        <time>2026-08-23T16:28:40.643Z</time>
      </trkpt>
      <trkpt lat="44.74602" lon="5.14127">
        <ele>374</ele>
        <time>2026-08-23T16:28:41.643Z</time>
      </trkpt>
      <trkpt lat="44.74601" lon="5.14126">
        <ele>374</ele>
        <time>2026-08-23T16:28:42.643Z</time>
      </trkpt>
      <trkpt lat="44.746" lon="5.14124">
        <ele>374</ele>
        <time>2026-08-23T16:28:43.643Z</time>
      </trkpt>
      <trkpt lat="44.746" lon="5.14123">
        <ele>374</ele>
        <time>2026-08-23T16:28:44.643Z</time>
      </trkpt>
      <trkpt lat="44.74599" lon="5.14122">
        <ele>374</ele>
        <time>2026-08-23T16:28:45.643Z</time>
      </trkpt>
      <trkpt lat="44.74598" lon="5.14121">
        <ele>374</ele>
        <time>2026-08-23T16:28:46.643Z</time>
      </trkpt>
      <trkpt lat="44.74598" lon="5.14119">
        <ele>374</ele>
        <time>2026-08-23T16:28:47.643Z</time>
      </trkpt>
      <trkpt lat="44.74597" lon="5.14118">
        <ele>374</ele>
        <time>2026-08-23T16:28:48.643Z</time>
      </trkpt>
      <trkpt lat="44.74596" lon="5.14117">
        <ele>374</ele>
        <time>2026-08-23T16:28:49.643Z</time>
      </trkpt>
      <trkpt lat="44.74595" lon="5.14116">
        <ele>374</ele>
        <time>2026-08-23T16:28:50.643Z</time>
      </trkpt>
      <trkpt lat="44.74595" lon="5.14115">
        <ele>374</ele>
        <time>2026-08-23T16:28:51.643Z</time>
      </trkpt>
      <trkpt lat="44.74594" lon="5.14114">
        <ele>374</ele>
        <time>2026-08-23T16:28:52.643Z</time>
      </trkpt>
      <trkpt lat="44.74593" lon="5.14113">
        <ele>374</ele>
        <time>2026-08-23T16:28:53.643Z</time>
      </trkpt>
      <trkpt lat="44.74592" lon="5.14111">
        <ele>374</ele>
        <time>2026-08-23T16:28:54.643Z</time>
      </trkpt>
      <trkpt lat="44.74591" lon="5.1411">
        <ele>374</ele>
        <time>2026-08-23T16:28:55.643Z</time>
      </trkpt>
      <trkpt lat="44.74591" lon="5.14109">
        <ele>373</ele>
        <time>2026-08-23T16:28:56.643Z</time>
      </trkpt>
      <trkpt lat="44.7459" lon="5.14107">
        <ele>373</ele>
        <time>2026-08-23T16:28:57.643Z</time>
      </trkpt>
      <trkpt lat="44.7459" lon="5.14106">
        <ele>373</ele>
        <time>2026-08-23T16:28:58.643Z</time>
      </trkpt>
      <trkpt lat="44.74589" lon="5.14105">
        <ele>373</ele>
        <time>2026-08-23T16:28:59.643Z</time>
      </trkpt>
      <trkpt lat="44.74588" lon="5.14104">
        <ele>373</ele>
        <time>2026-08-23T16:29:00.643Z</time>
      </trkpt>
      <trkpt lat="44.74587" lon="5.14102">
        <ele>373</ele>
        <time>2026-08-23T16:29:01.643Z</time>
      </trkpt>
      <trkpt lat="44.74586" lon="5.14101">
        <ele>373</ele>
        <time>2026-08-23T16:29:02.643Z</time>
      </trkpt>
      <trkpt lat="44.74586" lon="5.141">
        <ele>373</ele>
        <time>2026-08-23T16:29:03.643Z</time>
      </trkpt>
      <trkpt lat="44.74585" lon="5.14098">
        <ele>373</ele>
        <time>2026-08-23T16:29:04.643Z</time>
      </trkpt>
      <trkpt lat="44.74584" lon="5.14097">
        <ele>373</ele>
        <time>2026-08-23T16:29:05.643Z</time>
      </trkpt>
      <trkpt lat="44.74584" lon="5.14096">
        <ele>372</ele>
        <time>2026-08-23T16:29:06.643Z</time>
      </trkpt>
      <trkpt lat="44.74583" lon="5.14094">
        <ele>372</ele>
        <time>2026-08-23T16:29:07.643Z</time>
      </trkpt>
      <trkpt lat="44.74582" lon="5.14093">
        <ele>372</ele>
        <time>2026-08-23T16:29:08.643Z</time>
      </trkpt>
      <trkpt lat="44.74581" lon="5.14092">
        <ele>372</ele>
        <time>2026-08-23T16:29:09.643Z</time>
      </trkpt>
      <trkpt lat="44.74581" lon="5.14091">
        <ele>372</ele>
        <time>2026-08-23T16:29:10.643Z</time>
      </trkpt>
      <trkpt lat="44.7458" lon="5.14089">
        <ele>372</ele>
        <time>2026-08-23T16:29:11.643Z</time>
      </trkpt>
      <trkpt lat="44.74579" lon="5.14088">
        <ele>372</ele>
        <time>2026-08-23T16:29:12.643Z</time>
      </trkpt>
      <trkpt lat="44.74579" lon="5.14087">
        <ele>372</ele>
        <time>2026-08-23T16:29:13.643Z</time>
      </trkpt>
      <trkpt lat="44.74578" lon="5.14085">
        <ele>371</ele>
        <time>2026-08-23T16:29:14.643Z</time>
      </trkpt>
      <trkpt lat="44.74577" lon="5.14084">
        <ele>371</ele>
        <time>2026-08-23T16:29:15.643Z</time>
      </trkpt>
      <trkpt lat="44.74576" lon="5.14083">
        <ele>371</ele>
        <time>2026-08-23T16:29:16.643Z</time>
      </trkpt>
      <trkpt lat="44.74575" lon="5.14082">
        <ele>371</ele>
        <time>2026-08-23T16:29:17.643Z</time>
      </trkpt>
      <trkpt lat="44.74575" lon="5.1408">
        <ele>371</ele>
        <time>2026-08-23T16:29:18.643Z</time>
      </trkpt>
      <trkpt lat="44.74574" lon="5.14079">
        <ele>371</ele>
        <time>2026-08-23T16:29:19.643Z</time>
      </trkpt>
      <trkpt lat="44.74573" lon="5.14078">
        <ele>371</ele>
        <time>2026-08-23T16:29:20.643Z</time>
      </trkpt>
      <trkpt lat="44.74573" lon="5.14076">
        <ele>371</ele>
        <time>2026-08-23T16:29:21.643Z</time>
      </trkpt>
      <trkpt lat="44.74572" lon="5.14075">
        <ele>371</ele>
        <time>2026-08-23T16:29:22.643Z</time>
      </trkpt>
      <trkpt lat="44.74571" lon="5.14074">
        <ele>371</ele>
        <time>2026-08-23T16:29:23.643Z</time>
      </trkpt>
      <trkpt lat="44.7457" lon="5.14072">
        <ele>370</ele>
        <time>2026-08-23T16:29:24.643Z</time>
      </trkpt>
      <trkpt lat="44.7457" lon="5.14071">
        <ele>370</ele>
        <time>2026-08-23T16:29:25.643Z</time>
      </trkpt>
      <trkpt lat="44.74569" lon="5.14069">
        <ele>370</ele>
        <time>2026-08-23T16:29:26.643Z</time>
      </trkpt>
      <trkpt lat="44.74569" lon="5.14068">
        <ele>370</ele>
        <time>2026-08-23T16:29:27.643Z</time>
      </trkpt>
      <trkpt lat="44.74568" lon="5.14067">
        <ele>370</ele>
        <time>2026-08-23T16:29:28.643Z</time>
      </trkpt>
      <trkpt lat="44.74567" lon="5.14065">
        <ele>370</ele>
        <time>2026-08-23T16:29:29.643Z</time>
      </trkpt>
      <trkpt lat="44.74566" lon="5.14064">
        <ele>370</ele>
        <time>2026-08-23T16:29:30.643Z</time>
      </trkpt>
      <trkpt lat="44.74566" lon="5.14063">
        <ele>370</ele>
        <time>2026-08-23T16:29:31.643Z</time>
      </trkpt>
      <trkpt lat="44.74565" lon="5.14062">
        <ele>370</ele>
        <time>2026-08-23T16:29:32.643Z</time>
      </trkpt>
      <trkpt lat="44.74564" lon="5.1406">
        <ele>370</ele>
        <time>2026-08-23T16:29:33.643Z</time>
      </trkpt>
      <trkpt lat="44.74563" lon="5.14059">
        <ele>370</ele>
        <time>2026-08-23T16:29:34.643Z</time>
      </trkpt>
      <trkpt lat="44.74563" lon="5.14058">
        <ele>370</ele>
        <time>2026-08-23T16:29:35.643Z</time>
      </trkpt>
      <trkpt lat="44.74562" lon="5.14056">
        <ele>370</ele>
        <time>2026-08-23T16:29:36.643Z</time>
      </trkpt>
      <trkpt lat="44.74561" lon="5.14055">
        <ele>370</ele>
        <time>2026-08-23T16:29:37.643Z</time>
      </trkpt>
      <trkpt lat="44.7456" lon="5.14053">
        <ele>370</ele>
        <time>2026-08-23T16:29:38.643Z</time>
      </trkpt>
      <trkpt lat="44.7456" lon="5.14052">
        <ele>370</ele>
        <time>2026-08-23T16:29:39.643Z</time>
      </trkpt>
      <trkpt lat="44.74559" lon="5.14051">
        <ele>370</ele>
        <time>2026-08-23T16:29:40.643Z</time>
      </trkpt>
      <trkpt lat="44.74558" lon="5.14049">
        <ele>370</ele>
        <time>2026-08-23T16:29:41.643Z</time>
      </trkpt>
      <trkpt lat="44.74557" lon="5.14048">
        <ele>370</ele>
        <time>2026-08-23T16:29:42.643Z</time>
      </trkpt>
      <trkpt lat="44.74557" lon="5.14047">
        <ele>370</ele>
        <time>2026-08-23T16:29:43.643Z</time>
      </trkpt>
      <trkpt lat="44.74556" lon="5.14046">
        <ele>370</ele>
        <time>2026-08-23T16:29:44.643Z</time>
      </trkpt>
      <trkpt lat="44.74555" lon="5.14044">
        <ele>370</ele>
        <time>2026-08-23T16:29:45.643Z</time>
      </trkpt>
      <trkpt lat="44.74554" lon="5.14043">
        <ele>369</ele>
        <time>2026-08-23T16:29:46.643Z</time>
      </trkpt>
      <trkpt lat="44.74554" lon="5.14042">
        <ele>369</ele>
        <time>2026-08-23T16:29:47.643Z</time>
      </trkpt>
      <trkpt lat="44.74553" lon="5.1404">
        <ele>369</ele>
        <time>2026-08-23T16:29:48.643Z</time>
      </trkpt>
      <trkpt lat="44.74552" lon="5.14039">
        <ele>369</ele>
        <time>2026-08-23T16:29:49.643Z</time>
      </trkpt>
      <trkpt lat="44.74552" lon="5.14038">
        <ele>369</ele>
        <time>2026-08-23T16:29:50.643Z</time>
      </trkpt>
      <trkpt lat="44.74551" lon="5.14036">
        <ele>369</ele>
        <time>2026-08-23T16:29:51.643Z</time>
      </trkpt>
      <trkpt lat="44.7455" lon="5.14035">
        <ele>369</ele>
        <time>2026-08-23T16:29:52.643Z</time>
      </trkpt>
      <trkpt lat="44.74549" lon="5.14033">
        <ele>369</ele>
        <time>2026-08-23T16:29:53.643Z</time>
      </trkpt>
      <trkpt lat="44.74548" lon="5.14032">
        <ele>369</ele>
        <time>2026-08-23T16:29:54.643Z</time>
      </trkpt>
      <trkpt lat="44.74548" lon="5.1403">
        <ele>369</ele>
        <time>2026-08-23T16:29:55.643Z</time>
      </trkpt>
      <trkpt lat="44.74547" lon="5.14029">
        <ele>369</ele>
        <time>2026-08-23T16:29:56.643Z</time>
      </trkpt>
      <trkpt lat="44.74546" lon="5.14027">
        <ele>369</ele>
        <time>2026-08-23T16:29:57.643Z</time>
      </trkpt>
      <trkpt lat="44.74546" lon="5.14025">
        <ele>368</ele>
        <time>2026-08-23T16:29:58.643Z</time>
      </trkpt>
      <trkpt lat="44.74545" lon="5.14024">
        <ele>368</ele>
        <time>2026-08-23T16:29:59.643Z</time>
      </trkpt>
      <trkpt lat="44.74544" lon="5.14022">
        <ele>368</ele>
        <time>2026-08-23T16:30:00.643Z</time>
      </trkpt>
      <trkpt lat="44.74543" lon="5.1402">
        <ele>368</ele>
        <time>2026-08-23T16:30:01.643Z</time>
      </trkpt>
      <trkpt lat="44.74543" lon="5.14019">
        <ele>368</ele>
        <time>2026-08-23T16:30:02.643Z</time>
      </trkpt>
      <trkpt lat="44.74542" lon="5.14017">
        <ele>368</ele>
        <time>2026-08-23T16:30:03.643Z</time>
      </trkpt>
      <trkpt lat="44.74541" lon="5.14015">
        <ele>368</ele>
        <time>2026-08-23T16:30:04.643Z</time>
      </trkpt>
      <trkpt lat="44.74541" lon="5.14013">
        <ele>367</ele>
        <time>2026-08-23T16:30:05.643Z</time>
      </trkpt>
      <trkpt lat="44.7454" lon="5.14011">
        <ele>367</ele>
        <time>2026-08-23T16:30:06.643Z</time>
      </trkpt>
      <trkpt lat="44.7454" lon="5.14009">
        <ele>367</ele>
        <time>2026-08-23T16:30:07.643Z</time>
      </trkpt>
      <trkpt lat="44.74539" lon="5.14008">
        <ele>367</ele>
        <time>2026-08-23T16:30:08.643Z</time>
      </trkpt>
      <trkpt lat="44.74538" lon="5.14006">
        <ele>367</ele>
        <time>2026-08-23T16:30:09.643Z</time>
      </trkpt>
      <trkpt lat="44.74538" lon="5.14005">
        <ele>367</ele>
        <time>2026-08-23T16:30:10.643Z</time>
      </trkpt>
      <trkpt lat="44.74538" lon="5.14003">
        <ele>367</ele>
        <time>2026-08-23T16:30:11.643Z</time>
      </trkpt>
      <trkpt lat="44.74538" lon="5.14001">
        <ele>367</ele>
        <time>2026-08-23T16:30:12.643Z</time>
      </trkpt>
      <trkpt lat="44.74538" lon="5.14">
        <ele>367</ele>
        <time>2026-08-23T16:30:13.643Z</time>
      </trkpt>
      <trkpt lat="44.74539" lon="5.13999">
        <ele>366</ele>
        <time>2026-08-23T16:30:14.643Z</time>
      </trkpt>
      <trkpt lat="44.74539" lon="5.13998">
        <ele>366</ele>
        <time>2026-08-23T16:30:15.643Z</time>
      </trkpt>
      <trkpt lat="44.74539" lon="5.13997">
        <ele>366</ele>
        <time>2026-08-23T16:30:16.643Z</time>
      </trkpt>
      <trkpt lat="44.74539" lon="5.13997">
        <ele>366</ele>
        <time>2026-08-23T16:30:17.643Z</time>
      </trkpt>
      <trkpt lat="44.74539" lon="5.13997">
        <ele>366</ele>
        <time>2026-08-23T16:30:18.643Z</time>
      </trkpt>
      <trkpt lat="44.74539" lon="5.13997">
        <ele>366</ele>
        <time>2026-08-23T16:30:19.643Z</time>
      </trkpt>
      <trkpt lat="44.74539" lon="5.13994">
        <ele>364</ele>
        <time>2026-08-23T16:30:43.640Z</time>
      </trkpt>
      <trkpt lat="44.74539" lon="5.13994">
        <ele>364</ele>
        <time>2026-08-23T16:30:44.640Z</time>
      </trkpt>
      <trkpt lat="44.74539" lon="5.13993">
        <ele>364</ele>
        <time>2026-08-23T16:30:45.640Z</time>
      </trkpt>
      <trkpt lat="44.74539" lon="5.13991">
        <ele>364</ele>
        <time>2026-08-23T16:30:46.640Z</time>
      </trkpt>
      <trkpt lat="44.74539" lon="5.1399">
        <ele>364</ele>
        <time>2026-08-23T16:30:47.640Z</time>
      </trkpt>
      <trkpt lat="44.74539" lon="5.13988">
        <ele>364</ele>
        <time>2026-08-23T16:30:48.640Z</time>
      </trkpt>
      <trkpt lat="44.74539" lon="5.13987">
        <ele>364</ele>
        <time>2026-08-23T16:30:49.640Z</time>
      </trkpt>
      <trkpt lat="44.74539" lon="5.13985">
        <ele>363</ele>
        <time>2026-08-23T16:30:50.640Z</time>
      </trkpt>
      <trkpt lat="44.74539" lon="5.13983">
        <ele>363</ele>
        <time>2026-08-23T16:30:51.640Z</time>
      </trkpt>
      <trkpt lat="44.74539" lon="5.13982">
        <ele>363</ele>
        <time>2026-08-23T16:30:52.640Z</time>
      </trkpt>
      <trkpt lat="44.7454" lon="5.1398">
        <ele>363</ele>
        <time>2026-08-23T16:30:53.640Z</time>
      </trkpt>
      <trkpt lat="44.7454" lon="5.13978">
        <ele>363</ele>
        <time>2026-08-23T16:30:54.640Z</time>
      </trkpt>
      <trkpt lat="44.7454" lon="5.13977">
        <ele>363</ele>
        <time>2026-08-23T16:30:55.640Z</time>
      </trkpt>
      <trkpt lat="44.7454" lon="5.13975">
        <ele>363</ele>
        <time>2026-08-23T16:30:56.640Z</time>
      </trkpt>
      <trkpt lat="44.7454" lon="5.13973">
        <ele>363</ele>
        <time>2026-08-23T16:30:57.640Z</time>
      </trkpt>
      <trkpt lat="44.7454" lon="5.13971">
        <ele>363</ele>
        <time>2026-08-23T16:30:58.640Z</time>
      </trkpt>
      <trkpt lat="44.7454" lon="5.1397">
        <ele>363</ele>
        <time>2026-08-23T16:30:59.640Z</time>
      </trkpt>
      <trkpt lat="44.7454" lon="5.13968">
        <ele>362</ele>
        <time>2026-08-23T16:31:00.640Z</time>
      </trkpt>
      <trkpt lat="44.7454" lon="5.13967">
        <ele>362</ele>
        <time>2026-08-23T16:31:01.640Z</time>
      </trkpt>
      <trkpt lat="44.7454" lon="5.13967">
        <ele>362</ele>
        <time>2026-08-23T16:31:02.640Z</time>
      </trkpt>
      <trkpt lat="44.7454" lon="5.13967">
        <ele>362</ele>
        <time>2026-08-23T16:31:03.640Z</time>
      </trkpt>
      <trkpt lat="44.7454" lon="5.13966">
        <ele>362</ele>
        <time>2026-08-23T16:31:04.640Z</time>
      </trkpt>
      <trkpt lat="44.7454" lon="5.13966">
        <ele>362</ele>
        <time>2026-08-23T16:31:05.640Z</time>
      </trkpt>
      <trkpt lat="44.7454" lon="5.13965">
        <ele>362</ele>
        <time>2026-08-23T16:31:15.640Z</time>
      </trkpt>
      <trkpt lat="44.7454" lon="5.13963">
        <ele>362</ele>
        <time>2026-08-23T16:31:16.640Z</time>
      </trkpt>
      <trkpt lat="44.7454" lon="5.13962">
        <ele>361</ele>
        <time>2026-08-23T16:31:17.640Z</time>
      </trkpt>
      <trkpt lat="44.7454" lon="5.1396">
        <ele>361</ele>
        <time>2026-08-23T16:31:18.640Z</time>
      </trkpt>
      <trkpt lat="44.7454" lon="5.13958">
        <ele>361</ele>
        <time>2026-08-23T16:31:19.640Z</time>
      </trkpt>
      <trkpt lat="44.7454" lon="5.13957">
        <ele>361</ele>
        <time>2026-08-23T16:31:20.640Z</time>
      </trkpt>
      <trkpt lat="44.7454" lon="5.13955">
        <ele>361</ele>
        <time>2026-08-23T16:31:21.640Z</time>
      </trkpt>
      <trkpt lat="44.7454" lon="5.13954">
        <ele>361</ele>
        <time>2026-08-23T16:31:22.640Z</time>
      </trkpt>
      <trkpt lat="44.7454" lon="5.13952">
        <ele>361</ele>
        <time>2026-08-23T16:31:23.640Z</time>
      </trkpt>
      <trkpt lat="44.7454" lon="5.13951">
        <ele>361</ele>
        <time>2026-08-23T16:31:24.640Z</time>
      </trkpt>
      <trkpt lat="44.7454" lon="5.13949">
        <ele>361</ele>
        <time>2026-08-23T16:31:25.640Z</time>
      </trkpt>
      <trkpt lat="44.7454" lon="5.13948">
        <ele>360</ele>
        <time>2026-08-23T16:31:26.640Z</time>
      </trkpt>
      <trkpt lat="44.7454" lon="5.13947">
        <ele>360</ele>
        <time>2026-08-23T16:31:27.640Z</time>
      </trkpt>
      <trkpt lat="44.7454" lon="5.13945">
        <ele>360</ele>
        <time>2026-08-23T16:31:28.640Z</time>
      </trkpt>
      <trkpt lat="44.7454" lon="5.13944">
        <ele>360</ele>
        <time>2026-08-23T16:31:29.640Z</time>
      </trkpt>
      <trkpt lat="44.7454" lon="5.13942">
        <ele>360</ele>
        <time>2026-08-23T16:31:30.640Z</time>
      </trkpt>
      <trkpt lat="44.7454" lon="5.13941">
        <ele>360</ele>
        <time>2026-08-23T16:31:31.640Z</time>
      </trkpt>
      <trkpt lat="44.7454" lon="5.13939">
        <ele>360</ele>
        <time>2026-08-23T16:31:32.640Z</time>
      </trkpt>
      <trkpt lat="44.7454" lon="5.13938">
        <ele>359</ele>
        <time>2026-08-23T16:31:33.640Z</time>
      </trkpt>
      <trkpt lat="44.7454" lon="5.13936">
        <ele>359</ele>
        <time>2026-08-23T16:31:34.640Z</time>
      </trkpt>
      <trkpt lat="44.7454" lon="5.13935">
        <ele>359</ele>
        <time>2026-08-23T16:31:35.640Z</time>
      </trkpt>
      <trkpt lat="44.7454" lon="5.13933">
        <ele>359</ele>
        <time>2026-08-23T16:31:36.640Z</time>
      </trkpt>
      <trkpt lat="44.7454" lon="5.13932">
        <ele>359</ele>
        <time>2026-08-23T16:31:37.640Z</time>
      </trkpt>
      <trkpt lat="44.7454" lon="5.1393">
        <ele>359</ele>
        <time>2026-08-23T16:31:38.640Z</time>
      </trkpt>
      <trkpt lat="44.74541" lon="5.13929">
        <ele>359</ele>
        <time>2026-08-23T16:31:39.640Z</time>
      </trkpt>
      <trkpt lat="44.74541" lon="5.13927">
        <ele>358</ele>
        <time>2026-08-23T16:31:40.640Z</time>
      </trkpt>
      <trkpt lat="44.74541" lon="5.13925">
        <ele>358</ele>
        <time>2026-08-23T16:31:41.640Z</time>
      </trkpt>
      <trkpt lat="44.74541" lon="5.13924">
        <ele>358</ele>
        <time>2026-08-23T16:31:42.640Z</time>
      </trkpt>
      <trkpt lat="44.74541" lon="5.13922">
        <ele>358</ele>
        <time>2026-08-23T16:31:43.640Z</time>
      </trkpt>
      <trkpt lat="44.74541" lon="5.1392">
        <ele>358</ele>
        <time>2026-08-23T16:31:44.640Z</time>
      </trkpt>
      <trkpt lat="44.74541" lon="5.13919">
        <ele>358</ele>
        <time>2026-08-23T16:31:45.640Z</time>
      </trkpt>
      <trkpt lat="44.74541" lon="5.13917">
        <ele>357</ele>
        <time>2026-08-23T16:31:46.640Z</time>
      </trkpt>
      <trkpt lat="44.74541" lon="5.13916">
        <ele>357</ele>
        <time>2026-08-23T16:31:47.640Z</time>
      </trkpt>
      <trkpt lat="44.74541" lon="5.13914">
        <ele>357</ele>
        <time>2026-08-23T16:31:48.640Z</time>
      </trkpt>
      <trkpt lat="44.74541" lon="5.13913">
        <ele>357</ele>
        <time>2026-08-23T16:31:49.640Z</time>
      </trkpt>
      <trkpt lat="44.74541" lon="5.13911">
        <ele>357</ele>
        <time>2026-08-23T16:31:50.640Z</time>
      </trkpt>
      <trkpt lat="44.74541" lon="5.1391">
        <ele>357</ele>
        <time>2026-08-23T16:31:51.640Z</time>
      </trkpt>
      <trkpt lat="44.74541" lon="5.13908">
        <ele>356</ele>
        <time>2026-08-23T16:31:52.640Z</time>
      </trkpt>
      <trkpt lat="44.74541" lon="5.13906">
        <ele>356</ele>
        <time>2026-08-23T16:31:53.640Z</time>
      </trkpt>
      <trkpt lat="44.74542" lon="5.13905">
        <ele>356</ele>
        <time>2026-08-23T16:31:54.640Z</time>
      </trkpt>
      <trkpt lat="44.74542" lon="5.13903">
        <ele>356</ele>
        <time>2026-08-23T16:31:55.640Z</time>
      </trkpt>
      <trkpt lat="44.74542" lon="5.13901">
        <ele>356</ele>
        <time>2026-08-23T16:31:56.640Z</time>
      </trkpt>
      <trkpt lat="44.74542" lon="5.139">
        <ele>355</ele>
        <time>2026-08-23T16:31:57.640Z</time>
      </trkpt>
      <trkpt lat="44.74542" lon="5.13898">
        <ele>355</ele>
        <time>2026-08-23T16:31:58.640Z</time>
      </trkpt>
      <trkpt lat="44.74542" lon="5.13896">
        <ele>355</ele>
        <time>2026-08-23T16:31:59.640Z</time>
      </trkpt>
      <trkpt lat="44.74542" lon="5.13894">
        <ele>355</ele>
        <time>2026-08-23T16:32:00.640Z</time>
      </trkpt>
      <trkpt lat="44.74542" lon="5.13893">
        <ele>355</ele>
        <time>2026-08-23T16:32:01.640Z</time>
      </trkpt>
      <trkpt lat="44.74542" lon="5.13891">
        <ele>354</ele>
        <time>2026-08-23T16:32:02.640Z</time>
      </trkpt>
      <trkpt lat="44.74542" lon="5.1389">
        <ele>354</ele>
        <time>2026-08-23T16:32:03.640Z</time>
      </trkpt>
      <trkpt lat="44.74542" lon="5.13888">
        <ele>354</ele>
        <time>2026-08-23T16:32:04.640Z</time>
      </trkpt>
      <trkpt lat="44.74542" lon="5.13886">
        <ele>354</ele>
        <time>2026-08-23T16:32:05.640Z</time>
      </trkpt>
      <trkpt lat="44.74542" lon="5.13885">
        <ele>354</ele>
        <time>2026-08-23T16:32:06.640Z</time>
      </trkpt>
      <trkpt lat="44.74542" lon="5.13883">
        <ele>354</ele>
        <time>2026-08-23T16:32:07.640Z</time>
      </trkpt>
      <trkpt lat="44.74542" lon="5.13882">
        <ele>353</ele>
        <time>2026-08-23T16:32:08.640Z</time>
      </trkpt>
      <trkpt lat="44.74542" lon="5.1388">
        <ele>353</ele>
        <time>2026-08-23T16:32:09.640Z</time>
      </trkpt>
      <trkpt lat="44.74543" lon="5.13879">
        <ele>353</ele>
        <time>2026-08-23T16:32:10.640Z</time>
      </trkpt>
      <trkpt lat="44.74543" lon="5.13877">
        <ele>353</ele>
        <time>2026-08-23T16:32:11.640Z</time>
      </trkpt>
      <trkpt lat="44.74543" lon="5.13875">
        <ele>353</ele>
        <time>2026-08-23T16:32:12.640Z</time>
      </trkpt>
      <trkpt lat="44.74543" lon="5.13874">
        <ele>353</ele>
        <time>2026-08-23T16:32:13.640Z</time>
      </trkpt>
      <trkpt lat="44.74543" lon="5.13872">
        <ele>352</ele>
        <time>2026-08-23T16:32:14.640Z</time>
      </trkpt>
      <trkpt lat="44.74543" lon="5.1387">
        <ele>352</ele>
        <time>2026-08-23T16:32:15.640Z</time>
      </trkpt>
      <trkpt lat="44.74543" lon="5.13869">
        <ele>352</ele>
        <time>2026-08-23T16:32:16.640Z</time>
      </trkpt>
      <trkpt lat="44.74543" lon="5.13867">
        <ele>352</ele>
        <time>2026-08-23T16:32:17.640Z</time>
      </trkpt>
      <trkpt lat="44.74544" lon="5.13866">
        <ele>352</ele>
        <time>2026-08-23T16:32:18.640Z</time>
      </trkpt>
      <trkpt lat="44.74544" lon="5.13864">
        <ele>352</ele>
        <time>2026-08-23T16:32:19.640Z</time>
      </trkpt>
      <trkpt lat="44.74544" lon="5.13862">
        <ele>352</ele>
        <time>2026-08-23T16:32:20.640Z</time>
      </trkpt>
      <trkpt lat="44.74544" lon="5.13861">
        <ele>351</ele>
        <time>2026-08-23T16:32:21.640Z</time>
      </trkpt>
      <trkpt lat="44.74544" lon="5.13859">
        <ele>351</ele>
        <time>2026-08-23T16:32:22.640Z</time>
      </trkpt>
      <trkpt lat="44.74544" lon="5.13857">
        <ele>351</ele>
        <time>2026-08-23T16:32:23.640Z</time>
      </trkpt>
      <trkpt lat="44.74544" lon="5.13856">
        <ele>351</ele>
        <time>2026-08-23T16:32:24.640Z</time>
      </trkpt>
      <trkpt lat="44.74544" lon="5.13854">
        <ele>351</ele>
        <time>2026-08-23T16:32:25.640Z</time>
      </trkpt>
      <trkpt lat="44.74544" lon="5.13852">
        <ele>351</ele>
        <time>2026-08-23T16:32:26.640Z</time>
      </trkpt>
      <trkpt lat="44.74544" lon="5.13851">
        <ele>350</ele>
        <time>2026-08-23T16:32:27.640Z</time>
      </trkpt>
      <trkpt lat="44.74544" lon="5.13849">
        <ele>350</ele>
        <time>2026-08-23T16:32:28.640Z</time>
      </trkpt>
      <trkpt lat="44.74544" lon="5.13847">
        <ele>350</ele>
        <time>2026-08-23T16:32:29.640Z</time>
      </trkpt>
      <trkpt lat="44.74544" lon="5.13845">
        <ele>350</ele>
        <time>2026-08-23T16:32:30.640Z</time>
      </trkpt>
      <trkpt lat="44.74544" lon="5.13844">
        <ele>350</ele>
        <time>2026-08-23T16:32:31.640Z</time>
      </trkpt>
      <trkpt lat="44.74544" lon="5.13842">
        <ele>350</ele>
        <time>2026-08-23T16:32:32.640Z</time>
      </trkpt>
      <trkpt lat="44.74545" lon="5.13841">
        <ele>349</ele>
        <time>2026-08-23T16:32:33.640Z</time>
      </trkpt>
      <trkpt lat="44.74545" lon="5.13839">
        <ele>349</ele>
        <time>2026-08-23T16:32:34.640Z</time>
      </trkpt>
      <trkpt lat="44.74545" lon="5.13837">
        <ele>349</ele>
        <time>2026-08-23T16:32:35.640Z</time>
      </trkpt>
      <trkpt lat="44.74545" lon="5.13836">
        <ele>349</ele>
        <time>2026-08-23T16:32:36.640Z</time>
      </trkpt>
      <trkpt lat="44.74545" lon="5.13834">
        <ele>348</ele>
        <time>2026-08-23T16:32:37.640Z</time>
      </trkpt>
      <trkpt lat="44.74545" lon="5.13833">
        <ele>348</ele>
        <time>2026-08-23T16:32:38.640Z</time>
      </trkpt>
      <trkpt lat="44.74545" lon="5.13831">
        <ele>348</ele>
        <time>2026-08-23T16:32:39.640Z</time>
      </trkpt>
      <trkpt lat="44.74545" lon="5.1383">
        <ele>347</ele>
        <time>2026-08-23T16:32:40.640Z</time>
      </trkpt>
      <trkpt lat="44.74545" lon="5.13828">
        <ele>347</ele>
        <time>2026-08-23T16:32:41.640Z</time>
      </trkpt>
      <trkpt lat="44.74545" lon="5.13826">
        <ele>347</ele>
        <time>2026-08-23T16:32:42.640Z</time>
      </trkpt>
      <trkpt lat="44.74545" lon="5.13825">
        <ele>347</ele>
        <time>2026-08-23T16:32:43.640Z</time>
      </trkpt>
      <trkpt lat="44.74545" lon="5.13823">
        <ele>347</ele>
        <time>2026-08-23T16:32:44.640Z</time>
      </trkpt>
      <trkpt lat="44.74545" lon="5.13822">
        <ele>347</ele>
        <time>2026-08-23T16:32:45.640Z</time>
      </trkpt>
      <trkpt lat="44.74545" lon="5.1382">
        <ele>347</ele>
        <time>2026-08-23T16:32:46.640Z</time>
      </trkpt>
      <trkpt lat="44.74545" lon="5.13819">
        <ele>346</ele>
        <time>2026-08-23T16:32:47.640Z</time>
      </trkpt>
      <trkpt lat="44.74545" lon="5.13817">
        <ele>346</ele>
        <time>2026-08-23T16:32:48.640Z</time>
      </trkpt>
      <trkpt lat="44.74545" lon="5.13815">
        <ele>346</ele>
        <time>2026-08-23T16:32:49.640Z</time>
      </trkpt>
      <trkpt lat="44.74546" lon="5.13813">
        <ele>346</ele>
        <time>2026-08-23T16:32:50.640Z</time>
      </trkpt>
      <trkpt lat="44.74546" lon="5.13812">
        <ele>346</ele>
        <time>2026-08-23T16:32:51.640Z</time>
      </trkpt>
      <trkpt lat="44.74546" lon="5.1381">
        <ele>346</ele>
        <time>2026-08-23T16:32:52.640Z</time>
      </trkpt>
      <trkpt lat="44.74546" lon="5.13808">
        <ele>346</ele>
        <time>2026-08-23T16:32:53.640Z</time>
      </trkpt>
      <trkpt lat="44.74546" lon="5.13807">
        <ele>346</ele>
        <time>2026-08-23T16:32:54.640Z</time>
      </trkpt>
      <trkpt lat="44.74546" lon="5.13805">
        <ele>345</ele>
        <time>2026-08-23T16:32:55.640Z</time>
      </trkpt>
      <trkpt lat="44.74546" lon="5.13803">
        <ele>345</ele>
        <time>2026-08-23T16:32:56.640Z</time>
      </trkpt>
      <trkpt lat="44.74546" lon="5.13801">
        <ele>345</ele>
        <time>2026-08-23T16:32:57.640Z</time>
      </trkpt>
      <trkpt lat="44.74546" lon="5.13799">
        <ele>345</ele>
        <time>2026-08-23T16:32:58.640Z</time>
      </trkpt>
      <trkpt lat="44.74546" lon="5.13797">
        <ele>345</ele>
        <time>2026-08-23T16:32:59.640Z</time>
      </trkpt>
      <trkpt lat="44.74546" lon="5.13795">
        <ele>345</ele>
        <time>2026-08-23T16:33:00.640Z</time>
      </trkpt>
      <trkpt lat="44.74546" lon="5.13793">
        <ele>345</ele>
        <time>2026-08-23T16:33:01.640Z</time>
      </trkpt>
      <trkpt lat="44.74546" lon="5.13792">
        <ele>345</ele>
        <time>2026-08-23T16:33:02.640Z</time>
      </trkpt>
      <trkpt lat="44.74546" lon="5.1379">
        <ele>344</ele>
        <time>2026-08-23T16:33:03.640Z</time>
      </trkpt>
      <trkpt lat="44.74546" lon="5.13788">
        <ele>344</ele>
        <time>2026-08-23T16:33:04.640Z</time>
      </trkpt>
      <trkpt lat="44.74546" lon="5.13786">
        <ele>344</ele>
        <time>2026-08-23T16:33:05.640Z</time>
      </trkpt>
      <trkpt lat="44.74546" lon="5.13785">
        <ele>344</ele>
        <time>2026-08-23T16:33:06.640Z</time>
      </trkpt>
      <trkpt lat="44.74546" lon="5.13783">
        <ele>344</ele>
        <time>2026-08-23T16:33:07.640Z</time>
      </trkpt>
      <trkpt lat="44.74546" lon="5.13781">
        <ele>344</ele>
        <time>2026-08-23T16:33:08.640Z</time>
      </trkpt>
      <trkpt lat="44.74546" lon="5.1378">
        <ele>343</ele>
        <time>2026-08-23T16:33:09.640Z</time>
      </trkpt>
      <trkpt lat="44.74546" lon="5.13778">
        <ele>343</ele>
        <time>2026-08-23T16:33:10.640Z</time>
      </trkpt>
      <trkpt lat="44.74546" lon="5.13777">
        <ele>343</ele>
        <time>2026-08-23T16:33:11.640Z</time>
      </trkpt>
      <trkpt lat="44.74547" lon="5.13775">
        <ele>343</ele>
        <time>2026-08-23T16:33:12.640Z</time>
      </trkpt>
      <trkpt lat="44.74546" lon="5.13773">
        <ele>343</ele>
        <time>2026-08-23T16:33:13.640Z</time>
      </trkpt>
      <trkpt lat="44.74546" lon="5.13772">
        <ele>343</ele>
        <time>2026-08-23T16:33:14.640Z</time>
      </trkpt>
      <trkpt lat="44.74546" lon="5.1377">
        <ele>343</ele>
        <time>2026-08-23T16:33:15.640Z</time>
      </trkpt>
      <trkpt lat="44.74546" lon="5.13768">
        <ele>342</ele>
        <time>2026-08-23T16:33:16.640Z</time>
      </trkpt>
      <trkpt lat="44.74546" lon="5.13767">
        <ele>342</ele>
        <time>2026-08-23T16:33:17.640Z</time>
      </trkpt>
      <trkpt lat="44.74546" lon="5.13765">
        <ele>342</ele>
        <time>2026-08-23T16:33:18.640Z</time>
      </trkpt>
      <trkpt lat="44.74546" lon="5.13763">
        <ele>342</ele>
        <time>2026-08-23T16:33:19.640Z</time>
      </trkpt>
      <trkpt lat="44.74546" lon="5.13761">
        <ele>342</ele>
        <time>2026-08-23T16:33:20.640Z</time>
      </trkpt>
      <trkpt lat="44.74546" lon="5.1376">
        <ele>342</ele>
        <time>2026-08-23T16:33:21.640Z</time>
      </trkpt>
      <trkpt lat="44.74546" lon="5.13758">
        <ele>342</ele>
        <time>2026-08-23T16:33:22.640Z</time>
      </trkpt>
      <trkpt lat="44.74546" lon="5.13756">
        <ele>342</ele>
        <time>2026-08-23T16:33:23.640Z</time>
      </trkpt>
      <trkpt lat="44.74546" lon="5.13755">
        <ele>342</ele>
        <time>2026-08-23T16:33:24.640Z</time>
      </trkpt>
      <trkpt lat="44.74546" lon="5.13753">
        <ele>341</ele>
        <time>2026-08-23T16:33:25.640Z</time>
      </trkpt>
      <trkpt lat="44.74546" lon="5.13751">
        <ele>341</ele>
        <time>2026-08-23T16:33:26.640Z</time>
      </trkpt>
      <trkpt lat="44.74545" lon="5.13749">
        <ele>341</ele>
        <time>2026-08-23T16:33:27.640Z</time>
      </trkpt>
      <trkpt lat="44.74545" lon="5.13748">
        <ele>341</ele>
        <time>2026-08-23T16:33:28.640Z</time>
      </trkpt>
      <trkpt lat="44.74545" lon="5.13746">
        <ele>341</ele>
        <time>2026-08-23T16:33:29.640Z</time>
      </trkpt>
      <trkpt lat="44.74544" lon="5.13745">
        <ele>341</ele>
        <time>2026-08-23T16:33:30.640Z</time>
      </trkpt>
      <trkpt lat="44.74544" lon="5.13743">
        <ele>341</ele>
        <time>2026-08-23T16:33:31.640Z</time>
      </trkpt>
      <trkpt lat="44.74544" lon="5.13741">
        <ele>341</ele>
        <time>2026-08-23T16:33:32.640Z</time>
      </trkpt>
      <trkpt lat="44.74543" lon="5.13739">
        <ele>341</ele>
        <time>2026-08-23T16:33:33.640Z</time>
      </trkpt>
      <trkpt lat="44.74542" lon="5.13738">
        <ele>341</ele>
        <time>2026-08-23T16:33:34.640Z</time>
      </trkpt>
      <trkpt lat="44.74542" lon="5.13737">
        <ele>341</ele>
        <time>2026-08-23T16:33:35.640Z</time>
      </trkpt>
      <trkpt lat="44.74541" lon="5.13736">
        <ele>341</ele>
        <time>2026-08-23T16:33:36.640Z</time>
      </trkpt>
      <trkpt lat="44.7454" lon="5.13735">
        <ele>341</ele>
        <time>2026-08-23T16:33:37.640Z</time>
      </trkpt>
      <trkpt lat="44.74539" lon="5.13734">
        <ele>341</ele>
        <time>2026-08-23T16:33:38.640Z</time>
      </trkpt>
      <trkpt lat="44.74537" lon="5.13734">
        <ele>340</ele>
        <time>2026-08-23T16:33:39.640Z</time>
      </trkpt>
      <trkpt lat="44.74536" lon="5.13733">
        <ele>340</ele>
        <time>2026-08-23T16:33:40.640Z</time>
      </trkpt>
      <trkpt lat="44.74535" lon="5.13733">
        <ele>340</ele>
        <time>2026-08-23T16:33:41.640Z</time>
      </trkpt>
      <trkpt lat="44.74534" lon="5.13733">
        <ele>340</ele>
        <time>2026-08-23T16:33:42.640Z</time>
      </trkpt>
      <trkpt lat="44.74533" lon="5.13733">
        <ele>340</ele>
        <time>2026-08-23T16:33:43.640Z</time>
      </trkpt>
      <trkpt lat="44.74531" lon="5.13734">
        <ele>340</ele>
        <time>2026-08-23T16:33:44.640Z</time>
      </trkpt>
      <trkpt lat="44.7453" lon="5.13734">
        <ele>340</ele>
        <time>2026-08-23T16:33:45.640Z</time>
      </trkpt>
      <trkpt lat="44.74529" lon="5.13734">
        <ele>340</ele>
        <time>2026-08-23T16:33:46.640Z</time>
      </trkpt>
      <trkpt lat="44.74528" lon="5.13734">
        <ele>340</ele>
        <time>2026-08-23T16:33:47.640Z</time>
      </trkpt>
      <trkpt lat="44.74527" lon="5.13734">
        <ele>340</ele>
        <time>2026-08-23T16:33:48.640Z</time>
      </trkpt>
      <trkpt lat="44.74525" lon="5.13735">
        <ele>340</ele>
        <time>2026-08-23T16:33:49.640Z</time>
      </trkpt>
      <trkpt lat="44.74524" lon="5.13735">
        <ele>340</ele>
        <time>2026-08-23T16:33:50.640Z</time>
      </trkpt>
      <trkpt lat="44.74523" lon="5.13736">
        <ele>340</ele>
        <time>2026-08-23T16:33:51.640Z</time>
      </trkpt>
      <trkpt lat="44.74522" lon="5.13736">
        <ele>340</ele>
        <time>2026-08-23T16:33:52.640Z</time>
      </trkpt>
      <trkpt lat="44.74521" lon="5.13737">
        <ele>340</ele>
        <time>2026-08-23T16:33:53.640Z</time>
      </trkpt>
      <trkpt lat="44.74519" lon="5.13737">
        <ele>340</ele>
        <time>2026-08-23T16:33:54.640Z</time>
      </trkpt>
      <trkpt lat="44.74518" lon="5.13737">
        <ele>340</ele>
        <time>2026-08-23T16:33:55.640Z</time>
      </trkpt>
      <trkpt lat="44.74517" lon="5.13738">
        <ele>340</ele>
        <time>2026-08-23T16:33:56.640Z</time>
      </trkpt>
      <trkpt lat="44.74516" lon="5.13738">
        <ele>340</ele>
        <time>2026-08-23T16:33:57.640Z</time>
      </trkpt>
      <trkpt lat="44.74514" lon="5.13738">
        <ele>340</ele>
        <time>2026-08-23T16:33:58.640Z</time>
      </trkpt>
      <trkpt lat="44.74513" lon="5.13738">
        <ele>340</ele>
        <time>2026-08-23T16:33:59.640Z</time>
      </trkpt>
      <trkpt lat="44.74512" lon="5.13739">
        <ele>340</ele>
        <time>2026-08-23T16:34:00.640Z</time>
      </trkpt>
      <trkpt lat="44.74511" lon="5.13739">
        <ele>340</ele>
        <time>2026-08-23T16:34:01.640Z</time>
      </trkpt>
      <trkpt lat="44.7451" lon="5.13739">
        <ele>340</ele>
        <time>2026-08-23T16:34:02.640Z</time>
      </trkpt>
      <trkpt lat="44.74508" lon="5.1374">
        <ele>340</ele>
        <time>2026-08-23T16:34:03.640Z</time>
      </trkpt>
      <trkpt lat="44.74507" lon="5.1374">
        <ele>340</ele>
        <time>2026-08-23T16:34:04.640Z</time>
      </trkpt>
      <trkpt lat="44.74506" lon="5.1374">
        <ele>340</ele>
        <time>2026-08-23T16:34:05.640Z</time>
      </trkpt>
      <trkpt lat="44.74505" lon="5.1374">
        <ele>340</ele>
        <time>2026-08-23T16:34:06.640Z</time>
      </trkpt>
      <trkpt lat="44.74504" lon="5.13741">
        <ele>340</ele>
        <time>2026-08-23T16:34:07.640Z</time>
      </trkpt>
      <trkpt lat="44.74503" lon="5.13741">
        <ele>340</ele>
        <time>2026-08-23T16:34:08.640Z</time>
      </trkpt>
      <trkpt lat="44.74501" lon="5.13742">
        <ele>340</ele>
        <time>2026-08-23T16:34:09.640Z</time>
      </trkpt>
      <trkpt lat="44.745" lon="5.13742">
        <ele>340</ele>
        <time>2026-08-23T16:34:10.640Z</time>
      </trkpt>
      <trkpt lat="44.74499" lon="5.13743">
        <ele>340</ele>
        <time>2026-08-23T16:34:11.640Z</time>
      </trkpt>
      <trkpt lat="44.74499" lon="5.13743">
        <ele>340</ele>
        <time>2026-08-23T16:34:12.640Z</time>
      </trkpt>
      <trkpt lat="44.74499" lon="5.13743">
        <ele>340</ele>
        <time>2026-08-23T16:34:13.640Z</time>
      </trkpt>
      <trkpt lat="44.74498" lon="5.13743">
        <ele>340</ele>
        <time>2026-08-23T16:34:14.640Z</time>
      </trkpt>
      <trkpt lat="44.74498" lon="5.13743">
        <ele>340</ele>
        <time>2026-08-23T16:34:15.640Z</time>
      </trkpt>
      <trkpt lat="44.74496" lon="5.13744">
        <ele>339</ele>
        <time>2026-08-23T16:34:16.640Z</time>
      </trkpt>
      <trkpt lat="44.74495" lon="5.13745">
        <ele>339</ele>
        <time>2026-08-23T16:34:17.640Z</time>
      </trkpt>
      <trkpt lat="44.74494" lon="5.13745">
        <ele>339</ele>
        <time>2026-08-23T16:34:18.640Z</time>
      </trkpt>
      <trkpt lat="44.74493" lon="5.13746">
        <ele>339</ele>
        <time>2026-08-23T16:34:19.640Z</time>
      </trkpt>
      <trkpt lat="44.74492" lon="5.13747">
        <ele>339</ele>
        <time>2026-08-23T16:34:20.640Z</time>
      </trkpt>
      <trkpt lat="44.74491" lon="5.13748">
        <ele>339</ele>
        <time>2026-08-23T16:34:21.640Z</time>
      </trkpt>
      <trkpt lat="44.7449" lon="5.13748">
        <ele>339</ele>
        <time>2026-08-23T16:34:22.640Z</time>
      </trkpt>
      <trkpt lat="44.74489" lon="5.13749">
        <ele>339</ele>
        <time>2026-08-23T16:34:23.640Z</time>
      </trkpt>
      <trkpt lat="44.74488" lon="5.1375">
        <ele>339</ele>
        <time>2026-08-23T16:34:24.640Z</time>
      </trkpt>
      <trkpt lat="44.74487" lon="5.13751">
        <ele>339</ele>
        <time>2026-08-23T16:34:25.640Z</time>
      </trkpt>
      <trkpt lat="44.74486" lon="5.13752">
        <ele>339</ele>
        <time>2026-08-23T16:34:26.640Z</time>
      </trkpt>
      <trkpt lat="44.74485" lon="5.13753">
        <ele>339</ele>
        <time>2026-08-23T16:34:27.640Z</time>
      </trkpt>
      <trkpt lat="44.74484" lon="5.13754">
        <ele>339</ele>
        <time>2026-08-23T16:34:28.640Z</time>
      </trkpt>
      <trkpt lat="44.74483" lon="5.13755">
        <ele>339</ele>
        <time>2026-08-23T16:34:29.640Z</time>
      </trkpt>
      <trkpt lat="44.74482" lon="5.13756">
        <ele>340</ele>
        <time>2026-08-23T16:34:30.640Z</time>
      </trkpt>
      <trkpt lat="44.74481" lon="5.13757">
        <ele>340</ele>
        <time>2026-08-23T16:34:31.640Z</time>
      </trkpt>
      <trkpt lat="44.7448" lon="5.13758">
        <ele>339</ele>
        <time>2026-08-23T16:34:32.640Z</time>
      </trkpt>
      <trkpt lat="44.74479" lon="5.13759">
        <ele>340</ele>
        <time>2026-08-23T16:34:33.640Z</time>
      </trkpt>
      <trkpt lat="44.74478" lon="5.1376">
        <ele>340</ele>
        <time>2026-08-23T16:34:34.640Z</time>
      </trkpt>
      <trkpt lat="44.74477" lon="5.13761">
        <ele>340</ele>
        <time>2026-08-23T16:34:35.640Z</time>
      </trkpt>
      <trkpt lat="44.74476" lon="5.13762">
        <ele>340</ele>
        <time>2026-08-23T16:34:36.640Z</time>
      </trkpt>
      <trkpt lat="44.74475" lon="5.13763">
        <ele>339</ele>
        <time>2026-08-23T16:34:37.640Z</time>
      </trkpt>
      <trkpt lat="44.74474" lon="5.13764">
        <ele>340</ele>
        <time>2026-08-23T16:34:38.640Z</time>
      </trkpt>
      <trkpt lat="44.74473" lon="5.13765">
        <ele>340</ele>
        <time>2026-08-23T16:34:39.640Z</time>
      </trkpt>
      <trkpt lat="44.74472" lon="5.13766">
        <ele>340</ele>
        <time>2026-08-23T16:34:40.640Z</time>
      </trkpt>
      <trkpt lat="44.74471" lon="5.13767">
        <ele>340</ele>
        <time>2026-08-23T16:34:41.640Z</time>
      </trkpt>
      <trkpt lat="44.7447" lon="5.13768">
        <ele>340</ele>
        <time>2026-08-23T16:34:42.640Z</time>
      </trkpt>
      <trkpt lat="44.74469" lon="5.13769">
        <ele>340</ele>
        <time>2026-08-23T16:34:43.640Z</time>
      </trkpt>
      <trkpt lat="44.74468" lon="5.1377">
        <ele>340</ele>
        <time>2026-08-23T16:34:44.640Z</time>
      </trkpt>
      <trkpt lat="44.74467" lon="5.13771">
        <ele>340</ele>
        <time>2026-08-23T16:34:45.640Z</time>
      </trkpt>
      <trkpt lat="44.74466" lon="5.13772">
        <ele>340</ele>
        <time>2026-08-23T16:34:46.640Z</time>
      </trkpt>
      <trkpt lat="44.74465" lon="5.13774">
        <ele>340</ele>
        <time>2026-08-23T16:34:47.640Z</time>
      </trkpt>
      <trkpt lat="44.74464" lon="5.13775">
        <ele>340</ele>
        <time>2026-08-23T16:34:48.640Z</time>
      </trkpt>
      <trkpt lat="44.74463" lon="5.13776">
        <ele>340</ele>
        <time>2026-08-23T16:34:49.640Z</time>
      </trkpt>
      <trkpt lat="44.74462" lon="5.13777">
        <ele>340</ele>
        <time>2026-08-23T16:34:50.640Z</time>
      </trkpt>
      <trkpt lat="44.74461" lon="5.13778">
        <ele>340</ele>
        <time>2026-08-23T16:34:51.640Z</time>
      </trkpt>
      <trkpt lat="44.7446" lon="5.13779">
        <ele>340</ele>
        <time>2026-08-23T16:34:52.640Z</time>
      </trkpt>
      <trkpt lat="44.74459" lon="5.1378">
        <ele>340</ele>
        <time>2026-08-23T16:34:53.640Z</time>
      </trkpt>
      <trkpt lat="44.74458" lon="5.13781">
        <ele>340</ele>
        <time>2026-08-23T16:34:54.640Z</time>
      </trkpt>
      <trkpt lat="44.74457" lon="5.13782">
        <ele>340</ele>
        <time>2026-08-23T16:34:55.640Z</time>
      </trkpt>
      <trkpt lat="44.74456" lon="5.13783">
        <ele>340</ele>
        <time>2026-08-23T16:34:56.640Z</time>
      </trkpt>
      <trkpt lat="44.74455" lon="5.13784">
        <ele>340</ele>
        <time>2026-08-23T16:34:57.640Z</time>
      </trkpt>
      <trkpt lat="44.74454" lon="5.13785">
        <ele>340</ele>
        <time>2026-08-23T16:34:58.640Z</time>
      </trkpt>
      <trkpt lat="44.74453" lon="5.13786">
        <ele>340</ele>
        <time>2026-08-23T16:34:59.640Z</time>
      </trkpt>
      <trkpt lat="44.74452" lon="5.13787">
        <ele>340</ele>
        <time>2026-08-23T16:35:00.640Z</time>
      </trkpt>
      <trkpt lat="44.74451" lon="5.13788">
        <ele>340</ele>
        <time>2026-08-23T16:35:01.640Z</time>
      </trkpt>
      <trkpt lat="44.7445" lon="5.13789">
        <ele>340</ele>
        <time>2026-08-23T16:35:02.640Z</time>
      </trkpt>
      <trkpt lat="44.74449" lon="5.1379">
        <ele>340</ele>
        <time>2026-08-23T16:35:03.640Z</time>
      </trkpt>
      <trkpt lat="44.74448" lon="5.13791">
        <ele>340</ele>
        <time>2026-08-23T16:35:04.640Z</time>
      </trkpt>
      <trkpt lat="44.74447" lon="5.13792">
        <ele>340</ele>
        <time>2026-08-23T16:35:05.640Z</time>
      </trkpt>
      <trkpt lat="44.74446" lon="5.13793">
        <ele>340</ele>
        <time>2026-08-23T16:35:06.640Z</time>
      </trkpt>
      <trkpt lat="44.74445" lon="5.13795">
        <ele>340</ele>
        <time>2026-08-23T16:35:07.640Z</time>
      </trkpt>
      <trkpt lat="44.74444" lon="5.13796">
        <ele>340</ele>
        <time>2026-08-23T16:35:08.640Z</time>
      </trkpt>
      <trkpt lat="44.74443" lon="5.13797">
        <ele>340</ele>
        <time>2026-08-23T16:35:09.640Z</time>
      </trkpt>
      <trkpt lat="44.74442" lon="5.13798">
        <ele>340</ele>
        <time>2026-08-23T16:35:10.640Z</time>
      </trkpt>
      <trkpt lat="44.74441" lon="5.13799">
        <ele>340</ele>
        <time>2026-08-23T16:35:11.640Z</time>
      </trkpt>
      <trkpt lat="44.74441" lon="5.138">
        <ele>339</ele>
        <time>2026-08-23T16:35:12.640Z</time>
      </trkpt>
      <trkpt lat="44.74439" lon="5.13801">
        <ele>339</ele>
        <time>2026-08-23T16:35:13.640Z</time>
      </trkpt>
      <trkpt lat="44.74439" lon="5.13801">
        <ele>339</ele>
        <time>2026-08-23T16:35:14.640Z</time>
      </trkpt>
      <trkpt lat="44.74438" lon="5.13802">
        <ele>339</ele>
        <time>2026-08-23T16:35:15.640Z</time>
      </trkpt>
      <trkpt lat="44.74437" lon="5.13803">
        <ele>339</ele>
        <time>2026-08-23T16:35:16.640Z</time>
      </trkpt>
      <trkpt lat="44.74436" lon="5.13804">
        <ele>339</ele>
        <time>2026-08-23T16:35:17.640Z</time>
      </trkpt>
      <trkpt lat="44.74435" lon="5.13805">
        <ele>339</ele>
        <time>2026-08-23T16:35:18.640Z</time>
      </trkpt>
      <trkpt lat="44.74434" lon="5.13806">
        <ele>339</ele>
        <time>2026-08-23T16:35:19.640Z</time>
      </trkpt>
      <trkpt lat="44.74433" lon="5.13807">
        <ele>339</ele>
        <time>2026-08-23T16:35:20.640Z</time>
      </trkpt>
      <trkpt lat="44.74432" lon="5.13808">
        <ele>339</ele>
        <time>2026-08-23T16:35:21.640Z</time>
      </trkpt>
      <trkpt lat="44.74431" lon="5.13809">
        <ele>339</ele>
        <time>2026-08-23T16:35:22.640Z</time>
      </trkpt>
      <trkpt lat="44.7443" lon="5.1381">
        <ele>339</ele>
        <time>2026-08-23T16:35:23.640Z</time>
      </trkpt>
      <trkpt lat="44.74429" lon="5.13811">
        <ele>339</ele>
        <time>2026-08-23T16:35:24.640Z</time>
      </trkpt>
      <trkpt lat="44.74428" lon="5.13812">
        <ele>339</ele>
        <time>2026-08-23T16:35:25.640Z</time>
      </trkpt>
      <trkpt lat="44.74428" lon="5.13813">
        <ele>339</ele>
        <time>2026-08-23T16:35:26.640Z</time>
      </trkpt>
      <trkpt lat="44.74427" lon="5.13814">
        <ele>339</ele>
        <time>2026-08-23T16:35:27.640Z</time>
      </trkpt>
      <trkpt lat="44.74426" lon="5.13814">
        <ele>339</ele>
        <time>2026-08-23T16:35:28.640Z</time>
      </trkpt>
      <trkpt lat="44.74425" lon="5.13815">
        <ele>339</ele>
        <time>2026-08-23T16:35:29.640Z</time>
      </trkpt>
      <trkpt lat="44.74424" lon="5.13816">
        <ele>339</ele>
        <time>2026-08-23T16:35:30.640Z</time>
      </trkpt>
      <trkpt lat="44.74423" lon="5.13817">
        <ele>339</ele>
        <time>2026-08-23T16:35:31.640Z</time>
      </trkpt>
      <trkpt lat="44.74423" lon="5.13818">
        <ele>339</ele>
        <time>2026-08-23T16:35:32.640Z</time>
      </trkpt>
      <trkpt lat="44.74422" lon="5.13819">
        <ele>339</ele>
        <time>2026-08-23T16:35:33.640Z</time>
      </trkpt>
      <trkpt lat="44.74421" lon="5.1382">
        <ele>338</ele>
        <time>2026-08-23T16:35:34.640Z</time>
      </trkpt>
      <trkpt lat="44.7442" lon="5.13821">
        <ele>338</ele>
        <time>2026-08-23T16:35:35.640Z</time>
      </trkpt>
      <trkpt lat="44.74419" lon="5.13822">
        <ele>338</ele>
        <time>2026-08-23T16:35:36.640Z</time>
      </trkpt>
      <trkpt lat="44.74418" lon="5.13823">
        <ele>338</ele>
        <time>2026-08-23T16:35:37.640Z</time>
      </trkpt>
      <trkpt lat="44.74418" lon="5.13823">
        <ele>338</ele>
        <time>2026-08-23T16:35:38.640Z</time>
      </trkpt>
      <trkpt lat="44.74418" lon="5.13823">
        <ele>338</ele>
        <time>2026-08-23T16:35:39.640Z</time>
      </trkpt>
      <trkpt lat="44.74418" lon="5.13823">
        <ele>338</ele>
        <time>2026-08-23T16:35:40.640Z</time>
      </trkpt>
      <trkpt lat="44.74418" lon="5.13823">
        <ele>338</ele>
        <time>2026-08-23T16:35:41.640Z</time>
      </trkpt>
      <trkpt lat="44.74417" lon="5.13824">
        <ele>338</ele>
        <time>2026-08-23T16:35:44.940Z</time>
      </trkpt>
      <trkpt lat="44.74416" lon="5.13825">
        <ele>338</ele>
        <time>2026-08-23T16:35:45.940Z</time>
      </trkpt>
      <trkpt lat="44.74415" lon="5.13826">
        <ele>338</ele>
        <time>2026-08-23T16:35:46.940Z</time>
      </trkpt>
      <trkpt lat="44.74414" lon="5.13827">
        <ele>338</ele>
        <time>2026-08-23T16:35:47.940Z</time>
      </trkpt>
      <trkpt lat="44.74413" lon="5.13828">
        <ele>338</ele>
        <time>2026-08-23T16:35:48.940Z</time>
      </trkpt>
      <trkpt lat="44.74412" lon="5.13829">
        <ele>338</ele>
        <time>2026-08-23T16:35:49.940Z</time>
      </trkpt>
      <trkpt lat="44.74412" lon="5.1383">
        <ele>338</ele>
        <time>2026-08-23T16:35:50.940Z</time>
      </trkpt>
      <trkpt lat="44.74411" lon="5.13831">
        <ele>338</ele>
        <time>2026-08-23T16:35:51.940Z</time>
      </trkpt>
      <trkpt lat="44.7441" lon="5.13832">
        <ele>338</ele>
        <time>2026-08-23T16:35:52.940Z</time>
      </trkpt>
      <trkpt lat="44.74409" lon="5.13832">
        <ele>338</ele>
        <time>2026-08-23T16:35:53.940Z</time>
      </trkpt>
      <trkpt lat="44.74409" lon="5.13833">
        <ele>338</ele>
        <time>2026-08-23T16:35:54.940Z</time>
      </trkpt>
      <trkpt lat="44.74408" lon="5.13834">
        <ele>338</ele>
        <time>2026-08-23T16:35:55.940Z</time>
      </trkpt>
      <trkpt lat="44.74407" lon="5.13835">
        <ele>338</ele>
        <time>2026-08-23T16:35:56.940Z</time>
      </trkpt>
      <trkpt lat="44.74406" lon="5.13836">
        <ele>338</ele>
        <time>2026-08-23T16:35:57.940Z</time>
      </trkpt>
      <trkpt lat="44.74405" lon="5.13837">
        <ele>338</ele>
        <time>2026-08-23T16:35:58.940Z</time>
      </trkpt>
      <trkpt lat="44.74405" lon="5.13838">
        <ele>338</ele>
        <time>2026-08-23T16:35:59.940Z</time>
      </trkpt>
      <trkpt lat="44.74404" lon="5.13839">
        <ele>338</ele>
        <time>2026-08-23T16:36:00.940Z</time>
      </trkpt>
      <trkpt lat="44.74403" lon="5.1384">
        <ele>337</ele>
        <time>2026-08-23T16:36:01.940Z</time>
      </trkpt>
      <trkpt lat="44.74402" lon="5.13841">
        <ele>337</ele>
        <time>2026-08-23T16:36:02.940Z</time>
      </trkpt>
      <trkpt lat="44.74401" lon="5.13842">
        <ele>337</ele>
        <time>2026-08-23T16:36:03.940Z</time>
      </trkpt>
      <trkpt lat="44.744" lon="5.13843">
        <ele>337</ele>
        <time>2026-08-23T16:36:04.940Z</time>
      </trkpt>
      <trkpt lat="44.74399" lon="5.13844">
        <ele>337</ele>
        <time>2026-08-23T16:36:05.940Z</time>
      </trkpt>
      <trkpt lat="44.74398" lon="5.13845">
        <ele>337</ele>
        <time>2026-08-23T16:36:06.940Z</time>
      </trkpt>
      <trkpt lat="44.74397" lon="5.13845">
        <ele>337</ele>
        <time>2026-08-23T16:36:07.940Z</time>
      </trkpt>
      <trkpt lat="44.74396" lon="5.13846">
        <ele>337</ele>
        <time>2026-08-23T16:36:08.940Z</time>
      </trkpt>
      <trkpt lat="44.74395" lon="5.13847">
        <ele>337</ele>
        <time>2026-08-23T16:36:09.940Z</time>
      </trkpt>
      <trkpt lat="44.74394" lon="5.13848">
        <ele>337</ele>
        <time>2026-08-23T16:36:10.940Z</time>
      </trkpt>
      <trkpt lat="44.74393" lon="5.1385">
        <ele>337</ele>
        <time>2026-08-23T16:36:11.940Z</time>
      </trkpt>
      <trkpt lat="44.74392" lon="5.13851">
        <ele>337</ele>
        <time>2026-08-23T16:36:12.940Z</time>
      </trkpt>
      <trkpt lat="44.74392" lon="5.13852">
        <ele>337</ele>
        <time>2026-08-23T16:36:13.940Z</time>
      </trkpt>
      <trkpt lat="44.74391" lon="5.13853">
        <ele>337</ele>
        <time>2026-08-23T16:36:14.940Z</time>
      </trkpt>
      <trkpt lat="44.7439" lon="5.13855">
        <ele>337</ele>
        <time>2026-08-23T16:36:15.940Z</time>
      </trkpt>
      <trkpt lat="44.74389" lon="5.13856">
        <ele>337</ele>
        <time>2026-08-23T16:36:16.940Z</time>
      </trkpt>
      <trkpt lat="44.74388" lon="5.13857">
        <ele>337</ele>
        <time>2026-08-23T16:36:17.940Z</time>
      </trkpt>
      <trkpt lat="44.74387" lon="5.13858">
        <ele>337</ele>
        <time>2026-08-23T16:36:18.940Z</time>
      </trkpt>
      <trkpt lat="44.74386" lon="5.13859">
        <ele>337</ele>
        <time>2026-08-23T16:36:19.940Z</time>
      </trkpt>
      <trkpt lat="44.74385" lon="5.13861">
        <ele>337</ele>
        <time>2026-08-23T16:36:20.940Z</time>
      </trkpt>
      <trkpt lat="44.74385" lon="5.13862">
        <ele>337</ele>
        <time>2026-08-23T16:36:21.940Z</time>
      </trkpt>
      <trkpt lat="44.74384" lon="5.13863">
        <ele>337</ele>
        <time>2026-08-23T16:36:22.940Z</time>
      </trkpt>
      <trkpt lat="44.74383" lon="5.13864">
        <ele>337</ele>
        <time>2026-08-23T16:36:23.940Z</time>
      </trkpt>
      <trkpt lat="44.74382" lon="5.13865">
        <ele>337</ele>
        <time>2026-08-23T16:36:24.940Z</time>
      </trkpt>
      <trkpt lat="44.74382" lon="5.13867">
        <ele>337</ele>
        <time>2026-08-23T16:36:25.940Z</time>
      </trkpt>
      <trkpt lat="44.74381" lon="5.13868">
        <ele>337</ele>
        <time>2026-08-23T16:36:26.940Z</time>
      </trkpt>
      <trkpt lat="44.7438" lon="5.13869">
        <ele>337</ele>
        <time>2026-08-23T16:36:27.940Z</time>
      </trkpt>
      <trkpt lat="44.7438" lon="5.13871">
        <ele>337</ele>
        <time>2026-08-23T16:36:28.940Z</time>
      </trkpt>
      <trkpt lat="44.74379" lon="5.13872">
        <ele>337</ele>
        <time>2026-08-23T16:36:29.940Z</time>
      </trkpt>
      <trkpt lat="44.74378" lon="5.13873">
        <ele>337</ele>
        <time>2026-08-23T16:36:30.940Z</time>
      </trkpt>
      <trkpt lat="44.74378" lon="5.13875">
        <ele>337</ele>
        <time>2026-08-23T16:36:31.940Z</time>
      </trkpt>
      <trkpt lat="44.74377" lon="5.13876">
        <ele>337</ele>
        <time>2026-08-23T16:36:32.940Z</time>
      </trkpt>
      <trkpt lat="44.74376" lon="5.13878">
        <ele>337</ele>
        <time>2026-08-23T16:36:33.940Z</time>
      </trkpt>
      <trkpt lat="44.74376" lon="5.1388">
        <ele>337</ele>
        <time>2026-08-23T16:36:34.940Z</time>
      </trkpt>
      <trkpt lat="44.74376" lon="5.13881">
        <ele>337</ele>
        <time>2026-08-23T16:36:35.940Z</time>
      </trkpt>
      <trkpt lat="44.74375" lon="5.13883">
        <ele>337</ele>
        <time>2026-08-23T16:36:36.940Z</time>
      </trkpt>
      <trkpt lat="44.74375" lon="5.13885">
        <ele>337</ele>
        <time>2026-08-23T16:36:37.940Z</time>
      </trkpt>
      <trkpt lat="44.74374" lon="5.13887">
        <ele>337</ele>
        <time>2026-08-23T16:36:38.940Z</time>
      </trkpt>
      <trkpt lat="44.74374" lon="5.13889">
        <ele>337</ele>
        <time>2026-08-23T16:36:39.940Z</time>
      </trkpt>
      <trkpt lat="44.74374" lon="5.13891">
        <ele>337</ele>
        <time>2026-08-23T16:36:40.940Z</time>
      </trkpt>
      <trkpt lat="44.74374" lon="5.13892">
        <ele>337</ele>
        <time>2026-08-23T16:36:41.940Z</time>
      </trkpt>
      <trkpt lat="44.74374" lon="5.13894">
        <ele>337</ele>
        <time>2026-08-23T16:36:42.940Z</time>
      </trkpt>
      <trkpt lat="44.74374" lon="5.13896">
        <ele>337</ele>
        <time>2026-08-23T16:36:43.940Z</time>
      </trkpt>
      <trkpt lat="44.74374" lon="5.13898">
        <ele>337</ele>
        <time>2026-08-23T16:36:44.940Z</time>
      </trkpt>
      <trkpt lat="44.74375" lon="5.139">
        <ele>337</ele>
        <time>2026-08-23T16:36:45.940Z</time>
      </trkpt>
      <trkpt lat="44.74375" lon="5.13902">
        <ele>337</ele>
        <time>2026-08-23T16:36:46.940Z</time>
      </trkpt>
      <trkpt lat="44.74375" lon="5.13904">
        <ele>337</ele>
        <time>2026-08-23T16:36:47.940Z</time>
      </trkpt>
      <trkpt lat="44.74375" lon="5.13906">
        <ele>337</ele>
        <time>2026-08-23T16:36:48.940Z</time>
      </trkpt>
      <trkpt lat="44.74376" lon="5.13907">
        <ele>337</ele>
        <time>2026-08-23T16:36:49.940Z</time>
      </trkpt>
      <trkpt lat="44.74376" lon="5.13909">
        <ele>337</ele>
        <time>2026-08-23T16:36:50.940Z</time>
      </trkpt>
      <trkpt lat="44.74376" lon="5.13911">
        <ele>337</ele>
        <time>2026-08-23T16:36:51.940Z</time>
      </trkpt>
      <trkpt lat="44.74377" lon="5.13913">
        <ele>337</ele>
        <time>2026-08-23T16:36:52.940Z</time>
      </trkpt>
      <trkpt lat="44.74377" lon="5.13915">
        <ele>337</ele>
        <time>2026-08-23T16:36:53.940Z</time>
      </trkpt>
      <trkpt lat="44.74378" lon="5.13916">
        <ele>337</ele>
        <time>2026-08-23T16:36:54.940Z</time>
      </trkpt>
      <trkpt lat="44.74378" lon="5.13918">
        <ele>337</ele>
        <time>2026-08-23T16:36:55.940Z</time>
      </trkpt>
      <trkpt lat="44.74379" lon="5.1392">
        <ele>337</ele>
        <time>2026-08-23T16:36:56.940Z</time>
      </trkpt>
      <trkpt lat="44.74379" lon="5.13922">
        <ele>337</ele>
        <time>2026-08-23T16:36:57.940Z</time>
      </trkpt>
      <trkpt lat="44.74379" lon="5.13923">
        <ele>336</ele>
        <time>2026-08-23T16:36:58.940Z</time>
      </trkpt>
      <trkpt lat="44.74379" lon="5.13925">
        <ele>336</ele>
        <time>2026-08-23T16:36:59.940Z</time>
      </trkpt>
      <trkpt lat="44.7438" lon="5.13927">
        <ele>336</ele>
        <time>2026-08-23T16:37:00.940Z</time>
      </trkpt>
      <trkpt lat="44.7438" lon="5.13929">
        <ele>336</ele>
        <time>2026-08-23T16:37:01.940Z</time>
      </trkpt>
      <trkpt lat="44.7438" lon="5.13931">
        <ele>336</ele>
        <time>2026-08-23T16:37:02.940Z</time>
      </trkpt>
      <trkpt lat="44.74381" lon="5.13933">
        <ele>336</ele>
        <time>2026-08-23T16:37:03.940Z</time>
      </trkpt>
      <trkpt lat="44.74381" lon="5.13935">
        <ele>336</ele>
        <time>2026-08-23T16:37:04.940Z</time>
      </trkpt>
      <trkpt lat="44.74381" lon="5.13936">
        <ele>336</ele>
        <time>2026-08-23T16:37:05.940Z</time>
      </trkpt>
      <trkpt lat="44.74382" lon="5.13938">
        <ele>336</ele>
        <time>2026-08-23T16:37:06.940Z</time>
      </trkpt>
      <trkpt lat="44.74382" lon="5.1394">
        <ele>336</ele>
        <time>2026-08-23T16:37:07.940Z</time>
      </trkpt>
      <trkpt lat="44.74382" lon="5.13942">
        <ele>336</ele>
        <time>2026-08-23T16:37:08.940Z</time>
      </trkpt>
      <trkpt lat="44.74382" lon="5.13944">
        <ele>336</ele>
        <time>2026-08-23T16:37:09.940Z</time>
      </trkpt>
      <trkpt lat="44.74381" lon="5.13946">
        <ele>335</ele>
        <time>2026-08-23T16:37:10.940Z</time>
      </trkpt>
      <trkpt lat="44.74381" lon="5.13947">
        <ele>335</ele>
        <time>2026-08-23T16:37:11.940Z</time>
      </trkpt>
      <trkpt lat="44.74381" lon="5.13949">
        <ele>335</ele>
        <time>2026-08-23T16:37:12.940Z</time>
      </trkpt>
      <trkpt lat="44.7438" lon="5.13951">
        <ele>335</ele>
        <time>2026-08-23T16:37:13.940Z</time>
      </trkpt>
      <trkpt lat="44.7438" lon="5.13953">
        <ele>335</ele>
        <time>2026-08-23T16:37:14.940Z</time>
      </trkpt>
      <trkpt lat="44.74379" lon="5.13954">
        <ele>335</ele>
        <time>2026-08-23T16:37:15.940Z</time>
      </trkpt>
      <trkpt lat="44.74379" lon="5.13955">
        <ele>335</ele>
        <time>2026-08-23T16:37:16.940Z</time>
      </trkpt>
      <trkpt lat="44.74378" lon="5.13957">
        <ele>335</ele>
        <time>2026-08-23T16:37:17.940Z</time>
      </trkpt>
      <trkpt lat="44.74377" lon="5.13958">
        <ele>335</ele>
        <time>2026-08-23T16:37:18.940Z</time>
      </trkpt>
      <trkpt lat="44.74376" lon="5.13959">
        <ele>335</ele>
        <time>2026-08-23T16:37:19.940Z</time>
      </trkpt>
      <trkpt lat="44.74375" lon="5.1396">
        <ele>335</ele>
        <time>2026-08-23T16:37:20.940Z</time>
      </trkpt>
      <trkpt lat="44.74374" lon="5.13961">
        <ele>335</ele>
        <time>2026-08-23T16:37:21.940Z</time>
      </trkpt>
      <trkpt lat="44.74373" lon="5.13962">
        <ele>335</ele>
        <time>2026-08-23T16:37:22.940Z</time>
      </trkpt>
      <trkpt lat="44.74372" lon="5.13962">
        <ele>335</ele>
        <time>2026-08-23T16:37:23.940Z</time>
      </trkpt>
      <trkpt lat="44.74371" lon="5.13963">
        <ele>335</ele>
        <time>2026-08-23T16:37:24.940Z</time>
      </trkpt>
      <trkpt lat="44.7437" lon="5.13964">
        <ele>335</ele>
        <time>2026-08-23T16:37:25.940Z</time>
      </trkpt>
      <trkpt lat="44.74369" lon="5.13964">
        <ele>335</ele>
        <time>2026-08-23T16:37:26.940Z</time>
      </trkpt>
      <trkpt lat="44.74368" lon="5.13965">
        <ele>335</ele>
        <time>2026-08-23T16:37:27.940Z</time>
      </trkpt>
      <trkpt lat="44.74367" lon="5.13965">
        <ele>335</ele>
        <time>2026-08-23T16:37:28.940Z</time>
      </trkpt>
      <trkpt lat="44.74366" lon="5.13966">
        <ele>335</ele>
        <time>2026-08-23T16:37:29.940Z</time>
      </trkpt>
      <trkpt lat="44.74365" lon="5.13966">
        <ele>334</ele>
        <time>2026-08-23T16:37:30.940Z</time>
      </trkpt>
      <trkpt lat="44.74364" lon="5.13967">
        <ele>334</ele>
        <time>2026-08-23T16:37:31.940Z</time>
      </trkpt>
      <trkpt lat="44.74363" lon="5.13967">
        <ele>334</ele>
        <time>2026-08-23T16:37:32.940Z</time>
      </trkpt>
      <trkpt lat="44.74362" lon="5.13967">
        <ele>334</ele>
        <time>2026-08-23T16:37:33.940Z</time>
      </trkpt>
      <trkpt lat="44.74361" lon="5.13967">
        <ele>334</ele>
        <time>2026-08-23T16:37:34.940Z</time>
      </trkpt>
      <trkpt lat="44.7436" lon="5.13967">
        <ele>334</ele>
        <time>2026-08-23T16:37:35.940Z</time>
      </trkpt>
      <trkpt lat="44.74358" lon="5.13967">
        <ele>334</ele>
        <time>2026-08-23T16:37:36.940Z</time>
      </trkpt>
      <trkpt lat="44.74357" lon="5.13967">
        <ele>334</ele>
        <time>2026-08-23T16:37:37.940Z</time>
      </trkpt>
      <trkpt lat="44.74356" lon="5.13966">
        <ele>335</ele>
        <time>2026-08-23T16:37:38.940Z</time>
      </trkpt>
      <trkpt lat="44.74355" lon="5.13966">
        <ele>335</ele>
        <time>2026-08-23T16:37:39.940Z</time>
      </trkpt>
      <trkpt lat="44.74354" lon="5.13965">
        <ele>335</ele>
        <time>2026-08-23T16:37:40.940Z</time>
      </trkpt>
      <trkpt lat="44.74353" lon="5.13964">
        <ele>335</ele>
        <time>2026-08-23T16:37:41.940Z</time>
      </trkpt>
      <trkpt lat="44.74352" lon="5.13963">
        <ele>335</ele>
        <time>2026-08-23T16:37:42.940Z</time>
      </trkpt>
      <trkpt lat="44.74351" lon="5.13962">
        <ele>335</ele>
        <time>2026-08-23T16:37:43.940Z</time>
      </trkpt>
      <trkpt lat="44.7435" lon="5.13961">
        <ele>335</ele>
        <time>2026-08-23T16:37:44.940Z</time>
      </trkpt>
      <trkpt lat="44.74349" lon="5.1396">
        <ele>335</ele>
        <time>2026-08-23T16:37:45.940Z</time>
      </trkpt>
      <trkpt lat="44.74348" lon="5.13959">
        <ele>335</ele>
        <time>2026-08-23T16:37:46.940Z</time>
      </trkpt>
      <trkpt lat="44.74347" lon="5.13959">
        <ele>335</ele>
        <time>2026-08-23T16:37:47.940Z</time>
      </trkpt>
      <trkpt lat="44.74347" lon="5.13958">
        <ele>335</ele>
        <time>2026-08-23T16:37:48.940Z</time>
      </trkpt>
      <trkpt lat="44.74346" lon="5.13957">
        <ele>335</ele>
        <time>2026-08-23T16:37:49.940Z</time>
      </trkpt>
      <trkpt lat="44.74345" lon="5.13956">
        <ele>335</ele>
        <time>2026-08-23T16:37:50.940Z</time>
      </trkpt>
      <trkpt lat="44.74344" lon="5.13955">
        <ele>335</ele>
        <time>2026-08-23T16:37:51.940Z</time>
      </trkpt>
      <trkpt lat="44.74343" lon="5.13953">
        <ele>336</ele>
        <time>2026-08-23T16:37:52.940Z</time>
      </trkpt>
      <trkpt lat="44.74343" lon="5.13952">
        <ele>336</ele>
        <time>2026-08-23T16:37:53.940Z</time>
      </trkpt>
      <trkpt lat="44.74342" lon="5.13951">
        <ele>336</ele>
        <time>2026-08-23T16:37:54.940Z</time>
      </trkpt>
      <trkpt lat="44.74341" lon="5.1395">
        <ele>336</ele>
        <time>2026-08-23T16:37:55.940Z</time>
      </trkpt>
      <trkpt lat="44.7434" lon="5.13949">
        <ele>336</ele>
        <time>2026-08-23T16:37:56.940Z</time>
      </trkpt>
      <trkpt lat="44.7434" lon="5.13948">
        <ele>336</ele>
        <time>2026-08-23T16:37:57.940Z</time>
      </trkpt>
      <trkpt lat="44.74339" lon="5.13947">
        <ele>336</ele>
        <time>2026-08-23T16:37:58.940Z</time>
      </trkpt>
      <trkpt lat="44.74338" lon="5.13946">
        <ele>336</ele>
        <time>2026-08-23T16:37:59.940Z</time>
      </trkpt>
      <trkpt lat="44.74337" lon="5.13945">
        <ele>336</ele>
        <time>2026-08-23T16:38:00.940Z</time>
      </trkpt>
      <trkpt lat="44.74336" lon="5.13944">
        <ele>336</ele>
        <time>2026-08-23T16:38:01.940Z</time>
      </trkpt>
      <trkpt lat="44.74336" lon="5.13943">
        <ele>336</ele>
        <time>2026-08-23T16:38:02.940Z</time>
      </trkpt>
      <trkpt lat="44.74335" lon="5.13942">
        <ele>336</ele>
        <time>2026-08-23T16:38:03.940Z</time>
      </trkpt>
      <trkpt lat="44.74334" lon="5.13941">
        <ele>336</ele>
        <time>2026-08-23T16:38:04.940Z</time>
      </trkpt>
      <trkpt lat="44.74333" lon="5.1394">
        <ele>336</ele>
        <time>2026-08-23T16:38:05.940Z</time>
      </trkpt>
      <trkpt lat="44.74332" lon="5.1394">
        <ele>336</ele>
        <time>2026-08-23T16:38:06.940Z</time>
      </trkpt>
      <trkpt lat="44.74331" lon="5.13939">
        <ele>336</ele>
        <time>2026-08-23T16:38:07.940Z</time>
      </trkpt>
      <trkpt lat="44.7433" lon="5.13938">
        <ele>336</ele>
        <time>2026-08-23T16:38:08.940Z</time>
      </trkpt>
      <trkpt lat="44.74329" lon="5.13938">
        <ele>337</ele>
        <time>2026-08-23T16:38:09.940Z</time>
      </trkpt>
      <trkpt lat="44.74328" lon="5.13937">
        <ele>337</ele>
        <time>2026-08-23T16:38:10.940Z</time>
      </trkpt>
      <trkpt lat="44.74327" lon="5.13937">
        <ele>337</ele>
        <time>2026-08-23T16:38:11.940Z</time>
      </trkpt>
      <trkpt lat="44.74325" lon="5.13937">
        <ele>337</ele>
        <time>2026-08-23T16:38:12.940Z</time>
      </trkpt>
      <trkpt lat="44.74324" lon="5.13937">
        <ele>337</ele>
        <time>2026-08-23T16:38:13.940Z</time>
      </trkpt>
      <trkpt lat="44.74323" lon="5.13936">
        <ele>337</ele>
        <time>2026-08-23T16:38:14.940Z</time>
      </trkpt>
      <trkpt lat="44.74322" lon="5.13936">
        <ele>337</ele>
        <time>2026-08-23T16:38:15.940Z</time>
      </trkpt>
      <trkpt lat="44.74321" lon="5.13936">
        <ele>337</ele>
        <time>2026-08-23T16:38:16.940Z</time>
      </trkpt>
      <trkpt lat="44.7432" lon="5.13936">
        <ele>337</ele>
        <time>2026-08-23T16:38:17.940Z</time>
      </trkpt>
      <trkpt lat="44.74319" lon="5.13936">
        <ele>338</ele>
        <time>2026-08-23T16:38:18.940Z</time>
      </trkpt>
      <trkpt lat="44.74318" lon="5.13936">
        <ele>338</ele>
        <time>2026-08-23T16:38:19.940Z</time>
      </trkpt>
      <trkpt lat="44.74317" lon="5.13936">
        <ele>338</ele>
        <time>2026-08-23T16:38:20.940Z</time>
      </trkpt>
      <trkpt lat="44.74316" lon="5.13936">
        <ele>338</ele>
        <time>2026-08-23T16:38:21.940Z</time>
      </trkpt>
      <trkpt lat="44.74315" lon="5.13937">
        <ele>338</ele>
        <time>2026-08-23T16:38:22.940Z</time>
      </trkpt>
      <trkpt lat="44.74314" lon="5.13937">
        <ele>338</ele>
        <time>2026-08-23T16:38:23.940Z</time>
      </trkpt>
      <trkpt lat="44.74313" lon="5.13937">
        <ele>338</ele>
        <time>2026-08-23T16:38:24.940Z</time>
      </trkpt>
      <trkpt lat="44.74312" lon="5.13938">
        <ele>338</ele>
        <time>2026-08-23T16:38:25.940Z</time>
      </trkpt>
      <trkpt lat="44.74311" lon="5.13938">
        <ele>339</ele>
        <time>2026-08-23T16:38:26.940Z</time>
      </trkpt>
      <trkpt lat="44.7431" lon="5.13939">
        <ele>339</ele>
        <time>2026-08-23T16:38:27.940Z</time>
      </trkpt>
      <trkpt lat="44.74309" lon="5.13939">
        <ele>339</ele>
        <time>2026-08-23T16:38:28.940Z</time>
      </trkpt>
      <trkpt lat="44.74308" lon="5.1394">
        <ele>339</ele>
        <time>2026-08-23T16:38:29.940Z</time>
      </trkpt>
      <trkpt lat="44.74307" lon="5.13941">
        <ele>339</ele>
        <time>2026-08-23T16:38:30.940Z</time>
      </trkpt>
      <trkpt lat="44.74306" lon="5.13941">
        <ele>339</ele>
        <time>2026-08-23T16:38:31.940Z</time>
      </trkpt>
      <trkpt lat="44.74306" lon="5.13942">
        <ele>339</ele>
        <time>2026-08-23T16:38:32.940Z</time>
      </trkpt>
      <trkpt lat="44.74305" lon="5.13942">
        <ele>339</ele>
        <time>2026-08-23T16:38:33.940Z</time>
      </trkpt>
      <trkpt lat="44.74304" lon="5.13943">
        <ele>339</ele>
        <time>2026-08-23T16:38:34.940Z</time>
      </trkpt>
      <trkpt lat="44.74303" lon="5.13943">
        <ele>339</ele>
        <time>2026-08-23T16:38:35.940Z</time>
      </trkpt>
      <trkpt lat="44.74303" lon="5.13944">
        <ele>339</ele>
        <time>2026-08-23T16:38:36.940Z</time>
      </trkpt>
      <trkpt lat="44.74302" lon="5.13945">
        <ele>339</ele>
        <time>2026-08-23T16:38:37.940Z</time>
      </trkpt>
      <trkpt lat="44.74301" lon="5.13945">
        <ele>339</ele>
        <time>2026-08-23T16:38:38.940Z</time>
      </trkpt>
      <trkpt lat="44.743" lon="5.13946">
        <ele>339</ele>
        <time>2026-08-23T16:38:39.940Z</time>
      </trkpt>
      <trkpt lat="44.743" lon="5.13946">
        <ele>340</ele>
        <time>2026-08-23T16:38:40.940Z</time>
      </trkpt>
      <trkpt lat="44.74299" lon="5.13947">
        <ele>340</ele>
        <time>2026-08-23T16:38:41.940Z</time>
      </trkpt>
      <trkpt lat="44.74298" lon="5.13948">
        <ele>340</ele>
        <time>2026-08-23T16:38:42.940Z</time>
      </trkpt>
      <trkpt lat="44.74297" lon="5.13949">
        <ele>340</ele>
        <time>2026-08-23T16:38:43.940Z</time>
      </trkpt>
      <trkpt lat="44.74297" lon="5.1395">
        <ele>340</ele>
        <time>2026-08-23T16:38:44.940Z</time>
      </trkpt>
      <trkpt lat="44.74296" lon="5.1395">
        <ele>340</ele>
        <time>2026-08-23T16:38:45.940Z</time>
      </trkpt>
      <trkpt lat="44.74295" lon="5.13951">
        <ele>340</ele>
        <time>2026-08-23T16:38:46.940Z</time>
      </trkpt>
      <trkpt lat="44.74294" lon="5.13952">
        <ele>340</ele>
        <time>2026-08-23T16:38:47.940Z</time>
      </trkpt>
      <trkpt lat="44.74293" lon="5.13953">
        <ele>340</ele>
        <time>2026-08-23T16:38:48.940Z</time>
      </trkpt>
      <trkpt lat="44.74293" lon="5.13953">
        <ele>340</ele>
        <time>2026-08-23T16:38:49.940Z</time>
      </trkpt>
      <trkpt lat="44.74292" lon="5.13954">
        <ele>340</ele>
        <time>2026-08-23T16:38:50.940Z</time>
      </trkpt>
      <trkpt lat="44.74291" lon="5.13955">
        <ele>340</ele>
        <time>2026-08-23T16:38:51.940Z</time>
      </trkpt>
      <trkpt lat="44.7429" lon="5.13956">
        <ele>340</ele>
        <time>2026-08-23T16:38:52.940Z</time>
      </trkpt>
      <trkpt lat="44.7429" lon="5.13956">
        <ele>340</ele>
        <time>2026-08-23T16:38:53.940Z</time>
      </trkpt>
      <trkpt lat="44.74289" lon="5.13957">
        <ele>340</ele>
        <time>2026-08-23T16:38:54.940Z</time>
      </trkpt>
      <trkpt lat="44.74288" lon="5.13958">
        <ele>341</ele>
        <time>2026-08-23T16:38:55.940Z</time>
      </trkpt>
      <trkpt lat="44.74287" lon="5.13959">
        <ele>341</ele>
        <time>2026-08-23T16:38:56.940Z</time>
      </trkpt>
      <trkpt lat="44.74286" lon="5.1396">
        <ele>341</ele>
        <time>2026-08-23T16:38:57.940Z</time>
      </trkpt>
      <trkpt lat="44.74286" lon="5.1396">
        <ele>341</ele>
        <time>2026-08-23T16:38:58.940Z</time>
      </trkpt>
      <trkpt lat="44.74285" lon="5.13961">
        <ele>341</ele>
        <time>2026-08-23T16:38:59.940Z</time>
      </trkpt>
      <trkpt lat="44.74284" lon="5.13961">
        <ele>341</ele>
        <time>2026-08-23T16:39:00.940Z</time>
      </trkpt>
      <trkpt lat="44.74284" lon="5.13962">
        <ele>341</ele>
        <time>2026-08-23T16:39:01.940Z</time>
      </trkpt>
      <trkpt lat="44.74284" lon="5.13962">
        <ele>341</ele>
        <time>2026-08-23T16:39:02.940Z</time>
      </trkpt>
      <trkpt lat="44.74283" lon="5.13962">
        <ele>341</ele>
        <time>2026-08-23T16:39:03.940Z</time>
      </trkpt>
      <trkpt lat="44.74282" lon="5.13963">
        <ele>342</ele>
        <time>2026-08-23T16:39:04.940Z</time>
      </trkpt>
      <trkpt lat="44.74282" lon="5.13963">
        <ele>342</ele>
        <time>2026-08-23T16:39:05.940Z</time>
      </trkpt>
      <trkpt lat="44.74281" lon="5.13964">
        <ele>342</ele>
        <time>2026-08-23T16:39:06.940Z</time>
      </trkpt>
      <trkpt lat="44.7428" lon="5.13965">
        <ele>342</ele>
        <time>2026-08-23T16:39:07.940Z</time>
      </trkpt>
      <trkpt lat="44.74279" lon="5.13965">
        <ele>342</ele>
        <time>2026-08-23T16:39:08.940Z</time>
      </trkpt>
      <trkpt lat="44.74278" lon="5.13966">
        <ele>342</ele>
        <time>2026-08-23T16:39:09.940Z</time>
      </trkpt>
      <trkpt lat="44.74277" lon="5.13967">
        <ele>343</ele>
        <time>2026-08-23T16:39:10.940Z</time>
      </trkpt>
      <trkpt lat="44.74277" lon="5.13968">
        <ele>343</ele>
        <time>2026-08-23T16:39:11.940Z</time>
      </trkpt>
      <trkpt lat="44.74276" lon="5.13968">
        <ele>343</ele>
        <time>2026-08-23T16:39:12.940Z</time>
      </trkpt>
      <trkpt lat="44.74275" lon="5.13969">
        <ele>343</ele>
        <time>2026-08-23T16:39:13.940Z</time>
      </trkpt>
      <trkpt lat="44.74274" lon="5.1397">
        <ele>343</ele>
        <time>2026-08-23T16:39:14.940Z</time>
      </trkpt>
      <trkpt lat="44.74273" lon="5.13971">
        <ele>343</ele>
        <time>2026-08-23T16:39:15.940Z</time>
      </trkpt>
      <trkpt lat="44.74272" lon="5.13971">
        <ele>343</ele>
        <time>2026-08-23T16:39:16.940Z</time>
      </trkpt>
      <trkpt lat="44.74271" lon="5.13972">
        <ele>343</ele>
        <time>2026-08-23T16:39:17.940Z</time>
      </trkpt>
      <trkpt lat="44.7427" lon="5.13973">
        <ele>343</ele>
        <time>2026-08-23T16:39:18.940Z</time>
      </trkpt>
      <trkpt lat="44.7427" lon="5.13974">
        <ele>343</ele>
        <time>2026-08-23T16:39:19.940Z</time>
      </trkpt>
      <trkpt lat="44.74269" lon="5.13974">
        <ele>343</ele>
        <time>2026-08-23T16:39:20.940Z</time>
      </trkpt>
      <trkpt lat="44.74268" lon="5.13975">
        <ele>343</ele>
        <time>2026-08-23T16:39:21.940Z</time>
      </trkpt>
      <trkpt lat="44.74267" lon="5.13975">
        <ele>344</ele>
        <time>2026-08-23T16:39:22.940Z</time>
      </trkpt>
      <trkpt lat="44.74266" lon="5.13975">
        <ele>344</ele>
        <time>2026-08-23T16:39:23.940Z</time>
      </trkpt>
      <trkpt lat="44.74266" lon="5.13976">
        <ele>344</ele>
        <time>2026-08-23T16:39:24.940Z</time>
      </trkpt>
      <trkpt lat="44.74265" lon="5.13977">
        <ele>344</ele>
        <time>2026-08-23T16:39:25.940Z</time>
      </trkpt>
      <trkpt lat="44.74264" lon="5.13977">
        <ele>344</ele>
        <time>2026-08-23T16:39:26.940Z</time>
      </trkpt>
      <trkpt lat="44.74262" lon="5.13978">
        <ele>344</ele>
        <time>2026-08-23T16:39:27.940Z</time>
      </trkpt>
      <trkpt lat="44.74261" lon="5.13979">
        <ele>344</ele>
        <time>2026-08-23T16:39:28.940Z</time>
      </trkpt>
      <trkpt lat="44.74261" lon="5.1398">
        <ele>344</ele>
        <time>2026-08-23T16:39:29.940Z</time>
      </trkpt>
      <trkpt lat="44.7426" lon="5.13981">
        <ele>344</ele>
        <time>2026-08-23T16:39:30.940Z</time>
      </trkpt>
      <trkpt lat="44.74259" lon="5.13982">
        <ele>344</ele>
        <time>2026-08-23T16:39:31.940Z</time>
      </trkpt>
      <trkpt lat="44.74258" lon="5.13983">
        <ele>344</ele>
        <time>2026-08-23T16:39:32.940Z</time>
      </trkpt>
      <trkpt lat="44.74257" lon="5.13984">
        <ele>344</ele>
        <time>2026-08-23T16:39:33.940Z</time>
      </trkpt>
      <trkpt lat="44.74255" lon="5.13984">
        <ele>345</ele>
        <time>2026-08-23T16:39:34.940Z</time>
      </trkpt>
      <trkpt lat="44.74254" lon="5.13985">
        <ele>345</ele>
        <time>2026-08-23T16:39:35.940Z</time>
      </trkpt>
      <trkpt lat="44.74253" lon="5.13986">
        <ele>345</ele>
        <time>2026-08-23T16:39:36.940Z</time>
      </trkpt>
      <trkpt lat="44.74252" lon="5.13986">
        <ele>345</ele>
        <time>2026-08-23T16:39:37.940Z</time>
      </trkpt>
      <trkpt lat="44.74251" lon="5.13987">
        <ele>345</ele>
        <time>2026-08-23T16:39:38.940Z</time>
      </trkpt>
      <trkpt lat="44.7425" lon="5.13987">
        <ele>345</ele>
        <time>2026-08-23T16:39:39.940Z</time>
      </trkpt>
      <trkpt lat="44.74249" lon="5.13988">
        <ele>345</ele>
        <time>2026-08-23T16:39:40.940Z</time>
      </trkpt>
      <trkpt lat="44.74249" lon="5.13989">
        <ele>345</ele>
        <time>2026-08-23T16:39:41.940Z</time>
      </trkpt>
      <trkpt lat="44.74248" lon="5.13989">
        <ele>345</ele>
        <time>2026-08-23T16:39:42.940Z</time>
      </trkpt>
      <trkpt lat="44.74247" lon="5.1399">
        <ele>345</ele>
        <time>2026-08-23T16:39:43.940Z</time>
      </trkpt>
      <trkpt lat="44.74246" lon="5.13991">
        <ele>345</ele>
        <time>2026-08-23T16:39:44.940Z</time>
      </trkpt>
      <trkpt lat="44.74245" lon="5.13991">
        <ele>345</ele>
        <time>2026-08-23T16:39:45.940Z</time>
      </trkpt>
      <trkpt lat="44.74244" lon="5.13992">
        <ele>346</ele>
        <time>2026-08-23T16:39:46.940Z</time>
      </trkpt>
      <trkpt lat="44.74243" lon="5.13993">
        <ele>346</ele>
        <time>2026-08-23T16:39:47.940Z</time>
      </trkpt>
      <trkpt lat="44.74242" lon="5.13993">
        <ele>346</ele>
        <time>2026-08-23T16:39:48.940Z</time>
      </trkpt>
      <trkpt lat="44.74241" lon="5.13994">
        <ele>346</ele>
        <time>2026-08-23T16:39:49.940Z</time>
      </trkpt>
      <trkpt lat="44.7424" lon="5.13995">
        <ele>346</ele>
        <time>2026-08-23T16:39:50.940Z</time>
      </trkpt>
      <trkpt lat="44.74239" lon="5.13995">
        <ele>346</ele>
        <time>2026-08-23T16:39:51.940Z</time>
      </trkpt>
      <trkpt lat="44.74238" lon="5.13996">
        <ele>346</ele>
        <time>2026-08-23T16:39:52.940Z</time>
      </trkpt>
      <trkpt lat="44.74237" lon="5.13996">
        <ele>346</ele>
        <time>2026-08-23T16:39:53.940Z</time>
      </trkpt>
      <trkpt lat="44.74236" lon="5.13996">
        <ele>346</ele>
        <time>2026-08-23T16:39:54.940Z</time>
      </trkpt>
      <trkpt lat="44.74235" lon="5.13997">
        <ele>346</ele>
        <time>2026-08-23T16:39:55.940Z</time>
      </trkpt>
      <trkpt lat="44.74234" lon="5.13998">
        <ele>346</ele>
        <time>2026-08-23T16:39:56.940Z</time>
      </trkpt>
      <trkpt lat="44.74233" lon="5.13998">
        <ele>346</ele>
        <time>2026-08-23T16:39:57.940Z</time>
      </trkpt>
      <trkpt lat="44.74232" lon="5.13999">
        <ele>346</ele>
        <time>2026-08-23T16:39:58.940Z</time>
      </trkpt>
      <trkpt lat="44.74231" lon="5.13999">
        <ele>346</ele>
        <time>2026-08-23T16:39:59.940Z</time>
      </trkpt>
      <trkpt lat="44.7423" lon="5.14">
        <ele>347</ele>
        <time>2026-08-23T16:40:00.940Z</time>
      </trkpt>
      <trkpt lat="44.74229" lon="5.14001">
        <ele>347</ele>
        <time>2026-08-23T16:40:01.940Z</time>
      </trkpt>
      <trkpt lat="44.74229" lon="5.14001">
        <ele>347</ele>
        <time>2026-08-23T16:40:02.940Z</time>
      </trkpt>
      <trkpt lat="44.74227" lon="5.14002">
        <ele>347</ele>
        <time>2026-08-23T16:40:03.940Z</time>
      </trkpt>
      <trkpt lat="44.74226" lon="5.14002">
        <ele>347</ele>
        <time>2026-08-23T16:40:04.940Z</time>
      </trkpt>
      <trkpt lat="44.74226" lon="5.14003">
        <ele>348</ele>
        <time>2026-08-23T16:40:05.940Z</time>
      </trkpt>
      <trkpt lat="44.74225" lon="5.14003">
        <ele>348</ele>
        <time>2026-08-23T16:40:06.940Z</time>
      </trkpt>
      <trkpt lat="44.74224" lon="5.14004">
        <ele>348</ele>
        <time>2026-08-23T16:40:07.940Z</time>
      </trkpt>
      <trkpt lat="44.74223" lon="5.14004">
        <ele>348</ele>
        <time>2026-08-23T16:40:08.940Z</time>
      </trkpt>
      <trkpt lat="44.74222" lon="5.14004">
        <ele>348</ele>
        <time>2026-08-23T16:40:09.940Z</time>
      </trkpt>
      <trkpt lat="44.74221" lon="5.14005">
        <ele>348</ele>
        <time>2026-08-23T16:40:10.940Z</time>
      </trkpt>
      <trkpt lat="44.7422" lon="5.14005">
        <ele>348</ele>
        <time>2026-08-23T16:40:11.940Z</time>
      </trkpt>
      <trkpt lat="44.74219" lon="5.14006">
        <ele>348</ele>
        <time>2026-08-23T16:40:12.940Z</time>
      </trkpt>
      <trkpt lat="44.74218" lon="5.14007">
        <ele>348</ele>
        <time>2026-08-23T16:40:13.940Z</time>
      </trkpt>
      <trkpt lat="44.74217" lon="5.14007">
        <ele>348</ele>
        <time>2026-08-23T16:40:14.940Z</time>
      </trkpt>
      <trkpt lat="44.74216" lon="5.14007">
        <ele>349</ele>
        <time>2026-08-23T16:40:15.940Z</time>
      </trkpt>
      <trkpt lat="44.74215" lon="5.14008">
        <ele>349</ele>
        <time>2026-08-23T16:40:16.940Z</time>
      </trkpt>
      <trkpt lat="44.74215" lon="5.14008">
        <ele>349</ele>
        <time>2026-08-23T16:40:17.940Z</time>
      </trkpt>
      <trkpt lat="44.74214" lon="5.14009">
        <ele>349</ele>
        <time>2026-08-23T16:40:18.940Z</time>
      </trkpt>
      <trkpt lat="44.74213" lon="5.14009">
        <ele>349</ele>
        <time>2026-08-23T16:40:19.940Z</time>
      </trkpt>
      <trkpt lat="44.74212" lon="5.1401">
        <ele>349</ele>
        <time>2026-08-23T16:40:20.940Z</time>
      </trkpt>
      <trkpt lat="44.74212" lon="5.1401">
        <ele>349</ele>
        <time>2026-08-23T16:40:21.940Z</time>
      </trkpt>
      <trkpt lat="44.74211" lon="5.1401">
        <ele>349</ele>
        <time>2026-08-23T16:40:22.940Z</time>
      </trkpt>
      <trkpt lat="44.7421" lon="5.14011">
        <ele>350</ele>
        <time>2026-08-23T16:40:23.940Z</time>
      </trkpt>
      <trkpt lat="44.74209" lon="5.14011">
        <ele>350</ele>
        <time>2026-08-23T16:40:24.940Z</time>
      </trkpt>
      <trkpt lat="44.74208" lon="5.14012">
        <ele>350</ele>
        <time>2026-08-23T16:40:25.940Z</time>
      </trkpt>
      <trkpt lat="44.74207" lon="5.14012">
        <ele>350</ele>
        <time>2026-08-23T16:40:26.940Z</time>
      </trkpt>
      <trkpt lat="44.74206" lon="5.14013">
        <ele>350</ele>
        <time>2026-08-23T16:40:27.940Z</time>
      </trkpt>
      <trkpt lat="44.74205" lon="5.14014">
        <ele>350</ele>
        <time>2026-08-23T16:40:28.940Z</time>
      </trkpt>
      <trkpt lat="44.74205" lon="5.14014">
        <ele>351</ele>
        <time>2026-08-23T16:40:29.940Z</time>
      </trkpt>
      <trkpt lat="44.74204" lon="5.14014">
        <ele>351</ele>
        <time>2026-08-23T16:40:30.940Z</time>
      </trkpt>
      <trkpt lat="44.74203" lon="5.14015">
        <ele>351</ele>
        <time>2026-08-23T16:40:31.940Z</time>
      </trkpt>
      <trkpt lat="44.74202" lon="5.14015">
        <ele>351</ele>
        <time>2026-08-23T16:40:32.940Z</time>
      </trkpt>
      <trkpt lat="44.74201" lon="5.14015">
        <ele>351</ele>
        <time>2026-08-23T16:40:33.940Z</time>
      </trkpt>
      <trkpt lat="44.742" lon="5.14016">
        <ele>351</ele>
        <time>2026-08-23T16:40:34.940Z</time>
      </trkpt>
      <trkpt lat="44.74199" lon="5.14016">
        <ele>352</ele>
        <time>2026-08-23T16:40:35.940Z</time>
      </trkpt>
      <trkpt lat="44.74198" lon="5.14016">
        <ele>352</ele>
        <time>2026-08-23T16:40:36.940Z</time>
      </trkpt>
      <trkpt lat="44.74198" lon="5.14016">
        <ele>352</ele>
        <time>2026-08-23T16:40:37.940Z</time>
      </trkpt>
      <trkpt lat="44.74197" lon="5.14016">
        <ele>352</ele>
        <time>2026-08-23T16:40:38.940Z</time>
      </trkpt>
      <trkpt lat="44.74196" lon="5.14017">
        <ele>352</ele>
        <time>2026-08-23T16:40:39.940Z</time>
      </trkpt>
      <trkpt lat="44.74195" lon="5.14017">
        <ele>352</ele>
        <time>2026-08-23T16:40:40.940Z</time>
      </trkpt>
      <trkpt lat="44.74194" lon="5.14017">
        <ele>352</ele>
        <time>2026-08-23T16:40:41.940Z</time>
      </trkpt>
      <trkpt lat="44.74193" lon="5.14017">
        <ele>352</ele>
        <time>2026-08-23T16:40:42.940Z</time>
      </trkpt>
      <trkpt lat="44.74192" lon="5.14017">
        <ele>352</ele>
        <time>2026-08-23T16:40:43.940Z</time>
      </trkpt>
      <trkpt lat="44.74191" lon="5.14017">
        <ele>352</ele>
        <time>2026-08-23T16:40:44.940Z</time>
      </trkpt>
      <trkpt lat="44.7419" lon="5.14017">
        <ele>352</ele>
        <time>2026-08-23T16:40:45.940Z</time>
      </trkpt>
      <trkpt lat="44.74189" lon="5.14016">
        <ele>352</ele>
        <time>2026-08-23T16:40:46.940Z</time>
      </trkpt>
      <trkpt lat="44.74188" lon="5.14016">
        <ele>352</ele>
        <time>2026-08-23T16:40:47.940Z</time>
      </trkpt>
      <trkpt lat="44.74187" lon="5.14016">
        <ele>352</ele>
        <time>2026-08-23T16:40:48.940Z</time>
      </trkpt>
      <trkpt lat="44.74186" lon="5.14016">
        <ele>352</ele>
        <time>2026-08-23T16:40:49.940Z</time>
      </trkpt>
      <trkpt lat="44.74186" lon="5.14015">
        <ele>352</ele>
        <time>2026-08-23T16:40:50.940Z</time>
      </trkpt>
      <trkpt lat="44.74185" lon="5.14015">
        <ele>352</ele>
        <time>2026-08-23T16:40:51.940Z</time>
      </trkpt>
      <trkpt lat="44.74184" lon="5.14015">
        <ele>353</ele>
        <time>2026-08-23T16:40:52.940Z</time>
      </trkpt>
      <trkpt lat="44.74183" lon="5.14015">
        <ele>353</ele>
        <time>2026-08-23T16:40:53.940Z</time>
      </trkpt>
      <trkpt lat="44.74182" lon="5.14014">
        <ele>353</ele>
        <time>2026-08-23T16:40:54.940Z</time>
      </trkpt>
      <trkpt lat="44.74181" lon="5.14014">
        <ele>353</ele>
        <time>2026-08-23T16:40:55.940Z</time>
      </trkpt>
      <trkpt lat="44.7418" lon="5.14015">
        <ele>353</ele>
        <time>2026-08-23T16:40:56.940Z</time>
      </trkpt>
      <trkpt lat="44.74179" lon="5.14015">
        <ele>353</ele>
        <time>2026-08-23T16:40:57.940Z</time>
      </trkpt>
      <trkpt lat="44.74178" lon="5.14015">
        <ele>353</ele>
        <time>2026-08-23T16:40:58.940Z</time>
      </trkpt>
      <trkpt lat="44.74177" lon="5.14015">
        <ele>354</ele>
        <time>2026-08-23T16:40:59.940Z</time>
      </trkpt>
      <trkpt lat="44.74176" lon="5.14015">
        <ele>354</ele>
        <time>2026-08-23T16:41:00.940Z</time>
      </trkpt>
      <trkpt lat="44.74175" lon="5.14015">
        <ele>354</ele>
        <time>2026-08-23T16:41:01.940Z</time>
      </trkpt>
      <trkpt lat="44.74174" lon="5.14015">
        <ele>354</ele>
        <time>2026-08-23T16:41:02.940Z</time>
      </trkpt>
      <trkpt lat="44.74173" lon="5.14015">
        <ele>354</ele>
        <time>2026-08-23T16:41:03.940Z</time>
      </trkpt>
      <trkpt lat="44.74172" lon="5.14015">
        <ele>355</ele>
        <time>2026-08-23T16:41:04.940Z</time>
      </trkpt>
      <trkpt lat="44.74171" lon="5.14014">
        <ele>355</ele>
        <time>2026-08-23T16:41:05.940Z</time>
      </trkpt>
      <trkpt lat="44.7417" lon="5.14014">
        <ele>355</ele>
        <time>2026-08-23T16:41:06.940Z</time>
      </trkpt>
      <trkpt lat="44.74169" lon="5.14014">
        <ele>355</ele>
        <time>2026-08-23T16:41:07.940Z</time>
      </trkpt>
      <trkpt lat="44.74168" lon="5.14014">
        <ele>355</ele>
        <time>2026-08-23T16:41:08.940Z</time>
      </trkpt>
      <trkpt lat="44.74167" lon="5.14014">
        <ele>356</ele>
        <time>2026-08-23T16:41:09.940Z</time>
      </trkpt>
      <trkpt lat="44.74166" lon="5.14014">
        <ele>356</ele>
        <time>2026-08-23T16:41:10.940Z</time>
      </trkpt>
      <trkpt lat="44.74165" lon="5.14014">
        <ele>356</ele>
        <time>2026-08-23T16:41:11.940Z</time>
      </trkpt>
      <trkpt lat="44.74164" lon="5.14014">
        <ele>356</ele>
        <time>2026-08-23T16:41:12.940Z</time>
      </trkpt>
      <trkpt lat="44.74163" lon="5.14014">
        <ele>357</ele>
        <time>2026-08-23T16:41:13.940Z</time>
      </trkpt>
      <trkpt lat="44.74162" lon="5.14014">
        <ele>357</ele>
        <time>2026-08-23T16:41:14.940Z</time>
      </trkpt>
      <trkpt lat="44.74161" lon="5.14014">
        <ele>357</ele>
        <time>2026-08-23T16:41:15.940Z</time>
      </trkpt>
      <trkpt lat="44.7416" lon="5.14014">
        <ele>357</ele>
        <time>2026-08-23T16:41:16.940Z</time>
      </trkpt>
      <trkpt lat="44.74159" lon="5.14014">
        <ele>357</ele>
        <time>2026-08-23T16:41:17.940Z</time>
      </trkpt>
      <trkpt lat="44.74158" lon="5.14014">
        <ele>358</ele>
        <time>2026-08-23T16:41:18.940Z</time>
      </trkpt>
      <trkpt lat="44.74157" lon="5.14014">
        <ele>358</ele>
        <time>2026-08-23T16:41:19.940Z</time>
      </trkpt>
      <trkpt lat="44.74156" lon="5.14014">
        <ele>358</ele>
        <time>2026-08-23T16:41:20.940Z</time>
      </trkpt>
      <trkpt lat="44.74155" lon="5.14014">
        <ele>358</ele>
        <time>2026-08-23T16:41:21.940Z</time>
      </trkpt>
      <trkpt lat="44.74153" lon="5.14014">
        <ele>358</ele>
        <time>2026-08-23T16:41:22.940Z</time>
      </trkpt>
      <trkpt lat="44.74152" lon="5.14014">
        <ele>358</ele>
        <time>2026-08-23T16:41:23.940Z</time>
      </trkpt>
      <trkpt lat="44.74151" lon="5.14014">
        <ele>358</ele>
        <time>2026-08-23T16:41:24.940Z</time>
      </trkpt>
      <trkpt lat="44.7415" lon="5.14014">
        <ele>358</ele>
        <time>2026-08-23T16:41:25.940Z</time>
      </trkpt>
      <trkpt lat="44.74149" lon="5.14014">
        <ele>358</ele>
        <time>2026-08-23T16:41:26.940Z</time>
      </trkpt>
      <trkpt lat="44.74148" lon="5.14014">
        <ele>358</ele>
        <time>2026-08-23T16:41:27.940Z</time>
      </trkpt>
      <trkpt lat="44.74147" lon="5.14014">
        <ele>358</ele>
        <time>2026-08-23T16:41:28.940Z</time>
      </trkpt>
      <trkpt lat="44.74146" lon="5.14014">
        <ele>358</ele>
        <time>2026-08-23T16:41:29.940Z</time>
      </trkpt>
      <trkpt lat="44.74145" lon="5.14014">
        <ele>358</ele>
        <time>2026-08-23T16:41:30.940Z</time>
      </trkpt>
      <trkpt lat="44.74144" lon="5.14014">
        <ele>358</ele>
        <time>2026-08-23T16:41:31.940Z</time>
      </trkpt>
      <trkpt lat="44.74143" lon="5.14013">
        <ele>358</ele>
        <time>2026-08-23T16:41:32.940Z</time>
      </trkpt>
      <trkpt lat="44.74142" lon="5.14013">
        <ele>358</ele>
        <time>2026-08-23T16:41:33.940Z</time>
      </trkpt>
      <trkpt lat="44.74141" lon="5.14014">
        <ele>358</ele>
        <time>2026-08-23T16:41:34.940Z</time>
      </trkpt>
      <trkpt lat="44.7414" lon="5.14014">
        <ele>358</ele>
        <time>2026-08-23T16:41:35.940Z</time>
      </trkpt>
      <trkpt lat="44.74139" lon="5.14014">
        <ele>358</ele>
        <time>2026-08-23T16:41:36.940Z</time>
      </trkpt>
      <trkpt lat="44.74138" lon="5.14015">
        <ele>358</ele>
        <time>2026-08-23T16:41:37.940Z</time>
      </trkpt>
      <trkpt lat="44.74137" lon="5.14015">
        <ele>358</ele>
        <time>2026-08-23T16:41:38.940Z</time>
      </trkpt>
      <trkpt lat="44.74136" lon="5.14016">
        <ele>358</ele>
        <time>2026-08-23T16:41:39.940Z</time>
      </trkpt>
      <trkpt lat="44.74135" lon="5.14016">
        <ele>358</ele>
        <time>2026-08-23T16:41:40.940Z</time>
      </trkpt>
      <trkpt lat="44.74134" lon="5.14016">
        <ele>358</ele>
        <time>2026-08-23T16:41:41.940Z</time>
      </trkpt>
      <trkpt lat="44.74133" lon="5.14017">
        <ele>358</ele>
        <time>2026-08-23T16:41:42.940Z</time>
      </trkpt>
      <trkpt lat="44.74132" lon="5.14017">
        <ele>358</ele>
        <time>2026-08-23T16:41:43.940Z</time>
      </trkpt>
      <trkpt lat="44.74131" lon="5.14017">
        <ele>358</ele>
        <time>2026-08-23T16:41:44.940Z</time>
      </trkpt>
      <trkpt lat="44.7413" lon="5.14017">
        <ele>358</ele>
        <time>2026-08-23T16:41:45.940Z</time>
      </trkpt>
      <trkpt lat="44.7413" lon="5.14018">
        <ele>358</ele>
        <time>2026-08-23T16:41:46.940Z</time>
      </trkpt>
      <trkpt lat="44.74129" lon="5.14018">
        <ele>358</ele>
        <time>2026-08-23T16:41:47.940Z</time>
      </trkpt>
      <trkpt lat="44.74128" lon="5.14018">
        <ele>358</ele>
        <time>2026-08-23T16:41:48.940Z</time>
      </trkpt>
      <trkpt lat="44.74128" lon="5.14018">
        <ele>358</ele>
        <time>2026-08-23T16:41:49.940Z</time>
      </trkpt>
      <trkpt lat="44.74126" lon="5.14017">
        <ele>359</ele>
        <time>2026-08-23T16:41:53.241Z</time>
      </trkpt>
      <trkpt lat="44.74125" lon="5.14017">
        <ele>359</ele>
        <time>2026-08-23T16:41:54.241Z</time>
      </trkpt>
      <trkpt lat="44.74125" lon="5.14017">
        <ele>359</ele>
        <time>2026-08-23T16:41:55.241Z</time>
      </trkpt>
      <trkpt lat="44.74123" lon="5.14017">
        <ele>358</ele>
        <time>2026-08-23T16:42:02.249Z</time>
      </trkpt>
      <trkpt lat="44.74122" lon="5.14017">
        <ele>358</ele>
        <time>2026-08-23T16:42:03.249Z</time>
      </trkpt>
      <trkpt lat="44.74121" lon="5.14017">
        <ele>358</ele>
        <time>2026-08-23T16:42:04.249Z</time>
      </trkpt>
      <trkpt lat="44.74121" lon="5.14018">
        <ele>358</ele>
        <time>2026-08-23T16:42:05.249Z</time>
      </trkpt>
      <trkpt lat="44.7412" lon="5.14018">
        <ele>358</ele>
        <time>2026-08-23T16:42:06.249Z</time>
      </trkpt>
      <trkpt lat="44.74119" lon="5.14018">
        <ele>358</ele>
        <time>2026-08-23T16:42:07.249Z</time>
      </trkpt>
      <trkpt lat="44.74119" lon="5.14019">
        <ele>358</ele>
        <time>2026-08-23T16:42:08.249Z</time>
      </trkpt>
      <trkpt lat="44.74118" lon="5.14019">
        <ele>358</ele>
        <time>2026-08-23T16:42:09.249Z</time>
      </trkpt>
      <trkpt lat="44.74117" lon="5.1402">
        <ele>358</ele>
        <time>2026-08-23T16:42:10.249Z</time>
      </trkpt>
      <trkpt lat="44.74116" lon="5.14021">
        <ele>358</ele>
        <time>2026-08-23T16:42:11.249Z</time>
      </trkpt>
      <trkpt lat="44.74115" lon="5.14021">
        <ele>358</ele>
        <time>2026-08-23T16:42:12.249Z</time>
      </trkpt>
      <trkpt lat="44.74114" lon="5.14022">
        <ele>358</ele>
        <time>2026-08-23T16:42:13.249Z</time>
      </trkpt>
      <trkpt lat="44.74114" lon="5.14023">
        <ele>358</ele>
        <time>2026-08-23T16:42:14.249Z</time>
      </trkpt>
      <trkpt lat="44.74113" lon="5.14023">
        <ele>359</ele>
        <time>2026-08-23T16:42:15.249Z</time>
      </trkpt>
      <trkpt lat="44.74112" lon="5.14024">
        <ele>359</ele>
        <time>2026-08-23T16:42:16.249Z</time>
      </trkpt>
      <trkpt lat="44.74112" lon="5.14024">
        <ele>359</ele>
        <time>2026-08-23T16:42:17.249Z</time>
      </trkpt>
      <trkpt lat="44.74111" lon="5.14025">
        <ele>359</ele>
        <time>2026-08-23T16:42:18.249Z</time>
      </trkpt>
      <trkpt lat="44.7411" lon="5.14025">
        <ele>359</ele>
        <time>2026-08-23T16:42:19.249Z</time>
      </trkpt>
      <trkpt lat="44.74109" lon="5.14026">
        <ele>359</ele>
        <time>2026-08-23T16:42:20.249Z</time>
      </trkpt>
      <trkpt lat="44.74108" lon="5.14026">
        <ele>359</ele>
        <time>2026-08-23T16:42:21.249Z</time>
      </trkpt>
      <trkpt lat="44.74108" lon="5.14027">
        <ele>359</ele>
        <time>2026-08-23T16:42:22.249Z</time>
      </trkpt>
      <trkpt lat="44.74107" lon="5.14028">
        <ele>359</ele>
        <time>2026-08-23T16:42:23.249Z</time>
      </trkpt>
      <trkpt lat="44.74106" lon="5.14029">
        <ele>359</ele>
        <time>2026-08-23T16:42:24.249Z</time>
      </trkpt>
      <trkpt lat="44.74105" lon="5.14029">
        <ele>359</ele>
        <time>2026-08-23T16:42:25.249Z</time>
      </trkpt>
      <trkpt lat="44.74104" lon="5.1403">
        <ele>359</ele>
        <time>2026-08-23T16:42:26.249Z</time>
      </trkpt>
      <trkpt lat="44.74103" lon="5.14031">
        <ele>359</ele>
        <time>2026-08-23T16:42:27.249Z</time>
      </trkpt>
      <trkpt lat="44.74102" lon="5.14031">
        <ele>359</ele>
        <time>2026-08-23T16:42:28.249Z</time>
      </trkpt>
      <trkpt lat="44.74102" lon="5.14032">
        <ele>359</ele>
        <time>2026-08-23T16:42:29.249Z</time>
      </trkpt>
      <trkpt lat="44.74101" lon="5.14033">
        <ele>359</ele>
        <time>2026-08-23T16:42:30.249Z</time>
      </trkpt>
      <trkpt lat="44.741" lon="5.14033">
        <ele>359</ele>
        <time>2026-08-23T16:42:31.249Z</time>
      </trkpt>
      <trkpt lat="44.74099" lon="5.14034">
        <ele>359</ele>
        <time>2026-08-23T16:42:32.249Z</time>
      </trkpt>
      <trkpt lat="44.74099" lon="5.14035">
        <ele>359</ele>
        <time>2026-08-23T16:42:33.249Z</time>
      </trkpt>
      <trkpt lat="44.74098" lon="5.14035">
        <ele>359</ele>
        <time>2026-08-23T16:42:34.249Z</time>
      </trkpt>
      <trkpt lat="44.74097" lon="5.14036">
        <ele>359</ele>
        <time>2026-08-23T16:42:35.249Z</time>
      </trkpt>
      <trkpt lat="44.74096" lon="5.14037">
        <ele>359</ele>
        <time>2026-08-23T16:42:36.249Z</time>
      </trkpt>
      <trkpt lat="44.74096" lon="5.14038">
        <ele>359</ele>
        <time>2026-08-23T16:42:37.249Z</time>
      </trkpt>
      <trkpt lat="44.74095" lon="5.14039">
        <ele>359</ele>
        <time>2026-08-23T16:42:38.249Z</time>
      </trkpt>
      <trkpt lat="44.74094" lon="5.1404">
        <ele>360</ele>
        <time>2026-08-23T16:42:39.249Z</time>
      </trkpt>
      <trkpt lat="44.74094" lon="5.14041">
        <ele>360</ele>
        <time>2026-08-23T16:42:40.249Z</time>
      </trkpt>
      <trkpt lat="44.74093" lon="5.14042">
        <ele>360</ele>
        <time>2026-08-23T16:42:41.249Z</time>
      </trkpt>
      <trkpt lat="44.74093" lon="5.14043">
        <ele>360</ele>
        <time>2026-08-23T16:42:42.249Z</time>
      </trkpt>
      <trkpt lat="44.74092" lon="5.14044">
        <ele>360</ele>
        <time>2026-08-23T16:42:43.249Z</time>
      </trkpt>
      <trkpt lat="44.74092" lon="5.14045">
        <ele>360</ele>
        <time>2026-08-23T16:42:44.249Z</time>
      </trkpt>
      <trkpt lat="44.74091" lon="5.14046">
        <ele>360</ele>
        <time>2026-08-23T16:42:45.249Z</time>
      </trkpt>
      <trkpt lat="44.74091" lon="5.14047">
        <ele>360</ele>
        <time>2026-08-23T16:42:46.249Z</time>
      </trkpt>
      <trkpt lat="44.7409" lon="5.14049">
        <ele>360</ele>
        <time>2026-08-23T16:42:47.249Z</time>
      </trkpt>
      <trkpt lat="44.7409" lon="5.1405">
        <ele>360</ele>
        <time>2026-08-23T16:42:48.249Z</time>
      </trkpt>
      <trkpt lat="44.74089" lon="5.14051">
        <ele>360</ele>
        <time>2026-08-23T16:42:49.249Z</time>
      </trkpt>
      <trkpt lat="44.74089" lon="5.14052">
        <ele>360</ele>
        <time>2026-08-23T16:42:50.249Z</time>
      </trkpt>
      <trkpt lat="44.74088" lon="5.14053">
        <ele>360</ele>
        <time>2026-08-23T16:42:51.249Z</time>
      </trkpt>
      <trkpt lat="44.74088" lon="5.14054">
        <ele>360</ele>
        <time>2026-08-23T16:42:52.249Z</time>
      </trkpt>
      <trkpt lat="44.74088" lon="5.14056">
        <ele>361</ele>
        <time>2026-08-23T16:42:53.249Z</time>
      </trkpt>
      <trkpt lat="44.74088" lon="5.14057">
        <ele>361</ele>
        <time>2026-08-23T16:42:54.249Z</time>
      </trkpt>
      <trkpt lat="44.74088" lon="5.14058">
        <ele>361</ele>
        <time>2026-08-23T16:42:55.249Z</time>
      </trkpt>
      <trkpt lat="44.74088" lon="5.1406">
        <ele>361</ele>
        <time>2026-08-23T16:42:56.249Z</time>
      </trkpt>
      <trkpt lat="44.74088" lon="5.14061">
        <ele>361</ele>
        <time>2026-08-23T16:42:57.249Z</time>
      </trkpt>
      <trkpt lat="44.74088" lon="5.14063">
        <ele>361</ele>
        <time>2026-08-23T16:42:58.249Z</time>
      </trkpt>
      <trkpt lat="44.74088" lon="5.14064">
        <ele>361</ele>
        <time>2026-08-23T16:42:59.249Z</time>
      </trkpt>
      <trkpt lat="44.74088" lon="5.14066">
        <ele>361</ele>
        <time>2026-08-23T16:43:00.249Z</time>
      </trkpt>
      <trkpt lat="44.74088" lon="5.14067">
        <ele>361</ele>
        <time>2026-08-23T16:43:01.249Z</time>
      </trkpt>
      <trkpt lat="44.74089" lon="5.14068">
        <ele>361</ele>
        <time>2026-08-23T16:43:02.249Z</time>
      </trkpt>
      <trkpt lat="44.74089" lon="5.1407">
        <ele>361</ele>
        <time>2026-08-23T16:43:03.249Z</time>
      </trkpt>
      <trkpt lat="44.74089" lon="5.14071">
        <ele>361</ele>
        <time>2026-08-23T16:43:04.249Z</time>
      </trkpt>
      <trkpt lat="44.7409" lon="5.14072">
        <ele>361</ele>
        <time>2026-08-23T16:43:05.249Z</time>
      </trkpt>
      <trkpt lat="44.7409" lon="5.14074">
        <ele>361</ele>
        <time>2026-08-23T16:43:06.249Z</time>
      </trkpt>
      <trkpt lat="44.7409" lon="5.14075">
        <ele>361</ele>
        <time>2026-08-23T16:43:07.249Z</time>
      </trkpt>
      <trkpt lat="44.74091" lon="5.14076">
        <ele>361</ele>
        <time>2026-08-23T16:43:08.249Z</time>
      </trkpt>
      <trkpt lat="44.74091" lon="5.14077">
        <ele>361</ele>
        <time>2026-08-23T16:43:09.249Z</time>
      </trkpt>
      <trkpt lat="44.74091" lon="5.14079">
        <ele>361</ele>
        <time>2026-08-23T16:43:10.249Z</time>
      </trkpt>
      <trkpt lat="44.74092" lon="5.1408">
        <ele>361</ele>
        <time>2026-08-23T16:43:11.249Z</time>
      </trkpt>
      <trkpt lat="44.74092" lon="5.14081">
        <ele>361</ele>
        <time>2026-08-23T16:43:12.249Z</time>
      </trkpt>
      <trkpt lat="44.74092" lon="5.14082">
        <ele>361</ele>
        <time>2026-08-23T16:43:13.249Z</time>
      </trkpt>
      <trkpt lat="44.74093" lon="5.14083">
        <ele>361</ele>
        <time>2026-08-23T16:43:14.249Z</time>
      </trkpt>
      <trkpt lat="44.74093" lon="5.14083">
        <ele>361</ele>
        <time>2026-08-23T16:43:15.249Z</time>
      </trkpt>
      <trkpt lat="44.74093" lon="5.14083">
        <ele>361</ele>
        <time>2026-08-23T16:43:16.249Z</time>
      </trkpt>
      <trkpt lat="44.74093" lon="5.14083">
        <ele>361</ele>
        <time>2026-08-23T16:43:17.249Z</time>
      </trkpt>
      <trkpt lat="44.74093" lon="5.14085">
        <ele>361</ele>
        <time>2026-08-23T16:43:21.257Z</time>
      </trkpt>
      <trkpt lat="44.74093" lon="5.14086">
        <ele>361</ele>
        <time>2026-08-23T16:43:22.257Z</time>
      </trkpt>
      <trkpt lat="44.74093" lon="5.14087">
        <ele>361</ele>
        <time>2026-08-23T16:43:23.257Z</time>
      </trkpt>
      <trkpt lat="44.74093" lon="5.14089">
        <ele>361</ele>
        <time>2026-08-23T16:43:24.257Z</time>
      </trkpt>
      <trkpt lat="44.74093" lon="5.1409">
        <ele>361</ele>
        <time>2026-08-23T16:43:25.257Z</time>
      </trkpt>
      <trkpt lat="44.74093" lon="5.14091">
        <ele>362</ele>
        <time>2026-08-23T16:43:26.257Z</time>
      </trkpt>
      <trkpt lat="44.74094" lon="5.14092">
        <ele>362</ele>
        <time>2026-08-23T16:43:27.257Z</time>
      </trkpt>
      <trkpt lat="44.74094" lon="5.14093">
        <ele>362</ele>
        <time>2026-08-23T16:43:28.257Z</time>
      </trkpt>
      <trkpt lat="44.74094" lon="5.14094">
        <ele>362</ele>
        <time>2026-08-23T16:43:29.257Z</time>
      </trkpt>
      <trkpt lat="44.74095" lon="5.14095">
        <ele>362</ele>
        <time>2026-08-23T16:43:30.257Z</time>
      </trkpt>
      <trkpt lat="44.74095" lon="5.14097">
        <ele>362</ele>
        <time>2026-08-23T16:43:31.257Z</time>
      </trkpt>
      <trkpt lat="44.74095" lon="5.14098">
        <ele>362</ele>
        <time>2026-08-23T16:43:32.257Z</time>
      </trkpt>
      <trkpt lat="44.74096" lon="5.14099">
        <ele>362</ele>
        <time>2026-08-23T16:43:33.257Z</time>
      </trkpt>
      <trkpt lat="44.74096" lon="5.141">
        <ele>362</ele>
        <time>2026-08-23T16:43:34.257Z</time>
      </trkpt>
      <trkpt lat="44.74097" lon="5.14101">
        <ele>362</ele>
        <time>2026-08-23T16:43:35.257Z</time>
      </trkpt>
      <trkpt lat="44.74097" lon="5.14103">
        <ele>362</ele>
        <time>2026-08-23T16:43:36.257Z</time>
      </trkpt>
      <trkpt lat="44.74097" lon="5.14104">
        <ele>362</ele>
        <time>2026-08-23T16:43:37.257Z</time>
      </trkpt>
      <trkpt lat="44.74097" lon="5.14106">
        <ele>362</ele>
        <time>2026-08-23T16:43:38.257Z</time>
      </trkpt>
      <trkpt lat="44.74097" lon="5.14107">
        <ele>362</ele>
        <time>2026-08-23T16:43:39.257Z</time>
      </trkpt>
      <trkpt lat="44.74098" lon="5.14108">
        <ele>362</ele>
        <time>2026-08-23T16:43:40.257Z</time>
      </trkpt>
      <trkpt lat="44.74098" lon="5.14109">
        <ele>362</ele>
        <time>2026-08-23T16:43:41.257Z</time>
      </trkpt>
      <trkpt lat="44.74098" lon="5.14111">
        <ele>362</ele>
        <time>2026-08-23T16:43:42.257Z</time>
      </trkpt>
      <trkpt lat="44.74098" lon="5.14112">
        <ele>362</ele>
        <time>2026-08-23T16:43:43.257Z</time>
      </trkpt>
      <trkpt lat="44.74098" lon="5.14113">
        <ele>362</ele>
        <time>2026-08-23T16:43:44.257Z</time>
      </trkpt>
      <trkpt lat="44.74099" lon="5.14115">
        <ele>362</ele>
        <time>2026-08-23T16:43:45.257Z</time>
      </trkpt>
      <trkpt lat="44.74099" lon="5.14116">
        <ele>362</ele>
        <time>2026-08-23T16:43:46.257Z</time>
      </trkpt>
      <trkpt lat="44.74099" lon="5.14118">
        <ele>363</ele>
        <time>2026-08-23T16:43:47.257Z</time>
      </trkpt>
      <trkpt lat="44.74099" lon="5.14119">
        <ele>363</ele>
        <time>2026-08-23T16:43:48.257Z</time>
      </trkpt>
      <trkpt lat="44.74099" lon="5.1412">
        <ele>363</ele>
        <time>2026-08-23T16:43:49.257Z</time>
      </trkpt>
      <trkpt lat="44.74099" lon="5.14122">
        <ele>363</ele>
        <time>2026-08-23T16:43:50.257Z</time>
      </trkpt>
      <trkpt lat="44.74099" lon="5.14123">
        <ele>363</ele>
        <time>2026-08-23T16:43:51.257Z</time>
      </trkpt>
      <trkpt lat="44.74099" lon="5.14124">
        <ele>363</ele>
        <time>2026-08-23T16:43:52.257Z</time>
      </trkpt>
      <trkpt lat="44.74099" lon="5.14126">
        <ele>363</ele>
        <time>2026-08-23T16:43:53.257Z</time>
      </trkpt>
      <trkpt lat="44.74099" lon="5.14127">
        <ele>363</ele>
        <time>2026-08-23T16:43:54.257Z</time>
      </trkpt>
      <trkpt lat="44.741" lon="5.14129">
        <ele>363</ele>
        <time>2026-08-23T16:43:55.257Z</time>
      </trkpt>
      <trkpt lat="44.74099" lon="5.1413">
        <ele>363</ele>
        <time>2026-08-23T16:43:56.257Z</time>
      </trkpt>
      <trkpt lat="44.74099" lon="5.14132">
        <ele>363</ele>
        <time>2026-08-23T16:43:57.257Z</time>
      </trkpt>
      <trkpt lat="44.74099" lon="5.14133">
        <ele>363</ele>
        <time>2026-08-23T16:43:58.257Z</time>
      </trkpt>
      <trkpt lat="44.74099" lon="5.14134">
        <ele>364</ele>
        <time>2026-08-23T16:43:59.257Z</time>
      </trkpt>
      <trkpt lat="44.74099" lon="5.14136">
        <ele>364</ele>
        <time>2026-08-23T16:44:00.257Z</time>
      </trkpt>
      <trkpt lat="44.74098" lon="5.14137">
        <ele>364</ele>
        <time>2026-08-23T16:44:01.257Z</time>
      </trkpt>
      <trkpt lat="44.74098" lon="5.14139">
        <ele>364</ele>
        <time>2026-08-23T16:44:02.257Z</time>
      </trkpt>
      <trkpt lat="44.74098" lon="5.1414">
        <ele>364</ele>
        <time>2026-08-23T16:44:03.257Z</time>
      </trkpt>
      <trkpt lat="44.74098" lon="5.14142">
        <ele>364</ele>
        <time>2026-08-23T16:44:04.257Z</time>
      </trkpt>
      <trkpt lat="44.74097" lon="5.14143">
        <ele>364</ele>
        <time>2026-08-23T16:44:05.257Z</time>
      </trkpt>
      <trkpt lat="44.74097" lon="5.14144">
        <ele>364</ele>
        <time>2026-08-23T16:44:06.257Z</time>
      </trkpt>
      <trkpt lat="44.74096" lon="5.14145">
        <ele>365</ele>
        <time>2026-08-23T16:44:07.257Z</time>
      </trkpt>
      <trkpt lat="44.74096" lon="5.14146">
        <ele>365</ele>
        <time>2026-08-23T16:44:08.257Z</time>
      </trkpt>
      <trkpt lat="44.74095" lon="5.14147">
        <ele>365</ele>
        <time>2026-08-23T16:44:09.257Z</time>
      </trkpt>
      <trkpt lat="44.74094" lon="5.14148">
        <ele>365</ele>
        <time>2026-08-23T16:44:10.257Z</time>
      </trkpt>
      <trkpt lat="44.74094" lon="5.14149">
        <ele>365</ele>
        <time>2026-08-23T16:44:11.257Z</time>
      </trkpt>
      <trkpt lat="44.74093" lon="5.1415">
        <ele>365</ele>
        <time>2026-08-23T16:44:12.257Z</time>
      </trkpt>
      <trkpt lat="44.74092" lon="5.14151">
        <ele>365</ele>
        <time>2026-08-23T16:44:13.257Z</time>
      </trkpt>
      <trkpt lat="44.74091" lon="5.14152">
        <ele>365</ele>
        <time>2026-08-23T16:44:14.257Z</time>
      </trkpt>
      <trkpt lat="44.7409" lon="5.14152">
        <ele>365</ele>
        <time>2026-08-23T16:44:15.257Z</time>
      </trkpt>
      <trkpt lat="44.7409" lon="5.14153">
        <ele>365</ele>
        <time>2026-08-23T16:44:16.257Z</time>
      </trkpt>
      <trkpt lat="44.74089" lon="5.14153">
        <ele>365</ele>
        <time>2026-08-23T16:44:17.257Z</time>
      </trkpt>
      <trkpt lat="44.74088" lon="5.14154">
        <ele>365</ele>
        <time>2026-08-23T16:44:18.257Z</time>
      </trkpt>
      <trkpt lat="44.74087" lon="5.14154">
        <ele>365</ele>
        <time>2026-08-23T16:44:19.257Z</time>
      </trkpt>
      <trkpt lat="44.74086" lon="5.14155">
        <ele>365</ele>
        <time>2026-08-23T16:44:20.257Z</time>
      </trkpt>
      <trkpt lat="44.74085" lon="5.14155">
        <ele>365</ele>
        <time>2026-08-23T16:44:21.257Z</time>
      </trkpt>
      <trkpt lat="44.74084" lon="5.14155">
        <ele>365</ele>
        <time>2026-08-23T16:44:22.257Z</time>
      </trkpt>
      <trkpt lat="44.74084" lon="5.14156">
        <ele>365</ele>
        <time>2026-08-23T16:44:23.257Z</time>
      </trkpt>
      <trkpt lat="44.74083" lon="5.14156">
        <ele>365</ele>
        <time>2026-08-23T16:44:24.257Z</time>
      </trkpt>
      <trkpt lat="44.74082" lon="5.14156">
        <ele>365</ele>
        <time>2026-08-23T16:44:25.257Z</time>
      </trkpt>
      <trkpt lat="44.74081" lon="5.14156">
        <ele>365</ele>
        <time>2026-08-23T16:44:26.257Z</time>
      </trkpt>
      <trkpt lat="44.7408" lon="5.14156">
        <ele>365</ele>
        <time>2026-08-23T16:44:27.257Z</time>
      </trkpt>
      <trkpt lat="44.74079" lon="5.14156">
        <ele>365</ele>
        <time>2026-08-23T16:44:28.257Z</time>
      </trkpt>
      <trkpt lat="44.74078" lon="5.14156">
        <ele>365</ele>
        <time>2026-08-23T16:44:29.257Z</time>
      </trkpt>
      <trkpt lat="44.74077" lon="5.14155">
        <ele>365</ele>
        <time>2026-08-23T16:44:30.257Z</time>
      </trkpt>
      <trkpt lat="44.74076" lon="5.14155">
        <ele>365</ele>
        <time>2026-08-23T16:44:31.257Z</time>
      </trkpt>
      <trkpt lat="44.74076" lon="5.14154">
        <ele>365</ele>
        <time>2026-08-23T16:44:32.257Z</time>
      </trkpt>
      <trkpt lat="44.74075" lon="5.14153">
        <ele>365</ele>
        <time>2026-08-23T16:44:33.257Z</time>
      </trkpt>
      <trkpt lat="44.74074" lon="5.14152">
        <ele>366</ele>
        <time>2026-08-23T16:44:34.257Z</time>
      </trkpt>
      <trkpt lat="44.74073" lon="5.14151">
        <ele>366</ele>
        <time>2026-08-23T16:44:35.257Z</time>
      </trkpt>
      <trkpt lat="44.74072" lon="5.14151">
        <ele>366</ele>
        <time>2026-08-23T16:44:36.257Z</time>
      </trkpt>
      <trkpt lat="44.74071" lon="5.1415">
        <ele>366</ele>
        <time>2026-08-23T16:44:37.257Z</time>
      </trkpt>
      <trkpt lat="44.7407" lon="5.14149">
        <ele>366</ele>
        <time>2026-08-23T16:44:38.257Z</time>
      </trkpt>
      <trkpt lat="44.74069" lon="5.14149">
        <ele>366</ele>
        <time>2026-08-23T16:44:39.257Z</time>
      </trkpt>
      <trkpt lat="44.74069" lon="5.14148">
        <ele>366</ele>
        <time>2026-08-23T16:44:40.257Z</time>
      </trkpt>
      <trkpt lat="44.74068" lon="5.14147">
        <ele>366</ele>
        <time>2026-08-23T16:44:41.257Z</time>
      </trkpt>
      <trkpt lat="44.74067" lon="5.14147">
        <ele>366</ele>
        <time>2026-08-23T16:44:42.257Z</time>
      </trkpt>
      <trkpt lat="44.74066" lon="5.14146">
        <ele>366</ele>
        <time>2026-08-23T16:44:43.257Z</time>
      </trkpt>
      <trkpt lat="44.74065" lon="5.14145">
        <ele>366</ele>
        <time>2026-08-23T16:44:44.257Z</time>
      </trkpt>
      <trkpt lat="44.74065" lon="5.14144">
        <ele>366</ele>
        <time>2026-08-23T16:44:45.257Z</time>
      </trkpt>
      <trkpt lat="44.74064" lon="5.14143">
        <ele>366</ele>
        <time>2026-08-23T16:44:46.257Z</time>
      </trkpt>
      <trkpt lat="44.74063" lon="5.14142">
        <ele>366</ele>
        <time>2026-08-23T16:44:47.257Z</time>
      </trkpt>
      <trkpt lat="44.74062" lon="5.14142">
        <ele>366</ele>
        <time>2026-08-23T16:44:48.257Z</time>
      </trkpt>
      <trkpt lat="44.74061" lon="5.14142">
        <ele>366</ele>
        <time>2026-08-23T16:44:49.257Z</time>
      </trkpt>
      <trkpt lat="44.7406" lon="5.14141">
        <ele>366</ele>
        <time>2026-08-23T16:44:50.257Z</time>
      </trkpt>
      <trkpt lat="44.74059" lon="5.14141">
        <ele>366</ele>
        <time>2026-08-23T16:44:51.257Z</time>
      </trkpt>
      <trkpt lat="44.74058" lon="5.1414">
        <ele>366</ele>
        <time>2026-08-23T16:44:52.257Z</time>
      </trkpt>
      <trkpt lat="44.74057" lon="5.14139">
        <ele>366</ele>
        <time>2026-08-23T16:44:53.257Z</time>
      </trkpt>
      <trkpt lat="44.74056" lon="5.14139">
        <ele>366</ele>
        <time>2026-08-23T16:44:54.257Z</time>
      </trkpt>
      <trkpt lat="44.74056" lon="5.14138">
        <ele>366</ele>
        <time>2026-08-23T16:44:55.257Z</time>
      </trkpt>
      <trkpt lat="44.74055" lon="5.14138">
        <ele>366</ele>
        <time>2026-08-23T16:44:56.257Z</time>
      </trkpt>
      <trkpt lat="44.74054" lon="5.14138">
        <ele>366</ele>
        <time>2026-08-23T16:44:57.257Z</time>
      </trkpt>
      <trkpt lat="44.74053" lon="5.14137">
        <ele>366</ele>
        <time>2026-08-23T16:44:58.257Z</time>
      </trkpt>
      <trkpt lat="44.74052" lon="5.14137">
        <ele>366</ele>
        <time>2026-08-23T16:44:59.257Z</time>
      </trkpt>
      <trkpt lat="44.74051" lon="5.14137">
        <ele>366</ele>
        <time>2026-08-23T16:45:00.257Z</time>
      </trkpt>
      <trkpt lat="44.7405" lon="5.14137">
        <ele>366</ele>
        <time>2026-08-23T16:45:01.257Z</time>
      </trkpt>
      <trkpt lat="44.74049" lon="5.14137">
        <ele>366</ele>
        <time>2026-08-23T16:45:02.257Z</time>
      </trkpt>
      <trkpt lat="44.74048" lon="5.14137">
        <ele>366</ele>
        <time>2026-08-23T16:45:03.257Z</time>
      </trkpt>
      <trkpt lat="44.74047" lon="5.14137">
        <ele>367</ele>
        <time>2026-08-23T16:45:04.257Z</time>
      </trkpt>
      <trkpt lat="44.74046" lon="5.14138">
        <ele>367</ele>
        <time>2026-08-23T16:45:05.257Z</time>
      </trkpt>
      <trkpt lat="44.74045" lon="5.14138">
        <ele>367</ele>
        <time>2026-08-23T16:45:06.257Z</time>
      </trkpt>
      <trkpt lat="44.74044" lon="5.14138">
        <ele>367</ele>
        <time>2026-08-23T16:45:07.257Z</time>
      </trkpt>
      <trkpt lat="44.74043" lon="5.14139">
        <ele>367</ele>
        <time>2026-08-23T16:45:08.257Z</time>
      </trkpt>
      <trkpt lat="44.74042" lon="5.14139">
        <ele>367</ele>
        <time>2026-08-23T16:45:09.257Z</time>
      </trkpt>
      <trkpt lat="44.74041" lon="5.14139">
        <ele>367</ele>
        <time>2026-08-23T16:45:10.257Z</time>
      </trkpt>
      <trkpt lat="44.7404" lon="5.1414">
        <ele>367</ele>
        <time>2026-08-23T16:45:11.257Z</time>
      </trkpt>
      <trkpt lat="44.74039" lon="5.1414">
        <ele>367</ele>
        <time>2026-08-23T16:45:12.257Z</time>
      </trkpt>
      <trkpt lat="44.74038" lon="5.1414">
        <ele>367</ele>
        <time>2026-08-23T16:45:13.257Z</time>
      </trkpt>
      <trkpt lat="44.74037" lon="5.14141">
        <ele>367</ele>
        <time>2026-08-23T16:45:14.257Z</time>
      </trkpt>
      <trkpt lat="44.74036" lon="5.14141">
        <ele>368</ele>
        <time>2026-08-23T16:45:15.257Z</time>
      </trkpt>
      <trkpt lat="44.74035" lon="5.14142">
        <ele>368</ele>
        <time>2026-08-23T16:45:16.257Z</time>
      </trkpt>
      <trkpt lat="44.74035" lon="5.14142">
        <ele>368</ele>
        <time>2026-08-23T16:45:17.257Z</time>
      </trkpt>
      <trkpt lat="44.74034" lon="5.14143">
        <ele>368</ele>
        <time>2026-08-23T16:45:18.257Z</time>
      </trkpt>
      <trkpt lat="44.74033" lon="5.14143">
        <ele>368</ele>
        <time>2026-08-23T16:45:19.257Z</time>
      </trkpt>
      <trkpt lat="44.74032" lon="5.14144">
        <ele>368</ele>
        <time>2026-08-23T16:45:20.257Z</time>
      </trkpt>
      <trkpt lat="44.74031" lon="5.14144">
        <ele>368</ele>
        <time>2026-08-23T16:45:21.257Z</time>
      </trkpt>
      <trkpt lat="44.7403" lon="5.14145">
        <ele>368</ele>
        <time>2026-08-23T16:45:22.257Z</time>
      </trkpt>
      <trkpt lat="44.74029" lon="5.14146">
        <ele>368</ele>
        <time>2026-08-23T16:45:23.257Z</time>
      </trkpt>
      <trkpt lat="44.74028" lon="5.14147">
        <ele>368</ele>
        <time>2026-08-23T16:45:24.257Z</time>
      </trkpt>
      <trkpt lat="44.74028" lon="5.14147">
        <ele>368</ele>
        <time>2026-08-23T16:45:25.257Z</time>
      </trkpt>
      <trkpt lat="44.74027" lon="5.14148">
        <ele>368</ele>
        <time>2026-08-23T16:45:26.257Z</time>
      </trkpt>
      <trkpt lat="44.74026" lon="5.14149">
        <ele>369</ele>
        <time>2026-08-23T16:45:27.257Z</time>
      </trkpt>
      <trkpt lat="44.74025" lon="5.1415">
        <ele>369</ele>
        <time>2026-08-23T16:45:28.257Z</time>
      </trkpt>
      <trkpt lat="44.74024" lon="5.1415">
        <ele>369</ele>
        <time>2026-08-23T16:45:29.257Z</time>
      </trkpt>
      <trkpt lat="44.74023" lon="5.14151">
        <ele>369</ele>
        <time>2026-08-23T16:45:30.257Z</time>
      </trkpt>
      <trkpt lat="44.74022" lon="5.14151">
        <ele>369</ele>
        <time>2026-08-23T16:45:31.257Z</time>
      </trkpt>
      <trkpt lat="44.74021" lon="5.14152">
        <ele>369</ele>
        <time>2026-08-23T16:45:32.257Z</time>
      </trkpt>
      <trkpt lat="44.74021" lon="5.14153">
        <ele>369</ele>
        <time>2026-08-23T16:45:33.257Z</time>
      </trkpt>
      <trkpt lat="44.7402" lon="5.14153">
        <ele>369</ele>
        <time>2026-08-23T16:45:34.257Z</time>
      </trkpt>
      <trkpt lat="44.74019" lon="5.14154">
        <ele>369</ele>
        <time>2026-08-23T16:45:35.257Z</time>
      </trkpt>
      <trkpt lat="44.74018" lon="5.14154">
        <ele>369</ele>
        <time>2026-08-23T16:45:36.257Z</time>
      </trkpt>
      <trkpt lat="44.74017" lon="5.14155">
        <ele>369</ele>
        <time>2026-08-23T16:45:37.257Z</time>
      </trkpt>
      <trkpt lat="44.74017" lon="5.14155">
        <ele>369</ele>
        <time>2026-08-23T16:45:38.257Z</time>
      </trkpt>
      <trkpt lat="44.74016" lon="5.14156">
        <ele>369</ele>
        <time>2026-08-23T16:45:39.257Z</time>
      </trkpt>
      <trkpt lat="44.74015" lon="5.14157">
        <ele>370</ele>
        <time>2026-08-23T16:45:40.257Z</time>
      </trkpt>
      <trkpt lat="44.74015" lon="5.14158">
        <ele>370</ele>
        <time>2026-08-23T16:45:41.257Z</time>
      </trkpt>
      <trkpt lat="44.74014" lon="5.14158">
        <ele>370</ele>
        <time>2026-08-23T16:45:42.257Z</time>
      </trkpt>
      <trkpt lat="44.74013" lon="5.14158">
        <ele>370</ele>
        <time>2026-08-23T16:45:43.257Z</time>
      </trkpt>
      <trkpt lat="44.74012" lon="5.14159">
        <ele>370</ele>
        <time>2026-08-23T16:45:44.257Z</time>
      </trkpt>
      <trkpt lat="44.74012" lon="5.14159">
        <ele>370</ele>
        <time>2026-08-23T16:45:45.257Z</time>
      </trkpt>
      <trkpt lat="44.74011" lon="5.1416">
        <ele>370</ele>
        <time>2026-08-23T16:45:46.257Z</time>
      </trkpt>
      <trkpt lat="44.7401" lon="5.1416">
        <ele>370</ele>
        <time>2026-08-23T16:45:47.257Z</time>
      </trkpt>
      <trkpt lat="44.74009" lon="5.14161">
        <ele>370</ele>
        <time>2026-08-23T16:45:48.257Z</time>
      </trkpt>
      <trkpt lat="44.74009" lon="5.14162">
        <ele>370</ele>
        <time>2026-08-23T16:45:49.257Z</time>
      </trkpt>
      <trkpt lat="44.74008" lon="5.14162">
        <ele>370</ele>
        <time>2026-08-23T16:45:50.257Z</time>
      </trkpt>
      <trkpt lat="44.74007" lon="5.14163">
        <ele>370</ele>
        <time>2026-08-23T16:45:51.257Z</time>
      </trkpt>
      <trkpt lat="44.74006" lon="5.14164">
        <ele>370</ele>
        <time>2026-08-23T16:45:52.257Z</time>
      </trkpt>
      <trkpt lat="44.74006" lon="5.14165">
        <ele>370</ele>
        <time>2026-08-23T16:45:53.257Z</time>
      </trkpt>
      <trkpt lat="44.74005" lon="5.14165">
        <ele>370</ele>
        <time>2026-08-23T16:45:54.257Z</time>
      </trkpt>
      <trkpt lat="44.74005" lon="5.14166">
        <ele>371</ele>
        <time>2026-08-23T16:45:55.257Z</time>
      </trkpt>
      <trkpt lat="44.74004" lon="5.14167">
        <ele>371</ele>
        <time>2026-08-23T16:45:56.257Z</time>
      </trkpt>
      <trkpt lat="44.74004" lon="5.14167">
        <ele>371</ele>
        <time>2026-08-23T16:45:57.257Z</time>
      </trkpt>
      <trkpt lat="44.74003" lon="5.14168">
        <ele>371</ele>
        <time>2026-08-23T16:45:58.257Z</time>
      </trkpt>
      <trkpt lat="44.74002" lon="5.14168">
        <ele>371</ele>
        <time>2026-08-23T16:45:59.257Z</time>
      </trkpt>
      <trkpt lat="44.74002" lon="5.14169">
        <ele>371</ele>
        <time>2026-08-23T16:46:00.257Z</time>
      </trkpt>
      <trkpt lat="44.74001" lon="5.1417">
        <ele>371</ele>
        <time>2026-08-23T16:46:01.257Z</time>
      </trkpt>
      <trkpt lat="44.74" lon="5.14171">
        <ele>371</ele>
        <time>2026-08-23T16:46:02.257Z</time>
      </trkpt>
      <trkpt lat="44.73999" lon="5.14171">
        <ele>371</ele>
        <time>2026-08-23T16:46:03.257Z</time>
      </trkpt>
      <trkpt lat="44.73999" lon="5.14172">
        <ele>371</ele>
        <time>2026-08-23T16:46:04.257Z</time>
      </trkpt>
      <trkpt lat="44.73998" lon="5.14172">
        <ele>371</ele>
        <time>2026-08-23T16:46:05.257Z</time>
      </trkpt>
      <trkpt lat="44.73997" lon="5.14173">
        <ele>371</ele>
        <time>2026-08-23T16:46:06.257Z</time>
      </trkpt>
      <trkpt lat="44.73996" lon="5.14174">
        <ele>371</ele>
        <time>2026-08-23T16:46:07.257Z</time>
      </trkpt>
      <trkpt lat="44.73996" lon="5.14175">
        <ele>371</ele>
        <time>2026-08-23T16:46:08.257Z</time>
      </trkpt>
      <trkpt lat="44.73995" lon="5.14175">
        <ele>372</ele>
        <time>2026-08-23T16:46:09.257Z</time>
      </trkpt>
      <trkpt lat="44.73994" lon="5.14176">
        <ele>372</ele>
        <time>2026-08-23T16:46:10.257Z</time>
      </trkpt>
      <trkpt lat="44.73994" lon="5.14177">
        <ele>372</ele>
        <time>2026-08-23T16:46:11.257Z</time>
      </trkpt>
      <trkpt lat="44.73993" lon="5.14177">
        <ele>372</ele>
        <time>2026-08-23T16:46:12.257Z</time>
      </trkpt>
      <trkpt lat="44.73992" lon="5.14178">
        <ele>372</ele>
        <time>2026-08-23T16:46:13.257Z</time>
      </trkpt>
      <trkpt lat="44.73991" lon="5.14178">
        <ele>372</ele>
        <time>2026-08-23T16:46:14.257Z</time>
      </trkpt>
      <trkpt lat="44.7399" lon="5.14179">
        <ele>372</ele>
        <time>2026-08-23T16:46:15.257Z</time>
      </trkpt>
      <trkpt lat="44.73989" lon="5.1418">
        <ele>372</ele>
        <time>2026-08-23T16:46:16.257Z</time>
      </trkpt>
      <trkpt lat="44.73989" lon="5.14181">
        <ele>372</ele>
        <time>2026-08-23T16:46:17.257Z</time>
      </trkpt>
      <trkpt lat="44.73988" lon="5.14181">
        <ele>372</ele>
        <time>2026-08-23T16:46:18.257Z</time>
      </trkpt>
      <trkpt lat="44.73987" lon="5.14182">
        <ele>372</ele>
        <time>2026-08-23T16:46:19.257Z</time>
      </trkpt>
      <trkpt lat="44.73986" lon="5.14183">
        <ele>373</ele>
        <time>2026-08-23T16:46:20.257Z</time>
      </trkpt>
      <trkpt lat="44.73986" lon="5.14184">
        <ele>373</ele>
        <time>2026-08-23T16:46:21.257Z</time>
      </trkpt>
      <trkpt lat="44.73985" lon="5.14185">
        <ele>373</ele>
        <time>2026-08-23T16:46:22.257Z</time>
      </trkpt>
      <trkpt lat="44.73984" lon="5.14185">
        <ele>373</ele>
        <time>2026-08-23T16:46:23.257Z</time>
      </trkpt>
      <trkpt lat="44.73983" lon="5.14186">
        <ele>373</ele>
        <time>2026-08-23T16:46:24.257Z</time>
      </trkpt>
      <trkpt lat="44.73983" lon="5.14187">
        <ele>373</ele>
        <time>2026-08-23T16:46:25.257Z</time>
      </trkpt>
      <trkpt lat="44.73982" lon="5.14188">
        <ele>373</ele>
        <time>2026-08-23T16:46:26.257Z</time>
      </trkpt>
      <trkpt lat="44.73982" lon="5.14188">
        <ele>373</ele>
        <time>2026-08-23T16:46:27.257Z</time>
      </trkpt>
      <trkpt lat="44.73982" lon="5.14189">
        <ele>373</ele>
        <time>2026-08-23T16:46:28.257Z</time>
      </trkpt>
      <trkpt lat="44.73981" lon="5.1419">
        <ele>374</ele>
        <time>2026-08-23T16:46:29.257Z</time>
      </trkpt>
      <trkpt lat="44.73981" lon="5.14191">
        <ele>374</ele>
        <time>2026-08-23T16:46:30.257Z</time>
      </trkpt>
      <trkpt lat="44.7398" lon="5.14191">
        <ele>374</ele>
        <time>2026-08-23T16:46:31.257Z</time>
      </trkpt>
      <trkpt lat="44.73979" lon="5.14194">
        <ele>374</ele>
        <time>2026-08-23T16:46:43.269Z</time>
      </trkpt>
      <trkpt lat="44.73979" lon="5.14195">
        <ele>374</ele>
        <time>2026-08-23T16:46:44.269Z</time>
      </trkpt>
      <trkpt lat="44.73979" lon="5.14197">
        <ele>374</ele>
        <time>2026-08-23T16:46:45.269Z</time>
      </trkpt>
      <trkpt lat="44.73978" lon="5.14198">
        <ele>374</ele>
        <time>2026-08-23T16:46:46.269Z</time>
      </trkpt>
      <trkpt lat="44.73978" lon="5.14199">
        <ele>374</ele>
        <time>2026-08-23T16:46:47.269Z</time>
      </trkpt>
      <trkpt lat="44.73977" lon="5.14201">
        <ele>374</ele>
        <time>2026-08-23T16:46:48.269Z</time>
      </trkpt>
      <trkpt lat="44.73977" lon="5.14202">
        <ele>374</ele>
        <time>2026-08-23T16:46:49.269Z</time>
      </trkpt>
      <trkpt lat="44.73977" lon="5.14203">
        <ele>375</ele>
        <time>2026-08-23T16:46:50.269Z</time>
      </trkpt>
      <trkpt lat="44.73976" lon="5.14204">
        <ele>375</ele>
        <time>2026-08-23T16:46:51.269Z</time>
      </trkpt>
      <trkpt lat="44.73976" lon="5.14205">
        <ele>375</ele>
        <time>2026-08-23T16:46:52.269Z</time>
      </trkpt>
      <trkpt lat="44.73976" lon="5.14207">
        <ele>375</ele>
        <time>2026-08-23T16:46:53.269Z</time>
      </trkpt>
      <trkpt lat="44.73975" lon="5.14208">
        <ele>375</ele>
        <time>2026-08-23T16:46:54.269Z</time>
      </trkpt>
      <trkpt lat="44.73975" lon="5.1421">
        <ele>375</ele>
        <time>2026-08-23T16:46:55.269Z</time>
      </trkpt>
      <trkpt lat="44.73975" lon="5.14211">
        <ele>375</ele>
        <time>2026-08-23T16:46:56.269Z</time>
      </trkpt>
      <trkpt lat="44.73975" lon="5.14213">
        <ele>375</ele>
        <time>2026-08-23T16:46:57.269Z</time>
      </trkpt>
      <trkpt lat="44.73975" lon="5.14214">
        <ele>375</ele>
        <time>2026-08-23T16:46:58.269Z</time>
      </trkpt>
      <trkpt lat="44.73975" lon="5.14216">
        <ele>375</ele>
        <time>2026-08-23T16:46:59.269Z</time>
      </trkpt>
      <trkpt lat="44.73974" lon="5.14217">
        <ele>375</ele>
        <time>2026-08-23T16:47:00.269Z</time>
      </trkpt>
      <trkpt lat="44.73974" lon="5.14219">
        <ele>376</ele>
        <time>2026-08-23T16:47:01.269Z</time>
      </trkpt>
      <trkpt lat="44.73974" lon="5.1422">
        <ele>376</ele>
        <time>2026-08-23T16:47:02.269Z</time>
      </trkpt>
      <trkpt lat="44.73974" lon="5.14222">
        <ele>376</ele>
        <time>2026-08-23T16:47:03.269Z</time>
      </trkpt>
      <trkpt lat="44.73974" lon="5.14223">
        <ele>376</ele>
        <time>2026-08-23T16:47:04.269Z</time>
      </trkpt>
      <trkpt lat="44.73974" lon="5.14224">
        <ele>376</ele>
        <time>2026-08-23T16:47:05.269Z</time>
      </trkpt>
      <trkpt lat="44.73974" lon="5.14226">
        <ele>376</ele>
        <time>2026-08-23T16:47:06.269Z</time>
      </trkpt>
      <trkpt lat="44.73974" lon="5.14227">
        <ele>376</ele>
        <time>2026-08-23T16:47:07.269Z</time>
      </trkpt>
      <trkpt lat="44.73974" lon="5.14229">
        <ele>376</ele>
        <time>2026-08-23T16:47:08.269Z</time>
      </trkpt>
      <trkpt lat="44.73974" lon="5.1423">
        <ele>376</ele>
        <time>2026-08-23T16:47:09.269Z</time>
      </trkpt>
      <trkpt lat="44.73974" lon="5.14232">
        <ele>376</ele>
        <time>2026-08-23T16:47:10.269Z</time>
      </trkpt>
      <trkpt lat="44.73975" lon="5.14233">
        <ele>376</ele>
        <time>2026-08-23T16:47:11.269Z</time>
      </trkpt>
      <trkpt lat="44.73975" lon="5.14234">
        <ele>376</ele>
        <time>2026-08-23T16:47:12.269Z</time>
      </trkpt>
      <trkpt lat="44.73975" lon="5.14235">
        <ele>376</ele>
        <time>2026-08-23T16:47:13.269Z</time>
      </trkpt>
      <trkpt lat="44.73975" lon="5.14237">
        <ele>376</ele>
        <time>2026-08-23T16:47:14.269Z</time>
      </trkpt>
      <trkpt lat="44.73975" lon="5.14238">
        <ele>376</ele>
        <time>2026-08-23T16:47:15.269Z</time>
      </trkpt>
      <trkpt lat="44.73975" lon="5.14239">
        <ele>376</ele>
        <time>2026-08-23T16:47:16.269Z</time>
      </trkpt>
      <trkpt lat="44.73975" lon="5.1424">
        <ele>376</ele>
        <time>2026-08-23T16:47:17.269Z</time>
      </trkpt>
      <trkpt lat="44.73975" lon="5.14242">
        <ele>376</ele>
        <time>2026-08-23T16:47:18.269Z</time>
      </trkpt>
      <trkpt lat="44.73975" lon="5.14243">
        <ele>376</ele>
        <time>2026-08-23T16:47:19.269Z</time>
      </trkpt>
      <trkpt lat="44.73975" lon="5.14244">
        <ele>376</ele>
        <time>2026-08-23T16:47:20.269Z</time>
      </trkpt>
      <trkpt lat="44.73975" lon="5.14246">
        <ele>376</ele>
        <time>2026-08-23T16:47:21.269Z</time>
      </trkpt>
      <trkpt lat="44.73975" lon="5.14247">
        <ele>376</ele>
        <time>2026-08-23T16:47:22.269Z</time>
      </trkpt>
      <trkpt lat="44.73975" lon="5.14249">
        <ele>376</ele>
        <time>2026-08-23T16:47:23.269Z</time>
      </trkpt>
      <trkpt lat="44.73975" lon="5.1425">
        <ele>376</ele>
        <time>2026-08-23T16:47:24.269Z</time>
      </trkpt>
      <trkpt lat="44.73975" lon="5.14252">
        <ele>376</ele>
        <time>2026-08-23T16:47:25.269Z</time>
      </trkpt>
      <trkpt lat="44.73975" lon="5.14254">
        <ele>377</ele>
        <time>2026-08-23T16:47:26.269Z</time>
      </trkpt>
      <trkpt lat="44.73975" lon="5.14255">
        <ele>377</ele>
        <time>2026-08-23T16:47:27.269Z</time>
      </trkpt>
      <trkpt lat="44.73975" lon="5.14257">
        <ele>377</ele>
        <time>2026-08-23T16:47:28.269Z</time>
      </trkpt>
      <trkpt lat="44.73975" lon="5.14258">
        <ele>377</ele>
        <time>2026-08-23T16:47:29.269Z</time>
      </trkpt>
      <trkpt lat="44.73975" lon="5.14259">
        <ele>377</ele>
        <time>2026-08-23T16:47:30.269Z</time>
      </trkpt>
      <trkpt lat="44.73975" lon="5.14261">
        <ele>377</ele>
        <time>2026-08-23T16:47:31.269Z</time>
      </trkpt>
      <trkpt lat="44.73975" lon="5.14262">
        <ele>377</ele>
        <time>2026-08-23T16:47:32.269Z</time>
      </trkpt>
      <trkpt lat="44.73975" lon="5.14263">
        <ele>377</ele>
        <time>2026-08-23T16:47:33.269Z</time>
      </trkpt>
      <trkpt lat="44.73975" lon="5.14265">
        <ele>377</ele>
        <time>2026-08-23T16:47:34.269Z</time>
      </trkpt>
      <trkpt lat="44.73975" lon="5.14266">
        <ele>377</ele>
        <time>2026-08-23T16:47:35.269Z</time>
      </trkpt>
      <trkpt lat="44.73975" lon="5.14267">
        <ele>377</ele>
        <time>2026-08-23T16:47:36.269Z</time>
      </trkpt>
      <trkpt lat="44.73975" lon="5.14269">
        <ele>377</ele>
        <time>2026-08-23T16:47:37.269Z</time>
      </trkpt>
      <trkpt lat="44.73975" lon="5.1427">
        <ele>377</ele>
        <time>2026-08-23T16:47:38.269Z</time>
      </trkpt>
      <trkpt lat="44.73975" lon="5.14272">
        <ele>378</ele>
        <time>2026-08-23T16:47:39.269Z</time>
      </trkpt>
      <trkpt lat="44.73976" lon="5.14273">
        <ele>378</ele>
        <time>2026-08-23T16:47:40.269Z</time>
      </trkpt>
      <trkpt lat="44.73976" lon="5.14275">
        <ele>378</ele>
        <time>2026-08-23T16:47:41.269Z</time>
      </trkpt>
      <trkpt lat="44.73976" lon="5.14276">
        <ele>378</ele>
        <time>2026-08-23T16:47:42.269Z</time>
      </trkpt>
      <trkpt lat="44.73976" lon="5.14278">
        <ele>378</ele>
        <time>2026-08-23T16:47:43.269Z</time>
      </trkpt>
      <trkpt lat="44.73977" lon="5.14279">
        <ele>378</ele>
        <time>2026-08-23T16:47:44.269Z</time>
      </trkpt>
      <trkpt lat="44.73977" lon="5.14281">
        <ele>378</ele>
        <time>2026-08-23T16:47:45.269Z</time>
      </trkpt>
      <trkpt lat="44.73977" lon="5.14282">
        <ele>378</ele>
        <time>2026-08-23T16:47:46.269Z</time>
      </trkpt>
      <trkpt lat="44.73977" lon="5.14283">
        <ele>378</ele>
        <time>2026-08-23T16:47:47.269Z</time>
      </trkpt>
      <trkpt lat="44.73977" lon="5.14284">
        <ele>378</ele>
        <time>2026-08-23T16:47:48.269Z</time>
      </trkpt>
      <trkpt lat="44.73978" lon="5.14286">
        <ele>378</ele>
        <time>2026-08-23T16:47:49.269Z</time>
      </trkpt>
      <trkpt lat="44.73978" lon="5.14287">
        <ele>378</ele>
        <time>2026-08-23T16:47:50.269Z</time>
      </trkpt>
      <trkpt lat="44.73979" lon="5.14288">
        <ele>378</ele>
        <time>2026-08-23T16:47:51.269Z</time>
      </trkpt>
      <trkpt lat="44.73979" lon="5.14289">
        <ele>378</ele>
        <time>2026-08-23T16:47:52.269Z</time>
      </trkpt>
      <trkpt lat="44.7398" lon="5.1429">
        <ele>378</ele>
        <time>2026-08-23T16:47:53.269Z</time>
      </trkpt>
      <trkpt lat="44.7398" lon="5.14291">
        <ele>378</ele>
        <time>2026-08-23T16:47:54.269Z</time>
      </trkpt>
      <trkpt lat="44.73981" lon="5.14292">
        <ele>378</ele>
        <time>2026-08-23T16:47:55.269Z</time>
      </trkpt>
      <trkpt lat="44.73981" lon="5.14293">
        <ele>378</ele>
        <time>2026-08-23T16:47:56.269Z</time>
      </trkpt>
      <trkpt lat="44.73981" lon="5.14294">
        <ele>378</ele>
        <time>2026-08-23T16:47:57.269Z</time>
      </trkpt>
      <trkpt lat="44.73981" lon="5.14295">
        <ele>378</ele>
        <time>2026-08-23T16:47:58.269Z</time>
      </trkpt>
      <trkpt lat="44.73982" lon="5.14297">
        <ele>378</ele>
        <time>2026-08-23T16:47:59.269Z</time>
      </trkpt>
      <trkpt lat="44.73982" lon="5.14298">
        <ele>378</ele>
        <time>2026-08-23T16:48:00.269Z</time>
      </trkpt>
      <trkpt lat="44.73983" lon="5.14299">
        <ele>378</ele>
        <time>2026-08-23T16:48:01.269Z</time>
      </trkpt>
      <trkpt lat="44.73983" lon="5.143">
        <ele>378</ele>
        <time>2026-08-23T16:48:02.269Z</time>
      </trkpt>
      <trkpt lat="44.73984" lon="5.14301">
        <ele>378</ele>
        <time>2026-08-23T16:48:03.269Z</time>
      </trkpt>
      <trkpt lat="44.73984" lon="5.14303">
        <ele>378</ele>
        <time>2026-08-23T16:48:04.269Z</time>
      </trkpt>
      <trkpt lat="44.73985" lon="5.14304">
        <ele>378</ele>
        <time>2026-08-23T16:48:05.269Z</time>
      </trkpt>
      <trkpt lat="44.73985" lon="5.14305">
        <ele>378</ele>
        <time>2026-08-23T16:48:06.269Z</time>
      </trkpt>
      <trkpt lat="44.73986" lon="5.14305">
        <ele>378</ele>
        <time>2026-08-23T16:48:07.269Z</time>
      </trkpt>
      <trkpt lat="44.73986" lon="5.14306">
        <ele>378</ele>
        <time>2026-08-23T16:48:08.269Z</time>
      </trkpt>
      <trkpt lat="44.73986" lon="5.14306">
        <ele>378</ele>
        <time>2026-08-23T16:48:09.269Z</time>
      </trkpt>
      <trkpt lat="44.73986" lon="5.14307">
        <ele>378</ele>
        <time>2026-08-23T16:48:10.269Z</time>
      </trkpt>
      <trkpt lat="44.73986" lon="5.14307">
        <ele>378</ele>
        <time>2026-08-23T16:48:11.269Z</time>
      </trkpt>
      <trkpt lat="44.73987" lon="5.14308">
        <ele>378</ele>
        <time>2026-08-23T16:48:20.281Z</time>
      </trkpt>
      <trkpt lat="44.73987" lon="5.14309">
        <ele>378</ele>
        <time>2026-08-23T16:48:21.281Z</time>
      </trkpt>
      <trkpt lat="44.73989" lon="5.14312">
        <ele>378</ele>
        <time>2026-08-23T16:48:24.580Z</time>
      </trkpt>
      <trkpt lat="44.7399" lon="5.14313">
        <ele>378</ele>
        <time>2026-08-23T16:48:25.580Z</time>
      </trkpt>
      <trkpt lat="44.7399" lon="5.14314">
        <ele>378</ele>
        <time>2026-08-23T16:48:26.580Z</time>
      </trkpt>
      <trkpt lat="44.73991" lon="5.14315">
        <ele>378</ele>
        <time>2026-08-23T16:48:27.580Z</time>
      </trkpt>
      <trkpt lat="44.73991" lon="5.14317">
        <ele>378</ele>
        <time>2026-08-23T16:48:28.580Z</time>
      </trkpt>
      <trkpt lat="44.73992" lon="5.14318">
        <ele>378</ele>
        <time>2026-08-23T16:48:29.580Z</time>
      </trkpt>
      <trkpt lat="44.73992" lon="5.14319">
        <ele>378</ele>
        <time>2026-08-23T16:48:30.580Z</time>
      </trkpt>
      <trkpt lat="44.73993" lon="5.14321">
        <ele>378</ele>
        <time>2026-08-23T16:48:31.580Z</time>
      </trkpt>
      <trkpt lat="44.73994" lon="5.14322">
        <ele>378</ele>
        <time>2026-08-23T16:48:32.580Z</time>
      </trkpt>
      <trkpt lat="44.73994" lon="5.14323">
        <ele>378</ele>
        <time>2026-08-23T16:48:33.580Z</time>
      </trkpt>
      <trkpt lat="44.73995" lon="5.14324">
        <ele>378</ele>
        <time>2026-08-23T16:48:34.580Z</time>
      </trkpt>
      <trkpt lat="44.73996" lon="5.14325">
        <ele>378</ele>
        <time>2026-08-23T16:48:35.580Z</time>
      </trkpt>
      <trkpt lat="44.73996" lon="5.14326">
        <ele>378</ele>
        <time>2026-08-23T16:48:36.580Z</time>
      </trkpt>
      <trkpt lat="44.73997" lon="5.14328">
        <ele>378</ele>
        <time>2026-08-23T16:48:37.580Z</time>
      </trkpt>
      <trkpt lat="44.73997" lon="5.14329">
        <ele>378</ele>
        <time>2026-08-23T16:48:38.580Z</time>
      </trkpt>
      <trkpt lat="44.73998" lon="5.1433">
        <ele>378</ele>
        <time>2026-08-23T16:48:39.580Z</time>
      </trkpt>
      <trkpt lat="44.73999" lon="5.14331">
        <ele>378</ele>
        <time>2026-08-23T16:48:40.580Z</time>
      </trkpt>
      <trkpt lat="44.73999" lon="5.14332">
        <ele>378</ele>
        <time>2026-08-23T16:48:41.580Z</time>
      </trkpt>
      <trkpt lat="44.74" lon="5.14333">
        <ele>378</ele>
        <time>2026-08-23T16:48:42.580Z</time>
      </trkpt>
      <trkpt lat="44.74" lon="5.14333">
        <ele>378</ele>
        <time>2026-08-23T16:48:43.580Z</time>
      </trkpt>
      <trkpt lat="44.74" lon="5.14333">
        <ele>378</ele>
        <time>2026-08-23T16:48:44.580Z</time>
      </trkpt>
      <trkpt lat="44.74" lon="5.14333">
        <ele>378</ele>
        <time>2026-08-23T16:48:45.580Z</time>
      </trkpt>
      <trkpt lat="44.74" lon="5.14334">
        <ele>377</ele>
        <time>2026-08-23T16:48:46.580Z</time>
      </trkpt>
      <trkpt lat="44.74001" lon="5.14335">
        <ele>377</ele>
        <time>2026-08-23T16:48:47.580Z</time>
      </trkpt>
      <trkpt lat="44.74001" lon="5.14336">
        <ele>377</ele>
        <time>2026-08-23T16:48:48.580Z</time>
      </trkpt>
      <trkpt lat="44.74002" lon="5.14338">
        <ele>377</ele>
        <time>2026-08-23T16:48:49.580Z</time>
      </trkpt>
      <trkpt lat="44.74002" lon="5.14339">
        <ele>377</ele>
        <time>2026-08-23T16:48:50.580Z</time>
      </trkpt>
      <trkpt lat="44.74003" lon="5.1434">
        <ele>377</ele>
        <time>2026-08-23T16:48:51.580Z</time>
      </trkpt>
      <trkpt lat="44.74004" lon="5.14341">
        <ele>377</ele>
        <time>2026-08-23T16:48:52.580Z</time>
      </trkpt>
      <trkpt lat="44.74004" lon="5.14343">
        <ele>377</ele>
        <time>2026-08-23T16:48:53.580Z</time>
      </trkpt>
      <trkpt lat="44.74005" lon="5.14344">
        <ele>377</ele>
        <time>2026-08-23T16:48:54.580Z</time>
      </trkpt>
      <trkpt lat="44.74005" lon="5.14345">
        <ele>377</ele>
        <time>2026-08-23T16:48:55.580Z</time>
      </trkpt>
      <trkpt lat="44.74006" lon="5.14347">
        <ele>377</ele>
        <time>2026-08-23T16:48:56.580Z</time>
      </trkpt>
      <trkpt lat="44.74007" lon="5.14348">
        <ele>377</ele>
        <time>2026-08-23T16:48:57.580Z</time>
      </trkpt>
      <trkpt lat="44.74007" lon="5.14349">
        <ele>377</ele>
        <time>2026-08-23T16:48:58.580Z</time>
      </trkpt>
      <trkpt lat="44.74008" lon="5.14351">
        <ele>377</ele>
        <time>2026-08-23T16:48:59.580Z</time>
      </trkpt>
      <trkpt lat="44.74008" lon="5.14352">
        <ele>377</ele>
        <time>2026-08-23T16:49:00.580Z</time>
      </trkpt>
      <trkpt lat="44.74009" lon="5.14353">
        <ele>377</ele>
        <time>2026-08-23T16:49:01.580Z</time>
      </trkpt>
      <trkpt lat="44.7401" lon="5.14354">
        <ele>377</ele>
        <time>2026-08-23T16:49:02.580Z</time>
      </trkpt>
      <trkpt lat="44.7401" lon="5.14356">
        <ele>377</ele>
        <time>2026-08-23T16:49:03.580Z</time>
      </trkpt>
      <trkpt lat="44.74011" lon="5.14357">
        <ele>378</ele>
        <time>2026-08-23T16:49:04.580Z</time>
      </trkpt>
      <trkpt lat="44.74012" lon="5.14359">
        <ele>378</ele>
        <time>2026-08-23T16:49:05.580Z</time>
      </trkpt>
      <trkpt lat="44.74012" lon="5.1436">
        <ele>378</ele>
        <time>2026-08-23T16:49:06.580Z</time>
      </trkpt>
      <trkpt lat="44.74013" lon="5.14361">
        <ele>378</ele>
        <time>2026-08-23T16:49:07.580Z</time>
      </trkpt>
      <trkpt lat="44.74013" lon="5.14362">
        <ele>378</ele>
        <time>2026-08-23T16:49:08.580Z</time>
      </trkpt>
      <trkpt lat="44.74014" lon="5.14364">
        <ele>378</ele>
        <time>2026-08-23T16:49:09.580Z</time>
      </trkpt>
      <trkpt lat="44.74015" lon="5.14365">
        <ele>378</ele>
        <time>2026-08-23T16:49:10.580Z</time>
      </trkpt>
      <trkpt lat="44.74015" lon="5.14366">
        <ele>378</ele>
        <time>2026-08-23T16:49:11.580Z</time>
      </trkpt>
      <trkpt lat="44.74016" lon="5.14368">
        <ele>378</ele>
        <time>2026-08-23T16:49:12.580Z</time>
      </trkpt>
      <trkpt lat="44.74017" lon="5.14369">
        <ele>378</ele>
        <time>2026-08-23T16:49:13.580Z</time>
      </trkpt>
      <trkpt lat="44.74017" lon="5.1437">
        <ele>379</ele>
        <time>2026-08-23T16:49:14.580Z</time>
      </trkpt>
      <trkpt lat="44.74018" lon="5.14371">
        <ele>379</ele>
        <time>2026-08-23T16:49:15.580Z</time>
      </trkpt>
      <trkpt lat="44.74018" lon="5.14372">
        <ele>379</ele>
        <time>2026-08-23T16:49:16.580Z</time>
      </trkpt>
      <trkpt lat="44.74019" lon="5.14374">
        <ele>379</ele>
        <time>2026-08-23T16:49:17.580Z</time>
      </trkpt>
      <trkpt lat="44.7402" lon="5.14375">
        <ele>379</ele>
        <time>2026-08-23T16:49:18.580Z</time>
      </trkpt>
      <trkpt lat="44.7402" lon="5.14376">
        <ele>379</ele>
        <time>2026-08-23T16:49:19.580Z</time>
      </trkpt>
      <trkpt lat="44.7402" lon="5.14378">
        <ele>379</ele>
        <time>2026-08-23T16:49:20.580Z</time>
      </trkpt>
      <trkpt lat="44.74021" lon="5.14379">
        <ele>379</ele>
        <time>2026-08-23T16:49:21.580Z</time>
      </trkpt>
      <trkpt lat="44.74021" lon="5.1438">
        <ele>379</ele>
        <time>2026-08-23T16:49:22.580Z</time>
      </trkpt>
      <trkpt lat="44.74022" lon="5.14382">
        <ele>379</ele>
        <time>2026-08-23T16:49:23.580Z</time>
      </trkpt>
      <trkpt lat="44.74022" lon="5.14383">
        <ele>379</ele>
        <time>2026-08-23T16:49:24.580Z</time>
      </trkpt>
      <trkpt lat="44.74023" lon="5.14385">
        <ele>380</ele>
        <time>2026-08-23T16:49:25.580Z</time>
      </trkpt>
      <trkpt lat="44.74024" lon="5.14386">
        <ele>380</ele>
        <time>2026-08-23T16:49:26.580Z</time>
      </trkpt>
      <trkpt lat="44.74024" lon="5.14387">
        <ele>380</ele>
        <time>2026-08-23T16:49:27.580Z</time>
      </trkpt>
      <trkpt lat="44.74025" lon="5.14388">
        <ele>380</ele>
        <time>2026-08-23T16:49:28.580Z</time>
      </trkpt>
      <trkpt lat="44.74025" lon="5.1439">
        <ele>380</ele>
        <time>2026-08-23T16:49:29.580Z</time>
      </trkpt>
      <trkpt lat="44.74026" lon="5.14391">
        <ele>380</ele>
        <time>2026-08-23T16:49:30.580Z</time>
      </trkpt>
      <trkpt lat="44.74026" lon="5.14392">
        <ele>380</ele>
        <time>2026-08-23T16:49:31.580Z</time>
      </trkpt>
      <trkpt lat="44.74027" lon="5.14394">
        <ele>380</ele>
        <time>2026-08-23T16:49:32.580Z</time>
      </trkpt>
      <trkpt lat="44.74027" lon="5.14395">
        <ele>380</ele>
        <time>2026-08-23T16:49:33.580Z</time>
      </trkpt>
      <trkpt lat="44.74028" lon="5.14396">
        <ele>380</ele>
        <time>2026-08-23T16:49:34.580Z</time>
      </trkpt>
      <trkpt lat="44.74028" lon="5.14397">
        <ele>380</ele>
        <time>2026-08-23T16:49:35.580Z</time>
      </trkpt>
      <trkpt lat="44.74029" lon="5.14399">
        <ele>380</ele>
        <time>2026-08-23T16:49:36.580Z</time>
      </trkpt>
      <trkpt lat="44.74029" lon="5.144">
        <ele>381</ele>
        <time>2026-08-23T16:49:37.580Z</time>
      </trkpt>
      <trkpt lat="44.7403" lon="5.14401">
        <ele>381</ele>
        <time>2026-08-23T16:49:38.580Z</time>
      </trkpt>
      <trkpt lat="44.7403" lon="5.14402">
        <ele>381</ele>
        <time>2026-08-23T16:49:39.580Z</time>
      </trkpt>
      <trkpt lat="44.74031" lon="5.14404">
        <ele>381</ele>
        <time>2026-08-23T16:49:40.580Z</time>
      </trkpt>
      <trkpt lat="44.74031" lon="5.14405">
        <ele>381</ele>
        <time>2026-08-23T16:49:41.580Z</time>
      </trkpt>
      <trkpt lat="44.74032" lon="5.14406">
        <ele>381</ele>
        <time>2026-08-23T16:49:42.580Z</time>
      </trkpt>
      <trkpt lat="44.74033" lon="5.14407">
        <ele>381</ele>
        <time>2026-08-23T16:49:43.580Z</time>
      </trkpt>
      <trkpt lat="44.74033" lon="5.14409">
        <ele>381</ele>
        <time>2026-08-23T16:49:44.580Z</time>
      </trkpt>
      <trkpt lat="44.74034" lon="5.1441">
        <ele>381</ele>
        <time>2026-08-23T16:49:45.580Z</time>
      </trkpt>
      <trkpt lat="44.74034" lon="5.14411">
        <ele>381</ele>
        <time>2026-08-23T16:49:46.580Z</time>
      </trkpt>
      <trkpt lat="44.74035" lon="5.14412">
        <ele>382</ele>
        <time>2026-08-23T16:49:47.580Z</time>
      </trkpt>
      <trkpt lat="44.74036" lon="5.14414">
        <ele>382</ele>
        <time>2026-08-23T16:49:48.580Z</time>
      </trkpt>
      <trkpt lat="44.74036" lon="5.14415">
        <ele>382</ele>
        <time>2026-08-23T16:49:49.580Z</time>
      </trkpt>
      <trkpt lat="44.74037" lon="5.14416">
        <ele>382</ele>
        <time>2026-08-23T16:49:50.580Z</time>
      </trkpt>
      <trkpt lat="44.74037" lon="5.14417">
        <ele>382</ele>
        <time>2026-08-23T16:49:51.580Z</time>
      </trkpt>
      <trkpt lat="44.74038" lon="5.14418">
        <ele>382</ele>
        <time>2026-08-23T16:49:52.580Z</time>
      </trkpt>
      <trkpt lat="44.74039" lon="5.14419">
        <ele>382</ele>
        <time>2026-08-23T16:49:53.580Z</time>
      </trkpt>
      <trkpt lat="44.74039" lon="5.14421">
        <ele>382</ele>
        <time>2026-08-23T16:49:54.580Z</time>
      </trkpt>
      <trkpt lat="44.7404" lon="5.14422">
        <ele>382</ele>
        <time>2026-08-23T16:49:55.580Z</time>
      </trkpt>
      <trkpt lat="44.7404" lon="5.14423">
        <ele>382</ele>
        <time>2026-08-23T16:49:56.580Z</time>
      </trkpt>
      <trkpt lat="44.74041" lon="5.14424">
        <ele>382</ele>
        <time>2026-08-23T16:49:57.580Z</time>
      </trkpt>
      <trkpt lat="44.74042" lon="5.14425">
        <ele>382</ele>
        <time>2026-08-23T16:49:58.580Z</time>
      </trkpt>
      <trkpt lat="44.74042" lon="5.14426">
        <ele>382</ele>
        <time>2026-08-23T16:49:59.580Z</time>
      </trkpt>
      <trkpt lat="44.74043" lon="5.14428">
        <ele>382</ele>
        <time>2026-08-23T16:50:00.580Z</time>
      </trkpt>
      <trkpt lat="44.74043" lon="5.14429">
        <ele>382</ele>
        <time>2026-08-23T16:50:01.580Z</time>
      </trkpt>
      <trkpt lat="44.74044" lon="5.1443">
        <ele>382</ele>
        <time>2026-08-23T16:50:02.580Z</time>
      </trkpt>
      <trkpt lat="44.74044" lon="5.14431">
        <ele>382</ele>
        <time>2026-08-23T16:50:03.580Z</time>
      </trkpt>
      <trkpt lat="44.74045" lon="5.14433">
        <ele>382</ele>
        <time>2026-08-23T16:50:04.580Z</time>
      </trkpt>
      <trkpt lat="44.74045" lon="5.14434">
        <ele>382</ele>
        <time>2026-08-23T16:50:05.580Z</time>
      </trkpt>
      <trkpt lat="44.74046" lon="5.14435">
        <ele>382</ele>
        <time>2026-08-23T16:50:06.580Z</time>
      </trkpt>
      <trkpt lat="44.74046" lon="5.14436">
        <ele>382</ele>
        <time>2026-08-23T16:50:07.580Z</time>
      </trkpt>
      <trkpt lat="44.74047" lon="5.14437">
        <ele>382</ele>
        <time>2026-08-23T16:50:08.580Z</time>
      </trkpt>
      <trkpt lat="44.74047" lon="5.14439">
        <ele>382</ele>
        <time>2026-08-23T16:50:09.580Z</time>
      </trkpt>
      <trkpt lat="44.74048" lon="5.1444">
        <ele>382</ele>
        <time>2026-08-23T16:50:10.580Z</time>
      </trkpt>
      <trkpt lat="44.74048" lon="5.14441">
        <ele>382</ele>
        <time>2026-08-23T16:50:11.580Z</time>
      </trkpt>
      <trkpt lat="44.74049" lon="5.14443">
        <ele>382</ele>
        <time>2026-08-23T16:50:12.580Z</time>
      </trkpt>
      <trkpt lat="44.74049" lon="5.14444">
        <ele>382</ele>
        <time>2026-08-23T16:50:13.580Z</time>
      </trkpt>
      <trkpt lat="44.7405" lon="5.14445">
        <ele>382</ele>
        <time>2026-08-23T16:50:14.580Z</time>
      </trkpt>
      <trkpt lat="44.7405" lon="5.14447">
        <ele>382</ele>
        <time>2026-08-23T16:50:15.580Z</time>
      </trkpt>
      <trkpt lat="44.74051" lon="5.14448">
        <ele>382</ele>
        <time>2026-08-23T16:50:16.580Z</time>
      </trkpt>
      <trkpt lat="44.74052" lon="5.14449">
        <ele>382</ele>
        <time>2026-08-23T16:50:17.580Z</time>
      </trkpt>
      <trkpt lat="44.74052" lon="5.1445">
        <ele>382</ele>
        <time>2026-08-23T16:50:18.580Z</time>
      </trkpt>
      <trkpt lat="44.74053" lon="5.14452">
        <ele>382</ele>
        <time>2026-08-23T16:50:19.580Z</time>
      </trkpt>
      <trkpt lat="44.74053" lon="5.14453">
        <ele>382</ele>
        <time>2026-08-23T16:50:20.580Z</time>
      </trkpt>
      <trkpt lat="44.74053" lon="5.14454">
        <ele>382</ele>
        <time>2026-08-23T16:50:21.580Z</time>
      </trkpt>
      <trkpt lat="44.74054" lon="5.14456">
        <ele>382</ele>
        <time>2026-08-23T16:50:22.580Z</time>
      </trkpt>
      <trkpt lat="44.74054" lon="5.14457">
        <ele>382</ele>
        <time>2026-08-23T16:50:23.580Z</time>
      </trkpt>
      <trkpt lat="44.74055" lon="5.14458">
        <ele>382</ele>
        <time>2026-08-23T16:50:24.580Z</time>
      </trkpt>
      <trkpt lat="44.74055" lon="5.14459">
        <ele>382</ele>
        <time>2026-08-23T16:50:25.580Z</time>
      </trkpt>
      <trkpt lat="44.74055" lon="5.14461">
        <ele>382</ele>
        <time>2026-08-23T16:50:26.580Z</time>
      </trkpt>
      <trkpt lat="44.74056" lon="5.14462">
        <ele>382</ele>
        <time>2026-08-23T16:50:27.580Z</time>
      </trkpt>
      <trkpt lat="44.74056" lon="5.14464">
        <ele>382</ele>
        <time>2026-08-23T16:50:28.580Z</time>
      </trkpt>
      <trkpt lat="44.74056" lon="5.14465">
        <ele>382</ele>
        <time>2026-08-23T16:50:29.580Z</time>
      </trkpt>
      <trkpt lat="44.74057" lon="5.14466">
        <ele>382</ele>
        <time>2026-08-23T16:50:30.580Z</time>
      </trkpt>
      <trkpt lat="44.74057" lon="5.14467">
        <ele>382</ele>
        <time>2026-08-23T16:50:31.580Z</time>
      </trkpt>
      <trkpt lat="44.74057" lon="5.14469">
        <ele>382</ele>
        <time>2026-08-23T16:50:32.580Z</time>
      </trkpt>
      <trkpt lat="44.74058" lon="5.1447">
        <ele>382</ele>
        <time>2026-08-23T16:50:33.580Z</time>
      </trkpt>
      <trkpt lat="44.74058" lon="5.14471">
        <ele>382</ele>
        <time>2026-08-23T16:50:34.580Z</time>
      </trkpt>
      <trkpt lat="44.74058" lon="5.14472">
        <ele>382</ele>
        <time>2026-08-23T16:50:35.580Z</time>
      </trkpt>
      <trkpt lat="44.74058" lon="5.14472">
        <ele>382</ele>
        <time>2026-08-23T16:50:36.580Z</time>
      </trkpt>
      <trkpt lat="44.74058" lon="5.14472">
        <ele>382</ele>
        <time>2026-08-23T16:50:37.580Z</time>
      </trkpt>
      <trkpt lat="44.74058" lon="5.14473">
        <ele>382</ele>
        <time>2026-08-23T16:50:38.580Z</time>
      </trkpt>
      <trkpt lat="44.74058" lon="5.14474">
        <ele>382</ele>
        <time>2026-08-23T16:50:39.580Z</time>
      </trkpt>
      <trkpt lat="44.74058" lon="5.14475">
        <ele>382</ele>
        <time>2026-08-23T16:50:40.580Z</time>
      </trkpt>
      <trkpt lat="44.74058" lon="5.14476">
        <ele>382</ele>
        <time>2026-08-23T16:50:41.580Z</time>
      </trkpt>
      <trkpt lat="44.74059" lon="5.14478">
        <ele>382</ele>
        <time>2026-08-23T16:50:42.580Z</time>
      </trkpt>
      <trkpt lat="44.74059" lon="5.14479">
        <ele>382</ele>
        <time>2026-08-23T16:50:43.580Z</time>
      </trkpt>
      <trkpt lat="44.74059" lon="5.14481">
        <ele>382</ele>
        <time>2026-08-23T16:50:44.580Z</time>
      </trkpt>
      <trkpt lat="44.74059" lon="5.14482">
        <ele>382</ele>
        <time>2026-08-23T16:50:45.580Z</time>
      </trkpt>
      <trkpt lat="44.74059" lon="5.14484">
        <ele>382</ele>
        <time>2026-08-23T16:50:46.580Z</time>
      </trkpt>
      <trkpt lat="44.74059" lon="5.14485">
        <ele>382</ele>
        <time>2026-08-23T16:50:47.580Z</time>
      </trkpt>
      <trkpt lat="44.7406" lon="5.14487">
        <ele>383</ele>
        <time>2026-08-23T16:50:48.580Z</time>
      </trkpt>
      <trkpt lat="44.7406" lon="5.14489">
        <ele>383</ele>
        <time>2026-08-23T16:50:49.580Z</time>
      </trkpt>
      <trkpt lat="44.7406" lon="5.1449">
        <ele>383</ele>
        <time>2026-08-23T16:50:50.580Z</time>
      </trkpt>
      <trkpt lat="44.74059" lon="5.14491">
        <ele>383</ele>
        <time>2026-08-23T16:50:51.580Z</time>
      </trkpt>
      <trkpt lat="44.74059" lon="5.14493">
        <ele>383</ele>
        <time>2026-08-23T16:50:52.580Z</time>
      </trkpt>
      <trkpt lat="44.74059" lon="5.14495">
        <ele>383</ele>
        <time>2026-08-23T16:50:53.580Z</time>
      </trkpt>
      <trkpt lat="44.74059" lon="5.14496">
        <ele>383</ele>
        <time>2026-08-23T16:50:54.580Z</time>
      </trkpt>
      <trkpt lat="44.74059" lon="5.14498">
        <ele>383</ele>
        <time>2026-08-23T16:50:55.580Z</time>
      </trkpt>
      <trkpt lat="44.74059" lon="5.14499">
        <ele>384</ele>
        <time>2026-08-23T16:50:56.580Z</time>
      </trkpt>
      <trkpt lat="44.74058" lon="5.145">
        <ele>384</ele>
        <time>2026-08-23T16:50:57.580Z</time>
      </trkpt>
      <trkpt lat="44.74058" lon="5.14502">
        <ele>384</ele>
        <time>2026-08-23T16:50:58.580Z</time>
      </trkpt>
      <trkpt lat="44.74058" lon="5.14503">
        <ele>384</ele>
        <time>2026-08-23T16:50:59.580Z</time>
      </trkpt>
      <trkpt lat="44.74058" lon="5.14504">
        <ele>384</ele>
        <time>2026-08-23T16:51:00.580Z</time>
      </trkpt>
      <trkpt lat="44.74057" lon="5.14506">
        <ele>384</ele>
        <time>2026-08-23T16:51:01.580Z</time>
      </trkpt>
      <trkpt lat="44.74057" lon="5.14507">
        <ele>384</ele>
        <time>2026-08-23T16:51:02.580Z</time>
      </trkpt>
      <trkpt lat="44.74056" lon="5.14509">
        <ele>384</ele>
        <time>2026-08-23T16:51:03.580Z</time>
      </trkpt>
      <trkpt lat="44.74056" lon="5.1451">
        <ele>384</ele>
        <time>2026-08-23T16:51:04.580Z</time>
      </trkpt>
      <trkpt lat="44.74055" lon="5.14511">
        <ele>384</ele>
        <time>2026-08-23T16:51:05.580Z</time>
      </trkpt>
      <trkpt lat="44.74055" lon="5.14512">
        <ele>384</ele>
        <time>2026-08-23T16:51:06.580Z</time>
      </trkpt>
      <trkpt lat="44.74055" lon="5.14512">
        <ele>384</ele>
        <time>2026-08-23T16:51:07.580Z</time>
      </trkpt>
      <trkpt lat="44.74055" lon="5.14512">
        <ele>385</ele>
        <time>2026-08-23T16:51:08.580Z</time>
      </trkpt>
      <trkpt lat="44.74055" lon="5.14513">
        <ele>385</ele>
        <time>2026-08-23T16:51:09.580Z</time>
      </trkpt>
      <trkpt lat="44.74055" lon="5.14513">
        <ele>385</ele>
        <time>2026-08-23T16:51:10.580Z</time>
      </trkpt>
      <trkpt lat="44.74054" lon="5.14514">
        <ele>385</ele>
        <time>2026-08-23T16:51:11.580Z</time>
      </trkpt>
      <trkpt lat="44.74054" lon="5.14515">
        <ele>385</ele>
        <time>2026-08-23T16:51:12.580Z</time>
      </trkpt>
      <trkpt lat="44.74053" lon="5.14516">
        <ele>385</ele>
        <time>2026-08-23T16:51:13.580Z</time>
      </trkpt>
      <trkpt lat="44.74053" lon="5.14518">
        <ele>385</ele>
        <time>2026-08-23T16:51:14.580Z</time>
      </trkpt>
      <trkpt lat="44.74052" lon="5.14519">
        <ele>385</ele>
        <time>2026-08-23T16:51:15.580Z</time>
      </trkpt>
      <trkpt lat="44.74052" lon="5.14521">
        <ele>385</ele>
        <time>2026-08-23T16:51:16.580Z</time>
      </trkpt>
      <trkpt lat="44.74051" lon="5.14522">
        <ele>385</ele>
        <time>2026-08-23T16:51:17.580Z</time>
      </trkpt>
      <trkpt lat="44.74051" lon="5.14523">
        <ele>385</ele>
        <time>2026-08-23T16:51:18.580Z</time>
      </trkpt>
      <trkpt lat="44.7405" lon="5.14525">
        <ele>385</ele>
        <time>2026-08-23T16:51:19.580Z</time>
      </trkpt>
      <trkpt lat="44.7405" lon="5.14526">
        <ele>385</ele>
        <time>2026-08-23T16:51:20.580Z</time>
      </trkpt>
      <trkpt lat="44.74049" lon="5.14527">
        <ele>385</ele>
        <time>2026-08-23T16:51:21.580Z</time>
      </trkpt>
      <trkpt lat="44.74049" lon="5.14529">
        <ele>385</ele>
        <time>2026-08-23T16:51:22.580Z</time>
      </trkpt>
      <trkpt lat="44.74048" lon="5.1453">
        <ele>385</ele>
        <time>2026-08-23T16:51:23.580Z</time>
      </trkpt>
      <trkpt lat="44.74048" lon="5.14531">
        <ele>385</ele>
        <time>2026-08-23T16:51:24.580Z</time>
      </trkpt>
      <trkpt lat="44.74047" lon="5.14533">
        <ele>385</ele>
        <time>2026-08-23T16:51:25.580Z</time>
      </trkpt>
      <trkpt lat="44.74046" lon="5.14534">
        <ele>385</ele>
        <time>2026-08-23T16:51:26.580Z</time>
      </trkpt>
      <trkpt lat="44.74046" lon="5.14535">
        <ele>385</ele>
        <time>2026-08-23T16:51:27.580Z</time>
      </trkpt>
      <trkpt lat="44.74046" lon="5.14537">
        <ele>385</ele>
        <time>2026-08-23T16:51:28.580Z</time>
      </trkpt>
      <trkpt lat="44.74045" lon="5.14538">
        <ele>385</ele>
        <time>2026-08-23T16:51:29.580Z</time>
      </trkpt>
      <trkpt lat="44.74045" lon="5.14539">
        <ele>385</ele>
        <time>2026-08-23T16:51:30.580Z</time>
      </trkpt>
      <trkpt lat="44.74044" lon="5.14541">
        <ele>385</ele>
        <time>2026-08-23T16:51:31.580Z</time>
      </trkpt>
      <trkpt lat="44.74044" lon="5.14542">
        <ele>385</ele>
        <time>2026-08-23T16:51:32.580Z</time>
      </trkpt>
      <trkpt lat="44.74043" lon="5.14544">
        <ele>385</ele>
        <time>2026-08-23T16:51:33.580Z</time>
      </trkpt>
      <trkpt lat="44.74042" lon="5.14545">
        <ele>386</ele>
        <time>2026-08-23T16:51:34.580Z</time>
      </trkpt>
      <trkpt lat="44.74042" lon="5.14546">
        <ele>386</ele>
        <time>2026-08-23T16:51:35.580Z</time>
      </trkpt>
      <trkpt lat="44.74041" lon="5.14548">
        <ele>386</ele>
        <time>2026-08-23T16:51:36.580Z</time>
      </trkpt>
      <trkpt lat="44.74041" lon="5.14549">
        <ele>386</ele>
        <time>2026-08-23T16:51:37.580Z</time>
      </trkpt>
      <trkpt lat="44.7404" lon="5.1455">
        <ele>386</ele>
        <time>2026-08-23T16:51:38.580Z</time>
      </trkpt>
      <trkpt lat="44.7404" lon="5.14552">
        <ele>386</ele>
        <time>2026-08-23T16:51:39.580Z</time>
      </trkpt>
      <trkpt lat="44.74039" lon="5.14553">
        <ele>386</ele>
        <time>2026-08-23T16:51:40.580Z</time>
      </trkpt>
      <trkpt lat="44.74039" lon="5.14554">
        <ele>386</ele>
        <time>2026-08-23T16:51:41.580Z</time>
      </trkpt>
      <trkpt lat="44.74039" lon="5.14556">
        <ele>386</ele>
        <time>2026-08-23T16:51:42.580Z</time>
      </trkpt>
      <trkpt lat="44.74038" lon="5.14557">
        <ele>386</ele>
        <time>2026-08-23T16:51:43.580Z</time>
      </trkpt>
      <trkpt lat="44.74038" lon="5.14558">
        <ele>386</ele>
        <time>2026-08-23T16:51:44.580Z</time>
      </trkpt>
      <trkpt lat="44.74037" lon="5.1456">
        <ele>386</ele>
        <time>2026-08-23T16:51:45.580Z</time>
      </trkpt>
      <trkpt lat="44.74037" lon="5.14561">
        <ele>386</ele>
        <time>2026-08-23T16:51:46.580Z</time>
      </trkpt>
      <trkpt lat="44.74036" lon="5.14562">
        <ele>386</ele>
        <time>2026-08-23T16:51:47.580Z</time>
      </trkpt>
      <trkpt lat="44.74035" lon="5.14563">
        <ele>386</ele>
        <time>2026-08-23T16:51:48.580Z</time>
      </trkpt>
      <trkpt lat="44.74035" lon="5.14564">
        <ele>386</ele>
        <time>2026-08-23T16:51:49.580Z</time>
      </trkpt>
      <trkpt lat="44.74034" lon="5.14565">
        <ele>386</ele>
        <time>2026-08-23T16:51:50.580Z</time>
      </trkpt>
      <trkpt lat="44.74034" lon="5.14566">
        <ele>386</ele>
        <time>2026-08-23T16:51:51.580Z</time>
      </trkpt>
      <trkpt lat="44.74034" lon="5.14567">
        <ele>386</ele>
        <time>2026-08-23T16:51:52.580Z</time>
      </trkpt>
      <trkpt lat="44.74034" lon="5.14567">
        <ele>387</ele>
        <time>2026-08-23T16:51:53.580Z</time>
      </trkpt>
      <trkpt lat="44.74033" lon="5.14568">
        <ele>387</ele>
        <time>2026-08-23T16:51:54.580Z</time>
      </trkpt>
      <trkpt lat="44.74033" lon="5.14569">
        <ele>387</ele>
        <time>2026-08-23T16:51:55.580Z</time>
      </trkpt>
      <trkpt lat="44.74032" lon="5.14571">
        <ele>387</ele>
        <time>2026-08-23T16:51:56.580Z</time>
      </trkpt>
      <trkpt lat="44.74032" lon="5.14572">
        <ele>387</ele>
        <time>2026-08-23T16:51:57.580Z</time>
      </trkpt>
      <trkpt lat="44.74031" lon="5.14573">
        <ele>388</ele>
        <time>2026-08-23T16:51:58.580Z</time>
      </trkpt>
      <trkpt lat="44.74031" lon="5.14574">
        <ele>388</ele>
        <time>2026-08-23T16:51:59.580Z</time>
      </trkpt>
      <trkpt lat="44.7403" lon="5.14575">
        <ele>388</ele>
        <time>2026-08-23T16:52:00.580Z</time>
      </trkpt>
      <trkpt lat="44.7403" lon="5.14576">
        <ele>388</ele>
        <time>2026-08-23T16:52:01.580Z</time>
      </trkpt>
      <trkpt lat="44.74029" lon="5.14577">
        <ele>388</ele>
        <time>2026-08-23T16:52:02.580Z</time>
      </trkpt>
      <trkpt lat="44.74028" lon="5.14579">
        <ele>388</ele>
        <time>2026-08-23T16:52:03.580Z</time>
      </trkpt>
      <trkpt lat="44.74028" lon="5.1458">
        <ele>388</ele>
        <time>2026-08-23T16:52:04.580Z</time>
      </trkpt>
      <trkpt lat="44.74027" lon="5.14581">
        <ele>388</ele>
        <time>2026-08-23T16:52:05.580Z</time>
      </trkpt>
      <trkpt lat="44.74026" lon="5.14582">
        <ele>388</ele>
        <time>2026-08-23T16:52:06.580Z</time>
      </trkpt>
      <trkpt lat="44.74026" lon="5.14583">
        <ele>388</ele>
        <time>2026-08-23T16:52:07.580Z</time>
      </trkpt>
      <trkpt lat="44.74025" lon="5.14584">
        <ele>389</ele>
        <time>2026-08-23T16:52:08.580Z</time>
      </trkpt>
      <trkpt lat="44.74025" lon="5.14585">
        <ele>389</ele>
        <time>2026-08-23T16:52:09.580Z</time>
      </trkpt>
      <trkpt lat="44.74024" lon="5.14586">
        <ele>389</ele>
        <time>2026-08-23T16:52:10.580Z</time>
      </trkpt>
      <trkpt lat="44.74024" lon="5.14588">
        <ele>389</ele>
        <time>2026-08-23T16:52:11.580Z</time>
      </trkpt>
      <trkpt lat="44.74023" lon="5.14589">
        <ele>389</ele>
        <time>2026-08-23T16:52:12.580Z</time>
      </trkpt>
      <trkpt lat="44.74022" lon="5.1459">
        <ele>389</ele>
        <time>2026-08-23T16:52:13.580Z</time>
      </trkpt>
      <trkpt lat="44.74022" lon="5.14591">
        <ele>389</ele>
        <time>2026-08-23T16:52:14.580Z</time>
      </trkpt>
      <trkpt lat="44.74021" lon="5.14592">
        <ele>389</ele>
        <time>2026-08-23T16:52:15.580Z</time>
      </trkpt>
      <trkpt lat="44.7402" lon="5.14593">
        <ele>389</ele>
        <time>2026-08-23T16:52:16.580Z</time>
      </trkpt>
      <trkpt lat="44.74019" lon="5.14594">
        <ele>389</ele>
        <time>2026-08-23T16:52:17.580Z</time>
      </trkpt>
      <trkpt lat="44.74019" lon="5.14595">
        <ele>389</ele>
        <time>2026-08-23T16:52:18.580Z</time>
      </trkpt>
      <trkpt lat="44.74018" lon="5.14596">
        <ele>389</ele>
        <time>2026-08-23T16:52:19.580Z</time>
      </trkpt>
      <trkpt lat="44.74018" lon="5.14597">
        <ele>390</ele>
        <time>2026-08-23T16:52:20.580Z</time>
      </trkpt>
      <trkpt lat="44.74017" lon="5.14598">
        <ele>390</ele>
        <time>2026-08-23T16:52:21.580Z</time>
      </trkpt>
      <trkpt lat="44.74016" lon="5.14599">
        <ele>390</ele>
        <time>2026-08-23T16:52:22.580Z</time>
      </trkpt>
      <trkpt lat="44.74015" lon="5.146">
        <ele>390</ele>
        <time>2026-08-23T16:52:23.580Z</time>
      </trkpt>
      <trkpt lat="44.74014" lon="5.14601">
        <ele>390</ele>
        <time>2026-08-23T16:52:24.580Z</time>
      </trkpt>
      <trkpt lat="44.74014" lon="5.14602">
        <ele>390</ele>
        <time>2026-08-23T16:52:25.580Z</time>
      </trkpt>
      <trkpt lat="44.74013" lon="5.14603">
        <ele>390</ele>
        <time>2026-08-23T16:52:26.580Z</time>
      </trkpt>
      <trkpt lat="44.74012" lon="5.14604">
        <ele>390</ele>
        <time>2026-08-23T16:52:27.580Z</time>
      </trkpt>
      <trkpt lat="44.74011" lon="5.14604">
        <ele>390</ele>
        <time>2026-08-23T16:52:28.580Z</time>
      </trkpt>
      <trkpt lat="44.7401" lon="5.14605">
        <ele>390</ele>
        <time>2026-08-23T16:52:29.580Z</time>
      </trkpt>
      <trkpt lat="44.74009" lon="5.14606">
        <ele>390</ele>
        <time>2026-08-23T16:52:30.580Z</time>
      </trkpt>
      <trkpt lat="44.74008" lon="5.14606">
        <ele>390</ele>
        <time>2026-08-23T16:52:31.580Z</time>
      </trkpt>
      <trkpt lat="44.74007" lon="5.14607">
        <ele>390</ele>
        <time>2026-08-23T16:52:32.580Z</time>
      </trkpt>
      <trkpt lat="44.74007" lon="5.14608">
        <ele>390</ele>
        <time>2026-08-23T16:52:33.580Z</time>
      </trkpt>
      <trkpt lat="44.74006" lon="5.14608">
        <ele>390</ele>
        <time>2026-08-23T16:52:34.580Z</time>
      </trkpt>
      <trkpt lat="44.74005" lon="5.14609">
        <ele>390</ele>
        <time>2026-08-23T16:52:35.580Z</time>
      </trkpt>
      <trkpt lat="44.74004" lon="5.14609">
        <ele>390</ele>
        <time>2026-08-23T16:52:36.580Z</time>
      </trkpt>
      <trkpt lat="44.74003" lon="5.1461">
        <ele>390</ele>
        <time>2026-08-23T16:52:37.580Z</time>
      </trkpt>
      <trkpt lat="44.74002" lon="5.14611">
        <ele>390</ele>
        <time>2026-08-23T16:52:38.580Z</time>
      </trkpt>
      <trkpt lat="44.74001" lon="5.14611">
        <ele>390</ele>
        <time>2026-08-23T16:52:39.580Z</time>
      </trkpt>
      <trkpt lat="44.74" lon="5.14612">
        <ele>390</ele>
        <time>2026-08-23T16:52:40.580Z</time>
      </trkpt>
      <trkpt lat="44.73999" lon="5.14612">
        <ele>390</ele>
        <time>2026-08-23T16:52:41.580Z</time>
      </trkpt>
      <trkpt lat="44.73998" lon="5.14612">
        <ele>390</ele>
        <time>2026-08-23T16:52:42.580Z</time>
      </trkpt>
      <trkpt lat="44.73997" lon="5.14613">
        <ele>390</ele>
        <time>2026-08-23T16:52:43.580Z</time>
      </trkpt>
      <trkpt lat="44.73996" lon="5.14613">
        <ele>390</ele>
        <time>2026-08-23T16:52:44.580Z</time>
      </trkpt>
      <trkpt lat="44.73995" lon="5.14613">
        <ele>391</ele>
        <time>2026-08-23T16:52:45.580Z</time>
      </trkpt>
      <trkpt lat="44.73994" lon="5.14613">
        <ele>391</ele>
        <time>2026-08-23T16:52:46.580Z</time>
      </trkpt>
      <trkpt lat="44.73994" lon="5.14612">
        <ele>391</ele>
        <time>2026-08-23T16:52:47.580Z</time>
      </trkpt>
      <trkpt lat="44.73993" lon="5.14613">
        <ele>391</ele>
        <time>2026-08-23T16:52:48.580Z</time>
      </trkpt>
      <trkpt lat="44.73992" lon="5.14613">
        <ele>391</ele>
        <time>2026-08-23T16:52:49.580Z</time>
      </trkpt>
      <trkpt lat="44.73991" lon="5.14613">
        <ele>391</ele>
        <time>2026-08-23T16:52:50.580Z</time>
      </trkpt>
      <trkpt lat="44.7399" lon="5.14614">
        <ele>391</ele>
        <time>2026-08-23T16:52:51.580Z</time>
      </trkpt>
      <trkpt lat="44.73989" lon="5.14614">
        <ele>391</ele>
        <time>2026-08-23T16:52:52.580Z</time>
      </trkpt>
      <trkpt lat="44.73988" lon="5.14615">
        <ele>391</ele>
        <time>2026-08-23T16:52:53.580Z</time>
      </trkpt>
      <trkpt lat="44.73988" lon="5.14615">
        <ele>391</ele>
        <time>2026-08-23T16:52:54.580Z</time>
      </trkpt>
      <trkpt lat="44.73987" lon="5.14615">
        <ele>391</ele>
        <time>2026-08-23T16:52:55.580Z</time>
      </trkpt>
      <trkpt lat="44.73986" lon="5.14616">
        <ele>391</ele>
        <time>2026-08-23T16:52:56.580Z</time>
      </trkpt>
      <trkpt lat="44.73985" lon="5.14616">
        <ele>391</ele>
        <time>2026-08-23T16:52:57.580Z</time>
      </trkpt>
      <trkpt lat="44.73984" lon="5.14616">
        <ele>391</ele>
        <time>2026-08-23T16:52:58.580Z</time>
      </trkpt>
      <trkpt lat="44.73983" lon="5.14616">
        <ele>391</ele>
        <time>2026-08-23T16:52:59.580Z</time>
      </trkpt>
      <trkpt lat="44.73983" lon="5.14616">
        <ele>391</ele>
        <time>2026-08-23T16:53:00.580Z</time>
      </trkpt>
      <trkpt lat="44.73982" lon="5.14615">
        <ele>391</ele>
        <time>2026-08-23T16:53:01.580Z</time>
      </trkpt>
      <trkpt lat="44.73981" lon="5.14615">
        <ele>391</ele>
        <time>2026-08-23T16:53:02.580Z</time>
      </trkpt>
      <trkpt lat="44.7398" lon="5.14615">
        <ele>391</ele>
        <time>2026-08-23T16:53:03.580Z</time>
      </trkpt>
      <trkpt lat="44.73979" lon="5.14614">
        <ele>391</ele>
        <time>2026-08-23T16:53:04.580Z</time>
      </trkpt>
      <trkpt lat="44.73978" lon="5.14614">
        <ele>391</ele>
        <time>2026-08-23T16:53:05.580Z</time>
      </trkpt>
      <trkpt lat="44.73977" lon="5.14614">
        <ele>391</ele>
        <time>2026-08-23T16:53:06.580Z</time>
      </trkpt>
      <trkpt lat="44.73977" lon="5.14614">
        <ele>391</ele>
        <time>2026-08-23T16:53:07.580Z</time>
      </trkpt>
      <trkpt lat="44.73976" lon="5.14614">
        <ele>391</ele>
        <time>2026-08-23T16:53:08.580Z</time>
      </trkpt>
      <trkpt lat="44.73975" lon="5.14613">
        <ele>391</ele>
        <time>2026-08-23T16:53:09.580Z</time>
      </trkpt>
      <trkpt lat="44.73974" lon="5.14613">
        <ele>392</ele>
        <time>2026-08-23T16:53:10.580Z</time>
      </trkpt>
      <trkpt lat="44.73973" lon="5.14613">
        <ele>392</ele>
        <time>2026-08-23T16:53:11.580Z</time>
      </trkpt>
      <trkpt lat="44.73973" lon="5.14613">
        <ele>392</ele>
        <time>2026-08-23T16:53:12.580Z</time>
      </trkpt>
      <trkpt lat="44.73972" lon="5.14613">
        <ele>392</ele>
        <time>2026-08-23T16:53:13.580Z</time>
      </trkpt>
      <trkpt lat="44.73971" lon="5.14613">
        <ele>392</ele>
        <time>2026-08-23T16:53:14.580Z</time>
      </trkpt>
      <trkpt lat="44.7397" lon="5.14612">
        <ele>392</ele>
        <time>2026-08-23T16:53:15.580Z</time>
      </trkpt>
      <trkpt lat="44.73969" lon="5.14612">
        <ele>392</ele>
        <time>2026-08-23T16:53:16.580Z</time>
      </trkpt>
      <trkpt lat="44.73968" lon="5.14612">
        <ele>392</ele>
        <time>2026-08-23T16:53:17.580Z</time>
      </trkpt>
      <trkpt lat="44.73967" lon="5.14612">
        <ele>393</ele>
        <time>2026-08-23T16:53:18.580Z</time>
      </trkpt>
      <trkpt lat="44.73966" lon="5.14612">
        <ele>393</ele>
        <time>2026-08-23T16:53:19.580Z</time>
      </trkpt>
      <trkpt lat="44.73966" lon="5.14612">
        <ele>393</ele>
        <time>2026-08-23T16:53:20.580Z</time>
      </trkpt>
      <trkpt lat="44.73965" lon="5.14612">
        <ele>393</ele>
        <time>2026-08-23T16:53:21.580Z</time>
      </trkpt>
      <trkpt lat="44.73964" lon="5.14612">
        <ele>393</ele>
        <time>2026-08-23T16:53:22.580Z</time>
      </trkpt>
      <trkpt lat="44.73963" lon="5.14612">
        <ele>393</ele>
        <time>2026-08-23T16:53:23.580Z</time>
      </trkpt>
      <trkpt lat="44.73962" lon="5.14612">
        <ele>393</ele>
        <time>2026-08-23T16:53:24.580Z</time>
      </trkpt>
      <trkpt lat="44.73962" lon="5.14612">
        <ele>393</ele>
        <time>2026-08-23T16:53:25.580Z</time>
      </trkpt>
      <trkpt lat="44.73961" lon="5.14612">
        <ele>394</ele>
        <time>2026-08-23T16:53:26.580Z</time>
      </trkpt>
      <trkpt lat="44.7396" lon="5.14612">
        <ele>394</ele>
        <time>2026-08-23T16:53:27.580Z</time>
      </trkpt>
      <trkpt lat="44.73959" lon="5.14612">
        <ele>394</ele>
        <time>2026-08-23T16:53:28.580Z</time>
      </trkpt>
      <trkpt lat="44.73959" lon="5.14613">
        <ele>394</ele>
        <time>2026-08-23T16:53:29.580Z</time>
      </trkpt>
      <trkpt lat="44.73959" lon="5.14613">
        <ele>394</ele>
        <time>2026-08-23T16:53:30.580Z</time>
      </trkpt>
      <trkpt lat="44.73959" lon="5.14612">
        <ele>394</ele>
        <time>2026-08-23T16:53:31.580Z</time>
      </trkpt>
      <trkpt lat="44.73957" lon="5.14611">
        <ele>394</ele>
        <time>2026-08-23T16:53:34.881Z</time>
      </trkpt>
      <trkpt lat="44.73957" lon="5.1461">
        <ele>394</ele>
        <time>2026-08-23T16:53:35.881Z</time>
      </trkpt>
      <trkpt lat="44.73956" lon="5.14609">
        <ele>394</ele>
        <time>2026-08-23T16:53:36.881Z</time>
      </trkpt>
      <trkpt lat="44.73956" lon="5.14608">
        <ele>394</ele>
        <time>2026-08-23T16:53:37.881Z</time>
      </trkpt>
      <trkpt lat="44.73956" lon="5.14607">
        <ele>394</ele>
        <time>2026-08-23T16:53:38.881Z</time>
      </trkpt>
      <trkpt lat="44.73956" lon="5.14606">
        <ele>394</ele>
        <time>2026-08-23T16:53:39.881Z</time>
      </trkpt>
      <trkpt lat="44.73956" lon="5.14605">
        <ele>394</ele>
        <time>2026-08-23T16:53:40.881Z</time>
      </trkpt>
      <trkpt lat="44.73956" lon="5.14605">
        <ele>394</ele>
        <time>2026-08-23T16:53:41.881Z</time>
      </trkpt>
      <trkpt lat="44.73955" lon="5.14604">
        <ele>394</ele>
        <time>2026-08-23T16:53:42.881Z</time>
      </trkpt>
      <trkpt lat="44.73955" lon="5.14603">
        <ele>394</ele>
        <time>2026-08-23T16:53:43.881Z</time>
      </trkpt>
      <trkpt lat="44.73955" lon="5.14602">
        <ele>394</ele>
        <time>2026-08-23T16:53:44.881Z</time>
      </trkpt>
      <trkpt lat="44.73955" lon="5.14601">
        <ele>394</ele>
        <time>2026-08-23T16:53:45.881Z</time>
      </trkpt>
      <trkpt lat="44.73955" lon="5.14601">
        <ele>394</ele>
        <time>2026-08-23T16:53:46.881Z</time>
      </trkpt>
      <trkpt lat="44.73954" lon="5.14601">
        <ele>394</ele>
        <time>2026-08-23T16:53:47.881Z</time>
      </trkpt>
      <trkpt lat="44.73954" lon="5.14601">
        <ele>394</ele>
        <time>2026-08-23T16:53:48.881Z</time>
      </trkpt>
      <trkpt lat="44.73953" lon="5.14597">
        <ele>394</ele>
        <time>2026-08-23T16:53:52.294Z</time>
      </trkpt>
      <trkpt lat="44.73952" lon="5.14596">
        <ele>394</ele>
        <time>2026-08-23T16:53:53.294Z</time>
      </trkpt>
      <trkpt lat="44.73952" lon="5.14595">
        <ele>394</ele>
        <time>2026-08-23T16:53:54.294Z</time>
      </trkpt>
      <trkpt lat="44.73951" lon="5.14593">
        <ele>394</ele>
        <time>2026-08-23T16:53:55.294Z</time>
      </trkpt>
      <trkpt lat="44.73951" lon="5.14592">
        <ele>394</ele>
        <time>2026-08-23T16:53:56.294Z</time>
      </trkpt>
      <trkpt lat="44.73951" lon="5.14591">
        <ele>394</ele>
        <time>2026-08-23T16:53:57.294Z</time>
      </trkpt>
      <trkpt lat="44.73951" lon="5.1459">
        <ele>395</ele>
        <time>2026-08-23T16:53:58.294Z</time>
      </trkpt>
      <trkpt lat="44.73951" lon="5.14588">
        <ele>395</ele>
        <time>2026-08-23T16:53:59.294Z</time>
      </trkpt>
      <trkpt lat="44.73951" lon="5.14587">
        <ele>395</ele>
        <time>2026-08-23T16:54:00.294Z</time>
      </trkpt>
      <trkpt lat="44.73952" lon="5.14586">
        <ele>395</ele>
        <time>2026-08-23T16:54:01.294Z</time>
      </trkpt>
      <trkpt lat="44.73953" lon="5.14585">
        <ele>395</ele>
        <time>2026-08-23T16:54:02.294Z</time>
      </trkpt>
      <trkpt lat="44.73953" lon="5.14584">
        <ele>395</ele>
        <time>2026-08-23T16:54:03.294Z</time>
      </trkpt>
      <trkpt lat="44.73954" lon="5.14583">
        <ele>395</ele>
        <time>2026-08-23T16:54:04.294Z</time>
      </trkpt>
      <trkpt lat="44.73954" lon="5.14582">
        <ele>395</ele>
        <time>2026-08-23T16:54:05.294Z</time>
      </trkpt>
      <trkpt lat="44.73954" lon="5.14581">
        <ele>395</ele>
        <time>2026-08-23T16:54:06.294Z</time>
      </trkpt>
      <trkpt lat="44.73954" lon="5.14579">
        <ele>395</ele>
        <time>2026-08-23T16:54:07.294Z</time>
      </trkpt>
      <trkpt lat="44.73955" lon="5.14578">
        <ele>395</ele>
        <time>2026-08-23T16:54:08.294Z</time>
      </trkpt>
      <trkpt lat="44.73955" lon="5.14577">
        <ele>395</ele>
        <time>2026-08-23T16:54:09.294Z</time>
      </trkpt>
      <trkpt lat="44.73955" lon="5.14575">
        <ele>395</ele>
        <time>2026-08-23T16:54:10.294Z</time>
      </trkpt>
      <trkpt lat="44.73956" lon="5.14574">
        <ele>395</ele>
        <time>2026-08-23T16:54:11.294Z</time>
      </trkpt>
      <trkpt lat="44.73956" lon="5.14573">
        <ele>395</ele>
        <time>2026-08-23T16:54:12.294Z</time>
      </trkpt>
      <trkpt lat="44.73956" lon="5.14571">
        <ele>395</ele>
        <time>2026-08-23T16:54:13.294Z</time>
      </trkpt>
      <trkpt lat="44.73956" lon="5.14569">
        <ele>395</ele>
        <time>2026-08-23T16:54:14.294Z</time>
      </trkpt>
      <trkpt lat="44.73956" lon="5.14568">
        <ele>395</ele>
        <time>2026-08-23T16:54:15.294Z</time>
      </trkpt>
      <trkpt lat="44.73956" lon="5.14566">
        <ele>395</ele>
        <time>2026-08-23T16:54:16.294Z</time>
      </trkpt>
      <trkpt lat="44.73956" lon="5.14564">
        <ele>395</ele>
        <time>2026-08-23T16:54:17.294Z</time>
      </trkpt>
      <trkpt lat="44.73956" lon="5.14563">
        <ele>395</ele>
        <time>2026-08-23T16:54:18.294Z</time>
      </trkpt>
      <trkpt lat="44.73956" lon="5.14561">
        <ele>395</ele>
        <time>2026-08-23T16:54:19.294Z</time>
      </trkpt>
      <trkpt lat="44.73956" lon="5.1456">
        <ele>395</ele>
        <time>2026-08-23T16:54:20.294Z</time>
      </trkpt>
      <trkpt lat="44.73956" lon="5.14559">
        <ele>395</ele>
        <time>2026-08-23T16:54:21.294Z</time>
      </trkpt>
      <trkpt lat="44.73956" lon="5.14557">
        <ele>395</ele>
        <time>2026-08-23T16:54:22.294Z</time>
      </trkpt>
      <trkpt lat="44.73956" lon="5.14556">
        <ele>395</ele>
        <time>2026-08-23T16:54:23.294Z</time>
      </trkpt>
      <trkpt lat="44.73956" lon="5.14554">
        <ele>395</ele>
        <time>2026-08-23T16:54:24.294Z</time>
      </trkpt>
      <trkpt lat="44.73956" lon="5.14552">
        <ele>395</ele>
        <time>2026-08-23T16:54:25.294Z</time>
      </trkpt>
      <trkpt lat="44.73955" lon="5.14551">
        <ele>395</ele>
        <time>2026-08-23T16:54:26.294Z</time>
      </trkpt>
      <trkpt lat="44.73955" lon="5.14549">
        <ele>395</ele>
        <time>2026-08-23T16:54:27.294Z</time>
      </trkpt>
      <trkpt lat="44.73954" lon="5.14548">
        <ele>395</ele>
        <time>2026-08-23T16:54:28.294Z</time>
      </trkpt>
      <trkpt lat="44.73954" lon="5.14546">
        <ele>395</ele>
        <time>2026-08-23T16:54:29.294Z</time>
      </trkpt>
      <trkpt lat="44.73953" lon="5.14545">
        <ele>395</ele>
        <time>2026-08-23T16:54:30.294Z</time>
      </trkpt>
      <trkpt lat="44.73953" lon="5.14543">
        <ele>395</ele>
        <time>2026-08-23T16:54:31.294Z</time>
      </trkpt>
      <trkpt lat="44.73953" lon="5.14542">
        <ele>395</ele>
        <time>2026-08-23T16:54:32.294Z</time>
      </trkpt>
      <trkpt lat="44.73952" lon="5.1454">
        <ele>395</ele>
        <time>2026-08-23T16:54:33.294Z</time>
      </trkpt>
      <trkpt lat="44.73951" lon="5.14539">
        <ele>395</ele>
        <time>2026-08-23T16:54:34.294Z</time>
      </trkpt>
      <trkpt lat="44.73951" lon="5.14538">
        <ele>395</ele>
        <time>2026-08-23T16:54:35.294Z</time>
      </trkpt>
      <trkpt lat="44.7395" lon="5.14537">
        <ele>395</ele>
        <time>2026-08-23T16:54:36.294Z</time>
      </trkpt>
      <trkpt lat="44.7395" lon="5.14535">
        <ele>395</ele>
        <time>2026-08-23T16:54:37.294Z</time>
      </trkpt>
      <trkpt lat="44.73949" lon="5.14534">
        <ele>395</ele>
        <time>2026-08-23T16:54:38.294Z</time>
      </trkpt>
      <trkpt lat="44.73949" lon="5.14533">
        <ele>395</ele>
        <time>2026-08-23T16:54:39.294Z</time>
      </trkpt>
      <trkpt lat="44.73948" lon="5.14532">
        <ele>395</ele>
        <time>2026-08-23T16:54:40.294Z</time>
      </trkpt>
      <trkpt lat="44.73947" lon="5.14531">
        <ele>395</ele>
        <time>2026-08-23T16:54:41.294Z</time>
      </trkpt>
      <trkpt lat="44.73947" lon="5.1453">
        <ele>395</ele>
        <time>2026-08-23T16:54:42.294Z</time>
      </trkpt>
      <trkpt lat="44.73946" lon="5.14529">
        <ele>395</ele>
        <time>2026-08-23T16:54:43.294Z</time>
      </trkpt>
      <trkpt lat="44.73945" lon="5.14527">
        <ele>395</ele>
        <time>2026-08-23T16:54:44.294Z</time>
      </trkpt>
      <trkpt lat="44.73945" lon="5.14526">
        <ele>395</ele>
        <time>2026-08-23T16:54:45.294Z</time>
      </trkpt>
      <trkpt lat="44.73944" lon="5.14525">
        <ele>395</ele>
        <time>2026-08-23T16:54:46.294Z</time>
      </trkpt>
      <trkpt lat="44.73943" lon="5.14524">
        <ele>395</ele>
        <time>2026-08-23T16:54:47.294Z</time>
      </trkpt>
      <trkpt lat="44.73943" lon="5.14523">
        <ele>395</ele>
        <time>2026-08-23T16:54:48.294Z</time>
      </trkpt>
      <trkpt lat="44.73942" lon="5.14522">
        <ele>395</ele>
        <time>2026-08-23T16:54:49.294Z</time>
      </trkpt>
      <trkpt lat="44.73941" lon="5.14521">
        <ele>395</ele>
        <time>2026-08-23T16:54:50.294Z</time>
      </trkpt>
      <trkpt lat="44.7394" lon="5.1452">
        <ele>396</ele>
        <time>2026-08-23T16:54:51.294Z</time>
      </trkpt>
      <trkpt lat="44.7394" lon="5.14519">
        <ele>396</ele>
        <time>2026-08-23T16:54:52.294Z</time>
      </trkpt>
      <trkpt lat="44.73939" lon="5.14518">
        <ele>396</ele>
        <time>2026-08-23T16:54:53.294Z</time>
      </trkpt>
      <trkpt lat="44.73938" lon="5.14517">
        <ele>396</ele>
        <time>2026-08-23T16:54:54.294Z</time>
      </trkpt>
      <trkpt lat="44.73937" lon="5.14516">
        <ele>396</ele>
        <time>2026-08-23T16:54:55.294Z</time>
      </trkpt>
      <trkpt lat="44.73936" lon="5.14515">
        <ele>396</ele>
        <time>2026-08-23T16:54:56.294Z</time>
      </trkpt>
      <trkpt lat="44.73935" lon="5.14514">
        <ele>396</ele>
        <time>2026-08-23T16:54:57.294Z</time>
      </trkpt>
      <trkpt lat="44.73935" lon="5.14513">
        <ele>396</ele>
        <time>2026-08-23T16:54:58.294Z</time>
      </trkpt>
      <trkpt lat="44.73934" lon="5.14513">
        <ele>396</ele>
        <time>2026-08-23T16:54:59.294Z</time>
      </trkpt>
      <trkpt lat="44.73933" lon="5.14512">
        <ele>396</ele>
        <time>2026-08-23T16:55:00.294Z</time>
      </trkpt>
      <trkpt lat="44.73933" lon="5.14511">
        <ele>396</ele>
        <time>2026-08-23T16:55:01.294Z</time>
      </trkpt>
      <trkpt lat="44.73932" lon="5.14511">
        <ele>396</ele>
        <time>2026-08-23T16:55:02.294Z</time>
      </trkpt>
      <trkpt lat="44.73931" lon="5.1451">
        <ele>396</ele>
        <time>2026-08-23T16:55:03.294Z</time>
      </trkpt>
      <trkpt lat="44.7393" lon="5.1451">
        <ele>396</ele>
        <time>2026-08-23T16:55:04.294Z</time>
      </trkpt>
      <trkpt lat="44.73929" lon="5.14509">
        <ele>396</ele>
        <time>2026-08-23T16:55:05.294Z</time>
      </trkpt>
      <trkpt lat="44.73929" lon="5.14509">
        <ele>397</ele>
        <time>2026-08-23T16:55:06.294Z</time>
      </trkpt>
      <trkpt lat="44.73928" lon="5.14508">
        <ele>397</ele>
        <time>2026-08-23T16:55:07.294Z</time>
      </trkpt>
      <trkpt lat="44.73927" lon="5.14507">
        <ele>397</ele>
        <time>2026-08-23T16:55:08.294Z</time>
      </trkpt>
      <trkpt lat="44.73927" lon="5.14507">
        <ele>397</ele>
        <time>2026-08-23T16:55:09.294Z</time>
      </trkpt>
      <trkpt lat="44.73926" lon="5.14506">
        <ele>397</ele>
        <time>2026-08-23T16:55:10.294Z</time>
      </trkpt>
      <trkpt lat="44.73925" lon="5.14506">
        <ele>397</ele>
        <time>2026-08-23T16:55:11.294Z</time>
      </trkpt>
      <trkpt lat="44.73924" lon="5.14505">
        <ele>397</ele>
        <time>2026-08-23T16:55:12.294Z</time>
      </trkpt>
      <trkpt lat="44.73923" lon="5.14505">
        <ele>397</ele>
        <time>2026-08-23T16:55:13.294Z</time>
      </trkpt>
      <trkpt lat="44.73922" lon="5.14505">
        <ele>397</ele>
        <time>2026-08-23T16:55:14.294Z</time>
      </trkpt>
      <trkpt lat="44.73921" lon="5.14504">
        <ele>397</ele>
        <time>2026-08-23T16:55:15.294Z</time>
      </trkpt>
      <trkpt lat="44.7392" lon="5.14504">
        <ele>397</ele>
        <time>2026-08-23T16:55:16.294Z</time>
      </trkpt>
      <trkpt lat="44.73919" lon="5.14504">
        <ele>397</ele>
        <time>2026-08-23T16:55:17.294Z</time>
      </trkpt>
      <trkpt lat="44.73918" lon="5.14504">
        <ele>397</ele>
        <time>2026-08-23T16:55:18.294Z</time>
      </trkpt>
      <trkpt lat="44.73917" lon="5.14504">
        <ele>397</ele>
        <time>2026-08-23T16:55:19.294Z</time>
      </trkpt>
      <trkpt lat="44.73916" lon="5.14504">
        <ele>397</ele>
        <time>2026-08-23T16:55:20.294Z</time>
      </trkpt>
      <trkpt lat="44.73915" lon="5.14503">
        <ele>397</ele>
        <time>2026-08-23T16:55:21.294Z</time>
      </trkpt>
      <trkpt lat="44.73914" lon="5.14503">
        <ele>397</ele>
        <time>2026-08-23T16:55:22.294Z</time>
      </trkpt>
      <trkpt lat="44.73913" lon="5.14503">
        <ele>397</ele>
        <time>2026-08-23T16:55:23.294Z</time>
      </trkpt>
      <trkpt lat="44.73912" lon="5.14503">
        <ele>397</ele>
        <time>2026-08-23T16:55:24.294Z</time>
      </trkpt>
      <trkpt lat="44.73911" lon="5.14503">
        <ele>397</ele>
        <time>2026-08-23T16:55:25.294Z</time>
      </trkpt>
      <trkpt lat="44.73911" lon="5.14503">
        <ele>397</ele>
        <time>2026-08-23T16:55:26.294Z</time>
      </trkpt>
      <trkpt lat="44.7391" lon="5.14502">
        <ele>397</ele>
        <time>2026-08-23T16:55:27.294Z</time>
      </trkpt>
      <trkpt lat="44.73909" lon="5.14502">
        <ele>397</ele>
        <time>2026-08-23T16:55:28.294Z</time>
      </trkpt>
      <trkpt lat="44.73908" lon="5.14502">
        <ele>397</ele>
        <time>2026-08-23T16:55:29.294Z</time>
      </trkpt>
      <trkpt lat="44.73907" lon="5.14502">
        <ele>398</ele>
        <time>2026-08-23T16:55:30.294Z</time>
      </trkpt>
      <trkpt lat="44.73906" lon="5.14501">
        <ele>398</ele>
        <time>2026-08-23T16:55:31.294Z</time>
      </trkpt>
      <trkpt lat="44.73905" lon="5.14501">
        <ele>398</ele>
        <time>2026-08-23T16:55:32.294Z</time>
      </trkpt>
      <trkpt lat="44.73904" lon="5.14501">
        <ele>398</ele>
        <time>2026-08-23T16:55:33.294Z</time>
      </trkpt>
      <trkpt lat="44.73903" lon="5.14501">
        <ele>398</ele>
        <time>2026-08-23T16:55:34.294Z</time>
      </trkpt>
      <trkpt lat="44.73902" lon="5.145">
        <ele>398</ele>
        <time>2026-08-23T16:55:35.294Z</time>
      </trkpt>
      <trkpt lat="44.73901" lon="5.145">
        <ele>398</ele>
        <time>2026-08-23T16:55:36.294Z</time>
      </trkpt>
      <trkpt lat="44.73899" lon="5.145">
        <ele>398</ele>
        <time>2026-08-23T16:55:37.294Z</time>
      </trkpt>
      <trkpt lat="44.73899" lon="5.145">
        <ele>399</ele>
        <time>2026-08-23T16:55:38.294Z</time>
      </trkpt>
      <trkpt lat="44.73897" lon="5.14499">
        <ele>399</ele>
        <time>2026-08-23T16:55:39.294Z</time>
      </trkpt>
      <trkpt lat="44.73896" lon="5.14499">
        <ele>399</ele>
        <time>2026-08-23T16:55:40.294Z</time>
      </trkpt>
      <trkpt lat="44.73895" lon="5.14499">
        <ele>399</ele>
        <time>2026-08-23T16:55:41.294Z</time>
      </trkpt>
      <trkpt lat="44.73894" lon="5.14498">
        <ele>399</ele>
        <time>2026-08-23T16:55:42.294Z</time>
      </trkpt>
      <trkpt lat="44.73894" lon="5.14498">
        <ele>399</ele>
        <time>2026-08-23T16:55:43.294Z</time>
      </trkpt>
      <trkpt lat="44.73893" lon="5.14497">
        <ele>399</ele>
        <time>2026-08-23T16:55:44.294Z</time>
      </trkpt>
      <trkpt lat="44.73892" lon="5.14497">
        <ele>399</ele>
        <time>2026-08-23T16:55:45.294Z</time>
      </trkpt>
      <trkpt lat="44.73891" lon="5.14496">
        <ele>399</ele>
        <time>2026-08-23T16:55:46.294Z</time>
      </trkpt>
      <trkpt lat="44.7389" lon="5.14496">
        <ele>400</ele>
        <time>2026-08-23T16:55:47.294Z</time>
      </trkpt>
      <trkpt lat="44.73889" lon="5.14496">
        <ele>400</ele>
        <time>2026-08-23T16:55:48.294Z</time>
      </trkpt>
      <trkpt lat="44.73888" lon="5.14495">
        <ele>400</ele>
        <time>2026-08-23T16:55:49.294Z</time>
      </trkpt>
      <trkpt lat="44.73887" lon="5.14495">
        <ele>400</ele>
        <time>2026-08-23T16:55:50.294Z</time>
      </trkpt>
      <trkpt lat="44.73886" lon="5.14494">
        <ele>400</ele>
        <time>2026-08-23T16:55:51.294Z</time>
      </trkpt>
      <trkpt lat="44.73885" lon="5.14494">
        <ele>400</ele>
        <time>2026-08-23T16:55:52.294Z</time>
      </trkpt>
      <trkpt lat="44.73884" lon="5.14493">
        <ele>400</ele>
        <time>2026-08-23T16:55:53.294Z</time>
      </trkpt>
      <trkpt lat="44.73883" lon="5.14493">
        <ele>400</ele>
        <time>2026-08-23T16:55:54.294Z</time>
      </trkpt>
      <trkpt lat="44.73882" lon="5.14492">
        <ele>400</ele>
        <time>2026-08-23T16:55:55.294Z</time>
      </trkpt>
      <trkpt lat="44.73882" lon="5.14491">
        <ele>400</ele>
        <time>2026-08-23T16:55:56.294Z</time>
      </trkpt>
      <trkpt lat="44.73881" lon="5.14491">
        <ele>400</ele>
        <time>2026-08-23T16:55:57.294Z</time>
      </trkpt>
      <trkpt lat="44.7388" lon="5.1449">
        <ele>400</ele>
        <time>2026-08-23T16:55:58.294Z</time>
      </trkpt>
      <trkpt lat="44.73879" lon="5.1449">
        <ele>400</ele>
        <time>2026-08-23T16:55:59.294Z</time>
      </trkpt>
      <trkpt lat="44.73879" lon="5.14489">
        <ele>400</ele>
        <time>2026-08-23T16:56:00.294Z</time>
      </trkpt>
      <trkpt lat="44.73878" lon="5.14489">
        <ele>400</ele>
        <time>2026-08-23T16:56:01.294Z</time>
      </trkpt>
      <trkpt lat="44.73877" lon="5.14488">
        <ele>400</ele>
        <time>2026-08-23T16:56:02.294Z</time>
      </trkpt>
      <trkpt lat="44.73876" lon="5.14487">
        <ele>400</ele>
        <time>2026-08-23T16:56:03.294Z</time>
      </trkpt>
      <trkpt lat="44.73875" lon="5.14487">
        <ele>400</ele>
        <time>2026-08-23T16:56:04.294Z</time>
      </trkpt>
      <trkpt lat="44.73875" lon="5.14486">
        <ele>400</ele>
        <time>2026-08-23T16:56:05.294Z</time>
      </trkpt>
      <trkpt lat="44.73874" lon="5.14486">
        <ele>400</ele>
        <time>2026-08-23T16:56:06.294Z</time>
      </trkpt>
      <trkpt lat="44.73873" lon="5.14485">
        <ele>400</ele>
        <time>2026-08-23T16:56:07.294Z</time>
      </trkpt>
      <trkpt lat="44.73872" lon="5.14484">
        <ele>400</ele>
        <time>2026-08-23T16:56:08.294Z</time>
      </trkpt>
      <trkpt lat="44.73872" lon="5.14484">
        <ele>400</ele>
        <time>2026-08-23T16:56:09.294Z</time>
      </trkpt>
      <trkpt lat="44.73871" lon="5.14483">
        <ele>400</ele>
        <time>2026-08-23T16:56:10.294Z</time>
      </trkpt>
      <trkpt lat="44.7387" lon="5.14483">
        <ele>400</ele>
        <time>2026-08-23T16:56:11.294Z</time>
      </trkpt>
      <trkpt lat="44.73869" lon="5.14482">
        <ele>400</ele>
        <time>2026-08-23T16:56:12.294Z</time>
      </trkpt>
      <trkpt lat="44.73868" lon="5.14482">
        <ele>400</ele>
        <time>2026-08-23T16:56:13.294Z</time>
      </trkpt>
      <trkpt lat="44.73868" lon="5.14481">
        <ele>400</ele>
        <time>2026-08-23T16:56:14.294Z</time>
      </trkpt>
      <trkpt lat="44.73867" lon="5.14481">
        <ele>400</ele>
        <time>2026-08-23T16:56:15.294Z</time>
      </trkpt>
      <trkpt lat="44.73866" lon="5.1448">
        <ele>400</ele>
        <time>2026-08-23T16:56:16.294Z</time>
      </trkpt>
      <trkpt lat="44.73865" lon="5.14479">
        <ele>401</ele>
        <time>2026-08-23T16:56:17.294Z</time>
      </trkpt>
      <trkpt lat="44.73864" lon="5.14479">
        <ele>401</ele>
        <time>2026-08-23T16:56:18.294Z</time>
      </trkpt>
      <trkpt lat="44.73864" lon="5.14478">
        <ele>401</ele>
        <time>2026-08-23T16:56:19.294Z</time>
      </trkpt>
      <trkpt lat="44.73863" lon="5.14478">
        <ele>401</ele>
        <time>2026-08-23T16:56:20.294Z</time>
      </trkpt>
      <trkpt lat="44.73862" lon="5.14477">
        <ele>401</ele>
        <time>2026-08-23T16:56:21.294Z</time>
      </trkpt>
      <trkpt lat="44.73861" lon="5.14477">
        <ele>401</ele>
        <time>2026-08-23T16:56:22.294Z</time>
      </trkpt>
      <trkpt lat="44.7386" lon="5.14476">
        <ele>401</ele>
        <time>2026-08-23T16:56:23.294Z</time>
      </trkpt>
      <trkpt lat="44.7386" lon="5.14475">
        <ele>401</ele>
        <time>2026-08-23T16:56:24.294Z</time>
      </trkpt>
      <trkpt lat="44.73859" lon="5.14475">
        <ele>401</ele>
        <time>2026-08-23T16:56:25.294Z</time>
      </trkpt>
      <trkpt lat="44.73858" lon="5.14474">
        <ele>401</ele>
        <time>2026-08-23T16:56:26.294Z</time>
      </trkpt>
      <trkpt lat="44.73857" lon="5.14474">
        <ele>401</ele>
        <time>2026-08-23T16:56:27.294Z</time>
      </trkpt>
      <trkpt lat="44.73856" lon="5.14473">
        <ele>401</ele>
        <time>2026-08-23T16:56:28.294Z</time>
      </trkpt>
      <trkpt lat="44.73855" lon="5.14473">
        <ele>401</ele>
        <time>2026-08-23T16:56:29.294Z</time>
      </trkpt>
      <trkpt lat="44.73854" lon="5.14472">
        <ele>401</ele>
        <time>2026-08-23T16:56:30.294Z</time>
      </trkpt>
      <trkpt lat="44.73854" lon="5.14472">
        <ele>402</ele>
        <time>2026-08-23T16:56:31.294Z</time>
      </trkpt>
      <trkpt lat="44.73853" lon="5.14471">
        <ele>402</ele>
        <time>2026-08-23T16:56:32.294Z</time>
      </trkpt>
      <trkpt lat="44.73852" lon="5.14471">
        <ele>402</ele>
        <time>2026-08-23T16:56:33.294Z</time>
      </trkpt>
      <trkpt lat="44.73851" lon="5.1447">
        <ele>402</ele>
        <time>2026-08-23T16:56:34.294Z</time>
      </trkpt>
      <trkpt lat="44.7385" lon="5.1447">
        <ele>402</ele>
        <time>2026-08-23T16:56:35.294Z</time>
      </trkpt>
      <trkpt lat="44.73849" lon="5.14469">
        <ele>402</ele>
        <time>2026-08-23T16:56:36.294Z</time>
      </trkpt>
      <trkpt lat="44.73848" lon="5.14469">
        <ele>402</ele>
        <time>2026-08-23T16:56:37.294Z</time>
      </trkpt>
      <trkpt lat="44.73847" lon="5.14468">
        <ele>402</ele>
        <time>2026-08-23T16:56:38.294Z</time>
      </trkpt>
      <trkpt lat="44.73847" lon="5.14468">
        <ele>402</ele>
        <time>2026-08-23T16:56:39.294Z</time>
      </trkpt>
      <trkpt lat="44.73846" lon="5.14467">
        <ele>402</ele>
        <time>2026-08-23T16:56:40.294Z</time>
      </trkpt>
      <trkpt lat="44.73845" lon="5.14467">
        <ele>402</ele>
        <time>2026-08-23T16:56:41.294Z</time>
      </trkpt>
      <trkpt lat="44.73844" lon="5.14467">
        <ele>403</ele>
        <time>2026-08-23T16:56:42.294Z</time>
      </trkpt>
      <trkpt lat="44.73843" lon="5.14467">
        <ele>403</ele>
        <time>2026-08-23T16:56:43.294Z</time>
      </trkpt>
      <trkpt lat="44.73842" lon="5.14466">
        <ele>403</ele>
        <time>2026-08-23T16:56:44.294Z</time>
      </trkpt>
      <trkpt lat="44.73841" lon="5.14466">
        <ele>403</ele>
        <time>2026-08-23T16:56:45.294Z</time>
      </trkpt>
      <trkpt lat="44.7384" lon="5.14467">
        <ele>403</ele>
        <time>2026-08-23T16:56:46.294Z</time>
      </trkpt>
      <trkpt lat="44.7384" lon="5.14467">
        <ele>403</ele>
        <time>2026-08-23T16:56:47.294Z</time>
      </trkpt>
      <trkpt lat="44.73839" lon="5.14466">
        <ele>403</ele>
        <time>2026-08-23T16:56:48.294Z</time>
      </trkpt>
      <trkpt lat="44.73838" lon="5.14466">
        <ele>403</ele>
        <time>2026-08-23T16:56:49.294Z</time>
      </trkpt>
      <trkpt lat="44.73837" lon="5.14467">
        <ele>403</ele>
        <time>2026-08-23T16:56:50.294Z</time>
      </trkpt>
      <trkpt lat="44.73836" lon="5.14467">
        <ele>403</ele>
        <time>2026-08-23T16:56:51.294Z</time>
      </trkpt>
      <trkpt lat="44.73835" lon="5.14467">
        <ele>403</ele>
        <time>2026-08-23T16:56:52.294Z</time>
      </trkpt>
      <trkpt lat="44.73834" lon="5.14467">
        <ele>403</ele>
        <time>2026-08-23T16:56:53.294Z</time>
      </trkpt>
      <trkpt lat="44.73833" lon="5.14467">
        <ele>403</ele>
        <time>2026-08-23T16:56:54.294Z</time>
      </trkpt>
      <trkpt lat="44.73832" lon="5.14468">
        <ele>404</ele>
        <time>2026-08-23T16:56:55.294Z</time>
      </trkpt>
      <trkpt lat="44.73832" lon="5.14468">
        <ele>404</ele>
        <time>2026-08-23T16:56:56.294Z</time>
      </trkpt>
      <trkpt lat="44.73831" lon="5.14469">
        <ele>404</ele>
        <time>2026-08-23T16:56:57.294Z</time>
      </trkpt>
      <trkpt lat="44.7383" lon="5.14469">
        <ele>404</ele>
        <time>2026-08-23T16:56:58.294Z</time>
      </trkpt>
      <trkpt lat="44.73829" lon="5.1447">
        <ele>404</ele>
        <time>2026-08-23T16:56:59.294Z</time>
      </trkpt>
      <trkpt lat="44.73828" lon="5.1447">
        <ele>404</ele>
        <time>2026-08-23T16:57:00.294Z</time>
      </trkpt>
      <trkpt lat="44.73828" lon="5.14471">
        <ele>404</ele>
        <time>2026-08-23T16:57:01.294Z</time>
      </trkpt>
      <trkpt lat="44.73827" lon="5.14471">
        <ele>404</ele>
        <time>2026-08-23T16:57:02.294Z</time>
      </trkpt>
      <trkpt lat="44.73826" lon="5.14472">
        <ele>404</ele>
        <time>2026-08-23T16:57:03.294Z</time>
      </trkpt>
      <trkpt lat="44.73826" lon="5.14473">
        <ele>404</ele>
        <time>2026-08-23T16:57:04.294Z</time>
      </trkpt>
      <trkpt lat="44.73825" lon="5.14473">
        <ele>404</ele>
        <time>2026-08-23T16:57:05.294Z</time>
      </trkpt>
      <trkpt lat="44.73825" lon="5.14474">
        <ele>404</ele>
        <time>2026-08-23T16:57:06.294Z</time>
      </trkpt>
      <trkpt lat="44.73824" lon="5.14475">
        <ele>404</ele>
        <time>2026-08-23T16:57:07.294Z</time>
      </trkpt>
      <trkpt lat="44.73823" lon="5.14476">
        <ele>404</ele>
        <time>2026-08-23T16:57:08.294Z</time>
      </trkpt>
      <trkpt lat="44.73823" lon="5.14477">
        <ele>404</ele>
        <time>2026-08-23T16:57:09.294Z</time>
      </trkpt>
      <trkpt lat="44.73822" lon="5.14478">
        <ele>404</ele>
        <time>2026-08-23T16:57:10.294Z</time>
      </trkpt>
      <trkpt lat="44.73822" lon="5.1448">
        <ele>404</ele>
        <time>2026-08-23T16:57:11.294Z</time>
      </trkpt>
      <trkpt lat="44.73821" lon="5.14481">
        <ele>404</ele>
        <time>2026-08-23T16:57:12.294Z</time>
      </trkpt>
      <trkpt lat="44.73821" lon="5.14482">
        <ele>404</ele>
        <time>2026-08-23T16:57:13.294Z</time>
      </trkpt>
      <trkpt lat="44.73821" lon="5.14483">
        <ele>404</ele>
        <time>2026-08-23T16:57:14.294Z</time>
      </trkpt>
      <trkpt lat="44.73821" lon="5.14484">
        <ele>405</ele>
        <time>2026-08-23T16:57:15.294Z</time>
      </trkpt>
      <trkpt lat="44.7382" lon="5.14486">
        <ele>405</ele>
        <time>2026-08-23T16:57:16.294Z</time>
      </trkpt>
      <trkpt lat="44.7382" lon="5.14487">
        <ele>405</ele>
        <time>2026-08-23T16:57:17.294Z</time>
      </trkpt>
      <trkpt lat="44.73819" lon="5.14488">
        <ele>405</ele>
        <time>2026-08-23T16:57:18.294Z</time>
      </trkpt>
      <trkpt lat="44.73819" lon="5.1449">
        <ele>405</ele>
        <time>2026-08-23T16:57:19.294Z</time>
      </trkpt>
      <trkpt lat="44.73818" lon="5.14491">
        <ele>405</ele>
        <time>2026-08-23T16:57:20.294Z</time>
      </trkpt>
      <trkpt lat="44.73818" lon="5.14492">
        <ele>405</ele>
        <time>2026-08-23T16:57:21.294Z</time>
      </trkpt>
      <trkpt lat="44.73818" lon="5.14493">
        <ele>405</ele>
        <time>2026-08-23T16:57:22.294Z</time>
      </trkpt>
      <trkpt lat="44.73817" lon="5.14495">
        <ele>405</ele>
        <time>2026-08-23T16:57:23.294Z</time>
      </trkpt>
      <trkpt lat="44.73817" lon="5.14496">
        <ele>405</ele>
        <time>2026-08-23T16:57:24.294Z</time>
      </trkpt>
      <trkpt lat="44.73816" lon="5.14497">
        <ele>405</ele>
        <time>2026-08-23T16:57:25.294Z</time>
      </trkpt>
      <trkpt lat="44.73816" lon="5.14498">
        <ele>405</ele>
        <time>2026-08-23T16:57:26.294Z</time>
      </trkpt>
      <trkpt lat="44.73815" lon="5.145">
        <ele>405</ele>
        <time>2026-08-23T16:57:27.294Z</time>
      </trkpt>
      <trkpt lat="44.73815" lon="5.14501">
        <ele>405</ele>
        <time>2026-08-23T16:57:28.294Z</time>
      </trkpt>
      <trkpt lat="44.73815" lon="5.14503">
        <ele>405</ele>
        <time>2026-08-23T16:57:29.294Z</time>
      </trkpt>
      <trkpt lat="44.73814" lon="5.14504">
        <ele>405</ele>
        <time>2026-08-23T16:57:30.294Z</time>
      </trkpt>
      <trkpt lat="44.73814" lon="5.14505">
        <ele>405</ele>
        <time>2026-08-23T16:57:31.294Z</time>
      </trkpt>
      <trkpt lat="44.73814" lon="5.14507">
        <ele>405</ele>
        <time>2026-08-23T16:57:32.294Z</time>
      </trkpt>
      <trkpt lat="44.73813" lon="5.14508">
        <ele>405</ele>
        <time>2026-08-23T16:57:33.294Z</time>
      </trkpt>
      <trkpt lat="44.73813" lon="5.14509">
        <ele>406</ele>
        <time>2026-08-23T16:57:34.294Z</time>
      </trkpt>
      <trkpt lat="44.73812" lon="5.1451">
        <ele>406</ele>
        <time>2026-08-23T16:57:35.294Z</time>
      </trkpt>
      <trkpt lat="44.73811" lon="5.14512">
        <ele>406</ele>
        <time>2026-08-23T16:57:36.294Z</time>
      </trkpt>
      <trkpt lat="44.73811" lon="5.14513">
        <ele>406</ele>
        <time>2026-08-23T16:57:37.294Z</time>
      </trkpt>
      <trkpt lat="44.7381" lon="5.14514">
        <ele>406</ele>
        <time>2026-08-23T16:57:38.294Z</time>
      </trkpt>
      <trkpt lat="44.73809" lon="5.14516">
        <ele>406</ele>
        <time>2026-08-23T16:57:39.294Z</time>
      </trkpt>
      <trkpt lat="44.73809" lon="5.14517">
        <ele>406</ele>
        <time>2026-08-23T16:57:40.294Z</time>
      </trkpt>
      <trkpt lat="44.73808" lon="5.14518">
        <ele>406</ele>
        <time>2026-08-23T16:57:41.294Z</time>
      </trkpt>
      <trkpt lat="44.73807" lon="5.14519">
        <ele>406</ele>
        <time>2026-08-23T16:57:42.294Z</time>
      </trkpt>
      <trkpt lat="44.73807" lon="5.1452">
        <ele>406</ele>
        <time>2026-08-23T16:57:43.294Z</time>
      </trkpt>
      <trkpt lat="44.73806" lon="5.14521">
        <ele>406</ele>
        <time>2026-08-23T16:57:44.294Z</time>
      </trkpt>
      <trkpt lat="44.73805" lon="5.14523">
        <ele>406</ele>
        <time>2026-08-23T16:57:45.294Z</time>
      </trkpt>
      <trkpt lat="44.73804" lon="5.14524">
        <ele>406</ele>
        <time>2026-08-23T16:57:46.294Z</time>
      </trkpt>
      <trkpt lat="44.73804" lon="5.14525">
        <ele>406</ele>
        <time>2026-08-23T16:57:47.294Z</time>
      </trkpt>
      <trkpt lat="44.73803" lon="5.14526">
        <ele>406</ele>
        <time>2026-08-23T16:57:48.294Z</time>
      </trkpt>
      <trkpt lat="44.73802" lon="5.14527">
        <ele>407</ele>
        <time>2026-08-23T16:57:49.294Z</time>
      </trkpt>
      <trkpt lat="44.73801" lon="5.14528">
        <ele>407</ele>
        <time>2026-08-23T16:57:50.294Z</time>
      </trkpt>
      <trkpt lat="44.738" lon="5.14529">
        <ele>407</ele>
        <time>2026-08-23T16:57:51.294Z</time>
      </trkpt>
      <trkpt lat="44.738" lon="5.1453">
        <ele>407</ele>
        <time>2026-08-23T16:57:52.294Z</time>
      </trkpt>
      <trkpt lat="44.73799" lon="5.14531">
        <ele>407</ele>
        <time>2026-08-23T16:57:53.294Z</time>
      </trkpt>
      <trkpt lat="44.73798" lon="5.14532">
        <ele>407</ele>
        <time>2026-08-23T16:57:54.294Z</time>
      </trkpt>
      <trkpt lat="44.73797" lon="5.14533">
        <ele>407</ele>
        <time>2026-08-23T16:57:55.294Z</time>
      </trkpt>
      <trkpt lat="44.73796" lon="5.14534">
        <ele>407</ele>
        <time>2026-08-23T16:57:56.294Z</time>
      </trkpt>
      <trkpt lat="44.73795" lon="5.14535">
        <ele>407</ele>
        <time>2026-08-23T16:57:57.294Z</time>
      </trkpt>
      <trkpt lat="44.73794" lon="5.14536">
        <ele>407</ele>
        <time>2026-08-23T16:57:58.294Z</time>
      </trkpt>
      <trkpt lat="44.73794" lon="5.14537">
        <ele>407</ele>
        <time>2026-08-23T16:57:59.294Z</time>
      </trkpt>
      <trkpt lat="44.73793" lon="5.14538">
        <ele>407</ele>
        <time>2026-08-23T16:58:00.294Z</time>
      </trkpt>
      <trkpt lat="44.73792" lon="5.14538">
        <ele>407</ele>
        <time>2026-08-23T16:58:01.294Z</time>
      </trkpt>
      <trkpt lat="44.73791" lon="5.14539">
        <ele>407</ele>
        <time>2026-08-23T16:58:02.294Z</time>
      </trkpt>
      <trkpt lat="44.7379" lon="5.1454">
        <ele>407</ele>
        <time>2026-08-23T16:58:03.294Z</time>
      </trkpt>
      <trkpt lat="44.73789" lon="5.14541">
        <ele>407</ele>
        <time>2026-08-23T16:58:04.294Z</time>
      </trkpt>
      <trkpt lat="44.73788" lon="5.14542">
        <ele>407</ele>
        <time>2026-08-23T16:58:05.294Z</time>
      </trkpt>
      <trkpt lat="44.73787" lon="5.14543">
        <ele>407</ele>
        <time>2026-08-23T16:58:06.294Z</time>
      </trkpt>
      <trkpt lat="44.73786" lon="5.14544">
        <ele>407</ele>
        <time>2026-08-23T16:58:07.294Z</time>
      </trkpt>
      <trkpt lat="44.73785" lon="5.14545">
        <ele>407</ele>
        <time>2026-08-23T16:58:08.294Z</time>
      </trkpt>
      <trkpt lat="44.73784" lon="5.14545">
        <ele>407</ele>
        <time>2026-08-23T16:58:09.294Z</time>
      </trkpt>
      <trkpt lat="44.73783" lon="5.14546">
        <ele>407</ele>
        <time>2026-08-23T16:58:10.294Z</time>
      </trkpt>
      <trkpt lat="44.73782" lon="5.14547">
        <ele>407</ele>
        <time>2026-08-23T16:58:11.294Z</time>
      </trkpt>
      <trkpt lat="44.73781" lon="5.14548">
        <ele>407</ele>
        <time>2026-08-23T16:58:12.294Z</time>
      </trkpt>
      <trkpt lat="44.7378" lon="5.14549">
        <ele>407</ele>
        <time>2026-08-23T16:58:13.294Z</time>
      </trkpt>
      <trkpt lat="44.73779" lon="5.14549">
        <ele>407</ele>
        <time>2026-08-23T16:58:14.294Z</time>
      </trkpt>
      <trkpt lat="44.73778" lon="5.1455">
        <ele>407</ele>
        <time>2026-08-23T16:58:15.294Z</time>
      </trkpt>
      <trkpt lat="44.73777" lon="5.14551">
        <ele>407</ele>
        <time>2026-08-23T16:58:16.294Z</time>
      </trkpt>
      <trkpt lat="44.73776" lon="5.14552">
        <ele>407</ele>
        <time>2026-08-23T16:58:17.294Z</time>
      </trkpt>
      <trkpt lat="44.73775" lon="5.14552">
        <ele>407</ele>
        <time>2026-08-23T16:58:18.294Z</time>
      </trkpt>
      <trkpt lat="44.73774" lon="5.14553">
        <ele>407</ele>
        <time>2026-08-23T16:58:19.294Z</time>
      </trkpt>
      <trkpt lat="44.73774" lon="5.14554">
        <ele>407</ele>
        <time>2026-08-23T16:58:20.294Z</time>
      </trkpt>
      <trkpt lat="44.73773" lon="5.14555">
        <ele>407</ele>
        <time>2026-08-23T16:58:21.294Z</time>
      </trkpt>
      <trkpt lat="44.73772" lon="5.14556">
        <ele>407</ele>
        <time>2026-08-23T16:58:22.294Z</time>
      </trkpt>
      <trkpt lat="44.73771" lon="5.14557">
        <ele>408</ele>
        <time>2026-08-23T16:58:23.294Z</time>
      </trkpt>
      <trkpt lat="44.7377" lon="5.14558">
        <ele>408</ele>
        <time>2026-08-23T16:58:24.294Z</time>
      </trkpt>
      <trkpt lat="44.73769" lon="5.14559">
        <ele>408</ele>
        <time>2026-08-23T16:58:25.294Z</time>
      </trkpt>
      <trkpt lat="44.73768" lon="5.1456">
        <ele>408</ele>
        <time>2026-08-23T16:58:26.294Z</time>
      </trkpt>
      <trkpt lat="44.73767" lon="5.1456">
        <ele>408</ele>
        <time>2026-08-23T16:58:27.294Z</time>
      </trkpt>
      <trkpt lat="44.73766" lon="5.14561">
        <ele>408</ele>
        <time>2026-08-23T16:58:28.294Z</time>
      </trkpt>
      <trkpt lat="44.73765" lon="5.14562">
        <ele>408</ele>
        <time>2026-08-23T16:58:29.294Z</time>
      </trkpt>
      <trkpt lat="44.73765" lon="5.14563">
        <ele>408</ele>
        <time>2026-08-23T16:58:30.294Z</time>
      </trkpt>
      <trkpt lat="44.73764" lon="5.14564">
        <ele>408</ele>
        <time>2026-08-23T16:58:31.294Z</time>
      </trkpt>
      <trkpt lat="44.73763" lon="5.14565">
        <ele>408</ele>
        <time>2026-08-23T16:58:32.294Z</time>
      </trkpt>
      <trkpt lat="44.73762" lon="5.14566">
        <ele>408</ele>
        <time>2026-08-23T16:58:33.294Z</time>
      </trkpt>
      <trkpt lat="44.73762" lon="5.14567">
        <ele>408</ele>
        <time>2026-08-23T16:58:34.294Z</time>
      </trkpt>
      <trkpt lat="44.73761" lon="5.14568">
        <ele>408</ele>
        <time>2026-08-23T16:58:35.294Z</time>
      </trkpt>
      <trkpt lat="44.7376" lon="5.14569">
        <ele>408</ele>
        <time>2026-08-23T16:58:36.294Z</time>
      </trkpt>
      <trkpt lat="44.73759" lon="5.1457">
        <ele>409</ele>
        <time>2026-08-23T16:58:37.294Z</time>
      </trkpt>
      <trkpt lat="44.73759" lon="5.14571">
        <ele>409</ele>
        <time>2026-08-23T16:58:38.294Z</time>
      </trkpt>
      <trkpt lat="44.73758" lon="5.14571">
        <ele>409</ele>
        <time>2026-08-23T16:58:39.294Z</time>
      </trkpt>
      <trkpt lat="44.73758" lon="5.14572">
        <ele>409</ele>
        <time>2026-08-23T16:58:40.294Z</time>
      </trkpt>
      <trkpt lat="44.73758" lon="5.14573">
        <ele>408</ele>
        <time>2026-08-23T16:58:41.294Z</time>
      </trkpt>
      <trkpt lat="44.73757" lon="5.14574">
        <ele>408</ele>
        <time>2026-08-23T16:58:42.294Z</time>
      </trkpt>
      <trkpt lat="44.73757" lon="5.14576">
        <ele>408</ele>
        <time>2026-08-23T16:58:43.294Z</time>
      </trkpt>
      <trkpt lat="44.73756" lon="5.14577">
        <ele>408</ele>
        <time>2026-08-23T16:58:44.294Z</time>
      </trkpt>
      <trkpt lat="44.73755" lon="5.14578">
        <ele>408</ele>
        <time>2026-08-23T16:58:45.294Z</time>
      </trkpt>
      <trkpt lat="44.73755" lon="5.1458">
        <ele>408</ele>
        <time>2026-08-23T16:58:46.294Z</time>
      </trkpt>
      <trkpt lat="44.73754" lon="5.14581">
        <ele>408</ele>
        <time>2026-08-23T16:58:47.294Z</time>
      </trkpt>
      <trkpt lat="44.73753" lon="5.14582">
        <ele>408</ele>
        <time>2026-08-23T16:58:48.294Z</time>
      </trkpt>
      <trkpt lat="44.73753" lon="5.14583">
        <ele>408</ele>
        <time>2026-08-23T16:58:49.294Z</time>
      </trkpt>
      <trkpt lat="44.73752" lon="5.14584">
        <ele>408</ele>
        <time>2026-08-23T16:58:50.294Z</time>
      </trkpt>
      <trkpt lat="44.73751" lon="5.14586">
        <ele>408</ele>
        <time>2026-08-23T16:58:51.294Z</time>
      </trkpt>
      <trkpt lat="44.73751" lon="5.14587">
        <ele>408</ele>
        <time>2026-08-23T16:58:52.294Z</time>
      </trkpt>
      <trkpt lat="44.7375" lon="5.14588">
        <ele>408</ele>
        <time>2026-08-23T16:58:53.294Z</time>
      </trkpt>
      <trkpt lat="44.7375" lon="5.1459">
        <ele>408</ele>
        <time>2026-08-23T16:58:54.294Z</time>
      </trkpt>
      <trkpt lat="44.73749" lon="5.14591">
        <ele>408</ele>
        <time>2026-08-23T16:58:55.294Z</time>
      </trkpt>
      <trkpt lat="44.73749" lon="5.14593">
        <ele>408</ele>
        <time>2026-08-23T16:58:56.294Z</time>
      </trkpt>
      <trkpt lat="44.73748" lon="5.14594">
        <ele>408</ele>
        <time>2026-08-23T16:58:57.294Z</time>
      </trkpt>
      <trkpt lat="44.73747" lon="5.14596">
        <ele>408</ele>
        <time>2026-08-23T16:58:58.294Z</time>
      </trkpt>
      <trkpt lat="44.73747" lon="5.14597">
        <ele>408</ele>
        <time>2026-08-23T16:58:59.294Z</time>
      </trkpt>
      <trkpt lat="44.73747" lon="5.14598">
        <ele>408</ele>
        <time>2026-08-23T16:59:00.294Z</time>
      </trkpt>
      <trkpt lat="44.73747" lon="5.146">
        <ele>408</ele>
        <time>2026-08-23T16:59:01.294Z</time>
      </trkpt>
      <trkpt lat="44.73746" lon="5.14601">
        <ele>408</ele>
        <time>2026-08-23T16:59:02.294Z</time>
      </trkpt>
      <trkpt lat="44.73746" lon="5.14603">
        <ele>408</ele>
        <time>2026-08-23T16:59:03.294Z</time>
      </trkpt>
      <trkpt lat="44.73745" lon="5.14604">
        <ele>408</ele>
        <time>2026-08-23T16:59:04.294Z</time>
      </trkpt>
      <trkpt lat="44.73744" lon="5.14605">
        <ele>408</ele>
        <time>2026-08-23T16:59:05.294Z</time>
      </trkpt>
      <trkpt lat="44.73743" lon="5.14606">
        <ele>408</ele>
        <time>2026-08-23T16:59:06.294Z</time>
      </trkpt>
      <trkpt lat="44.73743" lon="5.14607">
        <ele>408</ele>
        <time>2026-08-23T16:59:07.294Z</time>
      </trkpt>
      <trkpt lat="44.73742" lon="5.14608">
        <ele>408</ele>
        <time>2026-08-23T16:59:08.294Z</time>
      </trkpt>
      <trkpt lat="44.73741" lon="5.14609">
        <ele>408</ele>
        <time>2026-08-23T16:59:09.294Z</time>
      </trkpt>
      <trkpt lat="44.73741" lon="5.1461">
        <ele>408</ele>
        <time>2026-08-23T16:59:10.294Z</time>
      </trkpt>
      <trkpt lat="44.7374" lon="5.14611">
        <ele>408</ele>
        <time>2026-08-23T16:59:11.294Z</time>
      </trkpt>
      <trkpt lat="44.7374" lon="5.14613">
        <ele>408</ele>
        <time>2026-08-23T16:59:12.294Z</time>
      </trkpt>
      <trkpt lat="44.73739" lon="5.14614">
        <ele>409</ele>
        <time>2026-08-23T16:59:13.294Z</time>
      </trkpt>
      <trkpt lat="44.73739" lon="5.14615">
        <ele>409</ele>
        <time>2026-08-23T16:59:14.294Z</time>
      </trkpt>
      <trkpt lat="44.73738" lon="5.14616">
        <ele>409</ele>
        <time>2026-08-23T16:59:15.294Z</time>
      </trkpt>
      <trkpt lat="44.73738" lon="5.14617">
        <ele>409</ele>
        <time>2026-08-23T16:59:16.294Z</time>
      </trkpt>
      <trkpt lat="44.73737" lon="5.14618">
        <ele>409</ele>
        <time>2026-08-23T16:59:17.294Z</time>
      </trkpt>
      <trkpt lat="44.73737" lon="5.14619">
        <ele>409</ele>
        <time>2026-08-23T16:59:18.294Z</time>
      </trkpt>
      <trkpt lat="44.73736" lon="5.1462">
        <ele>409</ele>
        <time>2026-08-23T16:59:19.294Z</time>
      </trkpt>
      <trkpt lat="44.73735" lon="5.14621">
        <ele>409</ele>
        <time>2026-08-23T16:59:20.294Z</time>
      </trkpt>
      <trkpt lat="44.73735" lon="5.14622">
        <ele>409</ele>
        <time>2026-08-23T16:59:21.294Z</time>
      </trkpt>
      <trkpt lat="44.73734" lon="5.14623">
        <ele>409</ele>
        <time>2026-08-23T16:59:22.294Z</time>
      </trkpt>
      <trkpt lat="44.73733" lon="5.14624">
        <ele>409</ele>
        <time>2026-08-23T16:59:23.294Z</time>
      </trkpt>
      <trkpt lat="44.73733" lon="5.14625">
        <ele>409</ele>
        <time>2026-08-23T16:59:24.294Z</time>
      </trkpt>
      <trkpt lat="44.73732" lon="5.14626">
        <ele>409</ele>
        <time>2026-08-23T16:59:25.294Z</time>
      </trkpt>
      <trkpt lat="44.73731" lon="5.14627">
        <ele>409</ele>
        <time>2026-08-23T16:59:26.294Z</time>
      </trkpt>
      <trkpt lat="44.73731" lon="5.14628">
        <ele>409</ele>
        <time>2026-08-23T16:59:27.294Z</time>
      </trkpt>
      <trkpt lat="44.7373" lon="5.14629">
        <ele>409</ele>
        <time>2026-08-23T16:59:28.294Z</time>
      </trkpt>
      <trkpt lat="44.7373" lon="5.1463">
        <ele>409</ele>
        <time>2026-08-23T16:59:29.294Z</time>
      </trkpt>
      <trkpt lat="44.73729" lon="5.14631">
        <ele>409</ele>
        <time>2026-08-23T16:59:30.294Z</time>
      </trkpt>
      <trkpt lat="44.73729" lon="5.14632">
        <ele>409</ele>
        <time>2026-08-23T16:59:31.294Z</time>
      </trkpt>
      <trkpt lat="44.73728" lon="5.14633">
        <ele>409</ele>
        <time>2026-08-23T16:59:32.294Z</time>
      </trkpt>
      <trkpt lat="44.73727" lon="5.14634">
        <ele>409</ele>
        <time>2026-08-23T16:59:33.294Z</time>
      </trkpt>
      <trkpt lat="44.73727" lon="5.14635">
        <ele>409</ele>
        <time>2026-08-23T16:59:34.294Z</time>
      </trkpt>
      <trkpt lat="44.73726" lon="5.14636">
        <ele>410</ele>
        <time>2026-08-23T16:59:35.294Z</time>
      </trkpt>
      <trkpt lat="44.73725" lon="5.14637">
        <ele>410</ele>
        <time>2026-08-23T16:59:36.294Z</time>
      </trkpt>
      <trkpt lat="44.73724" lon="5.14638">
        <ele>410</ele>
        <time>2026-08-23T16:59:37.294Z</time>
      </trkpt>
      <trkpt lat="44.73724" lon="5.14639">
        <ele>410</ele>
        <time>2026-08-23T16:59:38.294Z</time>
      </trkpt>
      <trkpt lat="44.73723" lon="5.14639">
        <ele>410</ele>
        <time>2026-08-23T16:59:39.294Z</time>
      </trkpt>
      <trkpt lat="44.73722" lon="5.1464">
        <ele>410</ele>
        <time>2026-08-23T16:59:40.294Z</time>
      </trkpt>
      <trkpt lat="44.73722" lon="5.14641">
        <ele>410</ele>
        <time>2026-08-23T16:59:41.294Z</time>
      </trkpt>
      <trkpt lat="44.73721" lon="5.14642">
        <ele>410</ele>
        <time>2026-08-23T16:59:42.294Z</time>
      </trkpt>
      <trkpt lat="44.7372" lon="5.14643">
        <ele>410</ele>
        <time>2026-08-23T16:59:43.294Z</time>
      </trkpt>
      <trkpt lat="44.7372" lon="5.14644">
        <ele>411</ele>
        <time>2026-08-23T16:59:44.294Z</time>
      </trkpt>
      <trkpt lat="44.73719" lon="5.14645">
        <ele>411</ele>
        <time>2026-08-23T16:59:45.294Z</time>
      </trkpt>
      <trkpt lat="44.73718" lon="5.14646">
        <ele>411</ele>
        <time>2026-08-23T16:59:46.294Z</time>
      </trkpt>
      <trkpt lat="44.73718" lon="5.14647">
        <ele>411</ele>
        <time>2026-08-23T16:59:47.294Z</time>
      </trkpt>
      <trkpt lat="44.73717" lon="5.14648">
        <ele>411</ele>
        <time>2026-08-23T16:59:48.294Z</time>
      </trkpt>
      <trkpt lat="44.73716" lon="5.14649">
        <ele>411</ele>
        <time>2026-08-23T16:59:49.294Z</time>
      </trkpt>
      <trkpt lat="44.73715" lon="5.1465">
        <ele>411</ele>
        <time>2026-08-23T16:59:50.294Z</time>
      </trkpt>
      <trkpt lat="44.73715" lon="5.14651">
        <ele>411</ele>
        <time>2026-08-23T16:59:51.294Z</time>
      </trkpt>
      <trkpt lat="44.73714" lon="5.14652">
        <ele>411</ele>
        <time>2026-08-23T16:59:52.294Z</time>
      </trkpt>
      <trkpt lat="44.73713" lon="5.14653">
        <ele>411</ele>
        <time>2026-08-23T16:59:53.294Z</time>
      </trkpt>
      <trkpt lat="44.73713" lon="5.14654">
        <ele>412</ele>
        <time>2026-08-23T16:59:54.294Z</time>
      </trkpt>
      <trkpt lat="44.73712" lon="5.14655">
        <ele>412</ele>
        <time>2026-08-23T16:59:55.294Z</time>
      </trkpt>
      <trkpt lat="44.73711" lon="5.14656">
        <ele>412</ele>
        <time>2026-08-23T16:59:56.294Z</time>
      </trkpt>
      <trkpt lat="44.73711" lon="5.14657">
        <ele>412</ele>
        <time>2026-08-23T16:59:57.294Z</time>
      </trkpt>
      <trkpt lat="44.7371" lon="5.14658">
        <ele>412</ele>
        <time>2026-08-23T16:59:58.294Z</time>
      </trkpt>
      <trkpt lat="44.73709" lon="5.14659">
        <ele>412</ele>
        <time>2026-08-23T16:59:59.294Z</time>
      </trkpt>
      <trkpt lat="44.73709" lon="5.1466">
        <ele>412</ele>
        <time>2026-08-23T17:00:00.294Z</time>
      </trkpt>
      <trkpt lat="44.73708" lon="5.14661">
        <ele>412</ele>
        <time>2026-08-23T17:00:01.294Z</time>
      </trkpt>
      <trkpt lat="44.73708" lon="5.14662">
        <ele>412</ele>
        <time>2026-08-23T17:00:02.294Z</time>
      </trkpt>
      <trkpt lat="44.73707" lon="5.14663">
        <ele>413</ele>
        <time>2026-08-23T17:00:03.294Z</time>
      </trkpt>
      <trkpt lat="44.73707" lon="5.14664">
        <ele>413</ele>
        <time>2026-08-23T17:00:04.294Z</time>
      </trkpt>
      <trkpt lat="44.73706" lon="5.14665">
        <ele>413</ele>
        <time>2026-08-23T17:00:05.294Z</time>
      </trkpt>
      <trkpt lat="44.73705" lon="5.14666">
        <ele>413</ele>
        <time>2026-08-23T17:00:06.294Z</time>
      </trkpt>
      <trkpt lat="44.73705" lon="5.14667">
        <ele>413</ele>
        <time>2026-08-23T17:00:07.294Z</time>
      </trkpt>
      <trkpt lat="44.73704" lon="5.14668">
        <ele>413</ele>
        <time>2026-08-23T17:00:08.294Z</time>
      </trkpt>
      <trkpt lat="44.73704" lon="5.14669">
        <ele>413</ele>
        <time>2026-08-23T17:00:09.294Z</time>
      </trkpt>
      <trkpt lat="44.73703" lon="5.1467">
        <ele>413</ele>
        <time>2026-08-23T17:00:10.294Z</time>
      </trkpt>
      <trkpt lat="44.73703" lon="5.14672">
        <ele>413</ele>
        <time>2026-08-23T17:00:11.294Z</time>
      </trkpt>
      <trkpt lat="44.73702" lon="5.14673">
        <ele>413</ele>
        <time>2026-08-23T17:00:12.294Z</time>
      </trkpt>
      <trkpt lat="44.73702" lon="5.14674">
        <ele>413</ele>
        <time>2026-08-23T17:00:13.294Z</time>
      </trkpt>
      <trkpt lat="44.73701" lon="5.14675">
        <ele>413</ele>
        <time>2026-08-23T17:00:14.294Z</time>
      </trkpt>
      <trkpt lat="44.73701" lon="5.14676">
        <ele>413</ele>
        <time>2026-08-23T17:00:15.294Z</time>
      </trkpt>
      <trkpt lat="44.737" lon="5.14677">
        <ele>413</ele>
        <time>2026-08-23T17:00:16.294Z</time>
      </trkpt>
      <trkpt lat="44.737" lon="5.14679">
        <ele>413</ele>
        <time>2026-08-23T17:00:17.294Z</time>
      </trkpt>
      <trkpt lat="44.73699" lon="5.1468">
        <ele>414</ele>
        <time>2026-08-23T17:00:18.294Z</time>
      </trkpt>
      <trkpt lat="44.73699" lon="5.14681">
        <ele>414</ele>
        <time>2026-08-23T17:00:19.294Z</time>
      </trkpt>
      <trkpt lat="44.73698" lon="5.14683">
        <ele>414</ele>
        <time>2026-08-23T17:00:20.294Z</time>
      </trkpt>
      <trkpt lat="44.73698" lon="5.14684">
        <ele>414</ele>
        <time>2026-08-23T17:00:21.294Z</time>
      </trkpt>
      <trkpt lat="44.73697" lon="5.14685">
        <ele>414</ele>
        <time>2026-08-23T17:00:22.294Z</time>
      </trkpt>
      <trkpt lat="44.73697" lon="5.14687">
        <ele>414</ele>
        <time>2026-08-23T17:00:23.294Z</time>
      </trkpt>
      <trkpt lat="44.73696" lon="5.14688">
        <ele>414</ele>
        <time>2026-08-23T17:00:24.294Z</time>
      </trkpt>
      <trkpt lat="44.73696" lon="5.14689">
        <ele>414</ele>
        <time>2026-08-23T17:00:25.294Z</time>
      </trkpt>
      <trkpt lat="44.73696" lon="5.14691">
        <ele>414</ele>
        <time>2026-08-23T17:00:26.294Z</time>
      </trkpt>
      <trkpt lat="44.73695" lon="5.14692">
        <ele>414</ele>
        <time>2026-08-23T17:00:27.294Z</time>
      </trkpt>
      <trkpt lat="44.73695" lon="5.14693">
        <ele>414</ele>
        <time>2026-08-23T17:00:28.294Z</time>
      </trkpt>
      <trkpt lat="44.73694" lon="5.14694">
        <ele>414</ele>
        <time>2026-08-23T17:00:29.294Z</time>
      </trkpt>
      <trkpt lat="44.73694" lon="5.14696">
        <ele>414</ele>
        <time>2026-08-23T17:00:30.294Z</time>
      </trkpt>
      <trkpt lat="44.73694" lon="5.14697">
        <ele>414</ele>
        <time>2026-08-23T17:00:31.294Z</time>
      </trkpt>
      <trkpt lat="44.73693" lon="5.14699">
        <ele>414</ele>
        <time>2026-08-23T17:00:32.294Z</time>
      </trkpt>
      <trkpt lat="44.73693" lon="5.147">
        <ele>414</ele>
        <time>2026-08-23T17:00:33.294Z</time>
      </trkpt>
      <trkpt lat="44.73693" lon="5.14701">
        <ele>414</ele>
        <time>2026-08-23T17:00:34.294Z</time>
      </trkpt>
      <trkpt lat="44.73692" lon="5.14703">
        <ele>414</ele>
        <time>2026-08-23T17:00:35.294Z</time>
      </trkpt>
      <trkpt lat="44.73692" lon="5.14704">
        <ele>414</ele>
        <time>2026-08-23T17:00:36.294Z</time>
      </trkpt>
      <trkpt lat="44.73691" lon="5.14706">
        <ele>414</ele>
        <time>2026-08-23T17:00:37.294Z</time>
      </trkpt>
      <trkpt lat="44.73691" lon="5.14707">
        <ele>414</ele>
        <time>2026-08-23T17:00:38.294Z</time>
      </trkpt>
      <trkpt lat="44.7369" lon="5.14709">
        <ele>414</ele>
        <time>2026-08-23T17:00:39.294Z</time>
      </trkpt>
      <trkpt lat="44.7369" lon="5.1471">
        <ele>414</ele>
        <time>2026-08-23T17:00:40.294Z</time>
      </trkpt>
      <trkpt lat="44.73689" lon="5.14711">
        <ele>414</ele>
        <time>2026-08-23T17:00:41.294Z</time>
      </trkpt>
      <trkpt lat="44.73689" lon="5.14712">
        <ele>414</ele>
        <time>2026-08-23T17:00:42.294Z</time>
      </trkpt>
      <trkpt lat="44.73688" lon="5.14714">
        <ele>414</ele>
        <time>2026-08-23T17:00:43.294Z</time>
      </trkpt>
      <trkpt lat="44.73688" lon="5.14715">
        <ele>414</ele>
        <time>2026-08-23T17:00:44.294Z</time>
      </trkpt>
      <trkpt lat="44.73687" lon="5.14716">
        <ele>414</ele>
        <time>2026-08-23T17:00:45.294Z</time>
      </trkpt>
      <trkpt lat="44.73686" lon="5.14717">
        <ele>414</ele>
        <time>2026-08-23T17:00:46.294Z</time>
      </trkpt>
      <trkpt lat="44.73685" lon="5.14719">
        <ele>414</ele>
        <time>2026-08-23T17:00:47.294Z</time>
      </trkpt>
      <trkpt lat="44.73685" lon="5.1472">
        <ele>414</ele>
        <time>2026-08-23T17:00:48.294Z</time>
      </trkpt>
      <trkpt lat="44.73684" lon="5.14721">
        <ele>414</ele>
        <time>2026-08-23T17:00:49.294Z</time>
      </trkpt>
      <trkpt lat="44.73684" lon="5.14722">
        <ele>414</ele>
        <time>2026-08-23T17:00:50.294Z</time>
      </trkpt>
      <trkpt lat="44.73683" lon="5.14723">
        <ele>414</ele>
        <time>2026-08-23T17:00:51.294Z</time>
      </trkpt>
      <trkpt lat="44.73682" lon="5.14724">
        <ele>414</ele>
        <time>2026-08-23T17:00:52.294Z</time>
      </trkpt>
      <trkpt lat="44.73681" lon="5.14725">
        <ele>415</ele>
        <time>2026-08-23T17:00:53.294Z</time>
      </trkpt>
      <trkpt lat="44.7368" lon="5.14726">
        <ele>415</ele>
        <time>2026-08-23T17:00:54.294Z</time>
      </trkpt>
      <trkpt lat="44.73679" lon="5.14726">
        <ele>415</ele>
        <time>2026-08-23T17:00:55.294Z</time>
      </trkpt>
      <trkpt lat="44.73679" lon="5.14727">
        <ele>415</ele>
        <time>2026-08-23T17:00:56.294Z</time>
      </trkpt>
      <trkpt lat="44.73678" lon="5.14728">
        <ele>415</ele>
        <time>2026-08-23T17:00:57.294Z</time>
      </trkpt>
      <trkpt lat="44.73678" lon="5.14728">
        <ele>415</ele>
        <time>2026-08-23T17:00:58.294Z</time>
      </trkpt>
      <trkpt lat="44.73677" lon="5.14729">
        <ele>415</ele>
        <time>2026-08-23T17:00:59.294Z</time>
      </trkpt>
      <trkpt lat="44.73676" lon="5.14729">
        <ele>415</ele>
        <time>2026-08-23T17:01:00.294Z</time>
      </trkpt>
      <trkpt lat="44.73675" lon="5.1473">
        <ele>415</ele>
        <time>2026-08-23T17:01:01.294Z</time>
      </trkpt>
      <trkpt lat="44.73675" lon="5.14731">
        <ele>415</ele>
        <time>2026-08-23T17:01:02.294Z</time>
      </trkpt>
      <trkpt lat="44.73674" lon="5.14731">
        <ele>415</ele>
        <time>2026-08-23T17:01:03.294Z</time>
      </trkpt>
      <trkpt lat="44.73673" lon="5.14732">
        <ele>416</ele>
        <time>2026-08-23T17:01:04.294Z</time>
      </trkpt>
      <trkpt lat="44.73672" lon="5.14732">
        <ele>416</ele>
        <time>2026-08-23T17:01:05.294Z</time>
      </trkpt>
      <trkpt lat="44.73671" lon="5.14733">
        <ele>416</ele>
        <time>2026-08-23T17:01:06.294Z</time>
      </trkpt>
      <trkpt lat="44.73671" lon="5.14733">
        <ele>416</ele>
        <time>2026-08-23T17:01:07.294Z</time>
      </trkpt>
      <trkpt lat="44.7367" lon="5.14734">
        <ele>416</ele>
        <time>2026-08-23T17:01:08.294Z</time>
      </trkpt>
      <trkpt lat="44.73669" lon="5.14734">
        <ele>416</ele>
        <time>2026-08-23T17:01:09.294Z</time>
      </trkpt>
      <trkpt lat="44.73668" lon="5.14735">
        <ele>416</ele>
        <time>2026-08-23T17:01:10.294Z</time>
      </trkpt>
      <trkpt lat="44.73667" lon="5.14735">
        <ele>416</ele>
        <time>2026-08-23T17:01:11.294Z</time>
      </trkpt>
      <trkpt lat="44.73667" lon="5.14736">
        <ele>417</ele>
        <time>2026-08-23T17:01:12.294Z</time>
      </trkpt>
      <trkpt lat="44.73666" lon="5.14736">
        <ele>417</ele>
        <time>2026-08-23T17:01:13.294Z</time>
      </trkpt>
      <trkpt lat="44.73665" lon="5.14737">
        <ele>417</ele>
        <time>2026-08-23T17:01:14.294Z</time>
      </trkpt>
      <trkpt lat="44.73664" lon="5.14737">
        <ele>417</ele>
        <time>2026-08-23T17:01:15.294Z</time>
      </trkpt>
      <trkpt lat="44.73664" lon="5.14738">
        <ele>417</ele>
        <time>2026-08-23T17:01:16.294Z</time>
      </trkpt>
      <trkpt lat="44.73663" lon="5.14738">
        <ele>417</ele>
        <time>2026-08-23T17:01:17.294Z</time>
      </trkpt>
      <trkpt lat="44.73662" lon="5.14738">
        <ele>417</ele>
        <time>2026-08-23T17:01:18.294Z</time>
      </trkpt>
      <trkpt lat="44.73661" lon="5.14738">
        <ele>417</ele>
        <time>2026-08-23T17:01:19.294Z</time>
      </trkpt>
      <trkpt lat="44.7366" lon="5.14739">
        <ele>417</ele>
        <time>2026-08-23T17:01:20.294Z</time>
      </trkpt>
      <trkpt lat="44.7366" lon="5.14739">
        <ele>417</ele>
        <time>2026-08-23T17:01:21.294Z</time>
      </trkpt>
      <trkpt lat="44.73659" lon="5.14739">
        <ele>418</ele>
        <time>2026-08-23T17:01:22.294Z</time>
      </trkpt>
      <trkpt lat="44.73658" lon="5.14739">
        <ele>418</ele>
        <time>2026-08-23T17:01:23.294Z</time>
      </trkpt>
      <trkpt lat="44.73657" lon="5.14739">
        <ele>418</ele>
        <time>2026-08-23T17:01:24.294Z</time>
      </trkpt>
      <trkpt lat="44.73656" lon="5.14739">
        <ele>418</ele>
        <time>2026-08-23T17:01:25.294Z</time>
      </trkpt>
      <trkpt lat="44.73656" lon="5.14739">
        <ele>418</ele>
        <time>2026-08-23T17:01:26.294Z</time>
      </trkpt>
      <trkpt lat="44.73655" lon="5.1474">
        <ele>418</ele>
        <time>2026-08-23T17:01:27.294Z</time>
      </trkpt>
      <trkpt lat="44.73654" lon="5.1474">
        <ele>418</ele>
        <time>2026-08-23T17:01:28.294Z</time>
      </trkpt>
      <trkpt lat="44.73653" lon="5.1474">
        <ele>418</ele>
        <time>2026-08-23T17:01:29.294Z</time>
      </trkpt>
      <trkpt lat="44.73652" lon="5.1474">
        <ele>418</ele>
        <time>2026-08-23T17:01:30.294Z</time>
      </trkpt>
      <trkpt lat="44.73651" lon="5.14741">
        <ele>418</ele>
        <time>2026-08-23T17:01:31.294Z</time>
      </trkpt>
      <trkpt lat="44.73651" lon="5.14741">
        <ele>418</ele>
        <time>2026-08-23T17:01:32.294Z</time>
      </trkpt>
      <trkpt lat="44.7365" lon="5.14742">
        <ele>419</ele>
        <time>2026-08-23T17:01:33.294Z</time>
      </trkpt>
      <trkpt lat="44.73649" lon="5.14742">
        <ele>419</ele>
        <time>2026-08-23T17:01:34.294Z</time>
      </trkpt>
      <trkpt lat="44.73648" lon="5.14742">
        <ele>419</ele>
        <time>2026-08-23T17:01:35.294Z</time>
      </trkpt>
      <trkpt lat="44.73648" lon="5.14742">
        <ele>419</ele>
        <time>2026-08-23T17:01:36.294Z</time>
      </trkpt>
      <trkpt lat="44.73647" lon="5.14742">
        <ele>419</ele>
        <time>2026-08-23T17:01:37.294Z</time>
      </trkpt>
      <trkpt lat="44.73646" lon="5.14742">
        <ele>419</ele>
        <time>2026-08-23T17:01:38.294Z</time>
      </trkpt>
      <trkpt lat="44.73645" lon="5.14742">
        <ele>419</ele>
        <time>2026-08-23T17:01:39.294Z</time>
      </trkpt>
      <trkpt lat="44.73644" lon="5.14743">
        <ele>419</ele>
        <time>2026-08-23T17:01:40.294Z</time>
      </trkpt>
      <trkpt lat="44.73644" lon="5.14743">
        <ele>419</ele>
        <time>2026-08-23T17:01:41.294Z</time>
      </trkpt>
      <trkpt lat="44.73643" lon="5.14743">
        <ele>419</ele>
        <time>2026-08-23T17:01:42.294Z</time>
      </trkpt>
      <trkpt lat="44.73642" lon="5.14743">
        <ele>419</ele>
        <time>2026-08-23T17:01:43.294Z</time>
      </trkpt>
      <trkpt lat="44.73641" lon="5.14743">
        <ele>419</ele>
        <time>2026-08-23T17:01:44.294Z</time>
      </trkpt>
      <trkpt lat="44.73641" lon="5.14743">
        <ele>419</ele>
        <time>2026-08-23T17:01:45.294Z</time>
      </trkpt>
      <trkpt lat="44.7364" lon="5.14743">
        <ele>420</ele>
        <time>2026-08-23T17:01:46.294Z</time>
      </trkpt>
      <trkpt lat="44.73639" lon="5.14743">
        <ele>420</ele>
        <time>2026-08-23T17:01:47.294Z</time>
      </trkpt>
      <trkpt lat="44.73639" lon="5.14743">
        <ele>420</ele>
        <time>2026-08-23T17:01:48.294Z</time>
      </trkpt>
      <trkpt lat="44.73638" lon="5.14743">
        <ele>420</ele>
        <time>2026-08-23T17:01:49.294Z</time>
      </trkpt>
      <trkpt lat="44.73637" lon="5.14743">
        <ele>420</ele>
        <time>2026-08-23T17:01:50.294Z</time>
      </trkpt>
      <trkpt lat="44.73636" lon="5.14744">
        <ele>420</ele>
        <time>2026-08-23T17:01:51.294Z</time>
      </trkpt>
      <trkpt lat="44.73635" lon="5.14744">
        <ele>420</ele>
        <time>2026-08-23T17:01:52.294Z</time>
      </trkpt>
      <trkpt lat="44.73634" lon="5.14744">
        <ele>420</ele>
        <time>2026-08-23T17:01:53.294Z</time>
      </trkpt>
      <trkpt lat="44.73634" lon="5.14745">
        <ele>420</ele>
        <time>2026-08-23T17:01:54.294Z</time>
      </trkpt>
      <trkpt lat="44.73633" lon="5.14745">
        <ele>420</ele>
        <time>2026-08-23T17:01:55.294Z</time>
      </trkpt>
      <trkpt lat="44.73632" lon="5.14745">
        <ele>420</ele>
        <time>2026-08-23T17:01:56.294Z</time>
      </trkpt>
      <trkpt lat="44.73631" lon="5.14745">
        <ele>420</ele>
        <time>2026-08-23T17:01:57.294Z</time>
      </trkpt>
      <trkpt lat="44.7363" lon="5.14746">
        <ele>420</ele>
        <time>2026-08-23T17:01:58.294Z</time>
      </trkpt>
      <trkpt lat="44.73629" lon="5.14746">
        <ele>420</ele>
        <time>2026-08-23T17:01:59.294Z</time>
      </trkpt>
      <trkpt lat="44.73628" lon="5.14746">
        <ele>420</ele>
        <time>2026-08-23T17:02:00.294Z</time>
      </trkpt>
      <trkpt lat="44.73627" lon="5.14746">
        <ele>420</ele>
        <time>2026-08-23T17:02:01.294Z</time>
      </trkpt>
      <trkpt lat="44.73627" lon="5.14747">
        <ele>421</ele>
        <time>2026-08-23T17:02:02.294Z</time>
      </trkpt>
      <trkpt lat="44.73626" lon="5.14747">
        <ele>421</ele>
        <time>2026-08-23T17:02:03.294Z</time>
      </trkpt>
      <trkpt lat="44.73625" lon="5.14748">
        <ele>421</ele>
        <time>2026-08-23T17:02:04.294Z</time>
      </trkpt>
      <trkpt lat="44.73624" lon="5.14748">
        <ele>421</ele>
        <time>2026-08-23T17:02:05.294Z</time>
      </trkpt>
      <trkpt lat="44.73623" lon="5.14748">
        <ele>421</ele>
        <time>2026-08-23T17:02:06.294Z</time>
      </trkpt>
      <trkpt lat="44.73622" lon="5.14748">
        <ele>421</ele>
        <time>2026-08-23T17:02:07.294Z</time>
      </trkpt>
      <trkpt lat="44.73621" lon="5.14749">
        <ele>421</ele>
        <time>2026-08-23T17:02:08.294Z</time>
      </trkpt>
      <trkpt lat="44.73621" lon="5.14749">
        <ele>421</ele>
        <time>2026-08-23T17:02:09.294Z</time>
      </trkpt>
      <trkpt lat="44.7362" lon="5.14749">
        <ele>421</ele>
        <time>2026-08-23T17:02:10.294Z</time>
      </trkpt>
      <trkpt lat="44.73619" lon="5.1475">
        <ele>421</ele>
        <time>2026-08-23T17:02:11.294Z</time>
      </trkpt>
      <trkpt lat="44.73618" lon="5.1475">
        <ele>421</ele>
        <time>2026-08-23T17:02:12.294Z</time>
      </trkpt>
      <trkpt lat="44.73617" lon="5.1475">
        <ele>422</ele>
        <time>2026-08-23T17:02:13.294Z</time>
      </trkpt>
      <trkpt lat="44.73616" lon="5.14751">
        <ele>422</ele>
        <time>2026-08-23T17:02:14.294Z</time>
      </trkpt>
      <trkpt lat="44.73615" lon="5.14751">
        <ele>422</ele>
        <time>2026-08-23T17:02:15.294Z</time>
      </trkpt>
      <trkpt lat="44.73614" lon="5.14752">
        <ele>422</ele>
        <time>2026-08-23T17:02:16.294Z</time>
      </trkpt>
      <trkpt lat="44.73613" lon="5.14752">
        <ele>422</ele>
        <time>2026-08-23T17:02:17.294Z</time>
      </trkpt>
      <trkpt lat="44.73613" lon="5.14752">
        <ele>422</ele>
        <time>2026-08-23T17:02:18.294Z</time>
      </trkpt>
      <trkpt lat="44.73612" lon="5.14753">
        <ele>422</ele>
        <time>2026-08-23T17:02:19.294Z</time>
      </trkpt>
      <trkpt lat="44.73611" lon="5.14753">
        <ele>423</ele>
        <time>2026-08-23T17:02:20.294Z</time>
      </trkpt>
      <trkpt lat="44.7361" lon="5.14754">
        <ele>423</ele>
        <time>2026-08-23T17:02:21.294Z</time>
      </trkpt>
      <trkpt lat="44.73609" lon="5.14754">
        <ele>423</ele>
        <time>2026-08-23T17:02:22.294Z</time>
      </trkpt>
      <trkpt lat="44.73608" lon="5.14755">
        <ele>423</ele>
        <time>2026-08-23T17:02:23.294Z</time>
      </trkpt>
      <trkpt lat="44.73608" lon="5.14755">
        <ele>423</ele>
        <time>2026-08-23T17:02:24.294Z</time>
      </trkpt>
      <trkpt lat="44.73607" lon="5.14755">
        <ele>423</ele>
        <time>2026-08-23T17:02:25.294Z</time>
      </trkpt>
      <trkpt lat="44.73606" lon="5.14756">
        <ele>423</ele>
        <time>2026-08-23T17:02:26.294Z</time>
      </trkpt>
      <trkpt lat="44.73605" lon="5.14756">
        <ele>423</ele>
        <time>2026-08-23T17:02:27.294Z</time>
      </trkpt>
      <trkpt lat="44.73605" lon="5.14757">
        <ele>423</ele>
        <time>2026-08-23T17:02:28.294Z</time>
      </trkpt>
      <trkpt lat="44.73604" lon="5.14757">
        <ele>423</ele>
        <time>2026-08-23T17:02:29.294Z</time>
      </trkpt>
      <trkpt lat="44.73603" lon="5.14758">
        <ele>424</ele>
        <time>2026-08-23T17:02:30.294Z</time>
      </trkpt>
      <trkpt lat="44.73602" lon="5.14758">
        <ele>424</ele>
        <time>2026-08-23T17:02:31.294Z</time>
      </trkpt>
      <trkpt lat="44.73601" lon="5.14758">
        <ele>424</ele>
        <time>2026-08-23T17:02:32.294Z</time>
      </trkpt>
      <trkpt lat="44.736" lon="5.14758">
        <ele>424</ele>
        <time>2026-08-23T17:02:33.294Z</time>
      </trkpt>
      <trkpt lat="44.736" lon="5.14758">
        <ele>424</ele>
        <time>2026-08-23T17:02:34.294Z</time>
      </trkpt>
      <trkpt lat="44.73599" lon="5.14758">
        <ele>424</ele>
        <time>2026-08-23T17:02:35.294Z</time>
      </trkpt>
      <trkpt lat="44.73598" lon="5.14758">
        <ele>424</ele>
        <time>2026-08-23T17:02:36.294Z</time>
      </trkpt>
      <trkpt lat="44.73597" lon="5.14759">
        <ele>424</ele>
        <time>2026-08-23T17:02:37.294Z</time>
      </trkpt>
      <trkpt lat="44.73596" lon="5.14759">
        <ele>424</ele>
        <time>2026-08-23T17:02:38.294Z</time>
      </trkpt>
      <trkpt lat="44.73595" lon="5.1476">
        <ele>424</ele>
        <time>2026-08-23T17:02:39.294Z</time>
      </trkpt>
      <trkpt lat="44.73595" lon="5.1476">
        <ele>424</ele>
        <time>2026-08-23T17:02:40.294Z</time>
      </trkpt>
      <trkpt lat="44.73594" lon="5.14761">
        <ele>424</ele>
        <time>2026-08-23T17:02:41.294Z</time>
      </trkpt>
      <trkpt lat="44.73593" lon="5.14761">
        <ele>424</ele>
        <time>2026-08-23T17:02:42.294Z</time>
      </trkpt>
      <trkpt lat="44.73592" lon="5.14761">
        <ele>424</ele>
        <time>2026-08-23T17:02:43.294Z</time>
      </trkpt>
      <trkpt lat="44.73591" lon="5.14762">
        <ele>425</ele>
        <time>2026-08-23T17:02:44.294Z</time>
      </trkpt>
      <trkpt lat="44.7359" lon="5.14762">
        <ele>425</ele>
        <time>2026-08-23T17:02:45.294Z</time>
      </trkpt>
      <trkpt lat="44.73589" lon="5.14763">
        <ele>425</ele>
        <time>2026-08-23T17:02:46.294Z</time>
      </trkpt>
      <trkpt lat="44.73588" lon="5.14764">
        <ele>425</ele>
        <time>2026-08-23T17:02:47.294Z</time>
      </trkpt>
      <trkpt lat="44.73587" lon="5.14764">
        <ele>425</ele>
        <time>2026-08-23T17:02:48.294Z</time>
      </trkpt>
      <trkpt lat="44.73586" lon="5.14764">
        <ele>425</ele>
        <time>2026-08-23T17:02:49.294Z</time>
      </trkpt>
      <trkpt lat="44.73585" lon="5.14765">
        <ele>425</ele>
        <time>2026-08-23T17:02:50.294Z</time>
      </trkpt>
      <trkpt lat="44.73584" lon="5.14765">
        <ele>425</ele>
        <time>2026-08-23T17:02:51.294Z</time>
      </trkpt>
      <trkpt lat="44.73584" lon="5.14766">
        <ele>425</ele>
        <time>2026-08-23T17:02:52.294Z</time>
      </trkpt>
      <trkpt lat="44.73583" lon="5.14766">
        <ele>425</ele>
        <time>2026-08-23T17:02:53.294Z</time>
      </trkpt>
      <trkpt lat="44.73582" lon="5.14767">
        <ele>425</ele>
        <time>2026-08-23T17:02:54.294Z</time>
      </trkpt>
      <trkpt lat="44.73581" lon="5.14768">
        <ele>425</ele>
        <time>2026-08-23T17:02:55.294Z</time>
      </trkpt>
      <trkpt lat="44.7358" lon="5.14769">
        <ele>425</ele>
        <time>2026-08-23T17:02:56.294Z</time>
      </trkpt>
      <trkpt lat="44.73579" lon="5.1477">
        <ele>425</ele>
        <time>2026-08-23T17:02:57.294Z</time>
      </trkpt>
      <trkpt lat="44.73578" lon="5.1477">
        <ele>425</ele>
        <time>2026-08-23T17:02:58.294Z</time>
      </trkpt>
      <trkpt lat="44.73578" lon="5.14771">
        <ele>425</ele>
        <time>2026-08-23T17:02:59.294Z</time>
      </trkpt>
      <trkpt lat="44.73577" lon="5.14772">
        <ele>425</ele>
        <time>2026-08-23T17:03:00.294Z</time>
      </trkpt>
      <trkpt lat="44.73576" lon="5.14772">
        <ele>425</ele>
        <time>2026-08-23T17:03:01.294Z</time>
      </trkpt>
      <trkpt lat="44.73575" lon="5.14773">
        <ele>425</ele>
        <time>2026-08-23T17:03:02.294Z</time>
      </trkpt>
      <trkpt lat="44.73574" lon="5.14773">
        <ele>425</ele>
        <time>2026-08-23T17:03:03.294Z</time>
      </trkpt>
      <trkpt lat="44.73573" lon="5.14773">
        <ele>425</ele>
        <time>2026-08-23T17:03:04.294Z</time>
      </trkpt>
      <trkpt lat="44.73572" lon="5.14774">
        <ele>425</ele>
        <time>2026-08-23T17:03:05.294Z</time>
      </trkpt>
      <trkpt lat="44.73571" lon="5.14774">
        <ele>425</ele>
        <time>2026-08-23T17:03:06.294Z</time>
      </trkpt>
      <trkpt lat="44.7357" lon="5.14774">
        <ele>425</ele>
        <time>2026-08-23T17:03:07.294Z</time>
      </trkpt>
      <trkpt lat="44.73569" lon="5.14775">
        <ele>425</ele>
        <time>2026-08-23T17:03:08.294Z</time>
      </trkpt>
      <trkpt lat="44.73568" lon="5.14775">
        <ele>425</ele>
        <time>2026-08-23T17:03:09.294Z</time>
      </trkpt>
      <trkpt lat="44.73567" lon="5.14775">
        <ele>425</ele>
        <time>2026-08-23T17:03:10.294Z</time>
      </trkpt>
      <trkpt lat="44.73566" lon="5.14775">
        <ele>425</ele>
        <time>2026-08-23T17:03:11.294Z</time>
      </trkpt>
      <trkpt lat="44.73566" lon="5.14775">
        <ele>425</ele>
        <time>2026-08-23T17:03:12.294Z</time>
      </trkpt>
      <trkpt lat="44.73565" lon="5.14775">
        <ele>425</ele>
        <time>2026-08-23T17:03:13.294Z</time>
      </trkpt>
      <trkpt lat="44.73565" lon="5.14775">
        <ele>425</ele>
        <time>2026-08-23T17:03:14.294Z</time>
      </trkpt>
      <trkpt lat="44.73565" lon="5.14775">
        <ele>425</ele>
        <time>2026-08-23T17:03:15.294Z</time>
      </trkpt>
      <trkpt lat="44.73565" lon="5.14775">
        <ele>425</ele>
        <time>2026-08-23T17:03:16.294Z</time>
      </trkpt>
      <trkpt lat="44.73563" lon="5.14773">
        <ele>424</ele>
        <time>2026-08-23T17:03:28.301Z</time>
      </trkpt>
      <trkpt lat="44.73563" lon="5.14773">
        <ele>424</ele>
        <time>2026-08-23T17:03:29.301Z</time>
      </trkpt>
      <trkpt lat="44.73563" lon="5.14773">
        <ele>424</ele>
        <time>2026-08-23T17:03:30.301Z</time>
      </trkpt>
      <trkpt lat="44.73563" lon="5.14773">
        <ele>424</ele>
        <time>2026-08-23T17:03:31.301Z</time>
      </trkpt>
      <trkpt lat="44.73563" lon="5.14773">
        <ele>424</ele>
        <time>2026-08-23T17:03:32.301Z</time>
      </trkpt>
      <trkpt lat="44.73564" lon="5.14775">
        <ele>424</ele>
        <time>2026-08-23T17:03:53.303Z</time>
      </trkpt>
      <trkpt lat="44.73564" lon="5.14776">
        <ele>424</ele>
        <time>2026-08-23T17:03:54.303Z</time>
      </trkpt>
      <trkpt lat="44.73564" lon="5.14777">
        <ele>424</ele>
        <time>2026-08-23T17:03:55.303Z</time>
      </trkpt>
      <trkpt lat="44.73564" lon="5.14778">
        <ele>424</ele>
        <time>2026-08-23T17:03:56.303Z</time>
      </trkpt>
      <trkpt lat="44.73565" lon="5.14778">
        <ele>424</ele>
        <time>2026-08-23T17:03:57.303Z</time>
      </trkpt>
      <trkpt lat="44.73566" lon="5.14778">
        <ele>424</ele>
        <time>2026-08-23T17:03:58.303Z</time>
      </trkpt>
      <trkpt lat="44.73566" lon="5.14778">
        <ele>424</ele>
        <time>2026-08-23T17:03:59.303Z</time>
      </trkpt>
      <trkpt lat="44.73567" lon="5.14777">
        <ele>424</ele>
        <time>2026-08-23T17:04:00.303Z</time>
      </trkpt>
      <trkpt lat="44.73567" lon="5.14777">
        <ele>424</ele>
        <time>2026-08-23T17:04:01.303Z</time>
      </trkpt>
      <trkpt lat="44.73567" lon="5.14776">
        <ele>424</ele>
        <time>2026-08-23T17:04:02.303Z</time>
      </trkpt>
      <trkpt lat="44.73567" lon="5.14775">
        <ele>424</ele>
        <time>2026-08-23T17:04:03.303Z</time>
      </trkpt>
      <trkpt lat="44.73567" lon="5.14775">
        <ele>424</ele>
        <time>2026-08-23T17:04:04.303Z</time>
      </trkpt>
      <trkpt lat="44.73566" lon="5.14774">
        <ele>424</ele>
        <time>2026-08-23T17:04:05.303Z</time>
      </trkpt>
      <trkpt lat="44.73566" lon="5.14773">
        <ele>424</ele>
        <time>2026-08-23T17:04:06.303Z</time>
      </trkpt>
      <trkpt lat="44.73566" lon="5.14773">
        <ele>423</ele>
        <time>2026-08-23T17:04:07.303Z</time>
      </trkpt>
      <trkpt lat="44.73565" lon="5.14773">
        <ele>423</ele>
        <time>2026-08-23T17:04:08.303Z</time>
      </trkpt>
      <trkpt lat="44.73565" lon="5.14773">
        <ele>423</ele>
        <time>2026-08-23T17:04:09.303Z</time>
      </trkpt>
      <trkpt lat="44.73565" lon="5.14774">
        <ele>423</ele>
        <time>2026-08-23T17:04:40.308Z</time>
      </trkpt>
      <trkpt lat="44.73566" lon="5.14775">
        <ele>423</ele>
        <time>2026-08-23T17:04:41.308Z</time>
      </trkpt>
      <trkpt lat="44.73566" lon="5.14775">
        <ele>423</ele>
        <time>2026-08-23T17:04:42.308Z</time>
      </trkpt>
      <trkpt lat="44.73567" lon="5.14775">
        <ele>423</ele>
        <time>2026-08-23T17:04:43.308Z</time>
      </trkpt>
      <trkpt lat="44.73567" lon="5.14775">
        <ele>423</ele>
        <time>2026-08-23T17:04:44.308Z</time>
      </trkpt>
      <trkpt lat="44.73568" lon="5.14776">
        <ele>423</ele>
        <time>2026-08-23T17:04:45.308Z</time>
      </trkpt>
      <trkpt lat="44.73569" lon="5.14775">
        <ele>423</ele>
        <time>2026-08-23T17:04:46.308Z</time>
      </trkpt>
      <trkpt lat="44.73569" lon="5.14775">
        <ele>423</ele>
        <time>2026-08-23T17:04:47.308Z</time>
      </trkpt>
      <trkpt lat="44.7357" lon="5.14775">
        <ele>423</ele>
        <time>2026-08-23T17:04:48.308Z</time>
      </trkpt>
      <trkpt lat="44.7357" lon="5.14774">
        <ele>423</ele>
        <time>2026-08-23T17:04:49.308Z</time>
      </trkpt>
      <trkpt lat="44.7357" lon="5.14774">
        <ele>424</ele>
        <time>2026-08-23T17:04:50.308Z</time>
      </trkpt>
      <trkpt lat="44.7357" lon="5.14774">
        <ele>424</ele>
        <time>2026-08-23T17:04:51.308Z</time>
      </trkpt>
      <trkpt lat="44.73568" lon="5.14773">
        <ele>424</ele>
        <time>2026-08-23T17:04:54.609Z</time>
      </trkpt>
      <trkpt lat="44.73568" lon="5.14773">
        <ele>424</ele>
        <time>2026-08-23T17:04:55.609Z</time>
      </trkpt>
      <trkpt lat="44.73568" lon="5.14773">
        <ele>424</ele>
        <time>2026-08-23T17:04:56.609Z</time>
      </trkpt>
      <trkpt lat="44.73567" lon="5.14772">
        <ele>424</ele>
        <time>2026-08-23T17:04:57.609Z</time>
      </trkpt>
      <trkpt lat="44.73567" lon="5.14772">
        <ele>424</ele>
        <time>2026-08-23T17:04:58.609Z</time>
      </trkpt>
      <trkpt lat="44.73566" lon="5.14772">
        <ele>424</ele>
        <time>2026-08-23T17:04:59.609Z</time>
      </trkpt>
      <trkpt lat="44.73566" lon="5.14771">
        <ele>424</ele>
        <time>2026-08-23T17:05:00.609Z</time>
      </trkpt>
      <trkpt lat="44.73566" lon="5.14771">
        <ele>424</ele>
        <time>2026-08-23T17:05:01.609Z</time>
      </trkpt>
      <trkpt lat="44.73566" lon="5.1477">
        <ele>424</ele>
        <time>2026-08-23T17:05:10.617Z</time>
      </trkpt>
      <trkpt lat="44.73567" lon="5.1477">
        <ele>424</ele>
        <time>2026-08-23T17:05:11.617Z</time>
      </trkpt>
      <trkpt lat="44.73567" lon="5.1477">
        <ele>424</ele>
        <time>2026-08-23T17:05:12.617Z</time>
      </trkpt>
      <trkpt lat="44.73568" lon="5.14769">
        <ele>424</ele>
        <time>2026-08-23T17:05:13.617Z</time>
      </trkpt>
      <trkpt lat="44.73568" lon="5.14769">
        <ele>424</ele>
        <time>2026-08-23T17:05:14.617Z</time>
      </trkpt>
      <trkpt lat="44.73569" lon="5.14769">
        <ele>424</ele>
        <time>2026-08-23T17:05:15.617Z</time>
      </trkpt>
      <trkpt lat="44.73569" lon="5.14769">
        <ele>424</ele>
        <time>2026-08-23T17:05:16.617Z</time>
      </trkpt>
      <trkpt lat="44.7357" lon="5.1477">
        <ele>424</ele>
        <time>2026-08-23T17:05:17.617Z</time>
      </trkpt>
      <trkpt lat="44.73571" lon="5.1477">
        <ele>424</ele>
        <time>2026-08-23T17:05:18.617Z</time>
      </trkpt>
      <trkpt lat="44.73571" lon="5.14771">
        <ele>424</ele>
        <time>2026-08-23T17:05:19.617Z</time>
      </trkpt>
      <trkpt lat="44.73572" lon="5.14772">
        <ele>424</ele>
        <time>2026-08-23T17:05:20.617Z</time>
      </trkpt>
      <trkpt lat="44.73572" lon="5.14773">
        <ele>424</ele>
        <time>2026-08-23T17:05:21.617Z</time>
      </trkpt>
      <trkpt lat="44.73572" lon="5.14774">
        <ele>424</ele>
        <time>2026-08-23T17:05:22.617Z</time>
      </trkpt>
      <trkpt lat="44.73572" lon="5.14775">
        <ele>424</ele>
        <time>2026-08-23T17:05:23.617Z</time>
      </trkpt>
      <trkpt lat="44.73571" lon="5.14776">
        <ele>424</ele>
        <time>2026-08-23T17:05:24.617Z</time>
      </trkpt>
      <trkpt lat="44.73571" lon="5.14776">
        <ele>424</ele>
        <time>2026-08-23T17:05:25.617Z</time>
      </trkpt>
      <trkpt lat="44.73571" lon="5.14777">
        <ele>424</ele>
        <time>2026-08-23T17:05:26.617Z</time>
      </trkpt>
      <trkpt lat="44.73571" lon="5.14778">
        <ele>424</ele>
        <time>2026-08-23T17:05:27.617Z</time>
      </trkpt>
      <trkpt lat="44.7357" lon="5.14778">
        <ele>424</ele>
        <time>2026-08-23T17:05:28.617Z</time>
      </trkpt>
      <trkpt lat="44.73571" lon="5.14778">
        <ele>424</ele>
        <time>2026-08-23T17:05:29.617Z</time>
      </trkpt>
      <trkpt lat="44.73571" lon="5.14778">
        <ele>424</ele>
        <time>2026-08-23T17:05:30.617Z</time>
      </trkpt>
      <trkpt lat="44.7357" lon="5.14778">
        <ele>424</ele>
        <time>2026-08-23T17:05:31.617Z</time>
      </trkpt>
      <trkpt lat="44.7357" lon="5.14777">
        <ele>424</ele>
        <time>2026-08-23T17:05:37.625Z</time>
      </trkpt>
      <trkpt lat="44.7357" lon="5.14776">
        <ele>424</ele>
        <time>2026-08-23T17:05:38.625Z</time>
      </trkpt>
      <trkpt lat="44.7357" lon="5.14774">
        <ele>424</ele>
        <time>2026-08-23T17:05:39.625Z</time>
      </trkpt>
      <trkpt lat="44.73571" lon="5.14774">
        <ele>424</ele>
        <time>2026-08-23T17:05:40.625Z</time>
      </trkpt>
      <trkpt lat="44.73572" lon="5.14773">
        <ele>424</ele>
        <time>2026-08-23T17:05:41.625Z</time>
      </trkpt>
      <trkpt lat="44.73573" lon="5.14773">
        <ele>424</ele>
        <time>2026-08-23T17:05:42.625Z</time>
      </trkpt>
      <trkpt lat="44.73574" lon="5.14773">
        <ele>424</ele>
        <time>2026-08-23T17:05:43.625Z</time>
      </trkpt>
      <trkpt lat="44.73575" lon="5.14772">
        <ele>424</ele>
        <time>2026-08-23T17:05:44.625Z</time>
      </trkpt>
      <trkpt lat="44.73576" lon="5.14772">
        <ele>424</ele>
        <time>2026-08-23T17:05:45.625Z</time>
      </trkpt>
      <trkpt lat="44.73577" lon="5.14772">
        <ele>424</ele>
        <time>2026-08-23T17:05:46.625Z</time>
      </trkpt>
      <trkpt lat="44.73578" lon="5.14772">
        <ele>424</ele>
        <time>2026-08-23T17:05:47.625Z</time>
      </trkpt>
      <trkpt lat="44.73579" lon="5.14771">
        <ele>424</ele>
        <time>2026-08-23T17:05:48.625Z</time>
      </trkpt>
      <trkpt lat="44.7358" lon="5.14771">
        <ele>423</ele>
        <time>2026-08-23T17:05:49.625Z</time>
      </trkpt>
      <trkpt lat="44.7358" lon="5.14771">
        <ele>423</ele>
        <time>2026-08-23T17:05:50.625Z</time>
      </trkpt>
      <trkpt lat="44.73581" lon="5.1477">
        <ele>423</ele>
        <time>2026-08-23T17:05:51.625Z</time>
      </trkpt>
      <trkpt lat="44.73582" lon="5.1477">
        <ele>423</ele>
        <time>2026-08-23T17:05:52.625Z</time>
      </trkpt>
      <trkpt lat="44.73583" lon="5.1477">
        <ele>423</ele>
        <time>2026-08-23T17:05:53.625Z</time>
      </trkpt>
      <trkpt lat="44.73583" lon="5.1477">
        <ele>423</ele>
        <time>2026-08-23T17:05:54.625Z</time>
      </trkpt>
      <trkpt lat="44.73584" lon="5.14769">
        <ele>423</ele>
        <time>2026-08-23T17:05:55.625Z</time>
      </trkpt>
      <trkpt lat="44.73585" lon="5.14769">
        <ele>423</ele>
        <time>2026-08-23T17:05:56.625Z</time>
      </trkpt>
      <trkpt lat="44.73586" lon="5.14769">
        <ele>423</ele>
        <time>2026-08-23T17:05:57.625Z</time>
      </trkpt>
      <trkpt lat="44.73586" lon="5.14768">
        <ele>423</ele>
        <time>2026-08-23T17:05:58.625Z</time>
      </trkpt>
      <trkpt lat="44.73587" lon="5.14768">
        <ele>423</ele>
        <time>2026-08-23T17:05:59.625Z</time>
      </trkpt>
      <trkpt lat="44.73587" lon="5.14768">
        <ele>423</ele>
        <time>2026-08-23T17:06:00.625Z</time>
      </trkpt>
      <trkpt lat="44.73587" lon="5.14768">
        <ele>423</ele>
        <time>2026-08-23T17:06:01.625Z</time>
      </trkpt>
      <trkpt lat="44.73588" lon="5.14766">
        <ele>424</ele>
        <time>2026-08-23T17:06:14.632Z</time>
      </trkpt>
      <trkpt lat="44.73589" lon="5.14765">
        <ele>424</ele>
        <time>2026-08-23T17:06:15.632Z</time>
      </trkpt>
      <trkpt lat="44.7359" lon="5.14764">
        <ele>424</ele>
        <time>2026-08-23T17:06:16.632Z</time>
      </trkpt>
      <trkpt lat="44.7359" lon="5.14763">
        <ele>424</ele>
        <time>2026-08-23T17:06:17.632Z</time>
      </trkpt>
      <trkpt lat="44.73591" lon="5.14763">
        <ele>424</ele>
        <time>2026-08-23T17:06:18.632Z</time>
      </trkpt>
      <trkpt lat="44.73592" lon="5.14762">
        <ele>424</ele>
        <time>2026-08-23T17:06:19.632Z</time>
      </trkpt>
      <trkpt lat="44.73593" lon="5.14762">
        <ele>424</ele>
        <time>2026-08-23T17:06:20.632Z</time>
      </trkpt>
      <trkpt lat="44.73594" lon="5.14761">
        <ele>424</ele>
        <time>2026-08-23T17:06:21.632Z</time>
      </trkpt>
      <trkpt lat="44.73595" lon="5.14761">
        <ele>424</ele>
        <time>2026-08-23T17:06:22.632Z</time>
      </trkpt>
      <trkpt lat="44.73596" lon="5.14761">
        <ele>423</ele>
        <time>2026-08-23T17:06:23.632Z</time>
      </trkpt>
      <trkpt lat="44.73596" lon="5.14761">
        <ele>423</ele>
        <time>2026-08-23T17:06:24.632Z</time>
      </trkpt>
      <trkpt lat="44.73597" lon="5.1476">
        <ele>423</ele>
        <time>2026-08-23T17:06:25.632Z</time>
      </trkpt>
      <trkpt lat="44.73597" lon="5.1476">
        <ele>423</ele>
        <time>2026-08-23T17:06:26.632Z</time>
      </trkpt>
      <trkpt lat="44.73597" lon="5.1476">
        <ele>424</ele>
        <time>2026-08-23T17:06:27.632Z</time>
      </trkpt>
      <trkpt lat="44.73598" lon="5.1476">
        <ele>424</ele>
        <time>2026-08-23T17:06:28.632Z</time>
      </trkpt>
      <trkpt lat="44.73598" lon="5.14759">
        <ele>424</ele>
        <time>2026-08-23T17:06:29.632Z</time>
      </trkpt>
      <trkpt lat="44.73599" lon="5.14758">
        <ele>424</ele>
        <time>2026-08-23T17:06:30.632Z</time>
      </trkpt>
      <trkpt lat="44.736" lon="5.14757">
        <ele>424</ele>
        <time>2026-08-23T17:06:31.632Z</time>
      </trkpt>
      <trkpt lat="44.73601" lon="5.14756">
        <ele>424</ele>
        <time>2026-08-23T17:06:32.632Z</time>
      </trkpt>
      <trkpt lat="44.73601" lon="5.14756">
        <ele>424</ele>
        <time>2026-08-23T17:06:33.632Z</time>
      </trkpt>
      <trkpt lat="44.73602" lon="5.14755">
        <ele>424</ele>
        <time>2026-08-23T17:06:34.632Z</time>
      </trkpt>
      <trkpt lat="44.73603" lon="5.14755">
        <ele>424</ele>
        <time>2026-08-23T17:06:35.632Z</time>
      </trkpt>
      <trkpt lat="44.73604" lon="5.14755">
        <ele>424</ele>
        <time>2026-08-23T17:06:36.632Z</time>
      </trkpt>
      <trkpt lat="44.73605" lon="5.14754">
        <ele>424</ele>
        <time>2026-08-23T17:06:37.632Z</time>
      </trkpt>
      <trkpt lat="44.73605" lon="5.14753">
        <ele>424</ele>
        <time>2026-08-23T17:06:38.632Z</time>
      </trkpt>
      <trkpt lat="44.73606" lon="5.14753">
        <ele>424</ele>
        <time>2026-08-23T17:06:39.632Z</time>
      </trkpt>
      <trkpt lat="44.73607" lon="5.14753">
        <ele>424</ele>
        <time>2026-08-23T17:06:40.632Z</time>
      </trkpt>
      <trkpt lat="44.73608" lon="5.14752">
        <ele>424</ele>
        <time>2026-08-23T17:06:41.632Z</time>
      </trkpt>
      <trkpt lat="44.73609" lon="5.14752">
        <ele>424</ele>
        <time>2026-08-23T17:06:42.632Z</time>
      </trkpt>
      <trkpt lat="44.7361" lon="5.14751">
        <ele>424</ele>
        <time>2026-08-23T17:06:43.632Z</time>
      </trkpt>
      <trkpt lat="44.7361" lon="5.14751">
        <ele>424</ele>
        <time>2026-08-23T17:06:44.632Z</time>
      </trkpt>
      <trkpt lat="44.73611" lon="5.14751">
        <ele>424</ele>
        <time>2026-08-23T17:06:45.632Z</time>
      </trkpt>
      <trkpt lat="44.73612" lon="5.1475">
        <ele>424</ele>
        <time>2026-08-23T17:06:46.632Z</time>
      </trkpt>
      <trkpt lat="44.73613" lon="5.1475">
        <ele>424</ele>
        <time>2026-08-23T17:06:47.632Z</time>
      </trkpt>
      <trkpt lat="44.73614" lon="5.1475">
        <ele>424</ele>
        <time>2026-08-23T17:06:48.632Z</time>
      </trkpt>
      <trkpt lat="44.73615" lon="5.14749">
        <ele>424</ele>
        <time>2026-08-23T17:06:49.632Z</time>
      </trkpt>
      <trkpt lat="44.73616" lon="5.14749">
        <ele>424</ele>
        <time>2026-08-23T17:06:50.632Z</time>
      </trkpt>
      <trkpt lat="44.73617" lon="5.14749">
        <ele>424</ele>
        <time>2026-08-23T17:06:51.632Z</time>
      </trkpt>
      <trkpt lat="44.73618" lon="5.14749">
        <ele>424</ele>
        <time>2026-08-23T17:06:52.632Z</time>
      </trkpt>
      <trkpt lat="44.73619" lon="5.14749">
        <ele>424</ele>
        <time>2026-08-23T17:06:53.632Z</time>
      </trkpt>
      <trkpt lat="44.7362" lon="5.14749">
        <ele>424</ele>
        <time>2026-08-23T17:06:54.632Z</time>
      </trkpt>
      <trkpt lat="44.73621" lon="5.14748">
        <ele>424</ele>
        <time>2026-08-23T17:06:55.632Z</time>
      </trkpt>
      <trkpt lat="44.73622" lon="5.14748">
        <ele>423</ele>
        <time>2026-08-23T17:06:56.632Z</time>
      </trkpt>
      <trkpt lat="44.73623" lon="5.14748">
        <ele>423</ele>
        <time>2026-08-23T17:06:57.632Z</time>
      </trkpt>
      <trkpt lat="44.73623" lon="5.14747">
        <ele>423</ele>
        <time>2026-08-23T17:06:58.632Z</time>
      </trkpt>
      <trkpt lat="44.73624" lon="5.14747">
        <ele>423</ele>
        <time>2026-08-23T17:06:59.632Z</time>
      </trkpt>
      <trkpt lat="44.73625" lon="5.14747">
        <ele>423</ele>
        <time>2026-08-23T17:07:00.632Z</time>
      </trkpt>
      <trkpt lat="44.73626" lon="5.14746">
        <ele>423</ele>
        <time>2026-08-23T17:07:01.632Z</time>
      </trkpt>
      <trkpt lat="44.73627" lon="5.14746">
        <ele>423</ele>
        <time>2026-08-23T17:07:02.632Z</time>
      </trkpt>
      <trkpt lat="44.73628" lon="5.14746">
        <ele>423</ele>
        <time>2026-08-23T17:07:03.632Z</time>
      </trkpt>
      <trkpt lat="44.73629" lon="5.14746">
        <ele>423</ele>
        <time>2026-08-23T17:07:04.632Z</time>
      </trkpt>
      <trkpt lat="44.7363" lon="5.14746">
        <ele>423</ele>
        <time>2026-08-23T17:07:05.632Z</time>
      </trkpt>
      <trkpt lat="44.73631" lon="5.14745">
        <ele>423</ele>
        <time>2026-08-23T17:07:06.632Z</time>
      </trkpt>
      <trkpt lat="44.73632" lon="5.14745">
        <ele>423</ele>
        <time>2026-08-23T17:07:07.632Z</time>
      </trkpt>
      <trkpt lat="44.73633" lon="5.14745">
        <ele>423</ele>
        <time>2026-08-23T17:07:08.632Z</time>
      </trkpt>
      <trkpt lat="44.73634" lon="5.14745">
        <ele>422</ele>
        <time>2026-08-23T17:07:09.632Z</time>
      </trkpt>
      <trkpt lat="44.73635" lon="5.14745">
        <ele>422</ele>
        <time>2026-08-23T17:07:10.632Z</time>
      </trkpt>
      <trkpt lat="44.73636" lon="5.14744">
        <ele>422</ele>
        <time>2026-08-23T17:07:11.632Z</time>
      </trkpt>
      <trkpt lat="44.73636" lon="5.14744">
        <ele>422</ele>
        <time>2026-08-23T17:07:12.632Z</time>
      </trkpt>
      <trkpt lat="44.73637" lon="5.14744">
        <ele>422</ele>
        <time>2026-08-23T17:07:13.632Z</time>
      </trkpt>
      <trkpt lat="44.73638" lon="5.14743">
        <ele>422</ele>
        <time>2026-08-23T17:07:14.632Z</time>
      </trkpt>
      <trkpt lat="44.73639" lon="5.14743">
        <ele>422</ele>
        <time>2026-08-23T17:07:15.632Z</time>
      </trkpt>
      <trkpt lat="44.7364" lon="5.14743">
        <ele>422</ele>
        <time>2026-08-23T17:07:16.632Z</time>
      </trkpt>
      <trkpt lat="44.73641" lon="5.14743">
        <ele>421</ele>
        <time>2026-08-23T17:07:17.632Z</time>
      </trkpt>
      <trkpt lat="44.73642" lon="5.14743">
        <ele>421</ele>
        <time>2026-08-23T17:07:18.632Z</time>
      </trkpt>
      <trkpt lat="44.73643" lon="5.14743">
        <ele>421</ele>
        <time>2026-08-23T17:07:19.632Z</time>
      </trkpt>
      <trkpt lat="44.73644" lon="5.14742">
        <ele>421</ele>
        <time>2026-08-23T17:07:20.632Z</time>
      </trkpt>
      <trkpt lat="44.73645" lon="5.14742">
        <ele>421</ele>
        <time>2026-08-23T17:07:21.632Z</time>
      </trkpt>
      <trkpt lat="44.73645" lon="5.14742">
        <ele>420</ele>
        <time>2026-08-23T17:07:22.632Z</time>
      </trkpt>
      <trkpt lat="44.73646" lon="5.14742">
        <ele>420</ele>
        <time>2026-08-23T17:07:23.632Z</time>
      </trkpt>
      <trkpt lat="44.73647" lon="5.14742">
        <ele>420</ele>
        <time>2026-08-23T17:07:24.632Z</time>
      </trkpt>
      <trkpt lat="44.73648" lon="5.14742">
        <ele>420</ele>
        <time>2026-08-23T17:07:25.632Z</time>
      </trkpt>
      <trkpt lat="44.73649" lon="5.14742">
        <ele>420</ele>
        <time>2026-08-23T17:07:26.632Z</time>
      </trkpt>
      <trkpt lat="44.7365" lon="5.14742">
        <ele>420</ele>
        <time>2026-08-23T17:07:27.632Z</time>
      </trkpt>
      <trkpt lat="44.73651" lon="5.14742">
        <ele>419</ele>
        <time>2026-08-23T17:07:28.632Z</time>
      </trkpt>
      <trkpt lat="44.73652" lon="5.14742">
        <ele>419</ele>
        <time>2026-08-23T17:07:29.632Z</time>
      </trkpt>
      <trkpt lat="44.73653" lon="5.14741">
        <ele>419</ele>
        <time>2026-08-23T17:07:30.632Z</time>
      </trkpt>
      <trkpt lat="44.73654" lon="5.14741">
        <ele>419</ele>
        <time>2026-08-23T17:07:31.632Z</time>
      </trkpt>
      <trkpt lat="44.73655" lon="5.1474">
        <ele>419</ele>
        <time>2026-08-23T17:07:32.632Z</time>
      </trkpt>
      <trkpt lat="44.73656" lon="5.1474">
        <ele>418</ele>
        <time>2026-08-23T17:07:33.632Z</time>
      </trkpt>
      <trkpt lat="44.73657" lon="5.1474">
        <ele>418</ele>
        <time>2026-08-23T17:07:34.632Z</time>
      </trkpt>
      <trkpt lat="44.73658" lon="5.1474">
        <ele>418</ele>
        <time>2026-08-23T17:07:35.632Z</time>
      </trkpt>
      <trkpt lat="44.73659" lon="5.14739">
        <ele>418</ele>
        <time>2026-08-23T17:07:36.632Z</time>
      </trkpt>
      <trkpt lat="44.7366" lon="5.14739">
        <ele>418</ele>
        <time>2026-08-23T17:07:37.632Z</time>
      </trkpt>
      <trkpt lat="44.73661" lon="5.14739">
        <ele>418</ele>
        <time>2026-08-23T17:07:38.632Z</time>
      </trkpt>
      <trkpt lat="44.73662" lon="5.14739">
        <ele>418</ele>
        <time>2026-08-23T17:07:39.632Z</time>
      </trkpt>
      <trkpt lat="44.73662" lon="5.14739">
        <ele>418</ele>
        <time>2026-08-23T17:07:40.632Z</time>
      </trkpt>
      <trkpt lat="44.73663" lon="5.14739">
        <ele>417</ele>
        <time>2026-08-23T17:07:41.632Z</time>
      </trkpt>
      <trkpt lat="44.73664" lon="5.14738">
        <ele>417</ele>
        <time>2026-08-23T17:07:42.632Z</time>
      </trkpt>
      <trkpt lat="44.73665" lon="5.14737">
        <ele>417</ele>
        <time>2026-08-23T17:07:43.632Z</time>
      </trkpt>
      <trkpt lat="44.73666" lon="5.14737">
        <ele>417</ele>
        <time>2026-08-23T17:07:44.632Z</time>
      </trkpt>
      <trkpt lat="44.73666" lon="5.14736">
        <ele>417</ele>
        <time>2026-08-23T17:07:45.632Z</time>
      </trkpt>
      <trkpt lat="44.73667" lon="5.14736">
        <ele>417</ele>
        <time>2026-08-23T17:07:46.632Z</time>
      </trkpt>
      <trkpt lat="44.73667" lon="5.14735">
        <ele>417</ele>
        <time>2026-08-23T17:07:47.632Z</time>
      </trkpt>
      <trkpt lat="44.73667" lon="5.14735">
        <ele>417</ele>
        <time>2026-08-23T17:07:48.632Z</time>
      </trkpt>
      <trkpt lat="44.73667" lon="5.14735">
        <ele>417</ele>
        <time>2026-08-23T17:07:49.632Z</time>
      </trkpt>
      <trkpt lat="44.7367" lon="5.14734">
        <ele>418</ele>
        <time>2026-08-23T17:08:05.636Z</time>
      </trkpt>
      <trkpt lat="44.7367" lon="5.14734">
        <ele>418</ele>
        <time>2026-08-23T17:08:06.636Z</time>
      </trkpt>
      <trkpt lat="44.73671" lon="5.14734">
        <ele>417</ele>
        <time>2026-08-23T17:08:07.636Z</time>
      </trkpt>
      <trkpt lat="44.73671" lon="5.14734">
        <ele>417</ele>
        <time>2026-08-23T17:08:08.636Z</time>
      </trkpt>
      <trkpt lat="44.73672" lon="5.14733">
        <ele>417</ele>
        <time>2026-08-23T17:08:09.636Z</time>
      </trkpt>
      <trkpt lat="44.73673" lon="5.14733">
        <ele>417</ele>
        <time>2026-08-23T17:08:10.636Z</time>
      </trkpt>
      <trkpt lat="44.73674" lon="5.14733">
        <ele>417</ele>
        <time>2026-08-23T17:08:11.636Z</time>
      </trkpt>
      <trkpt lat="44.73675" lon="5.14732">
        <ele>417</ele>
        <time>2026-08-23T17:08:12.636Z</time>
      </trkpt>
      <trkpt lat="44.73676" lon="5.14732">
        <ele>417</ele>
        <time>2026-08-23T17:08:13.636Z</time>
      </trkpt>
      <trkpt lat="44.73677" lon="5.14732">
        <ele>417</ele>
        <time>2026-08-23T17:08:14.636Z</time>
      </trkpt>
      <trkpt lat="44.73678" lon="5.14731">
        <ele>417</ele>
        <time>2026-08-23T17:08:15.636Z</time>
      </trkpt>
      <trkpt lat="44.73679" lon="5.1473">
        <ele>417</ele>
        <time>2026-08-23T17:08:16.636Z</time>
      </trkpt>
      <trkpt lat="44.7368" lon="5.1473">
        <ele>417</ele>
        <time>2026-08-23T17:08:17.636Z</time>
      </trkpt>
      <trkpt lat="44.73681" lon="5.14729">
        <ele>417</ele>
        <time>2026-08-23T17:08:18.636Z</time>
      </trkpt>
      <trkpt lat="44.73682" lon="5.14728">
        <ele>417</ele>
        <time>2026-08-23T17:08:19.636Z</time>
      </trkpt>
      <trkpt lat="44.73683" lon="5.14727">
        <ele>417</ele>
        <time>2026-08-23T17:08:20.636Z</time>
      </trkpt>
      <trkpt lat="44.73684" lon="5.14726">
        <ele>417</ele>
        <time>2026-08-23T17:08:21.636Z</time>
      </trkpt>
      <trkpt lat="44.73685" lon="5.14725">
        <ele>417</ele>
        <time>2026-08-23T17:08:22.636Z</time>
      </trkpt>
      <trkpt lat="44.73686" lon="5.14724">
        <ele>417</ele>
        <time>2026-08-23T17:08:23.636Z</time>
      </trkpt>
      <trkpt lat="44.73687" lon="5.14723">
        <ele>417</ele>
        <time>2026-08-23T17:08:24.636Z</time>
      </trkpt>
      <trkpt lat="44.73687" lon="5.14722">
        <ele>416</ele>
        <time>2026-08-23T17:08:25.636Z</time>
      </trkpt>
      <trkpt lat="44.73688" lon="5.14721">
        <ele>416</ele>
        <time>2026-08-23T17:08:26.636Z</time>
      </trkpt>
      <trkpt lat="44.73689" lon="5.1472">
        <ele>416</ele>
        <time>2026-08-23T17:08:27.636Z</time>
      </trkpt>
      <trkpt lat="44.7369" lon="5.14718">
        <ele>416</ele>
        <time>2026-08-23T17:08:28.636Z</time>
      </trkpt>
      <trkpt lat="44.7369" lon="5.14717">
        <ele>416</ele>
        <time>2026-08-23T17:08:29.636Z</time>
      </trkpt>
      <trkpt lat="44.73691" lon="5.14715">
        <ele>416</ele>
        <time>2026-08-23T17:08:30.636Z</time>
      </trkpt>
      <trkpt lat="44.73692" lon="5.14714">
        <ele>416</ele>
        <time>2026-08-23T17:08:31.636Z</time>
      </trkpt>
      <trkpt lat="44.73692" lon="5.14712">
        <ele>416</ele>
        <time>2026-08-23T17:08:32.636Z</time>
      </trkpt>
      <trkpt lat="44.73692" lon="5.14711">
        <ele>416</ele>
        <time>2026-08-23T17:08:33.636Z</time>
      </trkpt>
      <trkpt lat="44.73693" lon="5.14709">
        <ele>416</ele>
        <time>2026-08-23T17:08:34.636Z</time>
      </trkpt>
      <trkpt lat="44.73693" lon="5.14708">
        <ele>416</ele>
        <time>2026-08-23T17:08:35.636Z</time>
      </trkpt>
      <trkpt lat="44.73694" lon="5.14706">
        <ele>415</ele>
        <time>2026-08-23T17:08:36.636Z</time>
      </trkpt>
      <trkpt lat="44.73694" lon="5.14705">
        <ele>415</ele>
        <time>2026-08-23T17:08:37.636Z</time>
      </trkpt>
      <trkpt lat="44.73694" lon="5.14703">
        <ele>415</ele>
        <time>2026-08-23T17:08:38.636Z</time>
      </trkpt>
      <trkpt lat="44.73694" lon="5.14702">
        <ele>415</ele>
        <time>2026-08-23T17:08:39.636Z</time>
      </trkpt>
      <trkpt lat="44.73694" lon="5.14701">
        <ele>415</ele>
        <time>2026-08-23T17:08:40.636Z</time>
      </trkpt>
      <trkpt lat="44.73694" lon="5.14701">
        <ele>415</ele>
        <time>2026-08-23T17:08:41.636Z</time>
      </trkpt>
      <trkpt lat="44.73694" lon="5.14701">
        <ele>415</ele>
        <time>2026-08-23T17:08:42.636Z</time>
      </trkpt>
      <trkpt lat="44.73694" lon="5.147">
        <ele>415</ele>
        <time>2026-08-23T17:08:43.636Z</time>
      </trkpt>
      <trkpt lat="44.73695" lon="5.14699">
        <ele>415</ele>
        <time>2026-08-23T17:08:47.640Z</time>
      </trkpt>
      <trkpt lat="44.73695" lon="5.14698">
        <ele>415</ele>
        <time>2026-08-23T17:08:48.640Z</time>
      </trkpt>
      <trkpt lat="44.73696" lon="5.14697">
        <ele>415</ele>
        <time>2026-08-23T17:08:49.640Z</time>
      </trkpt>
      <trkpt lat="44.73696" lon="5.14695">
        <ele>415</ele>
        <time>2026-08-23T17:08:50.640Z</time>
      </trkpt>
      <trkpt lat="44.73697" lon="5.14694">
        <ele>415</ele>
        <time>2026-08-23T17:08:51.640Z</time>
      </trkpt>
      <trkpt lat="44.73697" lon="5.14692">
        <ele>415</ele>
        <time>2026-08-23T17:08:52.640Z</time>
      </trkpt>
      <trkpt lat="44.73698" lon="5.14691">
        <ele>415</ele>
        <time>2026-08-23T17:08:53.640Z</time>
      </trkpt>
      <trkpt lat="44.73698" lon="5.14689">
        <ele>415</ele>
        <time>2026-08-23T17:08:54.640Z</time>
      </trkpt>
      <trkpt lat="44.73698" lon="5.14688">
        <ele>415</ele>
        <time>2026-08-23T17:08:55.640Z</time>
      </trkpt>
      <trkpt lat="44.73699" lon="5.14686">
        <ele>415</ele>
        <time>2026-08-23T17:08:56.640Z</time>
      </trkpt>
      <trkpt lat="44.73699" lon="5.14685">
        <ele>415</ele>
        <time>2026-08-23T17:08:57.640Z</time>
      </trkpt>
      <trkpt lat="44.737" lon="5.14684">
        <ele>415</ele>
        <time>2026-08-23T17:08:58.640Z</time>
      </trkpt>
      <trkpt lat="44.737" lon="5.14683">
        <ele>415</ele>
        <time>2026-08-23T17:08:59.640Z</time>
      </trkpt>
      <trkpt lat="44.737" lon="5.14683">
        <ele>415</ele>
        <time>2026-08-23T17:09:00.640Z</time>
      </trkpt>
      <trkpt lat="44.737" lon="5.14683">
        <ele>415</ele>
        <time>2026-08-23T17:09:01.640Z</time>
      </trkpt>
      <trkpt lat="44.737" lon="5.14683">
        <ele>416</ele>
        <time>2026-08-23T17:09:02.640Z</time>
      </trkpt>
      <trkpt lat="44.737" lon="5.14683">
        <ele>416</ele>
        <time>2026-08-23T17:09:03.640Z</time>
      </trkpt>
      <trkpt lat="44.737" lon="5.14679">
        <ele>416</ele>
        <time>2026-08-23T17:09:06.941Z</time>
      </trkpt>
      <trkpt lat="44.73701" lon="5.14677">
        <ele>416</ele>
        <time>2026-08-23T17:09:07.941Z</time>
      </trkpt>
      <trkpt lat="44.73701" lon="5.14676">
        <ele>416</ele>
        <time>2026-08-23T17:09:08.941Z</time>
      </trkpt>
      <trkpt lat="44.73702" lon="5.14675">
        <ele>416</ele>
        <time>2026-08-23T17:09:09.941Z</time>
      </trkpt>
      <trkpt lat="44.73703" lon="5.14673">
        <ele>416</ele>
        <time>2026-08-23T17:09:10.941Z</time>
      </trkpt>
      <trkpt lat="44.73703" lon="5.14672">
        <ele>416</ele>
        <time>2026-08-23T17:09:11.941Z</time>
      </trkpt>
      <trkpt lat="44.73704" lon="5.14671">
        <ele>416</ele>
        <time>2026-08-23T17:09:12.941Z</time>
      </trkpt>
      <trkpt lat="44.73704" lon="5.1467">
        <ele>416</ele>
        <time>2026-08-23T17:09:13.941Z</time>
      </trkpt>
      <trkpt lat="44.73705" lon="5.14668">
        <ele>415</ele>
        <time>2026-08-23T17:09:14.941Z</time>
      </trkpt>
      <trkpt lat="44.73706" lon="5.14667">
        <ele>415</ele>
        <time>2026-08-23T17:09:15.941Z</time>
      </trkpt>
      <trkpt lat="44.73707" lon="5.14665">
        <ele>415</ele>
        <time>2026-08-23T17:09:16.941Z</time>
      </trkpt>
      <trkpt lat="44.73707" lon="5.14664">
        <ele>415</ele>
        <time>2026-08-23T17:09:17.941Z</time>
      </trkpt>
      <trkpt lat="44.73708" lon="5.14663">
        <ele>415</ele>
        <time>2026-08-23T17:09:18.941Z</time>
      </trkpt>
      <trkpt lat="44.73709" lon="5.14661">
        <ele>415</ele>
        <time>2026-08-23T17:09:19.941Z</time>
      </trkpt>
      <trkpt lat="44.7371" lon="5.14661">
        <ele>415</ele>
        <time>2026-08-23T17:09:20.941Z</time>
      </trkpt>
      <trkpt lat="44.7371" lon="5.1466">
        <ele>415</ele>
        <time>2026-08-23T17:09:21.941Z</time>
      </trkpt>
      <trkpt lat="44.73711" lon="5.1466">
        <ele>415</ele>
        <time>2026-08-23T17:09:22.941Z</time>
      </trkpt>
      <trkpt lat="44.73712" lon="5.14659">
        <ele>415</ele>
        <time>2026-08-23T17:09:23.941Z</time>
      </trkpt>
      <trkpt lat="44.73713" lon="5.14658">
        <ele>415</ele>
        <time>2026-08-23T17:09:24.941Z</time>
      </trkpt>
      <trkpt lat="44.73714" lon="5.14656">
        <ele>415</ele>
        <time>2026-08-23T17:09:25.941Z</time>
      </trkpt>
      <trkpt lat="44.73714" lon="5.14655">
        <ele>414</ele>
        <time>2026-08-23T17:09:26.941Z</time>
      </trkpt>
      <trkpt lat="44.73715" lon="5.14654">
        <ele>414</ele>
        <time>2026-08-23T17:09:27.941Z</time>
      </trkpt>
      <trkpt lat="44.73715" lon="5.14652">
        <ele>414</ele>
        <time>2026-08-23T17:09:28.941Z</time>
      </trkpt>
      <trkpt lat="44.73716" lon="5.14651">
        <ele>414</ele>
        <time>2026-08-23T17:09:29.941Z</time>
      </trkpt>
      <trkpt lat="44.73717" lon="5.14651">
        <ele>414</ele>
        <time>2026-08-23T17:09:30.941Z</time>
      </trkpt>
      <trkpt lat="44.73718" lon="5.1465">
        <ele>414</ele>
        <time>2026-08-23T17:09:31.941Z</time>
      </trkpt>
      <trkpt lat="44.73719" lon="5.14649">
        <ele>414</ele>
        <time>2026-08-23T17:09:32.941Z</time>
      </trkpt>
      <trkpt lat="44.7372" lon="5.14648">
        <ele>414</ele>
        <time>2026-08-23T17:09:33.941Z</time>
      </trkpt>
      <trkpt lat="44.73721" lon="5.14647">
        <ele>414</ele>
        <time>2026-08-23T17:09:34.941Z</time>
      </trkpt>
      <trkpt lat="44.73721" lon="5.14646">
        <ele>413</ele>
        <time>2026-08-23T17:09:35.941Z</time>
      </trkpt>
      <trkpt lat="44.73722" lon="5.14645">
        <ele>413</ele>
        <time>2026-08-23T17:09:36.941Z</time>
      </trkpt>
      <trkpt lat="44.73723" lon="5.14644">
        <ele>413</ele>
        <time>2026-08-23T17:09:37.941Z</time>
      </trkpt>
      <trkpt lat="44.73724" lon="5.14643">
        <ele>413</ele>
        <time>2026-08-23T17:09:38.941Z</time>
      </trkpt>
      <trkpt lat="44.73724" lon="5.14642">
        <ele>413</ele>
        <time>2026-08-23T17:09:39.941Z</time>
      </trkpt>
      <trkpt lat="44.73725" lon="5.14641">
        <ele>413</ele>
        <time>2026-08-23T17:09:40.941Z</time>
      </trkpt>
      <trkpt lat="44.73726" lon="5.1464">
        <ele>413</ele>
        <time>2026-08-23T17:09:41.941Z</time>
      </trkpt>
      <trkpt lat="44.73726" lon="5.14638">
        <ele>413</ele>
        <time>2026-08-23T17:09:42.941Z</time>
      </trkpt>
      <trkpt lat="44.73727" lon="5.14637">
        <ele>413</ele>
        <time>2026-08-23T17:09:43.941Z</time>
      </trkpt>
      <trkpt lat="44.73727" lon="5.14636">
        <ele>413</ele>
        <time>2026-08-23T17:09:44.941Z</time>
      </trkpt>
      <trkpt lat="44.73728" lon="5.14635">
        <ele>413</ele>
        <time>2026-08-23T17:09:45.941Z</time>
      </trkpt>
      <trkpt lat="44.73729" lon="5.14634">
        <ele>413</ele>
        <time>2026-08-23T17:09:46.941Z</time>
      </trkpt>
      <trkpt lat="44.7373" lon="5.14633">
        <ele>413</ele>
        <time>2026-08-23T17:09:47.941Z</time>
      </trkpt>
      <trkpt lat="44.7373" lon="5.14632">
        <ele>413</ele>
        <time>2026-08-23T17:09:48.941Z</time>
      </trkpt>
      <trkpt lat="44.73731" lon="5.14631">
        <ele>413</ele>
        <time>2026-08-23T17:09:49.941Z</time>
      </trkpt>
      <trkpt lat="44.73732" lon="5.1463">
        <ele>413</ele>
        <time>2026-08-23T17:09:50.941Z</time>
      </trkpt>
      <trkpt lat="44.73733" lon="5.14629">
        <ele>413</ele>
        <time>2026-08-23T17:09:51.941Z</time>
      </trkpt>
      <trkpt lat="44.73733" lon="5.14627">
        <ele>413</ele>
        <time>2026-08-23T17:09:52.941Z</time>
      </trkpt>
      <trkpt lat="44.73734" lon="5.14626">
        <ele>412</ele>
        <time>2026-08-23T17:09:53.941Z</time>
      </trkpt>
      <trkpt lat="44.73735" lon="5.14625">
        <ele>412</ele>
        <time>2026-08-23T17:09:54.941Z</time>
      </trkpt>
      <trkpt lat="44.73735" lon="5.14624">
        <ele>412</ele>
        <time>2026-08-23T17:09:55.941Z</time>
      </trkpt>
      <trkpt lat="44.73736" lon="5.14623">
        <ele>412</ele>
        <time>2026-08-23T17:09:56.941Z</time>
      </trkpt>
      <trkpt lat="44.73737" lon="5.14622">
        <ele>412</ele>
        <time>2026-08-23T17:09:57.941Z</time>
      </trkpt>
      <trkpt lat="44.73737" lon="5.14621">
        <ele>412</ele>
        <time>2026-08-23T17:09:58.941Z</time>
      </trkpt>
      <trkpt lat="44.73738" lon="5.1462">
        <ele>412</ele>
        <time>2026-08-23T17:09:59.941Z</time>
      </trkpt>
      <trkpt lat="44.73738" lon="5.14619">
        <ele>412</ele>
        <time>2026-08-23T17:10:00.941Z</time>
      </trkpt>
      <trkpt lat="44.73739" lon="5.14618">
        <ele>412</ele>
        <time>2026-08-23T17:10:01.941Z</time>
      </trkpt>
      <trkpt lat="44.73739" lon="5.14616">
        <ele>412</ele>
        <time>2026-08-23T17:10:02.941Z</time>
      </trkpt>
      <trkpt lat="44.7374" lon="5.14615">
        <ele>413</ele>
        <time>2026-08-23T17:10:03.941Z</time>
      </trkpt>
      <trkpt lat="44.73741" lon="5.14614">
        <ele>413</ele>
        <time>2026-08-23T17:10:04.941Z</time>
      </trkpt>
      <trkpt lat="44.73741" lon="5.14613">
        <ele>413</ele>
        <time>2026-08-23T17:10:05.941Z</time>
      </trkpt>
      <trkpt lat="44.73742" lon="5.14612">
        <ele>413</ele>
        <time>2026-08-23T17:10:06.941Z</time>
      </trkpt>
      <trkpt lat="44.73742" lon="5.1461">
        <ele>413</ele>
        <time>2026-08-23T17:10:07.941Z</time>
      </trkpt>
      <trkpt lat="44.73743" lon="5.14609">
        <ele>413</ele>
        <time>2026-08-23T17:10:08.941Z</time>
      </trkpt>
      <trkpt lat="44.73743" lon="5.14608">
        <ele>413</ele>
        <time>2026-08-23T17:10:09.941Z</time>
      </trkpt>
      <trkpt lat="44.73744" lon="5.14606">
        <ele>413</ele>
        <time>2026-08-23T17:10:10.941Z</time>
      </trkpt>
      <trkpt lat="44.73744" lon="5.14605">
        <ele>413</ele>
        <time>2026-08-23T17:10:11.941Z</time>
      </trkpt>
      <trkpt lat="44.73745" lon="5.14604">
        <ele>413</ele>
        <time>2026-08-23T17:10:12.941Z</time>
      </trkpt>
      <trkpt lat="44.73745" lon="5.14602">
        <ele>413</ele>
        <time>2026-08-23T17:10:13.941Z</time>
      </trkpt>
      <trkpt lat="44.73746" lon="5.14601">
        <ele>413</ele>
        <time>2026-08-23T17:10:14.941Z</time>
      </trkpt>
      <trkpt lat="44.73746" lon="5.146">
        <ele>413</ele>
        <time>2026-08-23T17:10:15.941Z</time>
      </trkpt>
      <trkpt lat="44.73747" lon="5.14599">
        <ele>412</ele>
        <time>2026-08-23T17:10:16.941Z</time>
      </trkpt>
      <trkpt lat="44.73747" lon="5.14597">
        <ele>413</ele>
        <time>2026-08-23T17:10:17.941Z</time>
      </trkpt>
      <trkpt lat="44.73748" lon="5.14596">
        <ele>413</ele>
        <time>2026-08-23T17:10:18.941Z</time>
      </trkpt>
      <trkpt lat="44.73749" lon="5.14595">
        <ele>413</ele>
        <time>2026-08-23T17:10:19.941Z</time>
      </trkpt>
      <trkpt lat="44.73749" lon="5.14595">
        <ele>412</ele>
        <time>2026-08-23T17:10:20.941Z</time>
      </trkpt>
      <trkpt lat="44.73749" lon="5.14595">
        <ele>412</ele>
        <time>2026-08-23T17:10:21.941Z</time>
      </trkpt>
      <trkpt lat="44.73749" lon="5.14595">
        <ele>412</ele>
        <time>2026-08-23T17:10:22.941Z</time>
      </trkpt>
      <trkpt lat="44.73749" lon="5.14594">
        <ele>412</ele>
        <time>2026-08-23T17:10:23.941Z</time>
      </trkpt>
      <trkpt lat="44.7375" lon="5.14594">
        <ele>412</ele>
        <time>2026-08-23T17:10:24.941Z</time>
      </trkpt>
      <trkpt lat="44.7375" lon="5.14592">
        <ele>412</ele>
        <time>2026-08-23T17:10:25.941Z</time>
      </trkpt>
      <trkpt lat="44.73751" lon="5.14591">
        <ele>412</ele>
        <time>2026-08-23T17:10:26.941Z</time>
      </trkpt>
      <trkpt lat="44.73751" lon="5.1459">
        <ele>412</ele>
        <time>2026-08-23T17:10:27.941Z</time>
      </trkpt>
      <trkpt lat="44.73752" lon="5.14589">
        <ele>412</ele>
        <time>2026-08-23T17:10:28.941Z</time>
      </trkpt>
      <trkpt lat="44.73752" lon="5.14588">
        <ele>412</ele>
        <time>2026-08-23T17:10:29.941Z</time>
      </trkpt>
      <trkpt lat="44.73752" lon="5.14587">
        <ele>412</ele>
        <time>2026-08-23T17:10:30.941Z</time>
      </trkpt>
      <trkpt lat="44.73753" lon="5.14586">
        <ele>411</ele>
        <time>2026-08-23T17:10:31.941Z</time>
      </trkpt>
      <trkpt lat="44.73753" lon="5.14586">
        <ele>411</ele>
        <time>2026-08-23T17:10:32.941Z</time>
      </trkpt>
      <trkpt lat="44.73754" lon="5.14585">
        <ele>411</ele>
        <time>2026-08-23T17:10:33.941Z</time>
      </trkpt>
      <trkpt lat="44.73755" lon="5.14584">
        <ele>411</ele>
        <time>2026-08-23T17:10:34.941Z</time>
      </trkpt>
      <trkpt lat="44.73755" lon="5.14583">
        <ele>411</ele>
        <time>2026-08-23T17:10:35.941Z</time>
      </trkpt>
      <trkpt lat="44.73756" lon="5.14582">
        <ele>411</ele>
        <time>2026-08-23T17:10:36.941Z</time>
      </trkpt>
      <trkpt lat="44.73756" lon="5.14581">
        <ele>411</ele>
        <time>2026-08-23T17:10:37.941Z</time>
      </trkpt>
      <trkpt lat="44.73757" lon="5.14581">
        <ele>411</ele>
        <time>2026-08-23T17:10:38.941Z</time>
      </trkpt>
      <trkpt lat="44.73758" lon="5.1458">
        <ele>410</ele>
        <time>2026-08-23T17:10:39.941Z</time>
      </trkpt>
      <trkpt lat="44.73758" lon="5.14579">
        <ele>410</ele>
        <time>2026-08-23T17:10:40.941Z</time>
      </trkpt>
      <trkpt lat="44.73759" lon="5.14577">
        <ele>410</ele>
        <time>2026-08-23T17:10:41.941Z</time>
      </trkpt>
      <trkpt lat="44.7376" lon="5.14576">
        <ele>410</ele>
        <time>2026-08-23T17:10:42.941Z</time>
      </trkpt>
      <trkpt lat="44.73761" lon="5.14576">
        <ele>409</ele>
        <time>2026-08-23T17:10:43.941Z</time>
      </trkpt>
      <trkpt lat="44.73762" lon="5.14575">
        <ele>409</ele>
        <time>2026-08-23T17:10:44.941Z</time>
      </trkpt>
      <trkpt lat="44.73763" lon="5.14574">
        <ele>409</ele>
        <time>2026-08-23T17:10:45.941Z</time>
      </trkpt>
      <trkpt lat="44.73764" lon="5.14573">
        <ele>409</ele>
        <time>2026-08-23T17:10:46.941Z</time>
      </trkpt>
      <trkpt lat="44.73764" lon="5.14572">
        <ele>409</ele>
        <time>2026-08-23T17:10:47.941Z</time>
      </trkpt>
      <trkpt lat="44.73765" lon="5.14571">
        <ele>408</ele>
        <time>2026-08-23T17:10:48.941Z</time>
      </trkpt>
      <trkpt lat="44.73765" lon="5.1457">
        <ele>408</ele>
        <time>2026-08-23T17:10:49.941Z</time>
      </trkpt>
      <trkpt lat="44.73765" lon="5.1457">
        <ele>408</ele>
        <time>2026-08-23T17:10:50.941Z</time>
      </trkpt>
      <trkpt lat="44.73766" lon="5.14569">
        <ele>408</ele>
        <time>2026-08-23T17:10:51.941Z</time>
      </trkpt>
      <trkpt lat="44.73767" lon="5.14568">
        <ele>408</ele>
        <time>2026-08-23T17:10:52.941Z</time>
      </trkpt>
      <trkpt lat="44.73768" lon="5.14567">
        <ele>408</ele>
        <time>2026-08-23T17:10:53.941Z</time>
      </trkpt>
      <trkpt lat="44.73769" lon="5.14566">
        <ele>408</ele>
        <time>2026-08-23T17:10:54.941Z</time>
      </trkpt>
      <trkpt lat="44.73769" lon="5.14566">
        <ele>408</ele>
        <time>2026-08-23T17:10:55.941Z</time>
      </trkpt>
      <trkpt lat="44.7377" lon="5.14565">
        <ele>408</ele>
        <time>2026-08-23T17:10:56.941Z</time>
      </trkpt>
      <trkpt lat="44.73771" lon="5.14564">
        <ele>408</ele>
        <time>2026-08-23T17:10:57.941Z</time>
      </trkpt>
      <trkpt lat="44.73772" lon="5.14563">
        <ele>408</ele>
        <time>2026-08-23T17:10:58.941Z</time>
      </trkpt>
      <trkpt lat="44.73773" lon="5.14562">
        <ele>408</ele>
        <time>2026-08-23T17:10:59.941Z</time>
      </trkpt>
      <trkpt lat="44.73773" lon="5.14561">
        <ele>408</ele>
        <time>2026-08-23T17:11:00.941Z</time>
      </trkpt>
      <trkpt lat="44.73774" lon="5.1456">
        <ele>407</ele>
        <time>2026-08-23T17:11:01.941Z</time>
      </trkpt>
      <trkpt lat="44.73775" lon="5.14559">
        <ele>407</ele>
        <time>2026-08-23T17:11:02.941Z</time>
      </trkpt>
      <trkpt lat="44.73776" lon="5.14559">
        <ele>407</ele>
        <time>2026-08-23T17:11:03.941Z</time>
      </trkpt>
      <trkpt lat="44.73777" lon="5.14558">
        <ele>407</ele>
        <time>2026-08-23T17:11:04.941Z</time>
      </trkpt>
      <trkpt lat="44.73778" lon="5.14557">
        <ele>407</ele>
        <time>2026-08-23T17:11:05.941Z</time>
      </trkpt>
      <trkpt lat="44.73779" lon="5.14557">
        <ele>407</ele>
        <time>2026-08-23T17:11:06.941Z</time>
      </trkpt>
      <trkpt lat="44.73779" lon="5.14556">
        <ele>407</ele>
        <time>2026-08-23T17:11:07.941Z</time>
      </trkpt>
      <trkpt lat="44.7378" lon="5.14555">
        <ele>407</ele>
        <time>2026-08-23T17:11:08.941Z</time>
      </trkpt>
      <trkpt lat="44.73781" lon="5.14554">
        <ele>407</ele>
        <time>2026-08-23T17:11:09.941Z</time>
      </trkpt>
      <trkpt lat="44.73781" lon="5.14553">
        <ele>407</ele>
        <time>2026-08-23T17:11:10.941Z</time>
      </trkpt>
      <trkpt lat="44.73782" lon="5.14553">
        <ele>407</ele>
        <time>2026-08-23T17:11:11.941Z</time>
      </trkpt>
      <trkpt lat="44.73783" lon="5.14552">
        <ele>407</ele>
        <time>2026-08-23T17:11:12.941Z</time>
      </trkpt>
      <trkpt lat="44.73784" lon="5.14551">
        <ele>407</ele>
        <time>2026-08-23T17:11:13.941Z</time>
      </trkpt>
      <trkpt lat="44.73785" lon="5.14551">
        <ele>407</ele>
        <time>2026-08-23T17:11:14.941Z</time>
      </trkpt>
      <trkpt lat="44.73785" lon="5.1455">
        <ele>407</ele>
        <time>2026-08-23T17:11:15.941Z</time>
      </trkpt>
      <trkpt lat="44.73786" lon="5.1455">
        <ele>407</ele>
        <time>2026-08-23T17:11:16.941Z</time>
      </trkpt>
      <trkpt lat="44.73787" lon="5.14549">
        <ele>407</ele>
        <time>2026-08-23T17:11:17.941Z</time>
      </trkpt>
      <trkpt lat="44.73787" lon="5.14549">
        <ele>407</ele>
        <time>2026-08-23T17:11:18.941Z</time>
      </trkpt>
      <trkpt lat="44.73788" lon="5.14548">
        <ele>407</ele>
        <time>2026-08-23T17:11:19.941Z</time>
      </trkpt>
      <trkpt lat="44.73789" lon="5.14547">
        <ele>407</ele>
        <time>2026-08-23T17:11:20.941Z</time>
      </trkpt>
      <trkpt lat="44.73789" lon="5.14546">
        <ele>407</ele>
        <time>2026-08-23T17:11:21.941Z</time>
      </trkpt>
      <trkpt lat="44.7379" lon="5.14546">
        <ele>407</ele>
        <time>2026-08-23T17:11:22.941Z</time>
      </trkpt>
      <trkpt lat="44.73791" lon="5.14545">
        <ele>407</ele>
        <time>2026-08-23T17:11:23.941Z</time>
      </trkpt>
      <trkpt lat="44.73792" lon="5.14544">
        <ele>407</ele>
        <time>2026-08-23T17:11:24.941Z</time>
      </trkpt>
      <trkpt lat="44.73792" lon="5.14543">
        <ele>407</ele>
        <time>2026-08-23T17:11:25.941Z</time>
      </trkpt>
      <trkpt lat="44.73793" lon="5.14543">
        <ele>407</ele>
        <time>2026-08-23T17:11:26.941Z</time>
      </trkpt>
      <trkpt lat="44.73794" lon="5.14542">
        <ele>407</ele>
        <time>2026-08-23T17:11:27.941Z</time>
      </trkpt>
      <trkpt lat="44.73795" lon="5.14541">
        <ele>407</ele>
        <time>2026-08-23T17:11:28.941Z</time>
      </trkpt>
      <trkpt lat="44.73796" lon="5.1454">
        <ele>407</ele>
        <time>2026-08-23T17:11:29.941Z</time>
      </trkpt>
      <trkpt lat="44.73796" lon="5.14539">
        <ele>407</ele>
        <time>2026-08-23T17:11:30.941Z</time>
      </trkpt>
      <trkpt lat="44.73797" lon="5.14538">
        <ele>407</ele>
        <time>2026-08-23T17:11:31.941Z</time>
      </trkpt>
      <trkpt lat="44.73797" lon="5.14537">
        <ele>407</ele>
        <time>2026-08-23T17:11:32.941Z</time>
      </trkpt>
      <trkpt lat="44.73798" lon="5.14536">
        <ele>407</ele>
        <time>2026-08-23T17:11:33.941Z</time>
      </trkpt>
      <trkpt lat="44.73798" lon="5.14536">
        <ele>407</ele>
        <time>2026-08-23T17:11:34.941Z</time>
      </trkpt>
      <trkpt lat="44.73799" lon="5.14535">
        <ele>407</ele>
        <time>2026-08-23T17:11:35.941Z</time>
      </trkpt>
      <trkpt lat="44.738" lon="5.14534">
        <ele>407</ele>
        <time>2026-08-23T17:11:36.941Z</time>
      </trkpt>
      <trkpt lat="44.738" lon="5.14533">
        <ele>407</ele>
        <time>2026-08-23T17:11:37.941Z</time>
      </trkpt>
      <trkpt lat="44.73801" lon="5.14532">
        <ele>407</ele>
        <time>2026-08-23T17:11:38.941Z</time>
      </trkpt>
      <trkpt lat="44.73802" lon="5.14531">
        <ele>407</ele>
        <time>2026-08-23T17:11:39.941Z</time>
      </trkpt>
      <trkpt lat="44.73802" lon="5.1453">
        <ele>407</ele>
        <time>2026-08-23T17:11:40.941Z</time>
      </trkpt>
      <trkpt lat="44.73803" lon="5.14529">
        <ele>407</ele>
        <time>2026-08-23T17:11:41.941Z</time>
      </trkpt>
      <trkpt lat="44.73804" lon="5.14528">
        <ele>407</ele>
        <time>2026-08-23T17:11:42.941Z</time>
      </trkpt>
      <trkpt lat="44.73804" lon="5.14527">
        <ele>407</ele>
        <time>2026-08-23T17:11:43.941Z</time>
      </trkpt>
      <trkpt lat="44.73805" lon="5.14526">
        <ele>407</ele>
        <time>2026-08-23T17:11:44.941Z</time>
      </trkpt>
      <trkpt lat="44.73806" lon="5.14525">
        <ele>407</ele>
        <time>2026-08-23T17:11:45.941Z</time>
      </trkpt>
      <trkpt lat="44.73807" lon="5.14524">
        <ele>407</ele>
        <time>2026-08-23T17:11:46.941Z</time>
      </trkpt>
      <trkpt lat="44.73807" lon="5.14524">
        <ele>407</ele>
        <time>2026-08-23T17:11:47.941Z</time>
      </trkpt>
      <trkpt lat="44.73808" lon="5.14523">
        <ele>407</ele>
        <time>2026-08-23T17:11:48.941Z</time>
      </trkpt>
      <trkpt lat="44.73808" lon="5.14521">
        <ele>407</ele>
        <time>2026-08-23T17:11:49.941Z</time>
      </trkpt>
      <trkpt lat="44.73808" lon="5.1452">
        <ele>407</ele>
        <time>2026-08-23T17:11:50.941Z</time>
      </trkpt>
      <trkpt lat="44.73809" lon="5.14519">
        <ele>407</ele>
        <time>2026-08-23T17:11:51.941Z</time>
      </trkpt>
      <trkpt lat="44.73809" lon="5.14518">
        <ele>407</ele>
        <time>2026-08-23T17:11:52.941Z</time>
      </trkpt>
      <trkpt lat="44.7381" lon="5.14516">
        <ele>407</ele>
        <time>2026-08-23T17:11:53.941Z</time>
      </trkpt>
      <trkpt lat="44.7381" lon="5.14516">
        <ele>407</ele>
        <time>2026-08-23T17:11:54.941Z</time>
      </trkpt>
      <trkpt lat="44.7381" lon="5.14514">
        <ele>407</ele>
        <time>2026-08-23T17:11:55.941Z</time>
      </trkpt>
      <trkpt lat="44.7381" lon="5.14513">
        <ele>407</ele>
        <time>2026-08-23T17:11:56.941Z</time>
      </trkpt>
      <trkpt lat="44.73811" lon="5.14512">
        <ele>407</ele>
        <time>2026-08-23T17:11:57.941Z</time>
      </trkpt>
      <trkpt lat="44.73811" lon="5.14511">
        <ele>406</ele>
        <time>2026-08-23T17:11:58.941Z</time>
      </trkpt>
      <trkpt lat="44.73812" lon="5.1451">
        <ele>406</ele>
        <time>2026-08-23T17:11:59.941Z</time>
      </trkpt>
      <trkpt lat="44.73812" lon="5.14509">
        <ele>406</ele>
        <time>2026-08-23T17:12:00.941Z</time>
      </trkpt>
      <trkpt lat="44.73812" lon="5.14508">
        <ele>406</ele>
        <time>2026-08-23T17:12:01.941Z</time>
      </trkpt>
      <trkpt lat="44.73813" lon="5.14507">
        <ele>406</ele>
        <time>2026-08-23T17:12:02.941Z</time>
      </trkpt>
      <trkpt lat="44.73813" lon="5.14506">
        <ele>406</ele>
        <time>2026-08-23T17:12:03.941Z</time>
      </trkpt>
      <trkpt lat="44.73813" lon="5.14506">
        <ele>406</ele>
        <time>2026-08-23T17:12:04.941Z</time>
      </trkpt>
      <trkpt lat="44.73813" lon="5.14506">
        <ele>406</ele>
        <time>2026-08-23T17:12:05.941Z</time>
      </trkpt>
      <trkpt lat="44.73813" lon="5.14506">
        <ele>406</ele>
        <time>2026-08-23T17:12:06.941Z</time>
      </trkpt>
      <trkpt lat="44.73813" lon="5.14505">
        <ele>406</ele>
        <time>2026-08-23T17:12:10.951Z</time>
      </trkpt>
      <trkpt lat="44.73814" lon="5.14504">
        <ele>406</ele>
        <time>2026-08-23T17:12:11.951Z</time>
      </trkpt>
      <trkpt lat="44.73815" lon="5.14503">
        <ele>406</ele>
        <time>2026-08-23T17:12:12.951Z</time>
      </trkpt>
      <trkpt lat="44.73815" lon="5.14502">
        <ele>406</ele>
        <time>2026-08-23T17:12:13.951Z</time>
      </trkpt>
      <trkpt lat="44.73816" lon="5.145">
        <ele>406</ele>
        <time>2026-08-23T17:12:14.951Z</time>
      </trkpt>
      <trkpt lat="44.73816" lon="5.14499">
        <ele>406</ele>
        <time>2026-08-23T17:12:15.951Z</time>
      </trkpt>
      <trkpt lat="44.73817" lon="5.14498">
        <ele>406</ele>
        <time>2026-08-23T17:12:16.951Z</time>
      </trkpt>
      <trkpt lat="44.73817" lon="5.14497">
        <ele>406</ele>
        <time>2026-08-23T17:12:17.951Z</time>
      </trkpt>
      <trkpt lat="44.73818" lon="5.14496">
        <ele>406</ele>
        <time>2026-08-23T17:12:18.951Z</time>
      </trkpt>
      <trkpt lat="44.73818" lon="5.14495">
        <ele>406</ele>
        <time>2026-08-23T17:12:19.951Z</time>
      </trkpt>
      <trkpt lat="44.73818" lon="5.14494">
        <ele>406</ele>
        <time>2026-08-23T17:12:20.951Z</time>
      </trkpt>
      <trkpt lat="44.73819" lon="5.14493">
        <ele>406</ele>
        <time>2026-08-23T17:12:21.951Z</time>
      </trkpt>
      <trkpt lat="44.73819" lon="5.14492">
        <ele>406</ele>
        <time>2026-08-23T17:12:22.951Z</time>
      </trkpt>
      <trkpt lat="44.7382" lon="5.1449">
        <ele>405</ele>
        <time>2026-08-23T17:12:23.951Z</time>
      </trkpt>
      <trkpt lat="44.7382" lon="5.1449">
        <ele>405</ele>
        <time>2026-08-23T17:12:24.951Z</time>
      </trkpt>
      <trkpt lat="44.73821" lon="5.14489">
        <ele>405</ele>
        <time>2026-08-23T17:12:25.951Z</time>
      </trkpt>
      <trkpt lat="44.73821" lon="5.14487">
        <ele>405</ele>
        <time>2026-08-23T17:12:26.951Z</time>
      </trkpt>
      <trkpt lat="44.73822" lon="5.14486">
        <ele>405</ele>
        <time>2026-08-23T17:12:27.951Z</time>
      </trkpt>
      <trkpt lat="44.73822" lon="5.14485">
        <ele>405</ele>
        <time>2026-08-23T17:12:28.951Z</time>
      </trkpt>
      <trkpt lat="44.73822" lon="5.14484">
        <ele>405</ele>
        <time>2026-08-23T17:12:29.951Z</time>
      </trkpt>
      <trkpt lat="44.73822" lon="5.14482">
        <ele>405</ele>
        <time>2026-08-23T17:12:30.951Z</time>
      </trkpt>
      <trkpt lat="44.73823" lon="5.14481">
        <ele>405</ele>
        <time>2026-08-23T17:12:31.951Z</time>
      </trkpt>
      <trkpt lat="44.73823" lon="5.1448">
        <ele>405</ele>
        <time>2026-08-23T17:12:32.951Z</time>
      </trkpt>
      <trkpt lat="44.73824" lon="5.14479">
        <ele>405</ele>
        <time>2026-08-23T17:12:33.951Z</time>
      </trkpt>
      <trkpt lat="44.73825" lon="5.14479">
        <ele>405</ele>
        <time>2026-08-23T17:12:34.951Z</time>
      </trkpt>
      <trkpt lat="44.73825" lon="5.14479">
        <ele>405</ele>
        <time>2026-08-23T17:12:35.951Z</time>
      </trkpt>
      <trkpt lat="44.73825" lon="5.14479">
        <ele>405</ele>
        <time>2026-08-23T17:12:36.951Z</time>
      </trkpt>
      <trkpt lat="44.73825" lon="5.14479">
        <ele>405</ele>
        <time>2026-08-23T17:12:37.951Z</time>
      </trkpt>
      <trkpt lat="44.73826" lon="5.14476">
        <ele>405</ele>
        <time>2026-08-23T17:12:41.251Z</time>
      </trkpt>
      <trkpt lat="44.73827" lon="5.14475">
        <ele>406</ele>
        <time>2026-08-23T17:12:42.251Z</time>
      </trkpt>
      <trkpt lat="44.73827" lon="5.14474">
        <ele>406</ele>
        <time>2026-08-23T17:12:43.251Z</time>
      </trkpt>
      <trkpt lat="44.73828" lon="5.14473">
        <ele>406</ele>
        <time>2026-08-23T17:12:44.251Z</time>
      </trkpt>
      <trkpt lat="44.73829" lon="5.14473">
        <ele>406</ele>
        <time>2026-08-23T17:12:45.251Z</time>
      </trkpt>
      <trkpt lat="44.7383" lon="5.14472">
        <ele>406</ele>
        <time>2026-08-23T17:12:46.251Z</time>
      </trkpt>
      <trkpt lat="44.7383" lon="5.14471">
        <ele>406</ele>
        <time>2026-08-23T17:12:47.251Z</time>
      </trkpt>
      <trkpt lat="44.73831" lon="5.1447">
        <ele>406</ele>
        <time>2026-08-23T17:12:48.251Z</time>
      </trkpt>
      <trkpt lat="44.73831" lon="5.14469">
        <ele>406</ele>
        <time>2026-08-23T17:12:49.251Z</time>
      </trkpt>
      <trkpt lat="44.73832" lon="5.14469">
        <ele>406</ele>
        <time>2026-08-23T17:12:50.251Z</time>
      </trkpt>
      <trkpt lat="44.73832" lon="5.14468">
        <ele>406</ele>
        <time>2026-08-23T17:12:51.251Z</time>
      </trkpt>
      <trkpt lat="44.73833" lon="5.14467">
        <ele>406</ele>
        <time>2026-08-23T17:12:52.251Z</time>
      </trkpt>
      <trkpt lat="44.73834" lon="5.14467">
        <ele>406</ele>
        <time>2026-08-23T17:12:53.251Z</time>
      </trkpt>
      <trkpt lat="44.73834" lon="5.14466">
        <ele>406</ele>
        <time>2026-08-23T17:12:54.251Z</time>
      </trkpt>
      <trkpt lat="44.73835" lon="5.14466">
        <ele>406</ele>
        <time>2026-08-23T17:12:55.251Z</time>
      </trkpt>
      <trkpt lat="44.73835" lon="5.14465">
        <ele>406</ele>
        <time>2026-08-23T17:12:56.251Z</time>
      </trkpt>
      <trkpt lat="44.73836" lon="5.14465">
        <ele>406</ele>
        <time>2026-08-23T17:12:57.251Z</time>
      </trkpt>
      <trkpt lat="44.73837" lon="5.14464">
        <ele>406</ele>
        <time>2026-08-23T17:12:58.251Z</time>
      </trkpt>
      <trkpt lat="44.73838" lon="5.14465">
        <ele>406</ele>
        <time>2026-08-23T17:12:59.251Z</time>
      </trkpt>
      <trkpt lat="44.73839" lon="5.14465">
        <ele>406</ele>
        <time>2026-08-23T17:13:00.251Z</time>
      </trkpt>
      <trkpt lat="44.73839" lon="5.14465">
        <ele>406</ele>
        <time>2026-08-23T17:13:01.251Z</time>
      </trkpt>
      <trkpt lat="44.7384" lon="5.14465">
        <ele>406</ele>
        <time>2026-08-23T17:13:02.251Z</time>
      </trkpt>
      <trkpt lat="44.73841" lon="5.14465">
        <ele>406</ele>
        <time>2026-08-23T17:13:03.251Z</time>
      </trkpt>
      <trkpt lat="44.73842" lon="5.14465">
        <ele>406</ele>
        <time>2026-08-23T17:13:04.251Z</time>
      </trkpt>
      <trkpt lat="44.73842" lon="5.14465">
        <ele>406</ele>
        <time>2026-08-23T17:13:05.251Z</time>
      </trkpt>
      <trkpt lat="44.73843" lon="5.14465">
        <ele>406</ele>
        <time>2026-08-23T17:13:06.251Z</time>
      </trkpt>
      <trkpt lat="44.73844" lon="5.14465">
        <ele>406</ele>
        <time>2026-08-23T17:13:07.251Z</time>
      </trkpt>
      <trkpt lat="44.73845" lon="5.14465">
        <ele>406</ele>
        <time>2026-08-23T17:13:08.251Z</time>
      </trkpt>
      <trkpt lat="44.73846" lon="5.14465">
        <ele>406</ele>
        <time>2026-08-23T17:13:09.251Z</time>
      </trkpt>
      <trkpt lat="44.73847" lon="5.14466">
        <ele>405</ele>
        <time>2026-08-23T17:13:10.251Z</time>
      </trkpt>
      <trkpt lat="44.73848" lon="5.14466">
        <ele>405</ele>
        <time>2026-08-23T17:13:11.251Z</time>
      </trkpt>
      <trkpt lat="44.73849" lon="5.14467">
        <ele>405</ele>
        <time>2026-08-23T17:13:12.251Z</time>
      </trkpt>
      <trkpt lat="44.7385" lon="5.14467">
        <ele>405</ele>
        <time>2026-08-23T17:13:13.251Z</time>
      </trkpt>
      <trkpt lat="44.73851" lon="5.14467">
        <ele>405</ele>
        <time>2026-08-23T17:13:14.251Z</time>
      </trkpt>
      <trkpt lat="44.73852" lon="5.14467">
        <ele>405</ele>
        <time>2026-08-23T17:13:15.251Z</time>
      </trkpt>
      <trkpt lat="44.73853" lon="5.14468">
        <ele>405</ele>
        <time>2026-08-23T17:13:16.251Z</time>
      </trkpt>
      <trkpt lat="44.73854" lon="5.14468">
        <ele>404</ele>
        <time>2026-08-23T17:13:17.251Z</time>
      </trkpt>
      <trkpt lat="44.73854" lon="5.14468">
        <ele>404</ele>
        <time>2026-08-23T17:13:18.251Z</time>
      </trkpt>
      <trkpt lat="44.73855" lon="5.14469">
        <ele>404</ele>
        <time>2026-08-23T17:13:19.251Z</time>
      </trkpt>
      <trkpt lat="44.73856" lon="5.1447">
        <ele>404</ele>
        <time>2026-08-23T17:13:20.251Z</time>
      </trkpt>
      <trkpt lat="44.73857" lon="5.14471">
        <ele>404</ele>
        <time>2026-08-23T17:13:21.251Z</time>
      </trkpt>
      <trkpt lat="44.73858" lon="5.14471">
        <ele>403</ele>
        <time>2026-08-23T17:13:22.251Z</time>
      </trkpt>
      <trkpt lat="44.73859" lon="5.14472">
        <ele>403</ele>
        <time>2026-08-23T17:13:23.251Z</time>
      </trkpt>
      <trkpt lat="44.7386" lon="5.14472">
        <ele>403</ele>
        <time>2026-08-23T17:13:24.251Z</time>
      </trkpt>
      <trkpt lat="44.73861" lon="5.14473">
        <ele>403</ele>
        <time>2026-08-23T17:13:25.251Z</time>
      </trkpt>
      <trkpt lat="44.73862" lon="5.14473">
        <ele>403</ele>
        <time>2026-08-23T17:13:26.251Z</time>
      </trkpt>
      <trkpt lat="44.73863" lon="5.14474">
        <ele>403</ele>
        <time>2026-08-23T17:13:27.251Z</time>
      </trkpt>
      <trkpt lat="44.73863" lon="5.14475">
        <ele>403</ele>
        <time>2026-08-23T17:13:28.251Z</time>
      </trkpt>
      <trkpt lat="44.73864" lon="5.14476">
        <ele>403</ele>
        <time>2026-08-23T17:13:29.251Z</time>
      </trkpt>
      <trkpt lat="44.73865" lon="5.14477">
        <ele>402</ele>
        <time>2026-08-23T17:13:30.251Z</time>
      </trkpt>
      <trkpt lat="44.73866" lon="5.14477">
        <ele>402</ele>
        <time>2026-08-23T17:13:31.251Z</time>
      </trkpt>
      <trkpt lat="44.73867" lon="5.14478">
        <ele>402</ele>
        <time>2026-08-23T17:13:32.251Z</time>
      </trkpt>
      <trkpt lat="44.73868" lon="5.14478">
        <ele>402</ele>
        <time>2026-08-23T17:13:33.251Z</time>
      </trkpt>
      <trkpt lat="44.73869" lon="5.14479">
        <ele>402</ele>
        <time>2026-08-23T17:13:34.251Z</time>
      </trkpt>
      <trkpt lat="44.7387" lon="5.14479">
        <ele>402</ele>
        <time>2026-08-23T17:13:35.251Z</time>
      </trkpt>
      <trkpt lat="44.73871" lon="5.1448">
        <ele>402</ele>
        <time>2026-08-23T17:13:36.251Z</time>
      </trkpt>
      <trkpt lat="44.73872" lon="5.1448">
        <ele>402</ele>
        <time>2026-08-23T17:13:37.251Z</time>
      </trkpt>
      <trkpt lat="44.73873" lon="5.14481">
        <ele>402</ele>
        <time>2026-08-23T17:13:38.251Z</time>
      </trkpt>
      <trkpt lat="44.73873" lon="5.14482">
        <ele>402</ele>
        <time>2026-08-23T17:13:39.251Z</time>
      </trkpt>
      <trkpt lat="44.73874" lon="5.14483">
        <ele>402</ele>
        <time>2026-08-23T17:13:40.251Z</time>
      </trkpt>
      <trkpt lat="44.73875" lon="5.14483">
        <ele>402</ele>
        <time>2026-08-23T17:13:41.251Z</time>
      </trkpt>
      <trkpt lat="44.73876" lon="5.14483">
        <ele>402</ele>
        <time>2026-08-23T17:13:42.251Z</time>
      </trkpt>
      <trkpt lat="44.73877" lon="5.14483">
        <ele>402</ele>
        <time>2026-08-23T17:13:43.251Z</time>
      </trkpt>
      <trkpt lat="44.73878" lon="5.14483">
        <ele>402</ele>
        <time>2026-08-23T17:13:44.251Z</time>
      </trkpt>
      <trkpt lat="44.73879" lon="5.14484">
        <ele>402</ele>
        <time>2026-08-23T17:13:45.251Z</time>
      </trkpt>
      <trkpt lat="44.7388" lon="5.14485">
        <ele>402</ele>
        <time>2026-08-23T17:13:46.251Z</time>
      </trkpt>
      <trkpt lat="44.73882" lon="5.14486">
        <ele>401</ele>
        <time>2026-08-23T17:13:47.251Z</time>
      </trkpt>
      <trkpt lat="44.73883" lon="5.14486">
        <ele>401</ele>
        <time>2026-08-23T17:13:48.251Z</time>
      </trkpt>
      <trkpt lat="44.73883" lon="5.14487">
        <ele>401</ele>
        <time>2026-08-23T17:13:49.251Z</time>
      </trkpt>
      <trkpt lat="44.73884" lon="5.14487">
        <ele>401</ele>
        <time>2026-08-23T17:13:50.251Z</time>
      </trkpt>
      <trkpt lat="44.73885" lon="5.14488">
        <ele>401</ele>
        <time>2026-08-23T17:13:51.251Z</time>
      </trkpt>
      <trkpt lat="44.73886" lon="5.14489">
        <ele>401</ele>
        <time>2026-08-23T17:13:52.251Z</time>
      </trkpt>
      <trkpt lat="44.73887" lon="5.14489">
        <ele>401</ele>
        <time>2026-08-23T17:13:53.251Z</time>
      </trkpt>
      <trkpt lat="44.73888" lon="5.1449">
        <ele>401</ele>
        <time>2026-08-23T17:13:54.251Z</time>
      </trkpt>
      <trkpt lat="44.73889" lon="5.14491">
        <ele>401</ele>
        <time>2026-08-23T17:13:55.251Z</time>
      </trkpt>
      <trkpt lat="44.7389" lon="5.14491">
        <ele>401</ele>
        <time>2026-08-23T17:13:56.251Z</time>
      </trkpt>
      <trkpt lat="44.73891" lon="5.14491">
        <ele>401</ele>
        <time>2026-08-23T17:13:57.251Z</time>
      </trkpt>
      <trkpt lat="44.73892" lon="5.14492">
        <ele>400</ele>
        <time>2026-08-23T17:13:58.251Z</time>
      </trkpt>
      <trkpt lat="44.73894" lon="5.14493">
        <ele>400</ele>
        <time>2026-08-23T17:13:59.251Z</time>
      </trkpt>
      <trkpt lat="44.73895" lon="5.14494">
        <ele>400</ele>
        <time>2026-08-23T17:14:00.251Z</time>
      </trkpt>
      <trkpt lat="44.73896" lon="5.14494">
        <ele>400</ele>
        <time>2026-08-23T17:14:01.251Z</time>
      </trkpt>
      <trkpt lat="44.73897" lon="5.14495">
        <ele>400</ele>
        <time>2026-08-23T17:14:02.251Z</time>
      </trkpt>
      <trkpt lat="44.73898" lon="5.14496">
        <ele>400</ele>
        <time>2026-08-23T17:14:03.251Z</time>
      </trkpt>
      <trkpt lat="44.73899" lon="5.14496">
        <ele>400</ele>
        <time>2026-08-23T17:14:04.251Z</time>
      </trkpt>
      <trkpt lat="44.739" lon="5.14497">
        <ele>400</ele>
        <time>2026-08-23T17:14:05.251Z</time>
      </trkpt>
      <trkpt lat="44.73901" lon="5.14497">
        <ele>400</ele>
        <time>2026-08-23T17:14:06.251Z</time>
      </trkpt>
      <trkpt lat="44.73902" lon="5.14497">
        <ele>400</ele>
        <time>2026-08-23T17:14:07.251Z</time>
      </trkpt>
      <trkpt lat="44.73903" lon="5.14497">
        <ele>400</ele>
        <time>2026-08-23T17:14:08.251Z</time>
      </trkpt>
      <trkpt lat="44.73904" lon="5.14498">
        <ele>399</ele>
        <time>2026-08-23T17:14:09.251Z</time>
      </trkpt>
      <trkpt lat="44.73906" lon="5.14498">
        <ele>399</ele>
        <time>2026-08-23T17:14:10.251Z</time>
      </trkpt>
      <trkpt lat="44.73907" lon="5.14499">
        <ele>399</ele>
        <time>2026-08-23T17:14:11.251Z</time>
      </trkpt>
      <trkpt lat="44.73907" lon="5.14499">
        <ele>399</ele>
        <time>2026-08-23T17:14:12.251Z</time>
      </trkpt>
      <trkpt lat="44.73909" lon="5.14499">
        <ele>399</ele>
        <time>2026-08-23T17:14:13.251Z</time>
      </trkpt>
      <trkpt lat="44.7391" lon="5.14499">
        <ele>399</ele>
        <time>2026-08-23T17:14:14.251Z</time>
      </trkpt>
      <trkpt lat="44.73911" lon="5.14499">
        <ele>399</ele>
        <time>2026-08-23T17:14:15.251Z</time>
      </trkpt>
      <trkpt lat="44.73912" lon="5.145">
        <ele>399</ele>
        <time>2026-08-23T17:14:16.251Z</time>
      </trkpt>
      <trkpt lat="44.73914" lon="5.145">
        <ele>399</ele>
        <time>2026-08-23T17:14:17.251Z</time>
      </trkpt>
      <trkpt lat="44.73915" lon="5.145">
        <ele>399</ele>
        <time>2026-08-23T17:14:18.251Z</time>
      </trkpt>
      <trkpt lat="44.73916" lon="5.14501">
        <ele>399</ele>
        <time>2026-08-23T17:14:19.251Z</time>
      </trkpt>
      <trkpt lat="44.73917" lon="5.14501">
        <ele>399</ele>
        <time>2026-08-23T17:14:20.251Z</time>
      </trkpt>
      <trkpt lat="44.73919" lon="5.14501">
        <ele>399</ele>
        <time>2026-08-23T17:14:21.251Z</time>
      </trkpt>
      <trkpt lat="44.7392" lon="5.14502">
        <ele>399</ele>
        <time>2026-08-23T17:14:22.251Z</time>
      </trkpt>
      <trkpt lat="44.73921" lon="5.14502">
        <ele>399</ele>
        <time>2026-08-23T17:14:23.251Z</time>
      </trkpt>
      <trkpt lat="44.73922" lon="5.14502">
        <ele>399</ele>
        <time>2026-08-23T17:14:24.251Z</time>
      </trkpt>
      <trkpt lat="44.73924" lon="5.14503">
        <ele>399</ele>
        <time>2026-08-23T17:14:25.251Z</time>
      </trkpt>
      <trkpt lat="44.73925" lon="5.14503">
        <ele>399</ele>
        <time>2026-08-23T17:14:26.251Z</time>
      </trkpt>
      <trkpt lat="44.73926" lon="5.14504">
        <ele>399</ele>
        <time>2026-08-23T17:14:27.251Z</time>
      </trkpt>
      <trkpt lat="44.73927" lon="5.14505">
        <ele>399</ele>
        <time>2026-08-23T17:14:28.251Z</time>
      </trkpt>
      <trkpt lat="44.73927" lon="5.14506">
        <ele>399</ele>
        <time>2026-08-23T17:14:29.251Z</time>
      </trkpt>
      <trkpt lat="44.73928" lon="5.14507">
        <ele>399</ele>
        <time>2026-08-23T17:14:30.251Z</time>
      </trkpt>
      <trkpt lat="44.73929" lon="5.14508">
        <ele>399</ele>
        <time>2026-08-23T17:14:31.251Z</time>
      </trkpt>
      <trkpt lat="44.7393" lon="5.14509">
        <ele>399</ele>
        <time>2026-08-23T17:14:32.251Z</time>
      </trkpt>
      <trkpt lat="44.7393" lon="5.1451">
        <ele>399</ele>
        <time>2026-08-23T17:14:33.251Z</time>
      </trkpt>
      <trkpt lat="44.73931" lon="5.14511">
        <ele>399</ele>
        <time>2026-08-23T17:14:34.251Z</time>
      </trkpt>
      <trkpt lat="44.73932" lon="5.14511">
        <ele>399</ele>
        <time>2026-08-23T17:14:35.251Z</time>
      </trkpt>
      <trkpt lat="44.73933" lon="5.14512">
        <ele>399</ele>
        <time>2026-08-23T17:14:36.251Z</time>
      </trkpt>
      <trkpt lat="44.73934" lon="5.14513">
        <ele>399</ele>
        <time>2026-08-23T17:14:37.251Z</time>
      </trkpt>
      <trkpt lat="44.73935" lon="5.14513">
        <ele>399</ele>
        <time>2026-08-23T17:14:38.251Z</time>
      </trkpt>
      <trkpt lat="44.73936" lon="5.14514">
        <ele>399</ele>
        <time>2026-08-23T17:14:39.251Z</time>
      </trkpt>
      <trkpt lat="44.73937" lon="5.14515">
        <ele>399</ele>
        <time>2026-08-23T17:14:40.251Z</time>
      </trkpt>
      <trkpt lat="44.73938" lon="5.14516">
        <ele>399</ele>
        <time>2026-08-23T17:14:41.251Z</time>
      </trkpt>
      <trkpt lat="44.73938" lon="5.14517">
        <ele>399</ele>
        <time>2026-08-23T17:14:42.251Z</time>
      </trkpt>
      <trkpt lat="44.73939" lon="5.14519">
        <ele>399</ele>
        <time>2026-08-23T17:14:43.251Z</time>
      </trkpt>
      <trkpt lat="44.7394" lon="5.1452">
        <ele>399</ele>
        <time>2026-08-23T17:14:44.251Z</time>
      </trkpt>
      <trkpt lat="44.7394" lon="5.14521">
        <ele>398</ele>
        <time>2026-08-23T17:14:45.251Z</time>
      </trkpt>
      <trkpt lat="44.73941" lon="5.14523">
        <ele>398</ele>
        <time>2026-08-23T17:14:46.251Z</time>
      </trkpt>
      <trkpt lat="44.73942" lon="5.14524">
        <ele>398</ele>
        <time>2026-08-23T17:14:47.251Z</time>
      </trkpt>
      <trkpt lat="44.73942" lon="5.14525">
        <ele>398</ele>
        <time>2026-08-23T17:14:48.251Z</time>
      </trkpt>
      <trkpt lat="44.73943" lon="5.14527">
        <ele>398</ele>
        <time>2026-08-23T17:14:49.251Z</time>
      </trkpt>
      <trkpt lat="44.73944" lon="5.14528">
        <ele>398</ele>
        <time>2026-08-23T17:14:50.251Z</time>
      </trkpt>
      <trkpt lat="44.73944" lon="5.14529">
        <ele>398</ele>
        <time>2026-08-23T17:14:51.251Z</time>
      </trkpt>
      <trkpt lat="44.73945" lon="5.1453">
        <ele>398</ele>
        <time>2026-08-23T17:14:52.251Z</time>
      </trkpt>
      <trkpt lat="44.73946" lon="5.14532">
        <ele>397</ele>
        <time>2026-08-23T17:14:53.251Z</time>
      </trkpt>
      <trkpt lat="44.73946" lon="5.14533">
        <ele>397</ele>
        <time>2026-08-23T17:14:54.251Z</time>
      </trkpt>
      <trkpt lat="44.73947" lon="5.14535">
        <ele>397</ele>
        <time>2026-08-23T17:14:55.251Z</time>
      </trkpt>
      <trkpt lat="44.73947" lon="5.14536">
        <ele>397</ele>
        <time>2026-08-23T17:14:56.251Z</time>
      </trkpt>
      <trkpt lat="44.73948" lon="5.14537">
        <ele>397</ele>
        <time>2026-08-23T17:14:57.251Z</time>
      </trkpt>
      <trkpt lat="44.73949" lon="5.14538">
        <ele>397</ele>
        <time>2026-08-23T17:14:58.251Z</time>
      </trkpt>
      <trkpt lat="44.73949" lon="5.14539">
        <ele>397</ele>
        <time>2026-08-23T17:14:59.251Z</time>
      </trkpt>
      <trkpt lat="44.7395" lon="5.14541">
        <ele>397</ele>
        <time>2026-08-23T17:15:00.251Z</time>
      </trkpt>
      <trkpt lat="44.7395" lon="5.14542">
        <ele>397</ele>
        <time>2026-08-23T17:15:01.251Z</time>
      </trkpt>
      <trkpt lat="44.7395" lon="5.14543">
        <ele>396</ele>
        <time>2026-08-23T17:15:02.251Z</time>
      </trkpt>
      <trkpt lat="44.73951" lon="5.14545">
        <ele>396</ele>
        <time>2026-08-23T17:15:03.251Z</time>
      </trkpt>
      <trkpt lat="44.73951" lon="5.14546">
        <ele>396</ele>
        <time>2026-08-23T17:15:04.251Z</time>
      </trkpt>
      <trkpt lat="44.73951" lon="5.14547">
        <ele>396</ele>
        <time>2026-08-23T17:15:05.251Z</time>
      </trkpt>
      <trkpt lat="44.73951" lon="5.14549">
        <ele>396</ele>
        <time>2026-08-23T17:15:06.251Z</time>
      </trkpt>
      <trkpt lat="44.73952" lon="5.1455">
        <ele>396</ele>
        <time>2026-08-23T17:15:07.251Z</time>
      </trkpt>
      <trkpt lat="44.73952" lon="5.14552">
        <ele>396</ele>
        <time>2026-08-23T17:15:08.251Z</time>
      </trkpt>
      <trkpt lat="44.73952" lon="5.14554">
        <ele>396</ele>
        <time>2026-08-23T17:15:09.251Z</time>
      </trkpt>
      <trkpt lat="44.73952" lon="5.14556">
        <ele>396</ele>
        <time>2026-08-23T17:15:10.251Z</time>
      </trkpt>
      <trkpt lat="44.73952" lon="5.14557">
        <ele>396</ele>
        <time>2026-08-23T17:15:11.251Z</time>
      </trkpt>
      <trkpt lat="44.73952" lon="5.14559">
        <ele>396</ele>
        <time>2026-08-23T17:15:12.251Z</time>
      </trkpt>
      <trkpt lat="44.73952" lon="5.1456">
        <ele>395</ele>
        <time>2026-08-23T17:15:13.251Z</time>
      </trkpt>
      <trkpt lat="44.73952" lon="5.14562">
        <ele>395</ele>
        <time>2026-08-23T17:15:14.251Z</time>
      </trkpt>
      <trkpt lat="44.73952" lon="5.14564">
        <ele>395</ele>
        <time>2026-08-23T17:15:15.251Z</time>
      </trkpt>
      <trkpt lat="44.73952" lon="5.14566">
        <ele>395</ele>
        <time>2026-08-23T17:15:16.251Z</time>
      </trkpt>
      <trkpt lat="44.73952" lon="5.14568">
        <ele>395</ele>
        <time>2026-08-23T17:15:17.251Z</time>
      </trkpt>
      <trkpt lat="44.73952" lon="5.14569">
        <ele>395</ele>
        <time>2026-08-23T17:15:18.251Z</time>
      </trkpt>
      <trkpt lat="44.73952" lon="5.14571">
        <ele>395</ele>
        <time>2026-08-23T17:15:19.251Z</time>
      </trkpt>
      <trkpt lat="44.73952" lon="5.14573">
        <ele>395</ele>
        <time>2026-08-23T17:15:20.251Z</time>
      </trkpt>
      <trkpt lat="44.73952" lon="5.14575">
        <ele>396</ele>
        <time>2026-08-23T17:15:21.251Z</time>
      </trkpt>
      <trkpt lat="44.73951" lon="5.14577">
        <ele>396</ele>
        <time>2026-08-23T17:15:22.251Z</time>
      </trkpt>
      <trkpt lat="44.73951" lon="5.14578">
        <ele>396</ele>
        <time>2026-08-23T17:15:23.251Z</time>
      </trkpt>
      <trkpt lat="44.73951" lon="5.1458">
        <ele>396</ele>
        <time>2026-08-23T17:15:24.251Z</time>
      </trkpt>
      <trkpt lat="44.73951" lon="5.14582">
        <ele>396</ele>
        <time>2026-08-23T17:15:25.251Z</time>
      </trkpt>
      <trkpt lat="44.73951" lon="5.14583">
        <ele>396</ele>
        <time>2026-08-23T17:15:26.251Z</time>
      </trkpt>
      <trkpt lat="44.73951" lon="5.14585">
        <ele>396</ele>
        <time>2026-08-23T17:15:27.251Z</time>
      </trkpt>
      <trkpt lat="44.73951" lon="5.14587">
        <ele>396</ele>
        <time>2026-08-23T17:15:28.251Z</time>
      </trkpt>
      <trkpt lat="44.7395" lon="5.14589">
        <ele>396</ele>
        <time>2026-08-23T17:15:29.251Z</time>
      </trkpt>
      <trkpt lat="44.7395" lon="5.1459">
        <ele>396</ele>
        <time>2026-08-23T17:15:30.251Z</time>
      </trkpt>
      <trkpt lat="44.73951" lon="5.14591">
        <ele>396</ele>
        <time>2026-08-23T17:15:31.251Z</time>
      </trkpt>
      <trkpt lat="44.73951" lon="5.14593">
        <ele>396</ele>
        <time>2026-08-23T17:15:32.251Z</time>
      </trkpt>
      <trkpt lat="44.73951" lon="5.14595">
        <ele>396</ele>
        <time>2026-08-23T17:15:33.251Z</time>
      </trkpt>
      <trkpt lat="44.73952" lon="5.14597">
        <ele>396</ele>
        <time>2026-08-23T17:15:34.251Z</time>
      </trkpt>
      <trkpt lat="44.73952" lon="5.14598">
        <ele>396</ele>
        <time>2026-08-23T17:15:35.251Z</time>
      </trkpt>
      <trkpt lat="44.73953" lon="5.146">
        <ele>396</ele>
        <time>2026-08-23T17:15:36.251Z</time>
      </trkpt>
      <trkpt lat="44.73953" lon="5.14601">
        <ele>395</ele>
        <time>2026-08-23T17:15:37.251Z</time>
      </trkpt>
      <trkpt lat="44.73954" lon="5.14602">
        <ele>395</ele>
        <time>2026-08-23T17:15:38.251Z</time>
      </trkpt>
      <trkpt lat="44.73955" lon="5.14604">
        <ele>395</ele>
        <time>2026-08-23T17:15:39.251Z</time>
      </trkpt>
      <trkpt lat="44.73956" lon="5.14605">
        <ele>395</ele>
        <time>2026-08-23T17:15:40.251Z</time>
      </trkpt>
      <trkpt lat="44.73956" lon="5.14606">
        <ele>395</ele>
        <time>2026-08-23T17:15:41.251Z</time>
      </trkpt>
      <trkpt lat="44.73957" lon="5.14606">
        <ele>394</ele>
        <time>2026-08-23T17:15:42.251Z</time>
      </trkpt>
      <trkpt lat="44.73958" lon="5.14607">
        <ele>394</ele>
        <time>2026-08-23T17:15:43.251Z</time>
      </trkpt>
      <trkpt lat="44.73959" lon="5.14608">
        <ele>394</ele>
        <time>2026-08-23T17:15:44.251Z</time>
      </trkpt>
      <trkpt lat="44.7396" lon="5.14608">
        <ele>394</ele>
        <time>2026-08-23T17:15:45.251Z</time>
      </trkpt>
      <trkpt lat="44.73961" lon="5.14609">
        <ele>394</ele>
        <time>2026-08-23T17:15:46.251Z</time>
      </trkpt>
      <trkpt lat="44.73962" lon="5.14609">
        <ele>393</ele>
        <time>2026-08-23T17:15:47.251Z</time>
      </trkpt>
      <trkpt lat="44.73963" lon="5.1461">
        <ele>393</ele>
        <time>2026-08-23T17:15:48.251Z</time>
      </trkpt>
      <trkpt lat="44.73964" lon="5.1461">
        <ele>393</ele>
        <time>2026-08-23T17:15:49.251Z</time>
      </trkpt>
      <trkpt lat="44.73965" lon="5.1461">
        <ele>393</ele>
        <time>2026-08-23T17:15:50.251Z</time>
      </trkpt>
      <trkpt lat="44.73966" lon="5.1461">
        <ele>393</ele>
        <time>2026-08-23T17:15:51.251Z</time>
      </trkpt>
      <trkpt lat="44.73967" lon="5.14611">
        <ele>392</ele>
        <time>2026-08-23T17:15:52.251Z</time>
      </trkpt>
      <trkpt lat="44.73968" lon="5.14611">
        <ele>392</ele>
        <time>2026-08-23T17:15:53.251Z</time>
      </trkpt>
      <trkpt lat="44.73969" lon="5.14611">
        <ele>392</ele>
        <time>2026-08-23T17:15:54.251Z</time>
      </trkpt>
      <trkpt lat="44.7397" lon="5.14611">
        <ele>392</ele>
        <time>2026-08-23T17:15:55.251Z</time>
      </trkpt>
      <trkpt lat="44.73971" lon="5.14611">
        <ele>392</ele>
        <time>2026-08-23T17:15:56.251Z</time>
      </trkpt>
      <trkpt lat="44.73972" lon="5.14612">
        <ele>391</ele>
        <time>2026-08-23T17:15:57.251Z</time>
      </trkpt>
      <trkpt lat="44.73973" lon="5.14612">
        <ele>391</ele>
        <time>2026-08-23T17:15:58.251Z</time>
      </trkpt>
      <trkpt lat="44.73974" lon="5.14612">
        <ele>391</ele>
        <time>2026-08-23T17:15:59.251Z</time>
      </trkpt>
      <trkpt lat="44.73975" lon="5.14613">
        <ele>391</ele>
        <time>2026-08-23T17:16:00.251Z</time>
      </trkpt>
      <trkpt lat="44.73976" lon="5.14613">
        <ele>391</ele>
        <time>2026-08-23T17:16:01.251Z</time>
      </trkpt>
      <trkpt lat="44.73977" lon="5.14612">
        <ele>390</ele>
        <time>2026-08-23T17:16:02.251Z</time>
      </trkpt>
      <trkpt lat="44.73978" lon="5.14613">
        <ele>390</ele>
        <time>2026-08-23T17:16:03.251Z</time>
      </trkpt>
      <trkpt lat="44.73979" lon="5.14613">
        <ele>390</ele>
        <time>2026-08-23T17:16:04.251Z</time>
      </trkpt>
      <trkpt lat="44.7398" lon="5.14613">
        <ele>390</ele>
        <time>2026-08-23T17:16:05.251Z</time>
      </trkpt>
      <trkpt lat="44.73981" lon="5.14613">
        <ele>390</ele>
        <time>2026-08-23T17:16:06.251Z</time>
      </trkpt>
      <trkpt lat="44.73981" lon="5.14613">
        <ele>390</ele>
        <time>2026-08-23T17:16:07.251Z</time>
      </trkpt>
      <trkpt lat="44.73982" lon="5.14613">
        <ele>390</ele>
        <time>2026-08-23T17:16:08.251Z</time>
      </trkpt>
      <trkpt lat="44.73983" lon="5.14613">
        <ele>389</ele>
        <time>2026-08-23T17:16:09.251Z</time>
      </trkpt>
      <trkpt lat="44.73984" lon="5.14613">
        <ele>389</ele>
        <time>2026-08-23T17:16:10.251Z</time>
      </trkpt>
      <trkpt lat="44.73985" lon="5.14613">
        <ele>389</ele>
        <time>2026-08-23T17:16:11.251Z</time>
      </trkpt>
      <trkpt lat="44.73986" lon="5.14613">
        <ele>389</ele>
        <time>2026-08-23T17:16:12.251Z</time>
      </trkpt>
      <trkpt lat="44.73987" lon="5.14613">
        <ele>389</ele>
        <time>2026-08-23T17:16:13.251Z</time>
      </trkpt>
      <trkpt lat="44.73989" lon="5.14613">
        <ele>389</ele>
        <time>2026-08-23T17:16:14.251Z</time>
      </trkpt>
      <trkpt lat="44.7399" lon="5.14613">
        <ele>389</ele>
        <time>2026-08-23T17:16:15.251Z</time>
      </trkpt>
      <trkpt lat="44.73991" lon="5.14613">
        <ele>389</ele>
        <time>2026-08-23T17:16:16.251Z</time>
      </trkpt>
      <trkpt lat="44.73992" lon="5.14613">
        <ele>388</ele>
        <time>2026-08-23T17:16:17.251Z</time>
      </trkpt>
      <trkpt lat="44.73993" lon="5.14613">
        <ele>388</ele>
        <time>2026-08-23T17:16:18.251Z</time>
      </trkpt>
      <trkpt lat="44.73994" lon="5.14613">
        <ele>388</ele>
        <time>2026-08-23T17:16:19.251Z</time>
      </trkpt>
      <trkpt lat="44.73995" lon="5.14612">
        <ele>388</ele>
        <time>2026-08-23T17:16:20.251Z</time>
      </trkpt>
      <trkpt lat="44.73996" lon="5.14612">
        <ele>388</ele>
        <time>2026-08-23T17:16:21.251Z</time>
      </trkpt>
      <trkpt lat="44.73997" lon="5.14612">
        <ele>388</ele>
        <time>2026-08-23T17:16:22.251Z</time>
      </trkpt>
      <trkpt lat="44.73998" lon="5.14611">
        <ele>388</ele>
        <time>2026-08-23T17:16:23.251Z</time>
      </trkpt>
      <trkpt lat="44.74" lon="5.14611">
        <ele>388</ele>
        <time>2026-08-23T17:16:24.251Z</time>
      </trkpt>
      <trkpt lat="44.74001" lon="5.1461">
        <ele>388</ele>
        <time>2026-08-23T17:16:25.251Z</time>
      </trkpt>
      <trkpt lat="44.74002" lon="5.1461">
        <ele>388</ele>
        <time>2026-08-23T17:16:26.251Z</time>
      </trkpt>
      <trkpt lat="44.74003" lon="5.14609">
        <ele>388</ele>
        <time>2026-08-23T17:16:27.251Z</time>
      </trkpt>
      <trkpt lat="44.74004" lon="5.14609">
        <ele>388</ele>
        <time>2026-08-23T17:16:28.251Z</time>
      </trkpt>
      <trkpt lat="44.74005" lon="5.14608">
        <ele>387</ele>
        <time>2026-08-23T17:16:29.251Z</time>
      </trkpt>
      <trkpt lat="44.74006" lon="5.14608">
        <ele>387</ele>
        <time>2026-08-23T17:16:30.251Z</time>
      </trkpt>
      <trkpt lat="44.74007" lon="5.14607">
        <ele>387</ele>
        <time>2026-08-23T17:16:31.251Z</time>
      </trkpt>
      <trkpt lat="44.74008" lon="5.14606">
        <ele>387</ele>
        <time>2026-08-23T17:16:32.251Z</time>
      </trkpt>
      <trkpt lat="44.74009" lon="5.14606">
        <ele>387</ele>
        <time>2026-08-23T17:16:33.251Z</time>
      </trkpt>
      <trkpt lat="44.7401" lon="5.14605">
        <ele>387</ele>
        <time>2026-08-23T17:16:34.251Z</time>
      </trkpt>
      <trkpt lat="44.74011" lon="5.14604">
        <ele>387</ele>
        <time>2026-08-23T17:16:35.251Z</time>
      </trkpt>
      <trkpt lat="44.74012" lon="5.14603">
        <ele>387</ele>
        <time>2026-08-23T17:16:36.251Z</time>
      </trkpt>
      <trkpt lat="44.74013" lon="5.14602">
        <ele>387</ele>
        <time>2026-08-23T17:16:37.251Z</time>
      </trkpt>
      <trkpt lat="44.74013" lon="5.14601">
        <ele>387</ele>
        <time>2026-08-23T17:16:38.251Z</time>
      </trkpt>
      <trkpt lat="44.74014" lon="5.146">
        <ele>387</ele>
        <time>2026-08-23T17:16:39.251Z</time>
      </trkpt>
      <trkpt lat="44.74015" lon="5.14599">
        <ele>387</ele>
        <time>2026-08-23T17:16:40.251Z</time>
      </trkpt>
      <trkpt lat="44.74016" lon="5.14598">
        <ele>387</ele>
        <time>2026-08-23T17:16:41.251Z</time>
      </trkpt>
      <trkpt lat="44.74017" lon="5.14597">
        <ele>387</ele>
        <time>2026-08-23T17:16:42.251Z</time>
      </trkpt>
      <trkpt lat="44.74018" lon="5.14596">
        <ele>387</ele>
        <time>2026-08-23T17:16:43.251Z</time>
      </trkpt>
      <trkpt lat="44.74018" lon="5.14595">
        <ele>387</ele>
        <time>2026-08-23T17:16:44.251Z</time>
      </trkpt>
      <trkpt lat="44.74019" lon="5.14594">
        <ele>387</ele>
        <time>2026-08-23T17:16:45.251Z</time>
      </trkpt>
      <trkpt lat="44.7402" lon="5.14592">
        <ele>387</ele>
        <time>2026-08-23T17:16:46.251Z</time>
      </trkpt>
      <trkpt lat="44.7402" lon="5.14591">
        <ele>387</ele>
        <time>2026-08-23T17:16:47.251Z</time>
      </trkpt>
      <trkpt lat="44.74021" lon="5.1459">
        <ele>386</ele>
        <time>2026-08-23T17:16:48.251Z</time>
      </trkpt>
      <trkpt lat="44.74022" lon="5.14589">
        <ele>386</ele>
        <time>2026-08-23T17:16:49.251Z</time>
      </trkpt>
      <trkpt lat="44.74023" lon="5.14588">
        <ele>386</ele>
        <time>2026-08-23T17:16:50.251Z</time>
      </trkpt>
      <trkpt lat="44.74023" lon="5.14587">
        <ele>386</ele>
        <time>2026-08-23T17:16:51.251Z</time>
      </trkpt>
      <trkpt lat="44.74024" lon="5.14586">
        <ele>386</ele>
        <time>2026-08-23T17:16:52.251Z</time>
      </trkpt>
      <trkpt lat="44.74025" lon="5.14585">
        <ele>386</ele>
        <time>2026-08-23T17:16:53.251Z</time>
      </trkpt>
      <trkpt lat="44.74025" lon="5.14584">
        <ele>386</ele>
        <time>2026-08-23T17:16:54.251Z</time>
      </trkpt>
      <trkpt lat="44.74026" lon="5.14583">
        <ele>386</ele>
        <time>2026-08-23T17:16:55.251Z</time>
      </trkpt>
      <trkpt lat="44.74027" lon="5.14582">
        <ele>386</ele>
        <time>2026-08-23T17:16:56.251Z</time>
      </trkpt>
      <trkpt lat="44.74028" lon="5.14581">
        <ele>385</ele>
        <time>2026-08-23T17:16:57.251Z</time>
      </trkpt>
      <trkpt lat="44.74029" lon="5.1458">
        <ele>385</ele>
        <time>2026-08-23T17:16:58.251Z</time>
      </trkpt>
      <trkpt lat="44.74029" lon="5.14578">
        <ele>385</ele>
        <time>2026-08-23T17:16:59.251Z</time>
      </trkpt>
      <trkpt lat="44.7403" lon="5.14577">
        <ele>385</ele>
        <time>2026-08-23T17:17:00.251Z</time>
      </trkpt>
      <trkpt lat="44.74031" lon="5.14576">
        <ele>385</ele>
        <time>2026-08-23T17:17:01.251Z</time>
      </trkpt>
      <trkpt lat="44.74032" lon="5.14575">
        <ele>385</ele>
        <time>2026-08-23T17:17:02.251Z</time>
      </trkpt>
      <trkpt lat="44.74032" lon="5.14574">
        <ele>385</ele>
        <time>2026-08-23T17:17:03.251Z</time>
      </trkpt>
      <trkpt lat="44.74033" lon="5.14573">
        <ele>385</ele>
        <time>2026-08-23T17:17:04.251Z</time>
      </trkpt>
      <trkpt lat="44.74034" lon="5.14572">
        <ele>384</ele>
        <time>2026-08-23T17:17:05.251Z</time>
      </trkpt>
      <trkpt lat="44.74034" lon="5.1457">
        <ele>384</ele>
        <time>2026-08-23T17:17:06.251Z</time>
      </trkpt>
      <trkpt lat="44.74034" lon="5.14569">
        <ele>384</ele>
        <time>2026-08-23T17:17:07.251Z</time>
      </trkpt>
      <trkpt lat="44.74035" lon="5.14567">
        <ele>384</ele>
        <time>2026-08-23T17:17:08.251Z</time>
      </trkpt>
      <trkpt lat="44.74035" lon="5.14566">
        <ele>384</ele>
        <time>2026-08-23T17:17:09.251Z</time>
      </trkpt>
      <trkpt lat="44.74036" lon="5.14565">
        <ele>384</ele>
        <time>2026-08-23T17:17:10.251Z</time>
      </trkpt>
      <trkpt lat="44.74037" lon="5.14563">
        <ele>383</ele>
        <time>2026-08-23T17:17:11.251Z</time>
      </trkpt>
      <trkpt lat="44.74037" lon="5.14562">
        <ele>383</ele>
        <time>2026-08-23T17:17:12.251Z</time>
      </trkpt>
      <trkpt lat="44.74038" lon="5.1456">
        <ele>383</ele>
        <time>2026-08-23T17:17:13.251Z</time>
      </trkpt>
      <trkpt lat="44.74038" lon="5.14559">
        <ele>383</ele>
        <time>2026-08-23T17:17:14.251Z</time>
      </trkpt>
      <trkpt lat="44.74039" lon="5.14557">
        <ele>383</ele>
        <time>2026-08-23T17:17:15.251Z</time>
      </trkpt>
      <trkpt lat="44.7404" lon="5.14556">
        <ele>383</ele>
        <time>2026-08-23T17:17:16.251Z</time>
      </trkpt>
      <trkpt lat="44.7404" lon="5.14554">
        <ele>383</ele>
        <time>2026-08-23T17:17:17.251Z</time>
      </trkpt>
      <trkpt lat="44.74041" lon="5.14553">
        <ele>383</ele>
        <time>2026-08-23T17:17:18.251Z</time>
      </trkpt>
      <trkpt lat="44.74041" lon="5.14551">
        <ele>383</ele>
        <time>2026-08-23T17:17:19.251Z</time>
      </trkpt>
      <trkpt lat="44.74042" lon="5.1455">
        <ele>383</ele>
        <time>2026-08-23T17:17:20.251Z</time>
      </trkpt>
      <trkpt lat="44.74043" lon="5.14548">
        <ele>383</ele>
        <time>2026-08-23T17:17:21.251Z</time>
      </trkpt>
      <trkpt lat="44.74043" lon="5.14547">
        <ele>383</ele>
        <time>2026-08-23T17:17:22.251Z</time>
      </trkpt>
      <trkpt lat="44.74044" lon="5.14545">
        <ele>383</ele>
        <time>2026-08-23T17:17:23.251Z</time>
      </trkpt>
      <trkpt lat="44.74044" lon="5.14544">
        <ele>383</ele>
        <time>2026-08-23T17:17:24.251Z</time>
      </trkpt>
      <trkpt lat="44.74045" lon="5.14542">
        <ele>384</ele>
        <time>2026-08-23T17:17:25.251Z</time>
      </trkpt>
      <trkpt lat="44.74045" lon="5.14541">
        <ele>384</ele>
        <time>2026-08-23T17:17:26.251Z</time>
      </trkpt>
      <trkpt lat="44.74046" lon="5.14539">
        <ele>384</ele>
        <time>2026-08-23T17:17:27.251Z</time>
      </trkpt>
      <trkpt lat="44.74046" lon="5.14538">
        <ele>384</ele>
        <time>2026-08-23T17:17:28.251Z</time>
      </trkpt>
      <trkpt lat="44.74047" lon="5.14537">
        <ele>384</ele>
        <time>2026-08-23T17:17:29.251Z</time>
      </trkpt>
      <trkpt lat="44.74047" lon="5.14536">
        <ele>384</ele>
        <time>2026-08-23T17:17:30.251Z</time>
      </trkpt>
      <trkpt lat="44.74048" lon="5.14534">
        <ele>384</ele>
        <time>2026-08-23T17:17:31.251Z</time>
      </trkpt>
      <trkpt lat="44.74048" lon="5.14533">
        <ele>384</ele>
        <time>2026-08-23T17:17:32.251Z</time>
      </trkpt>
      <trkpt lat="44.74048" lon="5.14532">
        <ele>384</ele>
        <time>2026-08-23T17:17:33.251Z</time>
      </trkpt>
      <trkpt lat="44.74049" lon="5.1453">
        <ele>384</ele>
        <time>2026-08-23T17:17:34.251Z</time>
      </trkpt>
      <trkpt lat="44.74049" lon="5.14529">
        <ele>384</ele>
        <time>2026-08-23T17:17:35.251Z</time>
      </trkpt>
      <trkpt lat="44.7405" lon="5.14527">
        <ele>384</ele>
        <time>2026-08-23T17:17:36.251Z</time>
      </trkpt>
      <trkpt lat="44.7405" lon="5.14526">
        <ele>384</ele>
        <time>2026-08-23T17:17:37.251Z</time>
      </trkpt>
      <trkpt lat="44.74051" lon="5.14524">
        <ele>384</ele>
        <time>2026-08-23T17:17:38.251Z</time>
      </trkpt>
      <trkpt lat="44.74052" lon="5.14523">
        <ele>384</ele>
        <time>2026-08-23T17:17:39.251Z</time>
      </trkpt>
      <trkpt lat="44.74052" lon="5.14522">
        <ele>384</ele>
        <time>2026-08-23T17:17:40.251Z</time>
      </trkpt>
      <trkpt lat="44.74053" lon="5.1452">
        <ele>384</ele>
        <time>2026-08-23T17:17:41.251Z</time>
      </trkpt>
      <trkpt lat="44.74053" lon="5.14519">
        <ele>384</ele>
        <time>2026-08-23T17:17:42.251Z</time>
      </trkpt>
      <trkpt lat="44.74054" lon="5.14518">
        <ele>384</ele>
        <time>2026-08-23T17:17:43.251Z</time>
      </trkpt>
      <trkpt lat="44.74055" lon="5.14516">
        <ele>384</ele>
        <time>2026-08-23T17:17:44.251Z</time>
      </trkpt>
      <trkpt lat="44.74055" lon="5.14515">
        <ele>384</ele>
        <time>2026-08-23T17:17:45.251Z</time>
      </trkpt>
      <trkpt lat="44.74056" lon="5.14513">
        <ele>384</ele>
        <time>2026-08-23T17:17:46.251Z</time>
      </trkpt>
      <trkpt lat="44.74056" lon="5.14512">
        <ele>384</ele>
        <time>2026-08-23T17:17:47.251Z</time>
      </trkpt>
      <trkpt lat="44.74057" lon="5.14511">
        <ele>384</ele>
        <time>2026-08-23T17:17:48.251Z</time>
      </trkpt>
      <trkpt lat="44.74058" lon="5.1451">
        <ele>384</ele>
        <time>2026-08-23T17:17:49.251Z</time>
      </trkpt>
      <trkpt lat="44.74059" lon="5.14509">
        <ele>385</ele>
        <time>2026-08-23T17:17:50.251Z</time>
      </trkpt>
      <trkpt lat="44.74059" lon="5.14509">
        <ele>385</ele>
        <time>2026-08-23T17:17:51.251Z</time>
      </trkpt>
      <trkpt lat="44.74059" lon="5.14509">
        <ele>385</ele>
        <time>2026-08-23T17:17:52.251Z</time>
      </trkpt>
      <trkpt lat="44.74059" lon="5.14509">
        <ele>385</ele>
        <time>2026-08-23T17:17:53.251Z</time>
      </trkpt>
      <trkpt lat="44.74059" lon="5.14509">
        <ele>385</ele>
        <time>2026-08-23T17:17:54.251Z</time>
      </trkpt>
      <trkpt lat="44.74061" lon="5.14508">
        <ele>386</ele>
        <time>2026-08-23T17:18:06.260Z</time>
      </trkpt>
      <trkpt lat="44.74062" lon="5.14507">
        <ele>386</ele>
        <time>2026-08-23T17:18:07.260Z</time>
      </trkpt>
      <trkpt lat="44.74062" lon="5.14507">
        <ele>386</ele>
        <time>2026-08-23T17:18:08.260Z</time>
      </trkpt>
      <trkpt lat="44.74063" lon="5.14506">
        <ele>386</ele>
        <time>2026-08-23T17:18:09.260Z</time>
      </trkpt>
      <trkpt lat="44.74064" lon="5.14505">
        <ele>386</ele>
        <time>2026-08-23T17:18:10.260Z</time>
      </trkpt>
      <trkpt lat="44.74064" lon="5.14505">
        <ele>386</ele>
        <time>2026-08-23T17:18:11.260Z</time>
      </trkpt>
      <trkpt lat="44.74065" lon="5.14505">
        <ele>387</ele>
        <time>2026-08-23T17:18:12.260Z</time>
      </trkpt>
      <trkpt lat="44.74065" lon="5.14506">
        <ele>387</ele>
        <time>2026-08-23T17:18:13.260Z</time>
      </trkpt>
      <trkpt lat="44.74065" lon="5.14506">
        <ele>387</ele>
        <time>2026-08-23T17:18:14.260Z</time>
      </trkpt>
      <trkpt lat="44.74064" lon="5.14506">
        <ele>387</ele>
        <time>2026-08-23T17:18:15.260Z</time>
      </trkpt>
      <trkpt lat="44.74064" lon="5.14507">
        <ele>387</ele>
        <time>2026-08-23T17:18:16.260Z</time>
      </trkpt>
      <trkpt lat="44.74064" lon="5.14507">
        <ele>387</ele>
        <time>2026-08-23T17:18:17.260Z</time>
      </trkpt>
      <trkpt lat="44.7406" lon="5.14511">
        <ele>390</ele>
        <time>2026-08-23T17:19:12.273Z</time>
      </trkpt>
      <trkpt lat="44.7406" lon="5.14512">
        <ele>390</ele>
        <time>2026-08-23T17:19:13.273Z</time>
      </trkpt>
      <trkpt lat="44.7406" lon="5.14512">
        <ele>390</ele>
        <time>2026-08-23T17:19:14.273Z</time>
      </trkpt>
      <trkpt lat="44.74059" lon="5.14512">
        <ele>390</ele>
        <time>2026-08-23T17:19:15.273Z</time>
      </trkpt>
      <trkpt lat="44.74059" lon="5.14513">
        <ele>390</ele>
        <time>2026-08-23T17:19:16.273Z</time>
      </trkpt>
      <trkpt lat="44.74059" lon="5.14513">
        <ele>391</ele>
        <time>2026-08-23T17:19:17.273Z</time>
      </trkpt>
      <trkpt lat="44.74057" lon="5.14515">
        <ele>391</ele>
        <time>2026-08-23T17:19:54.288Z</time>
      </trkpt>
      <trkpt lat="44.74058" lon="5.14514">
        <ele>391</ele>
        <time>2026-08-23T17:19:55.288Z</time>
      </trkpt>
      <trkpt lat="44.74058" lon="5.14513">
        <ele>391</ele>
        <time>2026-08-23T17:19:56.288Z</time>
      </trkpt>
      <trkpt lat="44.74059" lon="5.14513">
        <ele>390</ele>
        <time>2026-08-23T17:19:57.288Z</time>
      </trkpt>
      <trkpt lat="44.74059" lon="5.14512">
        <ele>390</ele>
        <time>2026-08-23T17:19:58.288Z</time>
      </trkpt>
      <trkpt lat="44.74059" lon="5.14511">
        <ele>390</ele>
        <time>2026-08-23T17:19:59.288Z</time>
      </trkpt>
      <trkpt lat="44.7406" lon="5.14511">
        <ele>390</ele>
        <time>2026-08-23T17:20:00.288Z</time>
      </trkpt>
      <trkpt lat="44.7406" lon="5.1451">
        <ele>390</ele>
        <time>2026-08-23T17:20:01.288Z</time>
      </trkpt>
      <trkpt lat="44.74061" lon="5.14509">
        <ele>390</ele>
        <time>2026-08-23T17:20:02.288Z</time>
      </trkpt>
      <trkpt lat="44.74061" lon="5.14509">
        <ele>390</ele>
        <time>2026-08-23T17:20:03.288Z</time>
      </trkpt>
      <trkpt lat="44.74061" lon="5.14508">
        <ele>390</ele>
        <time>2026-08-23T17:20:04.288Z</time>
      </trkpt>
      <trkpt lat="44.7406" lon="5.14506">
        <ele>390</ele>
        <time>2026-08-23T17:20:25.304Z</time>
      </trkpt>
      <trkpt lat="44.7406" lon="5.14506">
        <ele>390</ele>
        <time>2026-08-23T17:20:26.304Z</time>
      </trkpt>
      <trkpt lat="44.74059" lon="5.14505">
        <ele>390</ele>
        <time>2026-08-23T17:20:27.304Z</time>
      </trkpt>
      <trkpt lat="44.74059" lon="5.14503">
        <ele>390</ele>
        <time>2026-08-23T17:20:28.304Z</time>
      </trkpt>
      <trkpt lat="44.74059" lon="5.14501">
        <ele>390</ele>
        <time>2026-08-23T17:20:29.304Z</time>
      </trkpt>
      <trkpt lat="44.74059" lon="5.145">
        <ele>390</ele>
        <time>2026-08-23T17:20:30.304Z</time>
      </trkpt>
      <trkpt lat="44.74059" lon="5.14498">
        <ele>390</ele>
        <time>2026-08-23T17:20:31.304Z</time>
      </trkpt>
      <trkpt lat="44.74059" lon="5.14496">
        <ele>390</ele>
        <time>2026-08-23T17:20:32.304Z</time>
      </trkpt>
      <trkpt lat="44.74059" lon="5.14495">
        <ele>389</ele>
        <time>2026-08-23T17:20:33.304Z</time>
      </trkpt>
      <trkpt lat="44.74059" lon="5.14493">
        <ele>389</ele>
        <time>2026-08-23T17:20:34.304Z</time>
      </trkpt>
      <trkpt lat="44.7406" lon="5.14492">
        <ele>389</ele>
        <time>2026-08-23T17:20:35.304Z</time>
      </trkpt>
      <trkpt lat="44.7406" lon="5.1449">
        <ele>389</ele>
        <time>2026-08-23T17:20:36.304Z</time>
      </trkpt>
      <trkpt lat="44.7406" lon="5.14489">
        <ele>389</ele>
        <time>2026-08-23T17:20:37.304Z</time>
      </trkpt>
      <trkpt lat="44.7406" lon="5.14487">
        <ele>389</ele>
        <time>2026-08-23T17:20:38.304Z</time>
      </trkpt>
      <trkpt lat="44.7406" lon="5.14485">
        <ele>388</ele>
        <time>2026-08-23T17:20:39.304Z</time>
      </trkpt>
      <trkpt lat="44.7406" lon="5.14484">
        <ele>388</ele>
        <time>2026-08-23T17:20:40.304Z</time>
      </trkpt>
      <trkpt lat="44.7406" lon="5.14482">
        <ele>388</ele>
        <time>2026-08-23T17:20:41.304Z</time>
      </trkpt>
      <trkpt lat="44.7406" lon="5.1448">
        <ele>388</ele>
        <time>2026-08-23T17:20:42.304Z</time>
      </trkpt>
      <trkpt lat="44.7406" lon="5.14479">
        <ele>388</ele>
        <time>2026-08-23T17:20:43.304Z</time>
      </trkpt>
      <trkpt lat="44.7406" lon="5.14477">
        <ele>388</ele>
        <time>2026-08-23T17:20:44.304Z</time>
      </trkpt>
      <trkpt lat="44.7406" lon="5.14475">
        <ele>388</ele>
        <time>2026-08-23T17:20:45.304Z</time>
      </trkpt>
      <trkpt lat="44.74059" lon="5.14474">
        <ele>388</ele>
        <time>2026-08-23T17:20:46.304Z</time>
      </trkpt>
      <trkpt lat="44.74059" lon="5.14472">
        <ele>388</ele>
        <time>2026-08-23T17:20:47.304Z</time>
      </trkpt>
      <trkpt lat="44.74059" lon="5.14471">
        <ele>387</ele>
        <time>2026-08-23T17:20:48.304Z</time>
      </trkpt>
      <trkpt lat="44.74059" lon="5.14469">
        <ele>387</ele>
        <time>2026-08-23T17:20:49.304Z</time>
      </trkpt>
      <trkpt lat="44.74059" lon="5.14468">
        <ele>387</ele>
        <time>2026-08-23T17:20:50.304Z</time>
      </trkpt>
      <trkpt lat="44.74058" lon="5.14466">
        <ele>387</ele>
        <time>2026-08-23T17:20:51.304Z</time>
      </trkpt>
      <trkpt lat="44.74058" lon="5.14465">
        <ele>387</ele>
        <time>2026-08-23T17:20:52.304Z</time>
      </trkpt>
      <trkpt lat="44.74057" lon="5.14463">
        <ele>387</ele>
        <time>2026-08-23T17:20:53.304Z</time>
      </trkpt>
      <trkpt lat="44.74057" lon="5.14461">
        <ele>387</ele>
        <time>2026-08-23T17:20:54.304Z</time>
      </trkpt>
      <trkpt lat="44.74056" lon="5.1446">
        <ele>387</ele>
        <time>2026-08-23T17:20:55.304Z</time>
      </trkpt>
      <trkpt lat="44.74056" lon="5.14459">
        <ele>387</ele>
        <time>2026-08-23T17:20:56.304Z</time>
      </trkpt>
      <trkpt lat="44.74056" lon="5.14457">
        <ele>387</ele>
        <time>2026-08-23T17:20:57.304Z</time>
      </trkpt>
      <trkpt lat="44.74055" lon="5.14457">
        <ele>387</ele>
        <time>2026-08-23T17:20:58.304Z</time>
      </trkpt>
      <trkpt lat="44.74056" lon="5.14457">
        <ele>387</ele>
        <time>2026-08-23T17:20:59.304Z</time>
      </trkpt>
      <trkpt lat="44.74056" lon="5.14458">
        <ele>387</ele>
        <time>2026-08-23T17:21:00.304Z</time>
      </trkpt>
      <trkpt lat="44.74056" lon="5.14459">
        <ele>387</ele>
        <time>2026-08-23T17:21:01.304Z</time>
      </trkpt>
      <trkpt lat="44.74057" lon="5.1446">
        <ele>387</ele>
        <time>2026-08-23T17:21:02.304Z</time>
      </trkpt>
      <trkpt lat="44.74057" lon="5.14462">
        <ele>387</ele>
        <time>2026-08-23T17:21:03.304Z</time>
      </trkpt>
      <trkpt lat="44.74057" lon="5.14463">
        <ele>387</ele>
        <time>2026-08-23T17:21:04.304Z</time>
      </trkpt>
      <trkpt lat="44.74058" lon="5.14465">
        <ele>387</ele>
        <time>2026-08-23T17:21:05.304Z</time>
      </trkpt>
      <trkpt lat="44.74058" lon="5.14466">
        <ele>387</ele>
        <time>2026-08-23T17:21:06.304Z</time>
      </trkpt>
      <trkpt lat="44.74058" lon="5.14467">
        <ele>387</ele>
        <time>2026-08-23T17:21:07.304Z</time>
      </trkpt>
      <trkpt lat="44.74058" lon="5.14469">
        <ele>387</ele>
        <time>2026-08-23T17:21:08.304Z</time>
      </trkpt>
      <trkpt lat="44.74058" lon="5.14471">
        <ele>387</ele>
        <time>2026-08-23T17:21:09.304Z</time>
      </trkpt>
      <trkpt lat="44.74059" lon="5.14472">
        <ele>387</ele>
        <time>2026-08-23T17:21:10.304Z</time>
      </trkpt>
      <trkpt lat="44.74059" lon="5.14473">
        <ele>387</ele>
        <time>2026-08-23T17:21:11.304Z</time>
      </trkpt>
      <trkpt lat="44.74059" lon="5.14474">
        <ele>386</ele>
        <time>2026-08-23T17:21:12.304Z</time>
      </trkpt>
      <trkpt lat="44.74059" lon="5.14475">
        <ele>386</ele>
        <time>2026-08-23T17:21:13.304Z</time>
      </trkpt>
      <trkpt lat="44.74059" lon="5.14477">
        <ele>386</ele>
        <time>2026-08-23T17:21:14.304Z</time>
      </trkpt>
      <trkpt lat="44.74059" lon="5.14478">
        <ele>386</ele>
        <time>2026-08-23T17:21:15.304Z</time>
      </trkpt>
      <trkpt lat="44.7406" lon="5.14478">
        <ele>386</ele>
        <time>2026-08-23T17:21:16.304Z</time>
      </trkpt>
      <trkpt lat="44.74059" lon="5.14478">
        <ele>386</ele>
        <time>2026-08-23T17:21:17.304Z</time>
      </trkpt>
      <trkpt lat="44.74059" lon="5.14478">
        <ele>386</ele>
        <time>2026-08-23T17:21:18.304Z</time>
      </trkpt>
      <trkpt lat="44.74059" lon="5.14478">
        <ele>386</ele>
        <time>2026-08-23T17:21:19.304Z</time>
      </trkpt>
      <trkpt lat="44.74058" lon="5.14478">
        <ele>386</ele>
        <time>2026-08-23T17:21:32.304Z</time>
      </trkpt>
      <trkpt lat="44.74058" lon="5.14478">
        <ele>386</ele>
        <time>2026-08-23T17:21:33.304Z</time>
      </trkpt>
      <trkpt lat="44.74059" lon="5.14477">
        <ele>386</ele>
        <time>2026-08-23T17:21:34.304Z</time>
      </trkpt>
      <trkpt lat="44.74059" lon="5.14477">
        <ele>386</ele>
        <time>2026-08-23T17:21:35.304Z</time>
      </trkpt>
      <trkpt lat="44.74058" lon="5.14477">
        <ele>386</ele>
        <time>2026-08-23T17:21:36.304Z</time>
      </trkpt>
      <trkpt lat="44.74057" lon="5.14477">
        <ele>387</ele>
        <time>2026-08-23T17:21:39.629Z</time>
      </trkpt>
      <trkpt lat="44.74057" lon="5.14476">
        <ele>387</ele>
        <time>2026-08-23T17:21:40.629Z</time>
      </trkpt>
      <trkpt lat="44.74056" lon="5.14476">
        <ele>387</ele>
        <time>2026-08-23T17:21:41.629Z</time>
      </trkpt>
      <trkpt lat="44.74056" lon="5.14475">
        <ele>387</ele>
        <time>2026-08-23T17:21:42.629Z</time>
      </trkpt>
      <trkpt lat="44.74056" lon="5.14474">
        <ele>387</ele>
        <time>2026-08-23T17:21:43.629Z</time>
      </trkpt>
      <trkpt lat="44.74056" lon="5.14473">
        <ele>387</ele>
        <time>2026-08-23T17:21:44.629Z</time>
      </trkpt>
      <trkpt lat="44.74056" lon="5.14472">
        <ele>387</ele>
        <time>2026-08-23T17:21:45.629Z</time>
      </trkpt>
      <trkpt lat="44.74056" lon="5.14471">
        <ele>387</ele>
        <time>2026-08-23T17:21:46.629Z</time>
      </trkpt>
      <trkpt lat="44.74056" lon="5.1447">
        <ele>387</ele>
        <time>2026-08-23T17:21:47.629Z</time>
      </trkpt>
      <trkpt lat="44.74056" lon="5.14469">
        <ele>387</ele>
        <time>2026-08-23T17:21:48.629Z</time>
      </trkpt>
      <trkpt lat="44.74056" lon="5.14468">
        <ele>386</ele>
        <time>2026-08-23T17:21:49.629Z</time>
      </trkpt>
      <trkpt lat="44.74056" lon="5.14467">
        <ele>386</ele>
        <time>2026-08-23T17:21:50.629Z</time>
      </trkpt>
      <trkpt lat="44.74056" lon="5.14466">
        <ele>386</ele>
        <time>2026-08-23T17:21:51.629Z</time>
      </trkpt>
      <trkpt lat="44.74056" lon="5.14465">
        <ele>386</ele>
        <time>2026-08-23T17:21:52.629Z</time>
      </trkpt>
      <trkpt lat="44.74056" lon="5.14464">
        <ele>386</ele>
        <time>2026-08-23T17:21:53.629Z</time>
      </trkpt>
      <trkpt lat="44.74056" lon="5.14463">
        <ele>386</ele>
        <time>2026-08-23T17:21:54.629Z</time>
      </trkpt>
      <trkpt lat="44.74055" lon="5.14463">
        <ele>386</ele>
        <time>2026-08-23T17:21:55.629Z</time>
      </trkpt>
      <trkpt lat="44.74055" lon="5.14462">
        <ele>386</ele>
        <time>2026-08-23T17:21:56.629Z</time>
      </trkpt>
      <trkpt lat="44.74056" lon="5.14461">
        <ele>386</ele>
        <time>2026-08-23T17:21:57.629Z</time>
      </trkpt>
      <trkpt lat="44.74055" lon="5.14461">
        <ele>386</ele>
        <time>2026-08-23T17:21:58.629Z</time>
      </trkpt>
      <trkpt lat="44.74055" lon="5.1446">
        <ele>386</ele>
        <time>2026-08-23T17:21:59.629Z</time>
      </trkpt>
      <trkpt lat="44.74054" lon="5.1446">
        <ele>386</ele>
        <time>2026-08-23T17:22:00.629Z</time>
      </trkpt>
      <trkpt lat="44.74054" lon="5.14459">
        <ele>387</ele>
        <time>2026-08-23T17:22:01.629Z</time>
      </trkpt>
      <trkpt lat="44.74053" lon="5.14458">
        <ele>387</ele>
        <time>2026-08-23T17:22:02.629Z</time>
      </trkpt>
      <trkpt lat="44.74053" lon="5.14457">
        <ele>387</ele>
        <time>2026-08-23T17:22:03.629Z</time>
      </trkpt>
      <trkpt lat="44.74052" lon="5.14456">
        <ele>387</ele>
        <time>2026-08-23T17:22:04.629Z</time>
      </trkpt>
      <trkpt lat="44.74052" lon="5.14455">
        <ele>387</ele>
        <time>2026-08-23T17:22:05.629Z</time>
      </trkpt>
      <trkpt lat="44.74051" lon="5.14454">
        <ele>387</ele>
        <time>2026-08-23T17:22:06.629Z</time>
      </trkpt>
      <trkpt lat="44.74051" lon="5.14453">
        <ele>387</ele>
        <time>2026-08-23T17:22:07.629Z</time>
      </trkpt>
      <trkpt lat="44.7405" lon="5.14452">
        <ele>387</ele>
        <time>2026-08-23T17:22:08.629Z</time>
      </trkpt>
      <trkpt lat="44.7405" lon="5.1445">
        <ele>387</ele>
        <time>2026-08-23T17:22:09.629Z</time>
      </trkpt>
      <trkpt lat="44.7405" lon="5.14449">
        <ele>387</ele>
        <time>2026-08-23T17:22:10.629Z</time>
      </trkpt>
      <trkpt lat="44.7405" lon="5.14447">
        <ele>387</ele>
        <time>2026-08-23T17:22:11.629Z</time>
      </trkpt>
      <trkpt lat="44.74049" lon="5.14446">
        <ele>387</ele>
        <time>2026-08-23T17:22:12.629Z</time>
      </trkpt>
      <trkpt lat="44.74049" lon="5.14446">
        <ele>387</ele>
        <time>2026-08-23T17:22:13.629Z</time>
      </trkpt>
      <trkpt lat="44.74048" lon="5.14445">
        <ele>387</ele>
        <time>2026-08-23T17:22:14.629Z</time>
      </trkpt>
      <trkpt lat="44.74047" lon="5.14444">
        <ele>387</ele>
        <time>2026-08-23T17:22:15.629Z</time>
      </trkpt>
      <trkpt lat="44.74047" lon="5.14442">
        <ele>387</ele>
        <time>2026-08-23T17:22:16.629Z</time>
      </trkpt>
      <trkpt lat="44.74046" lon="5.14441">
        <ele>387</ele>
        <time>2026-08-23T17:22:17.629Z</time>
      </trkpt>
      <trkpt lat="44.74046" lon="5.1444">
        <ele>387</ele>
        <time>2026-08-23T17:22:18.629Z</time>
      </trkpt>
      <trkpt lat="44.74045" lon="5.14438">
        <ele>387</ele>
        <time>2026-08-23T17:22:19.629Z</time>
      </trkpt>
      <trkpt lat="44.74045" lon="5.14437">
        <ele>387</ele>
        <time>2026-08-23T17:22:20.629Z</time>
      </trkpt>
      <trkpt lat="44.74044" lon="5.14436">
        <ele>387</ele>
        <time>2026-08-23T17:22:21.629Z</time>
      </trkpt>
      <trkpt lat="44.74044" lon="5.14434">
        <ele>387</ele>
        <time>2026-08-23T17:22:22.629Z</time>
      </trkpt>
      <trkpt lat="44.74044" lon="5.14433">
        <ele>387</ele>
        <time>2026-08-23T17:22:23.629Z</time>
      </trkpt>
      <trkpt lat="44.74043" lon="5.14432">
        <ele>387</ele>
        <time>2026-08-23T17:22:24.629Z</time>
      </trkpt>
      <trkpt lat="44.74042" lon="5.1443">
        <ele>387</ele>
        <time>2026-08-23T17:22:25.629Z</time>
      </trkpt>
      <trkpt lat="44.74042" lon="5.14429">
        <ele>387</ele>
        <time>2026-08-23T17:22:26.629Z</time>
      </trkpt>
      <trkpt lat="44.74041" lon="5.14427">
        <ele>387</ele>
        <time>2026-08-23T17:22:27.629Z</time>
      </trkpt>
      <trkpt lat="44.74041" lon="5.14426">
        <ele>387</ele>
        <time>2026-08-23T17:22:28.629Z</time>
      </trkpt>
      <trkpt lat="44.7404" lon="5.14424">
        <ele>387</ele>
        <time>2026-08-23T17:22:29.629Z</time>
      </trkpt>
      <trkpt lat="44.7404" lon="5.14423">
        <ele>387</ele>
        <time>2026-08-23T17:22:30.629Z</time>
      </trkpt>
      <trkpt lat="44.74039" lon="5.14422">
        <ele>387</ele>
        <time>2026-08-23T17:22:31.629Z</time>
      </trkpt>
      <trkpt lat="44.74038" lon="5.14421">
        <ele>387</ele>
        <time>2026-08-23T17:22:32.629Z</time>
      </trkpt>
      <trkpt lat="44.74038" lon="5.14419">
        <ele>387</ele>
        <time>2026-08-23T17:22:33.629Z</time>
      </trkpt>
      <trkpt lat="44.74037" lon="5.14417">
        <ele>387</ele>
        <time>2026-08-23T17:22:34.629Z</time>
      </trkpt>
      <trkpt lat="44.74036" lon="5.14416">
        <ele>387</ele>
        <time>2026-08-23T17:22:35.629Z</time>
      </trkpt>
      <trkpt lat="44.74036" lon="5.14414">
        <ele>387</ele>
        <time>2026-08-23T17:22:36.629Z</time>
      </trkpt>
      <trkpt lat="44.74035" lon="5.14413">
        <ele>387</ele>
        <time>2026-08-23T17:22:37.629Z</time>
      </trkpt>
      <trkpt lat="44.74035" lon="5.14412">
        <ele>387</ele>
        <time>2026-08-23T17:22:38.629Z</time>
      </trkpt>
      <trkpt lat="44.74034" lon="5.14411">
        <ele>387</ele>
        <time>2026-08-23T17:22:39.629Z</time>
      </trkpt>
      <trkpt lat="44.74033" lon="5.1441">
        <ele>387</ele>
        <time>2026-08-23T17:22:40.629Z</time>
      </trkpt>
      <trkpt lat="44.74033" lon="5.14409">
        <ele>387</ele>
        <time>2026-08-23T17:22:41.629Z</time>
      </trkpt>
      <trkpt lat="44.74032" lon="5.14407">
        <ele>387</ele>
        <time>2026-08-23T17:22:42.629Z</time>
      </trkpt>
      <trkpt lat="44.74031" lon="5.14406">
        <ele>386</ele>
        <time>2026-08-23T17:22:43.629Z</time>
      </trkpt>
      <trkpt lat="44.74031" lon="5.14404">
        <ele>386</ele>
        <time>2026-08-23T17:22:44.629Z</time>
      </trkpt>
      <trkpt lat="44.7403" lon="5.14402">
        <ele>386</ele>
        <time>2026-08-23T17:22:45.629Z</time>
      </trkpt>
      <trkpt lat="44.7403" lon="5.14401">
        <ele>386</ele>
        <time>2026-08-23T17:22:46.629Z</time>
      </trkpt>
      <trkpt lat="44.74029" lon="5.144">
        <ele>386</ele>
        <time>2026-08-23T17:22:47.629Z</time>
      </trkpt>
      <trkpt lat="44.74028" lon="5.14399">
        <ele>386</ele>
        <time>2026-08-23T17:22:48.629Z</time>
      </trkpt>
      <trkpt lat="44.74028" lon="5.14398">
        <ele>386</ele>
        <time>2026-08-23T17:22:49.629Z</time>
      </trkpt>
      <trkpt lat="44.74027" lon="5.14397">
        <ele>386</ele>
        <time>2026-08-23T17:22:50.629Z</time>
      </trkpt>
      <trkpt lat="44.74027" lon="5.14396">
        <ele>386</ele>
        <time>2026-08-23T17:22:51.629Z</time>
      </trkpt>
      <trkpt lat="44.74027" lon="5.14395">
        <ele>386</ele>
        <time>2026-08-23T17:22:52.629Z</time>
      </trkpt>
      <trkpt lat="44.74026" lon="5.14394">
        <ele>386</ele>
        <time>2026-08-23T17:22:53.629Z</time>
      </trkpt>
      <trkpt lat="44.74026" lon="5.14393">
        <ele>385</ele>
        <time>2026-08-23T17:22:54.629Z</time>
      </trkpt>
      <trkpt lat="44.74026" lon="5.14392">
        <ele>385</ele>
        <time>2026-08-23T17:22:55.629Z</time>
      </trkpt>
      <trkpt lat="44.74026" lon="5.14392">
        <ele>385</ele>
        <time>2026-08-23T17:22:56.629Z</time>
      </trkpt>
      <trkpt lat="44.74026" lon="5.14392">
        <ele>385</ele>
        <time>2026-08-23T17:22:57.629Z</time>
      </trkpt>
      <trkpt lat="44.74026" lon="5.14392">
        <ele>385</ele>
        <time>2026-08-23T17:22:58.629Z</time>
      </trkpt>
      <trkpt lat="44.74024" lon="5.14391">
        <ele>385</ele>
        <time>2026-08-23T17:23:01.957Z</time>
      </trkpt>
      <trkpt lat="44.74024" lon="5.14389">
        <ele>385</ele>
        <time>2026-08-23T17:23:02.957Z</time>
      </trkpt>
      <trkpt lat="44.74023" lon="5.14388">
        <ele>385</ele>
        <time>2026-08-23T17:23:03.957Z</time>
      </trkpt>
      <trkpt lat="44.74023" lon="5.14387">
        <ele>384</ele>
        <time>2026-08-23T17:23:04.957Z</time>
      </trkpt>
      <trkpt lat="44.74022" lon="5.14386">
        <ele>384</ele>
        <time>2026-08-23T17:23:05.957Z</time>
      </trkpt>
      <trkpt lat="44.74022" lon="5.14386">
        <ele>384</ele>
        <time>2026-08-23T17:23:06.957Z</time>
      </trkpt>
      <trkpt lat="44.74021" lon="5.14385">
        <ele>384</ele>
        <time>2026-08-23T17:23:07.957Z</time>
      </trkpt>
      <trkpt lat="44.7402" lon="5.14384">
        <ele>384</ele>
        <time>2026-08-23T17:23:08.957Z</time>
      </trkpt>
      <trkpt lat="44.74019" lon="5.14382">
        <ele>384</ele>
        <time>2026-08-23T17:23:09.957Z</time>
      </trkpt>
      <trkpt lat="44.74019" lon="5.14381">
        <ele>384</ele>
        <time>2026-08-23T17:23:10.957Z</time>
      </trkpt>
      <trkpt lat="44.74018" lon="5.14379">
        <ele>384</ele>
        <time>2026-08-23T17:23:11.957Z</time>
      </trkpt>
      <trkpt lat="44.74018" lon="5.14378">
        <ele>384</ele>
        <time>2026-08-23T17:23:12.957Z</time>
      </trkpt>
      <trkpt lat="44.74017" lon="5.14376">
        <ele>384</ele>
        <time>2026-08-23T17:23:13.957Z</time>
      </trkpt>
      <trkpt lat="44.74017" lon="5.14374">
        <ele>384</ele>
        <time>2026-08-23T17:23:14.957Z</time>
      </trkpt>
      <trkpt lat="44.74017" lon="5.14373">
        <ele>383</ele>
        <time>2026-08-23T17:23:15.957Z</time>
      </trkpt>
      <trkpt lat="44.74017" lon="5.14372">
        <ele>383</ele>
        <time>2026-08-23T17:23:16.957Z</time>
      </trkpt>
      <trkpt lat="44.74017" lon="5.14371">
        <ele>383</ele>
        <time>2026-08-23T17:23:17.957Z</time>
      </trkpt>
      <trkpt lat="44.74016" lon="5.1437">
        <ele>383</ele>
        <time>2026-08-23T17:23:18.957Z</time>
      </trkpt>
      <trkpt lat="44.74016" lon="5.14369">
        <ele>383</ele>
        <time>2026-08-23T17:23:19.957Z</time>
      </trkpt>
      <trkpt lat="44.74016" lon="5.14369">
        <ele>383</ele>
        <time>2026-08-23T17:23:20.957Z</time>
      </trkpt>
      <trkpt lat="44.74015" lon="5.14369">
        <ele>383</ele>
        <time>2026-08-23T17:23:21.957Z</time>
      </trkpt>
      <trkpt lat="44.74015" lon="5.14369">
        <ele>383</ele>
        <time>2026-08-23T17:23:22.957Z</time>
      </trkpt>
      <trkpt lat="44.74015" lon="5.14369">
        <ele>383</ele>
        <time>2026-08-23T17:23:23.957Z</time>
      </trkpt>
      <trkpt lat="44.74014" lon="5.14367">
        <ele>382</ele>
        <time>2026-08-23T17:23:31.954Z</time>
      </trkpt>
      <trkpt lat="44.74013" lon="5.14367">
        <ele>382</ele>
        <time>2026-08-23T17:23:32.954Z</time>
      </trkpt>
      <trkpt lat="44.74013" lon="5.14366">
        <ele>382</ele>
        <time>2026-08-23T17:23:33.954Z</time>
      </trkpt>
      <trkpt lat="44.74013" lon="5.14365">
        <ele>382</ele>
        <time>2026-08-23T17:23:34.954Z</time>
      </trkpt>
      <trkpt lat="44.74012" lon="5.14364">
        <ele>382</ele>
        <time>2026-08-23T17:23:35.954Z</time>
      </trkpt>
      <trkpt lat="44.74012" lon="5.14364">
        <ele>382</ele>
        <time>2026-08-23T17:23:36.954Z</time>
      </trkpt>
      <trkpt lat="44.74011" lon="5.14363">
        <ele>382</ele>
        <time>2026-08-23T17:23:37.954Z</time>
      </trkpt>
      <trkpt lat="44.7401" lon="5.14362">
        <ele>382</ele>
        <time>2026-08-23T17:23:38.954Z</time>
      </trkpt>
      <trkpt lat="44.7401" lon="5.1436">
        <ele>382</ele>
        <time>2026-08-23T17:23:39.954Z</time>
      </trkpt>
      <trkpt lat="44.74009" lon="5.14358">
        <ele>382</ele>
        <time>2026-08-23T17:23:40.954Z</time>
      </trkpt>
      <trkpt lat="44.74009" lon="5.14357">
        <ele>382</ele>
        <time>2026-08-23T17:23:41.954Z</time>
      </trkpt>
      <trkpt lat="44.74008" lon="5.14356">
        <ele>382</ele>
        <time>2026-08-23T17:23:42.954Z</time>
      </trkpt>
      <trkpt lat="44.74008" lon="5.14355">
        <ele>382</ele>
        <time>2026-08-23T17:23:43.954Z</time>
      </trkpt>
      <trkpt lat="44.74007" lon="5.14354">
        <ele>382</ele>
        <time>2026-08-23T17:23:44.954Z</time>
      </trkpt>
      <trkpt lat="44.74006" lon="5.14353">
        <ele>382</ele>
        <time>2026-08-23T17:23:45.954Z</time>
      </trkpt>
      <trkpt lat="44.74005" lon="5.14352">
        <ele>382</ele>
        <time>2026-08-23T17:23:46.954Z</time>
      </trkpt>
      <trkpt lat="44.74005" lon="5.14351">
        <ele>382</ele>
        <time>2026-08-23T17:23:47.954Z</time>
      </trkpt>
      <trkpt lat="44.74004" lon="5.1435">
        <ele>381</ele>
        <time>2026-08-23T17:23:48.954Z</time>
      </trkpt>
      <trkpt lat="44.74004" lon="5.14348">
        <ele>381</ele>
        <time>2026-08-23T17:23:49.954Z</time>
      </trkpt>
      <trkpt lat="44.74003" lon="5.14347">
        <ele>381</ele>
        <time>2026-08-23T17:23:50.954Z</time>
      </trkpt>
      <trkpt lat="44.74003" lon="5.14346">
        <ele>381</ele>
        <time>2026-08-23T17:23:51.954Z</time>
      </trkpt>
      <trkpt lat="44.74002" lon="5.14345">
        <ele>381</ele>
        <time>2026-08-23T17:23:52.954Z</time>
      </trkpt>
      <trkpt lat="44.74002" lon="5.14343">
        <ele>381</ele>
        <time>2026-08-23T17:23:53.954Z</time>
      </trkpt>
      <trkpt lat="44.74002" lon="5.14342">
        <ele>381</ele>
        <time>2026-08-23T17:23:54.954Z</time>
      </trkpt>
      <trkpt lat="44.74001" lon="5.14341">
        <ele>381</ele>
        <time>2026-08-23T17:23:55.954Z</time>
      </trkpt>
      <trkpt lat="44.74001" lon="5.14339">
        <ele>381</ele>
        <time>2026-08-23T17:23:56.954Z</time>
      </trkpt>
      <trkpt lat="44.74001" lon="5.14338">
        <ele>381</ele>
        <time>2026-08-23T17:23:57.954Z</time>
      </trkpt>
      <trkpt lat="44.74001" lon="5.14337">
        <ele>381</ele>
        <time>2026-08-23T17:23:58.954Z</time>
      </trkpt>
      <trkpt lat="44.74" lon="5.14336">
        <ele>381</ele>
        <time>2026-08-23T17:23:59.954Z</time>
      </trkpt>
      <trkpt lat="44.74" lon="5.14335">
        <ele>381</ele>
        <time>2026-08-23T17:24:00.954Z</time>
      </trkpt>
      <trkpt lat="44.74" lon="5.14333">
        <ele>381</ele>
        <time>2026-08-23T17:24:01.954Z</time>
      </trkpt>
      <trkpt lat="44.73999" lon="5.14332">
        <ele>381</ele>
        <time>2026-08-23T17:24:02.954Z</time>
      </trkpt>
      <trkpt lat="44.73999" lon="5.14331">
        <ele>381</ele>
        <time>2026-08-23T17:24:03.954Z</time>
      </trkpt>
      <trkpt lat="44.73998" lon="5.1433">
        <ele>381</ele>
        <time>2026-08-23T17:24:04.954Z</time>
      </trkpt>
      <trkpt lat="44.73997" lon="5.14329">
        <ele>381</ele>
        <time>2026-08-23T17:24:05.954Z</time>
      </trkpt>
      <trkpt lat="44.73997" lon="5.14328">
        <ele>380</ele>
        <time>2026-08-23T17:24:06.954Z</time>
      </trkpt>
      <trkpt lat="44.73996" lon="5.14327">
        <ele>380</ele>
        <time>2026-08-23T17:24:07.954Z</time>
      </trkpt>
      <trkpt lat="44.73996" lon="5.14326">
        <ele>380</ele>
        <time>2026-08-23T17:24:08.954Z</time>
      </trkpt>
      <trkpt lat="44.73995" lon="5.14325">
        <ele>380</ele>
        <time>2026-08-23T17:24:09.954Z</time>
      </trkpt>
      <trkpt lat="44.73994" lon="5.14324">
        <ele>380</ele>
        <time>2026-08-23T17:24:10.954Z</time>
      </trkpt>
      <trkpt lat="44.73993" lon="5.14322">
        <ele>380</ele>
        <time>2026-08-23T17:24:11.954Z</time>
      </trkpt>
      <trkpt lat="44.73993" lon="5.14321">
        <ele>380</ele>
        <time>2026-08-23T17:24:12.954Z</time>
      </trkpt>
      <trkpt lat="44.73992" lon="5.14319">
        <ele>380</ele>
        <time>2026-08-23T17:24:13.954Z</time>
      </trkpt>
      <trkpt lat="44.73992" lon="5.14317">
        <ele>380</ele>
        <time>2026-08-23T17:24:14.954Z</time>
      </trkpt>
      <trkpt lat="44.73992" lon="5.14316">
        <ele>380</ele>
        <time>2026-08-23T17:24:15.954Z</time>
      </trkpt>
      <trkpt lat="44.73991" lon="5.14314">
        <ele>380</ele>
        <time>2026-08-23T17:24:16.954Z</time>
      </trkpt>
      <trkpt lat="44.7399" lon="5.14313">
        <ele>380</ele>
        <time>2026-08-23T17:24:17.954Z</time>
      </trkpt>
      <trkpt lat="44.7399" lon="5.14312">
        <ele>380</ele>
        <time>2026-08-23T17:24:18.954Z</time>
      </trkpt>
      <trkpt lat="44.73989" lon="5.14311">
        <ele>380</ele>
        <time>2026-08-23T17:24:19.954Z</time>
      </trkpt>
      <trkpt lat="44.73988" lon="5.1431">
        <ele>380</ele>
        <time>2026-08-23T17:24:20.954Z</time>
      </trkpt>
      <trkpt lat="44.73987" lon="5.14309">
        <ele>380</ele>
        <time>2026-08-23T17:24:21.954Z</time>
      </trkpt>
      <trkpt lat="44.73986" lon="5.14308">
        <ele>380</ele>
        <time>2026-08-23T17:24:22.954Z</time>
      </trkpt>
      <trkpt lat="44.73986" lon="5.14307">
        <ele>380</ele>
        <time>2026-08-23T17:24:23.954Z</time>
      </trkpt>
      <trkpt lat="44.73985" lon="5.14305">
        <ele>380</ele>
        <time>2026-08-23T17:24:24.954Z</time>
      </trkpt>
      <trkpt lat="44.73984" lon="5.14304">
        <ele>380</ele>
        <time>2026-08-23T17:24:25.954Z</time>
      </trkpt>
      <trkpt lat="44.73984" lon="5.14302">
        <ele>379</ele>
        <time>2026-08-23T17:24:26.954Z</time>
      </trkpt>
      <trkpt lat="44.73984" lon="5.14301">
        <ele>379</ele>
        <time>2026-08-23T17:24:27.954Z</time>
      </trkpt>
      <trkpt lat="44.73983" lon="5.14299">
        <ele>379</ele>
        <time>2026-08-23T17:24:28.954Z</time>
      </trkpt>
      <trkpt lat="44.73983" lon="5.14298">
        <ele>379</ele>
        <time>2026-08-23T17:24:29.954Z</time>
      </trkpt>
      <trkpt lat="44.73982" lon="5.14297">
        <ele>379</ele>
        <time>2026-08-23T17:24:30.954Z</time>
      </trkpt>
      <trkpt lat="44.73982" lon="5.14295">
        <ele>379</ele>
        <time>2026-08-23T17:24:31.954Z</time>
      </trkpt>
      <trkpt lat="44.73981" lon="5.14294">
        <ele>379</ele>
        <time>2026-08-23T17:24:32.954Z</time>
      </trkpt>
      <trkpt lat="44.73981" lon="5.14293">
        <ele>379</ele>
        <time>2026-08-23T17:24:33.954Z</time>
      </trkpt>
      <trkpt lat="44.7398" lon="5.14291">
        <ele>378</ele>
        <time>2026-08-23T17:24:34.954Z</time>
      </trkpt>
      <trkpt lat="44.7398" lon="5.1429">
        <ele>378</ele>
        <time>2026-08-23T17:24:35.954Z</time>
      </trkpt>
      <trkpt lat="44.73979" lon="5.14288">
        <ele>378</ele>
        <time>2026-08-23T17:24:36.954Z</time>
      </trkpt>
      <trkpt lat="44.73978" lon="5.14287">
        <ele>378</ele>
        <time>2026-08-23T17:24:37.954Z</time>
      </trkpt>
      <trkpt lat="44.73978" lon="5.14285">
        <ele>378</ele>
        <time>2026-08-23T17:24:38.954Z</time>
      </trkpt>
      <trkpt lat="44.73977" lon="5.14284">
        <ele>378</ele>
        <time>2026-08-23T17:24:39.954Z</time>
      </trkpt>
      <trkpt lat="44.73977" lon="5.14283">
        <ele>378</ele>
        <time>2026-08-23T17:24:40.954Z</time>
      </trkpt>
      <trkpt lat="44.73976" lon="5.14281">
        <ele>378</ele>
        <time>2026-08-23T17:24:41.954Z</time>
      </trkpt>
      <trkpt lat="44.73976" lon="5.1428">
        <ele>378</ele>
        <time>2026-08-23T17:24:42.954Z</time>
      </trkpt>
      <trkpt lat="44.73975" lon="5.14278">
        <ele>378</ele>
        <time>2026-08-23T17:24:43.954Z</time>
      </trkpt>
      <trkpt lat="44.73975" lon="5.14277">
        <ele>378</ele>
        <time>2026-08-23T17:24:44.954Z</time>
      </trkpt>
      <trkpt lat="44.73975" lon="5.14275">
        <ele>378</ele>
        <time>2026-08-23T17:24:45.954Z</time>
      </trkpt>
      <trkpt lat="44.73974" lon="5.14274">
        <ele>378</ele>
        <time>2026-08-23T17:24:46.954Z</time>
      </trkpt>
      <trkpt lat="44.73974" lon="5.14272">
        <ele>378</ele>
        <time>2026-08-23T17:24:47.954Z</time>
      </trkpt>
      <trkpt lat="44.73974" lon="5.14271">
        <ele>378</ele>
        <time>2026-08-23T17:24:48.954Z</time>
      </trkpt>
      <trkpt lat="44.73974" lon="5.1427">
        <ele>377</ele>
        <time>2026-08-23T17:24:49.954Z</time>
      </trkpt>
      <trkpt lat="44.73974" lon="5.14268">
        <ele>377</ele>
        <time>2026-08-23T17:24:50.954Z</time>
      </trkpt>
      <trkpt lat="44.73974" lon="5.14267">
        <ele>377</ele>
        <time>2026-08-23T17:24:51.954Z</time>
      </trkpt>
      <trkpt lat="44.73974" lon="5.14266">
        <ele>377</ele>
        <time>2026-08-23T17:24:52.954Z</time>
      </trkpt>
      <trkpt lat="44.73974" lon="5.14265">
        <ele>377</ele>
        <time>2026-08-23T17:24:53.954Z</time>
      </trkpt>
      <trkpt lat="44.73974" lon="5.14264">
        <ele>377</ele>
        <time>2026-08-23T17:24:54.954Z</time>
      </trkpt>
      <trkpt lat="44.73974" lon="5.14262">
        <ele>377</ele>
        <time>2026-08-23T17:24:55.954Z</time>
      </trkpt>
      <trkpt lat="44.73974" lon="5.14261">
        <ele>376</ele>
        <time>2026-08-23T17:24:56.954Z</time>
      </trkpt>
      <trkpt lat="44.73974" lon="5.14259">
        <ele>376</ele>
        <time>2026-08-23T17:24:57.954Z</time>
      </trkpt>
      <trkpt lat="44.73974" lon="5.14258">
        <ele>376</ele>
        <time>2026-08-23T17:24:58.954Z</time>
      </trkpt>
      <trkpt lat="44.73974" lon="5.14256">
        <ele>376</ele>
        <time>2026-08-23T17:24:59.954Z</time>
      </trkpt>
      <trkpt lat="44.73974" lon="5.14254">
        <ele>376</ele>
        <time>2026-08-23T17:25:00.954Z</time>
      </trkpt>
      <trkpt lat="44.73974" lon="5.14253">
        <ele>376</ele>
        <time>2026-08-23T17:25:01.954Z</time>
      </trkpt>
      <trkpt lat="44.73973" lon="5.14251">
        <ele>376</ele>
        <time>2026-08-23T17:25:02.954Z</time>
      </trkpt>
      <trkpt lat="44.73973" lon="5.14249">
        <ele>376</ele>
        <time>2026-08-23T17:25:03.954Z</time>
      </trkpt>
      <trkpt lat="44.73973" lon="5.14248">
        <ele>376</ele>
        <time>2026-08-23T17:25:04.954Z</time>
      </trkpt>
      <trkpt lat="44.73973" lon="5.14246">
        <ele>376</ele>
        <time>2026-08-23T17:25:05.954Z</time>
      </trkpt>
      <trkpt lat="44.73973" lon="5.14245">
        <ele>376</ele>
        <time>2026-08-23T17:25:06.954Z</time>
      </trkpt>
      <trkpt lat="44.73973" lon="5.14243">
        <ele>376</ele>
        <time>2026-08-23T17:25:07.954Z</time>
      </trkpt>
      <trkpt lat="44.73973" lon="5.14241">
        <ele>376</ele>
        <time>2026-08-23T17:25:08.954Z</time>
      </trkpt>
      <trkpt lat="44.73973" lon="5.1424">
        <ele>376</ele>
        <time>2026-08-23T17:25:09.954Z</time>
      </trkpt>
      <trkpt lat="44.73972" lon="5.14238">
        <ele>376</ele>
        <time>2026-08-23T17:25:10.954Z</time>
      </trkpt>
      <trkpt lat="44.73972" lon="5.14237">
        <ele>376</ele>
        <time>2026-08-23T17:25:11.954Z</time>
      </trkpt>
      <trkpt lat="44.73972" lon="5.14235">
        <ele>376</ele>
        <time>2026-08-23T17:25:12.954Z</time>
      </trkpt>
      <trkpt lat="44.73972" lon="5.14233">
        <ele>376</ele>
        <time>2026-08-23T17:25:13.954Z</time>
      </trkpt>
      <trkpt lat="44.73972" lon="5.14232">
        <ele>376</ele>
        <time>2026-08-23T17:25:14.954Z</time>
      </trkpt>
      <trkpt lat="44.73971" lon="5.1423">
        <ele>376</ele>
        <time>2026-08-23T17:25:15.954Z</time>
      </trkpt>
      <trkpt lat="44.73971" lon="5.14228">
        <ele>376</ele>
        <time>2026-08-23T17:25:16.954Z</time>
      </trkpt>
      <trkpt lat="44.73971" lon="5.14227">
        <ele>376</ele>
        <time>2026-08-23T17:25:17.954Z</time>
      </trkpt>
      <trkpt lat="44.73971" lon="5.14225">
        <ele>375</ele>
        <time>2026-08-23T17:25:18.954Z</time>
      </trkpt>
      <trkpt lat="44.73971" lon="5.14223">
        <ele>375</ele>
        <time>2026-08-23T17:25:19.954Z</time>
      </trkpt>
      <trkpt lat="44.73971" lon="5.14221">
        <ele>375</ele>
        <time>2026-08-23T17:25:20.954Z</time>
      </trkpt>
      <trkpt lat="44.7397" lon="5.1422">
        <ele>375</ele>
        <time>2026-08-23T17:25:21.954Z</time>
      </trkpt>
      <trkpt lat="44.7397" lon="5.14219">
        <ele>375</ele>
        <time>2026-08-23T17:25:22.954Z</time>
      </trkpt>
      <trkpt lat="44.7397" lon="5.14218">
        <ele>375</ele>
        <time>2026-08-23T17:25:23.954Z</time>
      </trkpt>
      <trkpt lat="44.7397" lon="5.14217">
        <ele>375</ele>
        <time>2026-08-23T17:25:24.954Z</time>
      </trkpt>
      <trkpt lat="44.7397" lon="5.14215">
        <ele>375</ele>
        <time>2026-08-23T17:25:25.954Z</time>
      </trkpt>
      <trkpt lat="44.7397" lon="5.14214">
        <ele>375</ele>
        <time>2026-08-23T17:25:26.954Z</time>
      </trkpt>
      <trkpt lat="44.7397" lon="5.14212">
        <ele>375</ele>
        <time>2026-08-23T17:25:27.954Z</time>
      </trkpt>
      <trkpt lat="44.7397" lon="5.1421">
        <ele>375</ele>
        <time>2026-08-23T17:25:28.954Z</time>
      </trkpt>
      <trkpt lat="44.7397" lon="5.14209">
        <ele>375</ele>
        <time>2026-08-23T17:25:29.954Z</time>
      </trkpt>
      <trkpt lat="44.7397" lon="5.14207">
        <ele>375</ele>
        <time>2026-08-23T17:25:30.954Z</time>
      </trkpt>
      <trkpt lat="44.7397" lon="5.14205">
        <ele>375</ele>
        <time>2026-08-23T17:25:31.954Z</time>
      </trkpt>
      <trkpt lat="44.73971" lon="5.14204">
        <ele>375</ele>
        <time>2026-08-23T17:25:32.954Z</time>
      </trkpt>
      <trkpt lat="44.73971" lon="5.14202">
        <ele>375</ele>
        <time>2026-08-23T17:25:33.954Z</time>
      </trkpt>
      <trkpt lat="44.73971" lon="5.14201">
        <ele>375</ele>
        <time>2026-08-23T17:25:34.954Z</time>
      </trkpt>
      <trkpt lat="44.73971" lon="5.14199">
        <ele>375</ele>
        <time>2026-08-23T17:25:35.954Z</time>
      </trkpt>
      <trkpt lat="44.73972" lon="5.14198">
        <ele>375</ele>
        <time>2026-08-23T17:25:36.954Z</time>
      </trkpt>
      <trkpt lat="44.73972" lon="5.14197">
        <ele>374</ele>
        <time>2026-08-23T17:25:37.954Z</time>
      </trkpt>
      <trkpt lat="44.73972" lon="5.14195">
        <ele>374</ele>
        <time>2026-08-23T17:25:38.954Z</time>
      </trkpt>
      <trkpt lat="44.73973" lon="5.14194">
        <ele>374</ele>
        <time>2026-08-23T17:25:39.954Z</time>
      </trkpt>
      <trkpt lat="44.73974" lon="5.14194">
        <ele>374</ele>
        <time>2026-08-23T17:25:40.954Z</time>
      </trkpt>
      <trkpt lat="44.73974" lon="5.14193">
        <ele>374</ele>
        <time>2026-08-23T17:25:41.954Z</time>
      </trkpt>
      <trkpt lat="44.73974" lon="5.14193">
        <ele>374</ele>
        <time>2026-08-23T17:25:42.954Z</time>
      </trkpt>
      <trkpt lat="44.73975" lon="5.14192">
        <ele>374</ele>
        <time>2026-08-23T17:25:43.954Z</time>
      </trkpt>
      <trkpt lat="44.73975" lon="5.14192">
        <ele>374</ele>
        <time>2026-08-23T17:25:44.954Z</time>
      </trkpt>
      <trkpt lat="44.73976" lon="5.14191">
        <ele>374</ele>
        <time>2026-08-23T17:25:45.954Z</time>
      </trkpt>
      <trkpt lat="44.73977" lon="5.1419">
        <ele>374</ele>
        <time>2026-08-23T17:25:46.954Z</time>
      </trkpt>
      <trkpt lat="44.73978" lon="5.14188">
        <ele>374</ele>
        <time>2026-08-23T17:25:47.954Z</time>
      </trkpt>
      <trkpt lat="44.73979" lon="5.14188">
        <ele>374</ele>
        <time>2026-08-23T17:25:48.954Z</time>
      </trkpt>
      <trkpt lat="44.73979" lon="5.14187">
        <ele>374</ele>
        <time>2026-08-23T17:25:49.954Z</time>
      </trkpt>
      <trkpt lat="44.7398" lon="5.14186">
        <ele>374</ele>
        <time>2026-08-23T17:25:50.954Z</time>
      </trkpt>
      <trkpt lat="44.73981" lon="5.14185">
        <ele>373</ele>
        <time>2026-08-23T17:25:51.954Z</time>
      </trkpt>
      <trkpt lat="44.73982" lon="5.14184">
        <ele>373</ele>
        <time>2026-08-23T17:25:52.954Z</time>
      </trkpt>
      <trkpt lat="44.73983" lon="5.14183">
        <ele>373</ele>
        <time>2026-08-23T17:25:53.954Z</time>
      </trkpt>
      <trkpt lat="44.73984" lon="5.14182">
        <ele>373</ele>
        <time>2026-08-23T17:25:54.954Z</time>
      </trkpt>
      <trkpt lat="44.73985" lon="5.14181">
        <ele>373</ele>
        <time>2026-08-23T17:25:55.954Z</time>
      </trkpt>
      <trkpt lat="44.73985" lon="5.1418">
        <ele>373</ele>
        <time>2026-08-23T17:25:56.954Z</time>
      </trkpt>
      <trkpt lat="44.73986" lon="5.1418">
        <ele>373</ele>
        <time>2026-08-23T17:25:57.954Z</time>
      </trkpt>
      <trkpt lat="44.73987" lon="5.14179">
        <ele>373</ele>
        <time>2026-08-23T17:25:58.954Z</time>
      </trkpt>
      <trkpt lat="44.73988" lon="5.14178">
        <ele>373</ele>
        <time>2026-08-23T17:25:59.954Z</time>
      </trkpt>
      <trkpt lat="44.73989" lon="5.14177">
        <ele>373</ele>
        <time>2026-08-23T17:26:00.954Z</time>
      </trkpt>
      <trkpt lat="44.7399" lon="5.14176">
        <ele>373</ele>
        <time>2026-08-23T17:26:01.954Z</time>
      </trkpt>
      <trkpt lat="44.73991" lon="5.14175">
        <ele>373</ele>
        <time>2026-08-23T17:26:02.954Z</time>
      </trkpt>
      <trkpt lat="44.73992" lon="5.14175">
        <ele>373</ele>
        <time>2026-08-23T17:26:03.954Z</time>
      </trkpt>
      <trkpt lat="44.73993" lon="5.14174">
        <ele>373</ele>
        <time>2026-08-23T17:26:04.954Z</time>
      </trkpt>
      <trkpt lat="44.73994" lon="5.14173">
        <ele>373</ele>
        <time>2026-08-23T17:26:05.954Z</time>
      </trkpt>
      <trkpt lat="44.73995" lon="5.14172">
        <ele>373</ele>
        <time>2026-08-23T17:26:06.954Z</time>
      </trkpt>
      <trkpt lat="44.73996" lon="5.14172">
        <ele>373</ele>
        <time>2026-08-23T17:26:07.954Z</time>
      </trkpt>
      <trkpt lat="44.73997" lon="5.14171">
        <ele>373</ele>
        <time>2026-08-23T17:26:08.954Z</time>
      </trkpt>
      <trkpt lat="44.73998" lon="5.1417">
        <ele>373</ele>
        <time>2026-08-23T17:26:09.954Z</time>
      </trkpt>
      <trkpt lat="44.73998" lon="5.14169">
        <ele>373</ele>
        <time>2026-08-23T17:26:10.954Z</time>
      </trkpt>
      <trkpt lat="44.73999" lon="5.14168">
        <ele>373</ele>
        <time>2026-08-23T17:26:11.954Z</time>
      </trkpt>
      <trkpt lat="44.74" lon="5.14167">
        <ele>373</ele>
        <time>2026-08-23T17:26:12.954Z</time>
      </trkpt>
      <trkpt lat="44.74001" lon="5.14166">
        <ele>373</ele>
        <time>2026-08-23T17:26:13.954Z</time>
      </trkpt>
      <trkpt lat="44.74002" lon="5.14166">
        <ele>373</ele>
        <time>2026-08-23T17:26:14.954Z</time>
      </trkpt>
      <trkpt lat="44.74002" lon="5.14165">
        <ele>373</ele>
        <time>2026-08-23T17:26:15.954Z</time>
      </trkpt>
      <trkpt lat="44.74003" lon="5.14164">
        <ele>373</ele>
        <time>2026-08-23T17:26:16.954Z</time>
      </trkpt>
      <trkpt lat="44.74004" lon="5.14163">
        <ele>373</ele>
        <time>2026-08-23T17:26:17.954Z</time>
      </trkpt>
      <trkpt lat="44.74005" lon="5.14162">
        <ele>373</ele>
        <time>2026-08-23T17:26:18.954Z</time>
      </trkpt>
      <trkpt lat="44.74006" lon="5.14162">
        <ele>373</ele>
        <time>2026-08-23T17:26:19.954Z</time>
      </trkpt>
      <trkpt lat="44.74007" lon="5.14161">
        <ele>373</ele>
        <time>2026-08-23T17:26:20.954Z</time>
      </trkpt>
      <trkpt lat="44.74008" lon="5.1416">
        <ele>373</ele>
        <time>2026-08-23T17:26:21.954Z</time>
      </trkpt>
      <trkpt lat="44.74009" lon="5.14159">
        <ele>373</ele>
        <time>2026-08-23T17:26:22.954Z</time>
      </trkpt>
      <trkpt lat="44.74009" lon="5.14158">
        <ele>373</ele>
        <time>2026-08-23T17:26:23.954Z</time>
      </trkpt>
      <trkpt lat="44.7401" lon="5.14157">
        <ele>373</ele>
        <time>2026-08-23T17:26:24.954Z</time>
      </trkpt>
      <trkpt lat="44.74011" lon="5.14157">
        <ele>373</ele>
        <time>2026-08-23T17:26:25.954Z</time>
      </trkpt>
      <trkpt lat="44.74012" lon="5.14156">
        <ele>373</ele>
        <time>2026-08-23T17:26:26.954Z</time>
      </trkpt>
      <trkpt lat="44.74013" lon="5.14155">
        <ele>372</ele>
        <time>2026-08-23T17:26:27.954Z</time>
      </trkpt>
      <trkpt lat="44.74014" lon="5.14154">
        <ele>372</ele>
        <time>2026-08-23T17:26:28.954Z</time>
      </trkpt>
      <trkpt lat="44.74015" lon="5.14154">
        <ele>372</ele>
        <time>2026-08-23T17:26:29.954Z</time>
      </trkpt>
      <trkpt lat="44.74016" lon="5.14153">
        <ele>372</ele>
        <time>2026-08-23T17:26:30.954Z</time>
      </trkpt>
      <trkpt lat="44.74017" lon="5.14152">
        <ele>372</ele>
        <time>2026-08-23T17:26:31.954Z</time>
      </trkpt>
      <trkpt lat="44.74018" lon="5.14152">
        <ele>372</ele>
        <time>2026-08-23T17:26:32.954Z</time>
      </trkpt>
      <trkpt lat="44.74019" lon="5.14151">
        <ele>372</ele>
        <time>2026-08-23T17:26:33.954Z</time>
      </trkpt>
      <trkpt lat="44.7402" lon="5.1415">
        <ele>372</ele>
        <time>2026-08-23T17:26:34.954Z</time>
      </trkpt>
      <trkpt lat="44.74021" lon="5.14149">
        <ele>371</ele>
        <time>2026-08-23T17:26:35.954Z</time>
      </trkpt>
      <trkpt lat="44.74022" lon="5.14149">
        <ele>371</ele>
        <time>2026-08-23T17:26:36.954Z</time>
      </trkpt>
      <trkpt lat="44.74023" lon="5.14148">
        <ele>371</ele>
        <time>2026-08-23T17:26:37.954Z</time>
      </trkpt>
      <trkpt lat="44.74024" lon="5.14147">
        <ele>371</ele>
        <time>2026-08-23T17:26:38.954Z</time>
      </trkpt>
      <trkpt lat="44.74025" lon="5.14147">
        <ele>371</ele>
        <time>2026-08-23T17:26:39.954Z</time>
      </trkpt>
      <trkpt lat="44.74026" lon="5.14146">
        <ele>370</ele>
        <time>2026-08-23T17:26:40.954Z</time>
      </trkpt>
      <trkpt lat="44.74027" lon="5.14145">
        <ele>370</ele>
        <time>2026-08-23T17:26:41.954Z</time>
      </trkpt>
      <trkpt lat="44.74028" lon="5.14145">
        <ele>370</ele>
        <time>2026-08-23T17:26:42.954Z</time>
      </trkpt>
      <trkpt lat="44.74029" lon="5.14145">
        <ele>370</ele>
        <time>2026-08-23T17:26:43.954Z</time>
      </trkpt>
      <trkpt lat="44.7403" lon="5.14144">
        <ele>370</ele>
        <time>2026-08-23T17:26:44.954Z</time>
      </trkpt>
      <trkpt lat="44.74031" lon="5.14143">
        <ele>369</ele>
        <time>2026-08-23T17:26:45.954Z</time>
      </trkpt>
      <trkpt lat="44.74032" lon="5.14142">
        <ele>369</ele>
        <time>2026-08-23T17:26:46.954Z</time>
      </trkpt>
      <trkpt lat="44.74033" lon="5.14142">
        <ele>369</ele>
        <time>2026-08-23T17:26:47.954Z</time>
      </trkpt>
      <trkpt lat="44.74034" lon="5.14141">
        <ele>369</ele>
        <time>2026-08-23T17:26:48.954Z</time>
      </trkpt>
      <trkpt lat="44.74035" lon="5.14141">
        <ele>369</ele>
        <time>2026-08-23T17:26:49.954Z</time>
      </trkpt>
      <trkpt lat="44.74036" lon="5.1414">
        <ele>369</ele>
        <time>2026-08-23T17:26:50.954Z</time>
      </trkpt>
      <trkpt lat="44.74037" lon="5.1414">
        <ele>368</ele>
        <time>2026-08-23T17:26:51.954Z</time>
      </trkpt>
      <trkpt lat="44.74038" lon="5.14139">
        <ele>368</ele>
        <time>2026-08-23T17:26:52.954Z</time>
      </trkpt>
      <trkpt lat="44.74039" lon="5.14139">
        <ele>368</ele>
        <time>2026-08-23T17:26:53.954Z</time>
      </trkpt>
      <trkpt lat="44.7404" lon="5.14139">
        <ele>368</ele>
        <time>2026-08-23T17:26:54.954Z</time>
      </trkpt>
      <trkpt lat="44.74041" lon="5.14138">
        <ele>368</ele>
        <time>2026-08-23T17:26:55.954Z</time>
      </trkpt>
      <trkpt lat="44.74042" lon="5.14138">
        <ele>368</ele>
        <time>2026-08-23T17:26:56.954Z</time>
      </trkpt>
      <trkpt lat="44.74043" lon="5.14138">
        <ele>368</ele>
        <time>2026-08-23T17:26:57.954Z</time>
      </trkpt>
      <trkpt lat="44.74044" lon="5.14138">
        <ele>368</ele>
        <time>2026-08-23T17:26:58.954Z</time>
      </trkpt>
      <trkpt lat="44.74045" lon="5.14138">
        <ele>367</ele>
        <time>2026-08-23T17:26:59.954Z</time>
      </trkpt>
      <trkpt lat="44.74046" lon="5.14137">
        <ele>367</ele>
        <time>2026-08-23T17:27:00.954Z</time>
      </trkpt>
      <trkpt lat="44.74047" lon="5.14137">
        <ele>367</ele>
        <time>2026-08-23T17:27:01.954Z</time>
      </trkpt>
      <trkpt lat="44.74048" lon="5.14137">
        <ele>367</ele>
        <time>2026-08-23T17:27:02.954Z</time>
      </trkpt>
      <trkpt lat="44.7405" lon="5.14137">
        <ele>367</ele>
        <time>2026-08-23T17:27:03.954Z</time>
      </trkpt>
      <trkpt lat="44.74051" lon="5.14138">
        <ele>367</ele>
        <time>2026-08-23T17:27:04.954Z</time>
      </trkpt>
      <trkpt lat="44.74052" lon="5.14138">
        <ele>367</ele>
        <time>2026-08-23T17:27:05.954Z</time>
      </trkpt>
      <trkpt lat="44.74053" lon="5.14138">
        <ele>367</ele>
        <time>2026-08-23T17:27:06.954Z</time>
      </trkpt>
      <trkpt lat="44.74054" lon="5.14138">
        <ele>367</ele>
        <time>2026-08-23T17:27:07.954Z</time>
      </trkpt>
      <trkpt lat="44.74055" lon="5.14139">
        <ele>367</ele>
        <time>2026-08-23T17:27:08.954Z</time>
      </trkpt>
      <trkpt lat="44.74056" lon="5.14139">
        <ele>367</ele>
        <time>2026-08-23T17:27:09.954Z</time>
      </trkpt>
      <trkpt lat="44.74057" lon="5.1414">
        <ele>367</ele>
        <time>2026-08-23T17:27:10.954Z</time>
      </trkpt>
      <trkpt lat="44.74058" lon="5.1414">
        <ele>367</ele>
        <time>2026-08-23T17:27:11.954Z</time>
      </trkpt>
      <trkpt lat="44.74059" lon="5.14141">
        <ele>367</ele>
        <time>2026-08-23T17:27:12.954Z</time>
      </trkpt>
      <trkpt lat="44.7406" lon="5.14142">
        <ele>367</ele>
        <time>2026-08-23T17:27:13.954Z</time>
      </trkpt>
      <trkpt lat="44.74061" lon="5.14143">
        <ele>367</ele>
        <time>2026-08-23T17:27:14.954Z</time>
      </trkpt>
      <trkpt lat="44.74062" lon="5.14144">
        <ele>367</ele>
        <time>2026-08-23T17:27:15.954Z</time>
      </trkpt>
      <trkpt lat="44.74063" lon="5.14144">
        <ele>366</ele>
        <time>2026-08-23T17:27:16.954Z</time>
      </trkpt>
      <trkpt lat="44.74064" lon="5.14145">
        <ele>366</ele>
        <time>2026-08-23T17:27:17.954Z</time>
      </trkpt>
      <trkpt lat="44.74065" lon="5.14146">
        <ele>366</ele>
        <time>2026-08-23T17:27:18.954Z</time>
      </trkpt>
      <trkpt lat="44.74066" lon="5.14147">
        <ele>366</ele>
        <time>2026-08-23T17:27:19.954Z</time>
      </trkpt>
      <trkpt lat="44.74067" lon="5.14148">
        <ele>366</ele>
        <time>2026-08-23T17:27:20.954Z</time>
      </trkpt>
      <trkpt lat="44.74068" lon="5.14149">
        <ele>366</ele>
        <time>2026-08-23T17:27:21.954Z</time>
      </trkpt>
      <trkpt lat="44.74068" lon="5.1415">
        <ele>366</ele>
        <time>2026-08-23T17:27:22.954Z</time>
      </trkpt>
      <trkpt lat="44.74069" lon="5.14151">
        <ele>366</ele>
        <time>2026-08-23T17:27:23.954Z</time>
      </trkpt>
      <trkpt lat="44.7407" lon="5.14152">
        <ele>366</ele>
        <time>2026-08-23T17:27:24.954Z</time>
      </trkpt>
      <trkpt lat="44.74071" lon="5.14153">
        <ele>366</ele>
        <time>2026-08-23T17:27:25.954Z</time>
      </trkpt>
      <trkpt lat="44.74072" lon="5.14153">
        <ele>366</ele>
        <time>2026-08-23T17:27:26.954Z</time>
      </trkpt>
      <trkpt lat="44.74073" lon="5.14154">
        <ele>365</ele>
        <time>2026-08-23T17:27:27.954Z</time>
      </trkpt>
      <trkpt lat="44.74074" lon="5.14155">
        <ele>365</ele>
        <time>2026-08-23T17:27:28.954Z</time>
      </trkpt>
      <trkpt lat="44.74075" lon="5.14155">
        <ele>365</ele>
        <time>2026-08-23T17:27:29.954Z</time>
      </trkpt>
      <trkpt lat="44.74076" lon="5.14156">
        <ele>365</ele>
        <time>2026-08-23T17:27:30.954Z</time>
      </trkpt>
      <trkpt lat="44.74076" lon="5.14156">
        <ele>365</ele>
        <time>2026-08-23T17:27:31.954Z</time>
      </trkpt>
      <trkpt lat="44.74077" lon="5.14156">
        <ele>365</ele>
        <time>2026-08-23T17:27:32.954Z</time>
      </trkpt>
      <trkpt lat="44.74078" lon="5.14157">
        <ele>365</ele>
        <time>2026-08-23T17:27:33.954Z</time>
      </trkpt>
      <trkpt lat="44.74079" lon="5.14157">
        <ele>365</ele>
        <time>2026-08-23T17:27:34.954Z</time>
      </trkpt>
      <trkpt lat="44.7408" lon="5.14157">
        <ele>365</ele>
        <time>2026-08-23T17:27:35.954Z</time>
      </trkpt>
      <trkpt lat="44.74081" lon="5.14157">
        <ele>365</ele>
        <time>2026-08-23T17:27:36.954Z</time>
      </trkpt>
      <trkpt lat="44.74082" lon="5.14157">
        <ele>365</ele>
        <time>2026-08-23T17:27:37.954Z</time>
      </trkpt>
      <trkpt lat="44.74083" lon="5.14156">
        <ele>365</ele>
        <time>2026-08-23T17:27:38.954Z</time>
      </trkpt>
      <trkpt lat="44.74084" lon="5.14156">
        <ele>364</ele>
        <time>2026-08-23T17:27:39.954Z</time>
      </trkpt>
      <trkpt lat="44.74085" lon="5.14155">
        <ele>364</ele>
        <time>2026-08-23T17:27:40.954Z</time>
      </trkpt>
      <trkpt lat="44.74085" lon="5.14155">
        <ele>364</ele>
        <time>2026-08-23T17:27:41.954Z</time>
      </trkpt>
      <trkpt lat="44.74086" lon="5.14154">
        <ele>364</ele>
        <time>2026-08-23T17:27:42.954Z</time>
      </trkpt>
      <trkpt lat="44.74087" lon="5.14153">
        <ele>364</ele>
        <time>2026-08-23T17:27:43.954Z</time>
      </trkpt>
      <trkpt lat="44.74088" lon="5.14152">
        <ele>364</ele>
        <time>2026-08-23T17:27:44.954Z</time>
      </trkpt>
      <trkpt lat="44.74089" lon="5.14151">
        <ele>364</ele>
        <time>2026-08-23T17:27:45.954Z</time>
      </trkpt>
      <trkpt lat="44.7409" lon="5.1415">
        <ele>364</ele>
        <time>2026-08-23T17:27:46.954Z</time>
      </trkpt>
      <trkpt lat="44.74091" lon="5.14149">
        <ele>364</ele>
        <time>2026-08-23T17:27:47.954Z</time>
      </trkpt>
      <trkpt lat="44.74091" lon="5.14148">
        <ele>364</ele>
        <time>2026-08-23T17:27:48.954Z</time>
      </trkpt>
      <trkpt lat="44.74092" lon="5.14147">
        <ele>363</ele>
        <time>2026-08-23T17:27:49.954Z</time>
      </trkpt>
      <trkpt lat="44.74093" lon="5.14146">
        <ele>363</ele>
        <time>2026-08-23T17:27:50.954Z</time>
      </trkpt>
      <trkpt lat="44.74093" lon="5.14145">
        <ele>363</ele>
        <time>2026-08-23T17:27:51.954Z</time>
      </trkpt>
      <trkpt lat="44.74094" lon="5.14144">
        <ele>363</ele>
        <time>2026-08-23T17:27:52.954Z</time>
      </trkpt>
      <trkpt lat="44.74094" lon="5.14142">
        <ele>363</ele>
        <time>2026-08-23T17:27:53.954Z</time>
      </trkpt>
      <trkpt lat="44.74095" lon="5.14141">
        <ele>363</ele>
        <time>2026-08-23T17:27:54.954Z</time>
      </trkpt>
      <trkpt lat="44.74095" lon="5.1414">
        <ele>363</ele>
        <time>2026-08-23T17:27:55.954Z</time>
      </trkpt>
      <trkpt lat="44.74095" lon="5.14138">
        <ele>363</ele>
        <time>2026-08-23T17:27:56.954Z</time>
      </trkpt>
      <trkpt lat="44.74096" lon="5.14137">
        <ele>363</ele>
        <time>2026-08-23T17:27:57.954Z</time>
      </trkpt>
      <trkpt lat="44.74096" lon="5.14136">
        <ele>363</ele>
        <time>2026-08-23T17:27:58.954Z</time>
      </trkpt>
      <trkpt lat="44.74097" lon="5.14134">
        <ele>363</ele>
        <time>2026-08-23T17:27:59.954Z</time>
      </trkpt>
      <trkpt lat="44.74097" lon="5.14132">
        <ele>363</ele>
        <time>2026-08-23T17:28:00.954Z</time>
      </trkpt>
      <trkpt lat="44.74097" lon="5.1413">
        <ele>363</ele>
        <time>2026-08-23T17:28:01.954Z</time>
      </trkpt>
      <trkpt lat="44.74097" lon="5.14129">
        <ele>363</ele>
        <time>2026-08-23T17:28:02.954Z</time>
      </trkpt>
      <trkpt lat="44.74097" lon="5.14127">
        <ele>363</ele>
        <time>2026-08-23T17:28:03.954Z</time>
      </trkpt>
      <trkpt lat="44.74097" lon="5.14125">
        <ele>363</ele>
        <time>2026-08-23T17:28:04.954Z</time>
      </trkpt>
      <trkpt lat="44.74097" lon="5.14123">
        <ele>363</ele>
        <time>2026-08-23T17:28:05.954Z</time>
      </trkpt>
      <trkpt lat="44.74097" lon="5.14122">
        <ele>363</ele>
        <time>2026-08-23T17:28:06.954Z</time>
      </trkpt>
      <trkpt lat="44.74097" lon="5.1412">
        <ele>363</ele>
        <time>2026-08-23T17:28:07.954Z</time>
      </trkpt>
      <trkpt lat="44.74097" lon="5.14118">
        <ele>363</ele>
        <time>2026-08-23T17:28:08.954Z</time>
      </trkpt>
      <trkpt lat="44.74096" lon="5.14117">
        <ele>363</ele>
        <time>2026-08-23T17:28:09.954Z</time>
      </trkpt>
      <trkpt lat="44.74096" lon="5.14115">
        <ele>363</ele>
        <time>2026-08-23T17:28:10.954Z</time>
      </trkpt>
      <trkpt lat="44.74096" lon="5.14113">
        <ele>363</ele>
        <time>2026-08-23T17:28:11.954Z</time>
      </trkpt>
      <trkpt lat="44.74096" lon="5.14112">
        <ele>363</ele>
        <time>2026-08-23T17:28:12.954Z</time>
      </trkpt>
      <trkpt lat="44.74096" lon="5.1411">
        <ele>363</ele>
        <time>2026-08-23T17:28:13.954Z</time>
      </trkpt>
      <trkpt lat="44.74095" lon="5.14109">
        <ele>363</ele>
        <time>2026-08-23T17:28:14.954Z</time>
      </trkpt>
      <trkpt lat="44.74095" lon="5.14107">
        <ele>364</ele>
        <time>2026-08-23T17:28:15.954Z</time>
      </trkpt>
      <trkpt lat="44.74095" lon="5.14105">
        <ele>364</ele>
        <time>2026-08-23T17:28:16.954Z</time>
      </trkpt>
      <trkpt lat="44.74094" lon="5.14103">
        <ele>364</ele>
        <time>2026-08-23T17:28:17.954Z</time>
      </trkpt>
      <trkpt lat="44.74094" lon="5.14102">
        <ele>364</ele>
        <time>2026-08-23T17:28:18.954Z</time>
      </trkpt>
      <trkpt lat="44.74093" lon="5.141">
        <ele>364</ele>
        <time>2026-08-23T17:28:19.954Z</time>
      </trkpt>
      <trkpt lat="44.74093" lon="5.14099">
        <ele>364</ele>
        <time>2026-08-23T17:28:20.954Z</time>
      </trkpt>
      <trkpt lat="44.74093" lon="5.14097">
        <ele>364</ele>
        <time>2026-08-23T17:28:21.954Z</time>
      </trkpt>
      <trkpt lat="44.74093" lon="5.14096">
        <ele>364</ele>
        <time>2026-08-23T17:28:22.954Z</time>
      </trkpt>
      <trkpt lat="44.74093" lon="5.14094">
        <ele>364</ele>
        <time>2026-08-23T17:28:23.954Z</time>
      </trkpt>
      <trkpt lat="44.74092" lon="5.14093">
        <ele>364</ele>
        <time>2026-08-23T17:28:24.954Z</time>
      </trkpt>
      <trkpt lat="44.74092" lon="5.14091">
        <ele>364</ele>
        <time>2026-08-23T17:28:25.954Z</time>
      </trkpt>
      <trkpt lat="44.74091" lon="5.1409">
        <ele>364</ele>
        <time>2026-08-23T17:28:26.954Z</time>
      </trkpt>
      <trkpt lat="44.74091" lon="5.14088">
        <ele>364</ele>
        <time>2026-08-23T17:28:27.954Z</time>
      </trkpt>
      <trkpt lat="44.7409" lon="5.14087">
        <ele>364</ele>
        <time>2026-08-23T17:28:28.954Z</time>
      </trkpt>
      <trkpt lat="44.7409" lon="5.14085">
        <ele>364</ele>
        <time>2026-08-23T17:28:29.954Z</time>
      </trkpt>
      <trkpt lat="44.74089" lon="5.14084">
        <ele>363</ele>
        <time>2026-08-23T17:28:30.954Z</time>
      </trkpt>
      <trkpt lat="44.74089" lon="5.14082">
        <ele>363</ele>
        <time>2026-08-23T17:28:31.954Z</time>
      </trkpt>
      <trkpt lat="44.74088" lon="5.14081">
        <ele>363</ele>
        <time>2026-08-23T17:28:32.954Z</time>
      </trkpt>
      <trkpt lat="44.74088" lon="5.1408">
        <ele>363</ele>
        <time>2026-08-23T17:28:33.954Z</time>
      </trkpt>
      <trkpt lat="44.74088" lon="5.14078">
        <ele>363</ele>
        <time>2026-08-23T17:28:34.954Z</time>
      </trkpt>
      <trkpt lat="44.74087" lon="5.14077">
        <ele>363</ele>
        <time>2026-08-23T17:28:35.954Z</time>
      </trkpt>
      <trkpt lat="44.74087" lon="5.14076">
        <ele>363</ele>
        <time>2026-08-23T17:28:36.954Z</time>
      </trkpt>
      <trkpt lat="44.74087" lon="5.14074">
        <ele>362</ele>
        <time>2026-08-23T17:28:37.954Z</time>
      </trkpt>
      <trkpt lat="44.74087" lon="5.14073">
        <ele>362</ele>
        <time>2026-08-23T17:28:38.954Z</time>
      </trkpt>
      <trkpt lat="44.74086" lon="5.14071">
        <ele>362</ele>
        <time>2026-08-23T17:28:39.954Z</time>
      </trkpt>
      <trkpt lat="44.74086" lon="5.1407">
        <ele>362</ele>
        <time>2026-08-23T17:28:40.954Z</time>
      </trkpt>
      <trkpt lat="44.74086" lon="5.14069">
        <ele>362</ele>
        <time>2026-08-23T17:28:41.954Z</time>
      </trkpt>
      <trkpt lat="44.74086" lon="5.14067">
        <ele>362</ele>
        <time>2026-08-23T17:28:42.954Z</time>
      </trkpt>
      <trkpt lat="44.74086" lon="5.14066">
        <ele>362</ele>
        <time>2026-08-23T17:28:43.954Z</time>
      </trkpt>
      <trkpt lat="44.74086" lon="5.14064">
        <ele>362</ele>
        <time>2026-08-23T17:28:44.954Z</time>
      </trkpt>
      <trkpt lat="44.74085" lon="5.14063">
        <ele>362</ele>
        <time>2026-08-23T17:28:45.954Z</time>
      </trkpt>
      <trkpt lat="44.74085" lon="5.14062">
        <ele>362</ele>
        <time>2026-08-23T17:28:46.954Z</time>
      </trkpt>
      <trkpt lat="44.74085" lon="5.14061">
        <ele>362</ele>
        <time>2026-08-23T17:28:47.954Z</time>
      </trkpt>
      <trkpt lat="44.74085" lon="5.14059">
        <ele>362</ele>
        <time>2026-08-23T17:28:48.954Z</time>
      </trkpt>
      <trkpt lat="44.74085" lon="5.14058">
        <ele>362</ele>
        <time>2026-08-23T17:28:49.954Z</time>
      </trkpt>
      <trkpt lat="44.74085" lon="5.14057">
        <ele>362</ele>
        <time>2026-08-23T17:28:50.954Z</time>
      </trkpt>
      <trkpt lat="44.74085" lon="5.14055">
        <ele>362</ele>
        <time>2026-08-23T17:28:51.954Z</time>
      </trkpt>
      <trkpt lat="44.74085" lon="5.14053">
        <ele>362</ele>
        <time>2026-08-23T17:28:52.954Z</time>
      </trkpt>
      <trkpt lat="44.74085" lon="5.14052">
        <ele>362</ele>
        <time>2026-08-23T17:28:53.954Z</time>
      </trkpt>
      <trkpt lat="44.74085" lon="5.1405">
        <ele>362</ele>
        <time>2026-08-23T17:28:54.954Z</time>
      </trkpt>
      <trkpt lat="44.74085" lon="5.14049">
        <ele>362</ele>
        <time>2026-08-23T17:28:55.954Z</time>
      </trkpt>
      <trkpt lat="44.74086" lon="5.14047">
        <ele>362</ele>
        <time>2026-08-23T17:28:56.954Z</time>
      </trkpt>
      <trkpt lat="44.74086" lon="5.14046">
        <ele>362</ele>
        <time>2026-08-23T17:28:57.954Z</time>
      </trkpt>
      <trkpt lat="44.74086" lon="5.14045">
        <ele>361</ele>
        <time>2026-08-23T17:28:58.954Z</time>
      </trkpt>
      <trkpt lat="44.74087" lon="5.14044">
        <ele>361</ele>
        <time>2026-08-23T17:28:59.954Z</time>
      </trkpt>
      <trkpt lat="44.74088" lon="5.14043">
        <ele>361</ele>
        <time>2026-08-23T17:29:00.954Z</time>
      </trkpt>
      <trkpt lat="44.74088" lon="5.14042">
        <ele>361</ele>
        <time>2026-08-23T17:29:01.954Z</time>
      </trkpt>
      <trkpt lat="44.74089" lon="5.14041">
        <ele>361</ele>
        <time>2026-08-23T17:29:02.954Z</time>
      </trkpt>
      <trkpt lat="44.7409" lon="5.1404">
        <ele>361</ele>
        <time>2026-08-23T17:29:03.954Z</time>
      </trkpt>
      <trkpt lat="44.74091" lon="5.14039">
        <ele>361</ele>
        <time>2026-08-23T17:29:04.954Z</time>
      </trkpt>
      <trkpt lat="44.74091" lon="5.14038">
        <ele>361</ele>
        <time>2026-08-23T17:29:05.954Z</time>
      </trkpt>
      <trkpt lat="44.74092" lon="5.14037">
        <ele>361</ele>
        <time>2026-08-23T17:29:06.954Z</time>
      </trkpt>
      <trkpt lat="44.74093" lon="5.14036">
        <ele>361</ele>
        <time>2026-08-23T17:29:07.954Z</time>
      </trkpt>
      <trkpt lat="44.74094" lon="5.14036">
        <ele>361</ele>
        <time>2026-08-23T17:29:08.954Z</time>
      </trkpt>
      <trkpt lat="44.74095" lon="5.14035">
        <ele>361</ele>
        <time>2026-08-23T17:29:09.954Z</time>
      </trkpt>
      <trkpt lat="44.74096" lon="5.14034">
        <ele>361</ele>
        <time>2026-08-23T17:29:10.954Z</time>
      </trkpt>
      <trkpt lat="44.74097" lon="5.14033">
        <ele>361</ele>
        <time>2026-08-23T17:29:11.954Z</time>
      </trkpt>
      <trkpt lat="44.74098" lon="5.14032">
        <ele>361</ele>
        <time>2026-08-23T17:29:12.954Z</time>
      </trkpt>
      <trkpt lat="44.74099" lon="5.14031">
        <ele>361</ele>
        <time>2026-08-23T17:29:13.954Z</time>
      </trkpt>
      <trkpt lat="44.741" lon="5.14031">
        <ele>361</ele>
        <time>2026-08-23T17:29:14.954Z</time>
      </trkpt>
      <trkpt lat="44.74101" lon="5.1403">
        <ele>361</ele>
        <time>2026-08-23T17:29:15.954Z</time>
      </trkpt>
      <trkpt lat="44.74102" lon="5.1403">
        <ele>361</ele>
        <time>2026-08-23T17:29:16.954Z</time>
      </trkpt>
      <trkpt lat="44.74102" lon="5.14029">
        <ele>361</ele>
        <time>2026-08-23T17:29:17.954Z</time>
      </trkpt>
      <trkpt lat="44.74103" lon="5.14029">
        <ele>361</ele>
        <time>2026-08-23T17:29:18.954Z</time>
      </trkpt>
      <trkpt lat="44.74104" lon="5.14028">
        <ele>361</ele>
        <time>2026-08-23T17:29:19.954Z</time>
      </trkpt>
      <trkpt lat="44.74104" lon="5.14028">
        <ele>361</ele>
        <time>2026-08-23T17:29:20.954Z</time>
      </trkpt>
      <trkpt lat="44.74105" lon="5.14028">
        <ele>361</ele>
        <time>2026-08-23T17:29:21.954Z</time>
      </trkpt>
      <trkpt lat="44.74105" lon="5.14028">
        <ele>361</ele>
        <time>2026-08-23T17:29:22.954Z</time>
      </trkpt>
      <trkpt lat="44.74105" lon="5.14028">
        <ele>361</ele>
        <time>2026-08-23T17:29:23.954Z</time>
      </trkpt>
      <trkpt lat="44.74107" lon="5.14026">
        <ele>361</ele>
        <time>2026-08-23T17:29:32.955Z</time>
      </trkpt>
      <trkpt lat="44.74108" lon="5.14026">
        <ele>362</ele>
        <time>2026-08-23T17:29:33.955Z</time>
      </trkpt>
      <trkpt lat="44.74109" lon="5.14025">
        <ele>362</ele>
        <time>2026-08-23T17:29:34.955Z</time>
      </trkpt>
      <trkpt lat="44.7411" lon="5.14024">
        <ele>362</ele>
        <time>2026-08-23T17:29:35.955Z</time>
      </trkpt>
      <trkpt lat="44.7411" lon="5.14023">
        <ele>361</ele>
        <time>2026-08-23T17:29:36.955Z</time>
      </trkpt>
      <trkpt lat="44.74111" lon="5.14023">
        <ele>361</ele>
        <time>2026-08-23T17:29:37.955Z</time>
      </trkpt>
      <trkpt lat="44.74112" lon="5.14023">
        <ele>361</ele>
        <time>2026-08-23T17:29:38.955Z</time>
      </trkpt>
      <trkpt lat="44.74113" lon="5.14022">
        <ele>361</ele>
        <time>2026-08-23T17:29:39.955Z</time>
      </trkpt>
      <trkpt lat="44.74114" lon="5.14021">
        <ele>361</ele>
        <time>2026-08-23T17:29:40.955Z</time>
      </trkpt>
      <trkpt lat="44.74114" lon="5.14021">
        <ele>361</ele>
        <time>2026-08-23T17:29:41.955Z</time>
      </trkpt>
      <trkpt lat="44.74115" lon="5.1402">
        <ele>361</ele>
        <time>2026-08-23T17:29:42.955Z</time>
      </trkpt>
      <trkpt lat="44.74116" lon="5.14019">
        <ele>360</ele>
        <time>2026-08-23T17:29:43.955Z</time>
      </trkpt>
      <trkpt lat="44.74117" lon="5.14019">
        <ele>360</ele>
        <time>2026-08-23T17:29:44.955Z</time>
      </trkpt>
      <trkpt lat="44.74118" lon="5.14018">
        <ele>360</ele>
        <time>2026-08-23T17:29:45.955Z</time>
      </trkpt>
      <trkpt lat="44.74118" lon="5.14018">
        <ele>360</ele>
        <time>2026-08-23T17:29:46.955Z</time>
      </trkpt>
      <trkpt lat="44.74119" lon="5.14017">
        <ele>360</ele>
        <time>2026-08-23T17:29:47.955Z</time>
      </trkpt>
      <trkpt lat="44.7412" lon="5.14017">
        <ele>360</ele>
        <time>2026-08-23T17:29:48.955Z</time>
      </trkpt>
      <trkpt lat="44.74121" lon="5.14016">
        <ele>359</ele>
        <time>2026-08-23T17:29:49.955Z</time>
      </trkpt>
      <trkpt lat="44.74122" lon="5.14016">
        <ele>359</ele>
        <time>2026-08-23T17:29:50.955Z</time>
      </trkpt>
      <trkpt lat="44.74123" lon="5.14015">
        <ele>359</ele>
        <time>2026-08-23T17:29:51.955Z</time>
      </trkpt>
      <trkpt lat="44.74124" lon="5.14015">
        <ele>359</ele>
        <time>2026-08-23T17:29:52.955Z</time>
      </trkpt>
      <trkpt lat="44.74125" lon="5.14015">
        <ele>359</ele>
        <time>2026-08-23T17:29:53.955Z</time>
      </trkpt>
      <trkpt lat="44.74126" lon="5.14014">
        <ele>359</ele>
        <time>2026-08-23T17:29:54.955Z</time>
      </trkpt>
      <trkpt lat="44.74127" lon="5.14014">
        <ele>358</ele>
        <time>2026-08-23T17:29:55.955Z</time>
      </trkpt>
      <trkpt lat="44.74128" lon="5.14014">
        <ele>358</ele>
        <time>2026-08-23T17:29:56.955Z</time>
      </trkpt>
      <trkpt lat="44.74129" lon="5.14013">
        <ele>358</ele>
        <time>2026-08-23T17:29:57.955Z</time>
      </trkpt>
      <trkpt lat="44.7413" lon="5.14013">
        <ele>358</ele>
        <time>2026-08-23T17:29:58.955Z</time>
      </trkpt>
      <trkpt lat="44.74131" lon="5.14013">
        <ele>358</ele>
        <time>2026-08-23T17:29:59.955Z</time>
      </trkpt>
      <trkpt lat="44.74132" lon="5.14013">
        <ele>358</ele>
        <time>2026-08-23T17:30:00.955Z</time>
      </trkpt>
      <trkpt lat="44.74134" lon="5.14013">
        <ele>358</ele>
        <time>2026-08-23T17:30:01.955Z</time>
      </trkpt>
      <trkpt lat="44.74135" lon="5.14012">
        <ele>358</ele>
        <time>2026-08-23T17:30:02.955Z</time>
      </trkpt>
      <trkpt lat="44.74136" lon="5.14012">
        <ele>357</ele>
        <time>2026-08-23T17:30:03.955Z</time>
      </trkpt>
      <trkpt lat="44.74137" lon="5.14012">
        <ele>357</ele>
        <time>2026-08-23T17:30:04.955Z</time>
      </trkpt>
      <trkpt lat="44.74138" lon="5.14012">
        <ele>357</ele>
        <time>2026-08-23T17:30:05.955Z</time>
      </trkpt>
      <trkpt lat="44.74139" lon="5.14012">
        <ele>357</ele>
        <time>2026-08-23T17:30:06.955Z</time>
      </trkpt>
      <trkpt lat="44.74139" lon="5.14012">
        <ele>357</ele>
        <time>2026-08-23T17:30:07.955Z</time>
      </trkpt>
      <trkpt lat="44.7414" lon="5.14012">
        <ele>357</ele>
        <time>2026-08-23T17:30:08.955Z</time>
      </trkpt>
      <trkpt lat="44.74141" lon="5.14012">
        <ele>357</ele>
        <time>2026-08-23T17:30:09.955Z</time>
      </trkpt>
      <trkpt lat="44.74143" lon="5.14012">
        <ele>357</ele>
        <time>2026-08-23T17:30:10.955Z</time>
      </trkpt>
      <trkpt lat="44.74144" lon="5.14012">
        <ele>357</ele>
        <time>2026-08-23T17:30:11.955Z</time>
      </trkpt>
      <trkpt lat="44.74145" lon="5.14012">
        <ele>357</ele>
        <time>2026-08-23T17:30:12.955Z</time>
      </trkpt>
      <trkpt lat="44.74146" lon="5.14011">
        <ele>357</ele>
        <time>2026-08-23T17:30:13.955Z</time>
      </trkpt>
      <trkpt lat="44.74147" lon="5.14011">
        <ele>358</ele>
        <time>2026-08-23T17:30:14.955Z</time>
      </trkpt>
      <trkpt lat="44.74149" lon="5.14011">
        <ele>358</ele>
        <time>2026-08-23T17:30:15.955Z</time>
      </trkpt>
      <trkpt lat="44.7415" lon="5.14011">
        <ele>358</ele>
        <time>2026-08-23T17:30:16.955Z</time>
      </trkpt>
      <trkpt lat="44.74151" lon="5.14011">
        <ele>357</ele>
        <time>2026-08-23T17:30:17.955Z</time>
      </trkpt>
      <trkpt lat="44.74152" lon="5.14011">
        <ele>357</ele>
        <time>2026-08-23T17:30:18.955Z</time>
      </trkpt>
      <trkpt lat="44.74153" lon="5.14011">
        <ele>357</ele>
        <time>2026-08-23T17:30:19.955Z</time>
      </trkpt>
      <trkpt lat="44.74154" lon="5.1401">
        <ele>357</ele>
        <time>2026-08-23T17:30:20.955Z</time>
      </trkpt>
      <trkpt lat="44.74156" lon="5.1401">
        <ele>357</ele>
        <time>2026-08-23T17:30:21.955Z</time>
      </trkpt>
      <trkpt lat="44.74157" lon="5.1401">
        <ele>357</ele>
        <time>2026-08-23T17:30:22.955Z</time>
      </trkpt>
      <trkpt lat="44.74158" lon="5.1401">
        <ele>357</ele>
        <time>2026-08-23T17:30:23.955Z</time>
      </trkpt>
      <trkpt lat="44.74159" lon="5.1401">
        <ele>357</ele>
        <time>2026-08-23T17:30:24.955Z</time>
      </trkpt>
      <trkpt lat="44.7416" lon="5.1401">
        <ele>357</ele>
        <time>2026-08-23T17:30:25.955Z</time>
      </trkpt>
      <trkpt lat="44.74162" lon="5.1401">
        <ele>357</ele>
        <time>2026-08-23T17:30:26.955Z</time>
      </trkpt>
      <trkpt lat="44.74163" lon="5.1401">
        <ele>357</ele>
        <time>2026-08-23T17:30:27.955Z</time>
      </trkpt>
      <trkpt lat="44.74164" lon="5.1401">
        <ele>357</ele>
        <time>2026-08-23T17:30:28.955Z</time>
      </trkpt>
      <trkpt lat="44.74164" lon="5.14009">
        <ele>357</ele>
        <time>2026-08-23T17:30:29.955Z</time>
      </trkpt>
      <trkpt lat="44.74165" lon="5.14009">
        <ele>356</ele>
        <time>2026-08-23T17:30:30.955Z</time>
      </trkpt>
      <trkpt lat="44.74165" lon="5.14009">
        <ele>356</ele>
        <time>2026-08-23T17:30:31.955Z</time>
      </trkpt>
      <trkpt lat="44.74166" lon="5.14009">
        <ele>356</ele>
        <time>2026-08-23T17:30:32.955Z</time>
      </trkpt>
      <trkpt lat="44.74167" lon="5.14009">
        <ele>356</ele>
        <time>2026-08-23T17:30:33.955Z</time>
      </trkpt>
      <trkpt lat="44.74167" lon="5.14009">
        <ele>356</ele>
        <time>2026-08-23T17:30:34.955Z</time>
      </trkpt>
      <trkpt lat="44.74167" lon="5.14008">
        <ele>356</ele>
        <time>2026-08-23T17:30:35.955Z</time>
      </trkpt>
      <trkpt lat="44.74167" lon="5.14008">
        <ele>356</ele>
        <time>2026-08-23T17:30:36.955Z</time>
      </trkpt>
      <trkpt lat="44.74167" lon="5.14008">
        <ele>356</ele>
        <time>2026-08-23T17:30:37.955Z</time>
      </trkpt>
      <trkpt lat="44.74169" lon="5.14009">
        <ele>356</ele>
        <time>2026-08-23T17:30:43.953Z</time>
      </trkpt>
      <trkpt lat="44.7417" lon="5.14009">
        <ele>356</ele>
        <time>2026-08-23T17:30:44.953Z</time>
      </trkpt>
      <trkpt lat="44.74171" lon="5.14009">
        <ele>356</ele>
        <time>2026-08-23T17:30:45.953Z</time>
      </trkpt>
      <trkpt lat="44.74172" lon="5.1401">
        <ele>356</ele>
        <time>2026-08-23T17:30:46.953Z</time>
      </trkpt>
      <trkpt lat="44.74173" lon="5.1401">
        <ele>356</ele>
        <time>2026-08-23T17:30:47.953Z</time>
      </trkpt>
      <trkpt lat="44.74174" lon="5.14011">
        <ele>356</ele>
        <time>2026-08-23T17:30:48.953Z</time>
      </trkpt>
      <trkpt lat="44.74175" lon="5.14011">
        <ele>356</ele>
        <time>2026-08-23T17:30:49.953Z</time>
      </trkpt>
      <trkpt lat="44.74176" lon="5.14012">
        <ele>356</ele>
        <time>2026-08-23T17:30:50.953Z</time>
      </trkpt>
      <trkpt lat="44.74177" lon="5.14012">
        <ele>356</ele>
        <time>2026-08-23T17:30:51.953Z</time>
      </trkpt>
      <trkpt lat="44.74178" lon="5.14012">
        <ele>355</ele>
        <time>2026-08-23T17:30:52.953Z</time>
      </trkpt>
      <trkpt lat="44.74179" lon="5.14012">
        <ele>355</ele>
        <time>2026-08-23T17:30:53.953Z</time>
      </trkpt>
      <trkpt lat="44.7418" lon="5.14012">
        <ele>355</ele>
        <time>2026-08-23T17:30:54.953Z</time>
      </trkpt>
      <trkpt lat="44.74181" lon="5.14012">
        <ele>355</ele>
        <time>2026-08-23T17:30:55.953Z</time>
      </trkpt>
      <trkpt lat="44.74182" lon="5.14012">
        <ele>355</ele>
        <time>2026-08-23T17:30:56.953Z</time>
      </trkpt>
      <trkpt lat="44.74183" lon="5.14013">
        <ele>355</ele>
        <time>2026-08-23T17:30:57.953Z</time>
      </trkpt>
      <trkpt lat="44.74184" lon="5.14013">
        <ele>356</ele>
        <time>2026-08-23T17:30:58.953Z</time>
      </trkpt>
      <trkpt lat="44.74185" lon="5.14013">
        <ele>356</ele>
        <time>2026-08-23T17:30:59.953Z</time>
      </trkpt>
      <trkpt lat="44.74186" lon="5.14014">
        <ele>356</ele>
        <time>2026-08-23T17:31:00.953Z</time>
      </trkpt>
      <trkpt lat="44.74186" lon="5.14014">
        <ele>356</ele>
        <time>2026-08-23T17:31:01.953Z</time>
      </trkpt>
      <trkpt lat="44.74187" lon="5.14014">
        <ele>356</ele>
        <time>2026-08-23T17:31:02.953Z</time>
      </trkpt>
      <trkpt lat="44.74188" lon="5.14014">
        <ele>356</ele>
        <time>2026-08-23T17:31:03.953Z</time>
      </trkpt>
      <trkpt lat="44.74189" lon="5.14014">
        <ele>356</ele>
        <time>2026-08-23T17:31:04.953Z</time>
      </trkpt>
      <trkpt lat="44.74189" lon="5.14014">
        <ele>356</ele>
        <time>2026-08-23T17:31:05.953Z</time>
      </trkpt>
      <trkpt lat="44.7419" lon="5.14014">
        <ele>356</ele>
        <time>2026-08-23T17:31:06.953Z</time>
      </trkpt>
      <trkpt lat="44.7419" lon="5.14015">
        <ele>355</ele>
        <time>2026-08-23T17:31:07.953Z</time>
      </trkpt>
      <trkpt lat="44.74191" lon="5.14014">
        <ele>355</ele>
        <time>2026-08-23T17:31:08.953Z</time>
      </trkpt>
      <trkpt lat="44.74192" lon="5.14014">
        <ele>355</ele>
        <time>2026-08-23T17:31:09.953Z</time>
      </trkpt>
      <trkpt lat="44.74193" lon="5.14014">
        <ele>355</ele>
        <time>2026-08-23T17:31:10.953Z</time>
      </trkpt>
      <trkpt lat="44.74194" lon="5.14014">
        <ele>355</ele>
        <time>2026-08-23T17:31:11.953Z</time>
      </trkpt>
      <trkpt lat="44.74195" lon="5.14013">
        <ele>355</ele>
        <time>2026-08-23T17:31:12.953Z</time>
      </trkpt>
      <trkpt lat="44.74196" lon="5.14013">
        <ele>355</ele>
        <time>2026-08-23T17:31:13.953Z</time>
      </trkpt>
      <trkpt lat="44.74196" lon="5.14013">
        <ele>355</ele>
        <time>2026-08-23T17:31:14.953Z</time>
      </trkpt>
      <trkpt lat="44.74197" lon="5.14013">
        <ele>355</ele>
        <time>2026-08-23T17:31:15.953Z</time>
      </trkpt>
      <trkpt lat="44.74198" lon="5.14012">
        <ele>355</ele>
        <time>2026-08-23T17:31:16.953Z</time>
      </trkpt>
      <trkpt lat="44.74199" lon="5.14012">
        <ele>355</ele>
        <time>2026-08-23T17:31:17.953Z</time>
      </trkpt>
      <trkpt lat="44.742" lon="5.14011">
        <ele>355</ele>
        <time>2026-08-23T17:31:18.953Z</time>
      </trkpt>
      <trkpt lat="44.74201" lon="5.14011">
        <ele>355</ele>
        <time>2026-08-23T17:31:19.953Z</time>
      </trkpt>
      <trkpt lat="44.74202" lon="5.1401">
        <ele>355</ele>
        <time>2026-08-23T17:31:20.953Z</time>
      </trkpt>
      <trkpt lat="44.74203" lon="5.1401">
        <ele>355</ele>
        <time>2026-08-23T17:31:21.953Z</time>
      </trkpt>
      <trkpt lat="44.74204" lon="5.14009">
        <ele>355</ele>
        <time>2026-08-23T17:31:22.953Z</time>
      </trkpt>
      <trkpt lat="44.74205" lon="5.14008">
        <ele>355</ele>
        <time>2026-08-23T17:31:23.953Z</time>
      </trkpt>
      <trkpt lat="44.74207" lon="5.14008">
        <ele>355</ele>
        <time>2026-08-23T17:31:24.953Z</time>
      </trkpt>
      <trkpt lat="44.74208" lon="5.14007">
        <ele>355</ele>
        <time>2026-08-23T17:31:25.953Z</time>
      </trkpt>
      <trkpt lat="44.74209" lon="5.14007">
        <ele>355</ele>
        <time>2026-08-23T17:31:26.953Z</time>
      </trkpt>
      <trkpt lat="44.7421" lon="5.14006">
        <ele>355</ele>
        <time>2026-08-23T17:31:27.953Z</time>
      </trkpt>
      <trkpt lat="44.74212" lon="5.14006">
        <ele>355</ele>
        <time>2026-08-23T17:31:28.953Z</time>
      </trkpt>
      <trkpt lat="44.74213" lon="5.14005">
        <ele>355</ele>
        <time>2026-08-23T17:31:29.953Z</time>
      </trkpt>
      <trkpt lat="44.74214" lon="5.14004">
        <ele>355</ele>
        <time>2026-08-23T17:31:30.953Z</time>
      </trkpt>
      <trkpt lat="44.74214" lon="5.14004">
        <ele>355</ele>
        <time>2026-08-23T17:31:31.953Z</time>
      </trkpt>
      <trkpt lat="44.74215" lon="5.14003">
        <ele>355</ele>
        <time>2026-08-23T17:31:32.953Z</time>
      </trkpt>
      <trkpt lat="44.74216" lon="5.14003">
        <ele>355</ele>
        <time>2026-08-23T17:31:33.953Z</time>
      </trkpt>
      <trkpt lat="44.74217" lon="5.14003">
        <ele>355</ele>
        <time>2026-08-23T17:31:34.953Z</time>
      </trkpt>
      <trkpt lat="44.74218" lon="5.14002">
        <ele>355</ele>
        <time>2026-08-23T17:31:35.953Z</time>
      </trkpt>
      <trkpt lat="44.74219" lon="5.14002">
        <ele>355</ele>
        <time>2026-08-23T17:31:36.953Z</time>
      </trkpt>
      <trkpt lat="44.7422" lon="5.14001">
        <ele>355</ele>
        <time>2026-08-23T17:31:37.953Z</time>
      </trkpt>
      <trkpt lat="44.74221" lon="5.14001">
        <ele>355</ele>
        <time>2026-08-23T17:31:38.953Z</time>
      </trkpt>
      <trkpt lat="44.74222" lon="5.14">
        <ele>355</ele>
        <time>2026-08-23T17:31:39.953Z</time>
      </trkpt>
      <trkpt lat="44.74223" lon="5.14">
        <ele>355</ele>
        <time>2026-08-23T17:31:40.953Z</time>
      </trkpt>
      <trkpt lat="44.74224" lon="5.13999">
        <ele>355</ele>
        <time>2026-08-23T17:31:41.953Z</time>
      </trkpt>
      <trkpt lat="44.74225" lon="5.13998">
        <ele>355</ele>
        <time>2026-08-23T17:31:42.953Z</time>
      </trkpt>
      <trkpt lat="44.74226" lon="5.13998">
        <ele>355</ele>
        <time>2026-08-23T17:31:43.953Z</time>
      </trkpt>
      <trkpt lat="44.74226" lon="5.13998">
        <ele>355</ele>
        <time>2026-08-23T17:31:44.953Z</time>
      </trkpt>
      <trkpt lat="44.74226" lon="5.13998">
        <ele>354</ele>
        <time>2026-08-23T17:31:45.953Z</time>
      </trkpt>
      <trkpt lat="44.74227" lon="5.13997">
        <ele>354</ele>
        <time>2026-08-23T17:31:46.953Z</time>
      </trkpt>
      <trkpt lat="44.74227" lon="5.13996">
        <ele>354</ele>
        <time>2026-08-23T17:31:47.953Z</time>
      </trkpt>
      <trkpt lat="44.74228" lon="5.13996">
        <ele>354</ele>
        <time>2026-08-23T17:31:48.953Z</time>
      </trkpt>
      <trkpt lat="44.74229" lon="5.13995">
        <ele>354</ele>
        <time>2026-08-23T17:31:49.953Z</time>
      </trkpt>
      <trkpt lat="44.7423" lon="5.13994">
        <ele>353</ele>
        <time>2026-08-23T17:31:50.953Z</time>
      </trkpt>
      <trkpt lat="44.74231" lon="5.13994">
        <ele>353</ele>
        <time>2026-08-23T17:31:51.953Z</time>
      </trkpt>
      <trkpt lat="44.74232" lon="5.13993">
        <ele>353</ele>
        <time>2026-08-23T17:31:52.953Z</time>
      </trkpt>
      <trkpt lat="44.74233" lon="5.13993">
        <ele>353</ele>
        <time>2026-08-23T17:31:53.953Z</time>
      </trkpt>
      <trkpt lat="44.74234" lon="5.13992">
        <ele>353</ele>
        <time>2026-08-23T17:31:54.953Z</time>
      </trkpt>
      <trkpt lat="44.74235" lon="5.13992">
        <ele>353</ele>
        <time>2026-08-23T17:31:55.953Z</time>
      </trkpt>
      <trkpt lat="44.74236" lon="5.13991">
        <ele>352</ele>
        <time>2026-08-23T17:31:56.953Z</time>
      </trkpt>
      <trkpt lat="44.74236" lon="5.13991">
        <ele>352</ele>
        <time>2026-08-23T17:31:57.953Z</time>
      </trkpt>
      <trkpt lat="44.74237" lon="5.13991">
        <ele>352</ele>
        <time>2026-08-23T17:31:58.953Z</time>
      </trkpt>
      <trkpt lat="44.74238" lon="5.1399">
        <ele>352</ele>
        <time>2026-08-23T17:31:59.953Z</time>
      </trkpt>
      <trkpt lat="44.74239" lon="5.1399">
        <ele>351</ele>
        <time>2026-08-23T17:32:00.953Z</time>
      </trkpt>
      <trkpt lat="44.7424" lon="5.13989">
        <ele>351</ele>
        <time>2026-08-23T17:32:01.953Z</time>
      </trkpt>
      <trkpt lat="44.74241" lon="5.13989">
        <ele>351</ele>
        <time>2026-08-23T17:32:02.953Z</time>
      </trkpt>
      <trkpt lat="44.74242" lon="5.13988">
        <ele>351</ele>
        <time>2026-08-23T17:32:03.953Z</time>
      </trkpt>
      <trkpt lat="44.74243" lon="5.13988">
        <ele>351</ele>
        <time>2026-08-23T17:32:04.953Z</time>
      </trkpt>
      <trkpt lat="44.74244" lon="5.13987">
        <ele>350</ele>
        <time>2026-08-23T17:32:05.953Z</time>
      </trkpt>
      <trkpt lat="44.74245" lon="5.13987">
        <ele>350</ele>
        <time>2026-08-23T17:32:06.953Z</time>
      </trkpt>
      <trkpt lat="44.74246" lon="5.13987">
        <ele>350</ele>
        <time>2026-08-23T17:32:07.953Z</time>
      </trkpt>
      <trkpt lat="44.74247" lon="5.13986">
        <ele>350</ele>
        <time>2026-08-23T17:32:08.953Z</time>
      </trkpt>
      <trkpt lat="44.74247" lon="5.13985">
        <ele>350</ele>
        <time>2026-08-23T17:32:09.953Z</time>
      </trkpt>
      <trkpt lat="44.74249" lon="5.13985">
        <ele>350</ele>
        <time>2026-08-23T17:32:10.953Z</time>
      </trkpt>
      <trkpt lat="44.7425" lon="5.13984">
        <ele>350</ele>
        <time>2026-08-23T17:32:11.953Z</time>
      </trkpt>
      <trkpt lat="44.74251" lon="5.13984">
        <ele>350</ele>
        <time>2026-08-23T17:32:12.953Z</time>
      </trkpt>
      <trkpt lat="44.74252" lon="5.13983">
        <ele>350</ele>
        <time>2026-08-23T17:32:13.953Z</time>
      </trkpt>
      <trkpt lat="44.74253" lon="5.13982">
        <ele>350</ele>
        <time>2026-08-23T17:32:14.953Z</time>
      </trkpt>
      <trkpt lat="44.74254" lon="5.13982">
        <ele>349</ele>
        <time>2026-08-23T17:32:15.953Z</time>
      </trkpt>
      <trkpt lat="44.74255" lon="5.13981">
        <ele>349</ele>
        <time>2026-08-23T17:32:16.953Z</time>
      </trkpt>
      <trkpt lat="44.74256" lon="5.13981">
        <ele>349</ele>
        <time>2026-08-23T17:32:17.953Z</time>
      </trkpt>
      <trkpt lat="44.74257" lon="5.13981">
        <ele>349</ele>
        <time>2026-08-23T17:32:18.953Z</time>
      </trkpt>
      <trkpt lat="44.74258" lon="5.1398">
        <ele>349</ele>
        <time>2026-08-23T17:32:19.953Z</time>
      </trkpt>
      <trkpt lat="44.74259" lon="5.1398">
        <ele>349</ele>
        <time>2026-08-23T17:32:20.953Z</time>
      </trkpt>
      <trkpt lat="44.7426" lon="5.13979">
        <ele>349</ele>
        <time>2026-08-23T17:32:21.953Z</time>
      </trkpt>
      <trkpt lat="44.74261" lon="5.13978">
        <ele>349</ele>
        <time>2026-08-23T17:32:22.953Z</time>
      </trkpt>
      <trkpt lat="44.74262" lon="5.13978">
        <ele>349</ele>
        <time>2026-08-23T17:32:23.953Z</time>
      </trkpt>
      <trkpt lat="44.74263" lon="5.13977">
        <ele>349</ele>
        <time>2026-08-23T17:32:24.953Z</time>
      </trkpt>
      <trkpt lat="44.74264" lon="5.13977">
        <ele>349</ele>
        <time>2026-08-23T17:32:25.953Z</time>
      </trkpt>
      <trkpt lat="44.74265" lon="5.13976">
        <ele>349</ele>
        <time>2026-08-23T17:32:26.953Z</time>
      </trkpt>
      <trkpt lat="44.74266" lon="5.13976">
        <ele>349</ele>
        <time>2026-08-23T17:32:27.953Z</time>
      </trkpt>
      <trkpt lat="44.74267" lon="5.13975">
        <ele>349</ele>
        <time>2026-08-23T17:32:28.953Z</time>
      </trkpt>
      <trkpt lat="44.74268" lon="5.13974">
        <ele>349</ele>
        <time>2026-08-23T17:32:29.953Z</time>
      </trkpt>
      <trkpt lat="44.74268" lon="5.13974">
        <ele>349</ele>
        <time>2026-08-23T17:32:30.953Z</time>
      </trkpt>
      <trkpt lat="44.74269" lon="5.13973">
        <ele>349</ele>
        <time>2026-08-23T17:32:31.953Z</time>
      </trkpt>
      <trkpt lat="44.7427" lon="5.13972">
        <ele>349</ele>
        <time>2026-08-23T17:32:32.953Z</time>
      </trkpt>
      <trkpt lat="44.74271" lon="5.13972">
        <ele>349</ele>
        <time>2026-08-23T17:32:33.953Z</time>
      </trkpt>
      <trkpt lat="44.74272" lon="5.13971">
        <ele>348</ele>
        <time>2026-08-23T17:32:34.953Z</time>
      </trkpt>
      <trkpt lat="44.74273" lon="5.1397">
        <ele>348</ele>
        <time>2026-08-23T17:32:35.953Z</time>
      </trkpt>
      <trkpt lat="44.74273" lon="5.13969">
        <ele>348</ele>
        <time>2026-08-23T17:32:36.953Z</time>
      </trkpt>
      <trkpt lat="44.74274" lon="5.13968">
        <ele>348</ele>
        <time>2026-08-23T17:32:37.953Z</time>
      </trkpt>
      <trkpt lat="44.74275" lon="5.13967">
        <ele>348</ele>
        <time>2026-08-23T17:32:38.953Z</time>
      </trkpt>
      <trkpt lat="44.74276" lon="5.13967">
        <ele>348</ele>
        <time>2026-08-23T17:32:39.953Z</time>
      </trkpt>
      <trkpt lat="44.74277" lon="5.13966">
        <ele>348</ele>
        <time>2026-08-23T17:32:40.953Z</time>
      </trkpt>
      <trkpt lat="44.74278" lon="5.13965">
        <ele>348</ele>
        <time>2026-08-23T17:32:41.953Z</time>
      </trkpt>
      <trkpt lat="44.74278" lon="5.13964">
        <ele>348</ele>
        <time>2026-08-23T17:32:42.953Z</time>
      </trkpt>
      <trkpt lat="44.74279" lon="5.13964">
        <ele>348</ele>
        <time>2026-08-23T17:32:43.953Z</time>
      </trkpt>
      <trkpt lat="44.7428" lon="5.13963">
        <ele>348</ele>
        <time>2026-08-23T17:32:44.953Z</time>
      </trkpt>
      <trkpt lat="44.74281" lon="5.13962">
        <ele>348</ele>
        <time>2026-08-23T17:32:45.953Z</time>
      </trkpt>
      <trkpt lat="44.74281" lon="5.13961">
        <ele>348</ele>
        <time>2026-08-23T17:32:46.953Z</time>
      </trkpt>
      <trkpt lat="44.74282" lon="5.1396">
        <ele>348</ele>
        <time>2026-08-23T17:32:47.953Z</time>
      </trkpt>
      <trkpt lat="44.74283" lon="5.13959">
        <ele>348</ele>
        <time>2026-08-23T17:32:48.953Z</time>
      </trkpt>
      <trkpt lat="44.74284" lon="5.13959">
        <ele>348</ele>
        <time>2026-08-23T17:32:49.953Z</time>
      </trkpt>
      <trkpt lat="44.74285" lon="5.13958">
        <ele>348</ele>
        <time>2026-08-23T17:32:50.953Z</time>
      </trkpt>
      <trkpt lat="44.74286" lon="5.13957">
        <ele>348</ele>
        <time>2026-08-23T17:32:51.953Z</time>
      </trkpt>
      <trkpt lat="44.74286" lon="5.13956">
        <ele>348</ele>
        <time>2026-08-23T17:32:52.953Z</time>
      </trkpt>
      <trkpt lat="44.74287" lon="5.13955">
        <ele>347</ele>
        <time>2026-08-23T17:32:53.953Z</time>
      </trkpt>
      <trkpt lat="44.74288" lon="5.13955">
        <ele>347</ele>
        <time>2026-08-23T17:32:54.953Z</time>
      </trkpt>
      <trkpt lat="44.74289" lon="5.13954">
        <ele>347</ele>
        <time>2026-08-23T17:32:55.953Z</time>
      </trkpt>
      <trkpt lat="44.7429" lon="5.13953">
        <ele>347</ele>
        <time>2026-08-23T17:32:56.953Z</time>
      </trkpt>
      <trkpt lat="44.7429" lon="5.13952">
        <ele>347</ele>
        <time>2026-08-23T17:32:57.953Z</time>
      </trkpt>
      <trkpt lat="44.74291" lon="5.13951">
        <ele>347</ele>
        <time>2026-08-23T17:32:58.953Z</time>
      </trkpt>
      <trkpt lat="44.74292" lon="5.1395">
        <ele>347</ele>
        <time>2026-08-23T17:32:59.953Z</time>
      </trkpt>
      <trkpt lat="44.74293" lon="5.13949">
        <ele>347</ele>
        <time>2026-08-23T17:33:00.953Z</time>
      </trkpt>
      <trkpt lat="44.74294" lon="5.13948">
        <ele>347</ele>
        <time>2026-08-23T17:33:01.953Z</time>
      </trkpt>
      <trkpt lat="44.74294" lon="5.13947">
        <ele>347</ele>
        <time>2026-08-23T17:33:02.953Z</time>
      </trkpt>
      <trkpt lat="44.74295" lon="5.13946">
        <ele>347</ele>
        <time>2026-08-23T17:33:03.953Z</time>
      </trkpt>
      <trkpt lat="44.74296" lon="5.13945">
        <ele>347</ele>
        <time>2026-08-23T17:33:04.953Z</time>
      </trkpt>
      <trkpt lat="44.74297" lon="5.13944">
        <ele>347</ele>
        <time>2026-08-23T17:33:05.953Z</time>
      </trkpt>
      <trkpt lat="44.74298" lon="5.13943">
        <ele>347</ele>
        <time>2026-08-23T17:33:06.953Z</time>
      </trkpt>
      <trkpt lat="44.74299" lon="5.13943">
        <ele>347</ele>
        <time>2026-08-23T17:33:07.953Z</time>
      </trkpt>
      <trkpt lat="44.743" lon="5.13942">
        <ele>346</ele>
        <time>2026-08-23T17:33:08.953Z</time>
      </trkpt>
      <trkpt lat="44.74301" lon="5.13941">
        <ele>346</ele>
        <time>2026-08-23T17:33:09.953Z</time>
      </trkpt>
      <trkpt lat="44.74301" lon="5.13941">
        <ele>346</ele>
        <time>2026-08-23T17:33:10.953Z</time>
      </trkpt>
      <trkpt lat="44.74302" lon="5.1394">
        <ele>346</ele>
        <time>2026-08-23T17:33:11.953Z</time>
      </trkpt>
      <trkpt lat="44.74303" lon="5.13939">
        <ele>346</ele>
        <time>2026-08-23T17:33:12.953Z</time>
      </trkpt>
      <trkpt lat="44.74304" lon="5.13939">
        <ele>346</ele>
        <time>2026-08-23T17:33:13.953Z</time>
      </trkpt>
      <trkpt lat="44.74305" lon="5.13938">
        <ele>346</ele>
        <time>2026-08-23T17:33:14.953Z</time>
      </trkpt>
      <trkpt lat="44.74306" lon="5.13938">
        <ele>346</ele>
        <time>2026-08-23T17:33:15.953Z</time>
      </trkpt>
      <trkpt lat="44.74307" lon="5.13937">
        <ele>346</ele>
        <time>2026-08-23T17:33:16.953Z</time>
      </trkpt>
      <trkpt lat="44.74308" lon="5.13936">
        <ele>346</ele>
        <time>2026-08-23T17:33:17.953Z</time>
      </trkpt>
      <trkpt lat="44.74309" lon="5.13936">
        <ele>345</ele>
        <time>2026-08-23T17:33:18.953Z</time>
      </trkpt>
      <trkpt lat="44.7431" lon="5.13935">
        <ele>345</ele>
        <time>2026-08-23T17:33:19.953Z</time>
      </trkpt>
      <trkpt lat="44.74311" lon="5.13935">
        <ele>345</ele>
        <time>2026-08-23T17:33:20.953Z</time>
      </trkpt>
      <trkpt lat="44.74312" lon="5.13934">
        <ele>345</ele>
        <time>2026-08-23T17:33:21.953Z</time>
      </trkpt>
      <trkpt lat="44.74313" lon="5.13934">
        <ele>345</ele>
        <time>2026-08-23T17:33:22.953Z</time>
      </trkpt>
      <trkpt lat="44.74314" lon="5.13933">
        <ele>345</ele>
        <time>2026-08-23T17:33:23.953Z</time>
      </trkpt>
      <trkpt lat="44.74315" lon="5.13933">
        <ele>345</ele>
        <time>2026-08-23T17:33:24.953Z</time>
      </trkpt>
      <trkpt lat="44.74316" lon="5.13932">
        <ele>345</ele>
        <time>2026-08-23T17:33:25.953Z</time>
      </trkpt>
      <trkpt lat="44.74317" lon="5.13933">
        <ele>344</ele>
        <time>2026-08-23T17:33:26.953Z</time>
      </trkpt>
      <trkpt lat="44.74318" lon="5.13933">
        <ele>344</ele>
        <time>2026-08-23T17:33:27.953Z</time>
      </trkpt>
      <trkpt lat="44.74319" lon="5.13933">
        <ele>344</ele>
        <time>2026-08-23T17:33:28.953Z</time>
      </trkpt>
      <trkpt lat="44.7432" lon="5.13933">
        <ele>344</ele>
        <time>2026-08-23T17:33:29.953Z</time>
      </trkpt>
      <trkpt lat="44.74321" lon="5.13933">
        <ele>344</ele>
        <time>2026-08-23T17:33:30.953Z</time>
      </trkpt>
      <trkpt lat="44.74322" lon="5.13933">
        <ele>344</ele>
        <time>2026-08-23T17:33:31.953Z</time>
      </trkpt>
      <trkpt lat="44.74323" lon="5.13933">
        <ele>343</ele>
        <time>2026-08-23T17:33:32.953Z</time>
      </trkpt>
      <trkpt lat="44.74324" lon="5.13934">
        <ele>343</ele>
        <time>2026-08-23T17:33:33.953Z</time>
      </trkpt>
      <trkpt lat="44.74326" lon="5.13934">
        <ele>343</ele>
        <time>2026-08-23T17:33:34.953Z</time>
      </trkpt>
      <trkpt lat="44.74327" lon="5.13934">
        <ele>343</ele>
        <time>2026-08-23T17:33:35.953Z</time>
      </trkpt>
      <trkpt lat="44.74328" lon="5.13935">
        <ele>343</ele>
        <time>2026-08-23T17:33:36.953Z</time>
      </trkpt>
      <trkpt lat="44.74329" lon="5.13936">
        <ele>343</ele>
        <time>2026-08-23T17:33:37.953Z</time>
      </trkpt>
      <trkpt lat="44.7433" lon="5.13936">
        <ele>343</ele>
        <time>2026-08-23T17:33:38.953Z</time>
      </trkpt>
      <trkpt lat="44.74331" lon="5.13937">
        <ele>343</ele>
        <time>2026-08-23T17:33:39.953Z</time>
      </trkpt>
      <trkpt lat="44.74332" lon="5.13938">
        <ele>343</ele>
        <time>2026-08-23T17:33:40.953Z</time>
      </trkpt>
      <trkpt lat="44.74333" lon="5.13939">
        <ele>342</ele>
        <time>2026-08-23T17:33:41.953Z</time>
      </trkpt>
      <trkpt lat="44.74334" lon="5.1394">
        <ele>342</ele>
        <time>2026-08-23T17:33:42.953Z</time>
      </trkpt>
      <trkpt lat="44.74334" lon="5.13941">
        <ele>342</ele>
        <time>2026-08-23T17:33:43.953Z</time>
      </trkpt>
      <trkpt lat="44.74335" lon="5.13942">
        <ele>342</ele>
        <time>2026-08-23T17:33:44.953Z</time>
      </trkpt>
      <trkpt lat="44.74336" lon="5.13943">
        <ele>342</ele>
        <time>2026-08-23T17:33:45.953Z</time>
      </trkpt>
      <trkpt lat="44.74337" lon="5.13944">
        <ele>342</ele>
        <time>2026-08-23T17:33:46.953Z</time>
      </trkpt>
      <trkpt lat="44.74338" lon="5.13945">
        <ele>342</ele>
        <time>2026-08-23T17:33:47.953Z</time>
      </trkpt>
      <trkpt lat="44.74338" lon="5.13945">
        <ele>342</ele>
        <time>2026-08-23T17:33:48.953Z</time>
      </trkpt>
      <trkpt lat="44.74339" lon="5.13946">
        <ele>342</ele>
        <time>2026-08-23T17:33:49.953Z</time>
      </trkpt>
      <trkpt lat="44.7434" lon="5.13947">
        <ele>341</ele>
        <time>2026-08-23T17:33:50.953Z</time>
      </trkpt>
      <trkpt lat="44.7434" lon="5.13947">
        <ele>341</ele>
        <time>2026-08-23T17:33:51.953Z</time>
      </trkpt>
      <trkpt lat="44.74341" lon="5.13948">
        <ele>341</ele>
        <time>2026-08-23T17:33:52.953Z</time>
      </trkpt>
      <trkpt lat="44.74341" lon="5.13949">
        <ele>341</ele>
        <time>2026-08-23T17:33:53.953Z</time>
      </trkpt>
      <trkpt lat="44.74342" lon="5.1395">
        <ele>341</ele>
        <time>2026-08-23T17:33:54.953Z</time>
      </trkpt>
      <trkpt lat="44.74343" lon="5.1395">
        <ele>341</ele>
        <time>2026-08-23T17:33:55.953Z</time>
      </trkpt>
      <trkpt lat="44.74343" lon="5.13951">
        <ele>341</ele>
        <time>2026-08-23T17:33:56.953Z</time>
      </trkpt>
      <trkpt lat="44.74344" lon="5.13952">
        <ele>341</ele>
        <time>2026-08-23T17:33:57.953Z</time>
      </trkpt>
      <trkpt lat="44.74344" lon="5.13953">
        <ele>341</ele>
        <time>2026-08-23T17:33:58.953Z</time>
      </trkpt>
      <trkpt lat="44.74345" lon="5.13953">
        <ele>341</ele>
        <time>2026-08-23T17:33:59.953Z</time>
      </trkpt>
      <trkpt lat="44.74345" lon="5.13954">
        <ele>341</ele>
        <time>2026-08-23T17:34:00.953Z</time>
      </trkpt>
      <trkpt lat="44.74346" lon="5.13954">
        <ele>341</ele>
        <time>2026-08-23T17:34:01.953Z</time>
      </trkpt>
      <trkpt lat="44.74346" lon="5.13954">
        <ele>341</ele>
        <time>2026-08-23T17:34:02.953Z</time>
      </trkpt>
      <trkpt lat="44.74348" lon="5.13958">
        <ele>339</ele>
        <time>2026-08-23T17:35:08.956Z</time>
      </trkpt>
      <trkpt lat="44.74349" lon="5.13959">
        <ele>339</ele>
        <time>2026-08-23T17:35:09.956Z</time>
      </trkpt>
      <trkpt lat="44.74349" lon="5.1396">
        <ele>339</ele>
        <time>2026-08-23T17:35:10.956Z</time>
      </trkpt>
      <trkpt lat="44.7435" lon="5.13961">
        <ele>339</ele>
        <time>2026-08-23T17:35:11.956Z</time>
      </trkpt>
      <trkpt lat="44.7435" lon="5.13962">
        <ele>339</ele>
        <time>2026-08-23T17:35:12.956Z</time>
      </trkpt>
      <trkpt lat="44.74351" lon="5.13963">
        <ele>339</ele>
        <time>2026-08-23T17:35:13.956Z</time>
      </trkpt>
      <trkpt lat="44.74352" lon="5.13963">
        <ele>339</ele>
        <time>2026-08-23T17:35:14.956Z</time>
      </trkpt>
      <trkpt lat="44.74352" lon="5.13964">
        <ele>338</ele>
        <time>2026-08-23T17:35:15.956Z</time>
      </trkpt>
      <trkpt lat="44.74353" lon="5.13964">
        <ele>338</ele>
        <time>2026-08-23T17:35:16.956Z</time>
      </trkpt>
      <trkpt lat="44.74353" lon="5.13964">
        <ele>338</ele>
        <time>2026-08-23T17:35:17.956Z</time>
      </trkpt>
      <trkpt lat="44.74354" lon="5.13965">
        <ele>338</ele>
        <time>2026-08-23T17:35:18.956Z</time>
      </trkpt>
      <trkpt lat="44.74354" lon="5.13965">
        <ele>338</ele>
        <time>2026-08-23T17:35:19.956Z</time>
      </trkpt>
      <trkpt lat="44.74355" lon="5.13965">
        <ele>338</ele>
        <time>2026-08-23T17:35:20.956Z</time>
      </trkpt>
      <trkpt lat="44.74355" lon="5.13966">
        <ele>338</ele>
        <time>2026-08-23T17:35:21.956Z</time>
      </trkpt>
      <trkpt lat="44.74356" lon="5.13966">
        <ele>338</ele>
        <time>2026-08-23T17:35:22.956Z</time>
      </trkpt>
      <trkpt lat="44.74356" lon="5.13966">
        <ele>338</ele>
        <time>2026-08-23T17:35:23.956Z</time>
      </trkpt>
      <trkpt lat="44.74356" lon="5.13967">
        <ele>338</ele>
        <time>2026-08-23T17:35:24.956Z</time>
      </trkpt>
      <trkpt lat="44.74356" lon="5.13967">
        <ele>338</ele>
        <time>2026-08-23T17:35:25.956Z</time>
      </trkpt>
      <trkpt lat="44.74358" lon="5.13967">
        <ele>338</ele>
        <time>2026-08-23T17:35:36.956Z</time>
      </trkpt>
      <trkpt lat="44.74359" lon="5.13967">
        <ele>338</ele>
        <time>2026-08-23T17:35:37.956Z</time>
      </trkpt>
      <trkpt lat="44.74359" lon="5.13967">
        <ele>338</ele>
        <time>2026-08-23T17:35:38.956Z</time>
      </trkpt>
      <trkpt lat="44.7436" lon="5.13967">
        <ele>338</ele>
        <time>2026-08-23T17:35:39.956Z</time>
      </trkpt>
      <trkpt lat="44.74361" lon="5.13967">
        <ele>338</ele>
        <time>2026-08-23T17:35:40.956Z</time>
      </trkpt>
      <trkpt lat="44.74361" lon="5.13967">
        <ele>338</ele>
        <time>2026-08-23T17:35:41.956Z</time>
      </trkpt>
      <trkpt lat="44.74361" lon="5.13967">
        <ele>338</ele>
        <time>2026-08-23T17:35:42.956Z</time>
      </trkpt>
      <trkpt lat="44.74362" lon="5.13967">
        <ele>338</ele>
        <time>2026-08-23T17:35:43.956Z</time>
      </trkpt>
      <trkpt lat="44.74362" lon="5.13967">
        <ele>338</ele>
        <time>2026-08-23T17:35:44.956Z</time>
      </trkpt>
      <trkpt lat="44.74363" lon="5.13967">
        <ele>338</ele>
        <time>2026-08-23T17:35:49.960Z</time>
      </trkpt>
      <trkpt lat="44.74363" lon="5.13966">
        <ele>338</ele>
        <time>2026-08-23T17:35:50.960Z</time>
      </trkpt>
      <trkpt lat="44.74364" lon="5.13966">
        <ele>338</ele>
        <time>2026-08-23T17:35:51.960Z</time>
      </trkpt>
      <trkpt lat="44.74364" lon="5.13965">
        <ele>338</ele>
        <time>2026-08-23T17:35:52.960Z</time>
      </trkpt>
      <trkpt lat="44.74365" lon="5.13965">
        <ele>338</ele>
        <time>2026-08-23T17:35:53.960Z</time>
      </trkpt>
      <trkpt lat="44.74365" lon="5.13965">
        <ele>338</ele>
        <time>2026-08-23T17:35:54.960Z</time>
      </trkpt>
      <trkpt lat="44.74365" lon="5.13965">
        <ele>338</ele>
        <time>2026-08-23T17:35:55.960Z</time>
      </trkpt>
      <trkpt lat="44.74365" lon="5.13965">
        <ele>337</ele>
        <time>2026-08-23T17:35:56.960Z</time>
      </trkpt>
      <trkpt lat="44.74365" lon="5.13965">
        <ele>337</ele>
        <time>2026-08-23T17:35:57.960Z</time>
      </trkpt>
      <trkpt lat="44.74365" lon="5.13965">
        <ele>337</ele>
        <time>2026-08-23T17:36:15.962Z</time>
      </trkpt>
      <trkpt lat="44.74366" lon="5.13965">
        <ele>337</ele>
        <time>2026-08-23T17:36:16.962Z</time>
      </trkpt>
      <trkpt lat="44.74367" lon="5.13964">
        <ele>337</ele>
        <time>2026-08-23T17:36:17.962Z</time>
      </trkpt>
      <trkpt lat="44.74368" lon="5.13963">
        <ele>337</ele>
        <time>2026-08-23T17:36:18.962Z</time>
      </trkpt>
      <trkpt lat="44.74369" lon="5.13963">
        <ele>337</ele>
        <time>2026-08-23T17:36:19.962Z</time>
      </trkpt>
      <trkpt lat="44.74369" lon="5.13962">
        <ele>337</ele>
        <time>2026-08-23T17:36:20.962Z</time>
      </trkpt>
      <trkpt lat="44.7437" lon="5.13961">
        <ele>337</ele>
        <time>2026-08-23T17:36:21.962Z</time>
      </trkpt>
      <trkpt lat="44.74371" lon="5.1396">
        <ele>337</ele>
        <time>2026-08-23T17:36:22.962Z</time>
      </trkpt>
      <trkpt lat="44.74372" lon="5.13959">
        <ele>337</ele>
        <time>2026-08-23T17:36:23.962Z</time>
      </trkpt>
      <trkpt lat="44.74373" lon="5.13959">
        <ele>337</ele>
        <time>2026-08-23T17:36:24.962Z</time>
      </trkpt>
      <trkpt lat="44.74374" lon="5.13958">
        <ele>337</ele>
        <time>2026-08-23T17:36:25.962Z</time>
      </trkpt>
      <trkpt lat="44.74375" lon="5.13957">
        <ele>337</ele>
        <time>2026-08-23T17:36:26.962Z</time>
      </trkpt>
      <trkpt lat="44.74376" lon="5.13956">
        <ele>337</ele>
        <time>2026-08-23T17:36:27.962Z</time>
      </trkpt>
      <trkpt lat="44.74376" lon="5.13954">
        <ele>337</ele>
        <time>2026-08-23T17:36:28.962Z</time>
      </trkpt>
      <trkpt lat="44.74377" lon="5.13953">
        <ele>337</ele>
        <time>2026-08-23T17:36:29.962Z</time>
      </trkpt>
      <trkpt lat="44.74378" lon="5.13952">
        <ele>337</ele>
        <time>2026-08-23T17:36:30.962Z</time>
      </trkpt>
      <trkpt lat="44.74379" lon="5.13951">
        <ele>337</ele>
        <time>2026-08-23T17:36:31.962Z</time>
      </trkpt>
      <trkpt lat="44.74379" lon="5.13949">
        <ele>337</ele>
        <time>2026-08-23T17:36:32.962Z</time>
      </trkpt>
      <trkpt lat="44.7438" lon="5.13948">
        <ele>337</ele>
        <time>2026-08-23T17:36:33.962Z</time>
      </trkpt>
      <trkpt lat="44.7438" lon="5.13946">
        <ele>337</ele>
        <time>2026-08-23T17:36:34.962Z</time>
      </trkpt>
      <trkpt lat="44.7438" lon="5.13944">
        <ele>337</ele>
        <time>2026-08-23T17:36:35.962Z</time>
      </trkpt>
      <trkpt lat="44.74381" lon="5.13943">
        <ele>337</ele>
        <time>2026-08-23T17:36:36.962Z</time>
      </trkpt>
      <trkpt lat="44.74381" lon="5.13941">
        <ele>337</ele>
        <time>2026-08-23T17:36:37.962Z</time>
      </trkpt>
      <trkpt lat="44.74381" lon="5.1394">
        <ele>337</ele>
        <time>2026-08-23T17:36:38.962Z</time>
      </trkpt>
      <trkpt lat="44.74381" lon="5.13938">
        <ele>337</ele>
        <time>2026-08-23T17:36:39.962Z</time>
      </trkpt>
      <trkpt lat="44.74381" lon="5.13936">
        <ele>337</ele>
        <time>2026-08-23T17:36:40.962Z</time>
      </trkpt>
      <trkpt lat="44.74381" lon="5.13934">
        <ele>337</ele>
        <time>2026-08-23T17:36:41.962Z</time>
      </trkpt>
      <trkpt lat="44.74381" lon="5.13933">
        <ele>337</ele>
        <time>2026-08-23T17:36:42.962Z</time>
      </trkpt>
      <trkpt lat="44.74381" lon="5.13931">
        <ele>337</ele>
        <time>2026-08-23T17:36:43.962Z</time>
      </trkpt>
      <trkpt lat="44.74381" lon="5.1393">
        <ele>337</ele>
        <time>2026-08-23T17:36:44.962Z</time>
      </trkpt>
      <trkpt lat="44.7438" lon="5.13928">
        <ele>337</ele>
        <time>2026-08-23T17:36:45.962Z</time>
      </trkpt>
      <trkpt lat="44.7438" lon="5.13926">
        <ele>337</ele>
        <time>2026-08-23T17:36:46.962Z</time>
      </trkpt>
      <trkpt lat="44.7438" lon="5.13925">
        <ele>337</ele>
        <time>2026-08-23T17:36:47.962Z</time>
      </trkpt>
      <trkpt lat="44.74379" lon="5.13923">
        <ele>337</ele>
        <time>2026-08-23T17:36:48.962Z</time>
      </trkpt>
      <trkpt lat="44.74379" lon="5.13922">
        <ele>337</ele>
        <time>2026-08-23T17:36:49.962Z</time>
      </trkpt>
      <trkpt lat="44.74378" lon="5.13921">
        <ele>337</ele>
        <time>2026-08-23T17:36:50.962Z</time>
      </trkpt>
      <trkpt lat="44.74378" lon="5.1392">
        <ele>337</ele>
        <time>2026-08-23T17:36:51.962Z</time>
      </trkpt>
      <trkpt lat="44.74377" lon="5.13918">
        <ele>337</ele>
        <time>2026-08-23T17:36:52.962Z</time>
      </trkpt>
      <trkpt lat="44.74377" lon="5.13917">
        <ele>337</ele>
        <time>2026-08-23T17:36:53.962Z</time>
      </trkpt>
      <trkpt lat="44.74376" lon="5.13915">
        <ele>337</ele>
        <time>2026-08-23T17:36:54.962Z</time>
      </trkpt>
      <trkpt lat="44.74376" lon="5.13914">
        <ele>337</ele>
        <time>2026-08-23T17:36:55.962Z</time>
      </trkpt>
      <trkpt lat="44.74376" lon="5.13912">
        <ele>337</ele>
        <time>2026-08-23T17:36:56.962Z</time>
      </trkpt>
      <trkpt lat="44.74375" lon="5.1391">
        <ele>337</ele>
        <time>2026-08-23T17:36:57.962Z</time>
      </trkpt>
      <trkpt lat="44.74375" lon="5.13909">
        <ele>337</ele>
        <time>2026-08-23T17:36:58.962Z</time>
      </trkpt>
      <trkpt lat="44.74375" lon="5.13907">
        <ele>337</ele>
        <time>2026-08-23T17:36:59.962Z</time>
      </trkpt>
      <trkpt lat="44.74375" lon="5.13906">
        <ele>337</ele>
        <time>2026-08-23T17:37:00.962Z</time>
      </trkpt>
      <trkpt lat="44.74374" lon="5.13904">
        <ele>337</ele>
        <time>2026-08-23T17:37:01.962Z</time>
      </trkpt>
      <trkpt lat="44.74374" lon="5.13903">
        <ele>337</ele>
        <time>2026-08-23T17:37:02.962Z</time>
      </trkpt>
      <trkpt lat="44.74374" lon="5.13901">
        <ele>337</ele>
        <time>2026-08-23T17:37:03.962Z</time>
      </trkpt>
      <trkpt lat="44.74374" lon="5.139">
        <ele>337</ele>
        <time>2026-08-23T17:37:04.962Z</time>
      </trkpt>
      <trkpt lat="44.74373" lon="5.13898">
        <ele>337</ele>
        <time>2026-08-23T17:37:05.962Z</time>
      </trkpt>
      <trkpt lat="44.74373" lon="5.13897">
        <ele>337</ele>
        <time>2026-08-23T17:37:06.962Z</time>
      </trkpt>
      <trkpt lat="44.74373" lon="5.13896">
        <ele>337</ele>
        <time>2026-08-23T17:37:07.962Z</time>
      </trkpt>
      <trkpt lat="44.74373" lon="5.13894">
        <ele>337</ele>
        <time>2026-08-23T17:37:08.962Z</time>
      </trkpt>
      <trkpt lat="44.74373" lon="5.13892">
        <ele>337</ele>
        <time>2026-08-23T17:37:09.962Z</time>
      </trkpt>
      <trkpt lat="44.74373" lon="5.13891">
        <ele>337</ele>
        <time>2026-08-23T17:37:10.962Z</time>
      </trkpt>
      <trkpt lat="44.74373" lon="5.13889">
        <ele>337</ele>
        <time>2026-08-23T17:37:11.962Z</time>
      </trkpt>
      <trkpt lat="44.74373" lon="5.13887">
        <ele>337</ele>
        <time>2026-08-23T17:37:12.962Z</time>
      </trkpt>
      <trkpt lat="44.74374" lon="5.13886">
        <ele>337</ele>
        <time>2026-08-23T17:37:13.962Z</time>
      </trkpt>
      <trkpt lat="44.74374" lon="5.13884">
        <ele>336</ele>
        <time>2026-08-23T17:37:14.962Z</time>
      </trkpt>
      <trkpt lat="44.74374" lon="5.13883">
        <ele>336</ele>
        <time>2026-08-23T17:37:15.962Z</time>
      </trkpt>
      <trkpt lat="44.74375" lon="5.13881">
        <ele>336</ele>
        <time>2026-08-23T17:37:16.962Z</time>
      </trkpt>
      <trkpt lat="44.74375" lon="5.1388">
        <ele>336</ele>
        <time>2026-08-23T17:37:17.962Z</time>
      </trkpt>
      <trkpt lat="44.74375" lon="5.13878">
        <ele>336</ele>
        <time>2026-08-23T17:37:18.962Z</time>
      </trkpt>
      <trkpt lat="44.74376" lon="5.13877">
        <ele>336</ele>
        <time>2026-08-23T17:37:19.962Z</time>
      </trkpt>
      <trkpt lat="44.74377" lon="5.13876">
        <ele>336</ele>
        <time>2026-08-23T17:37:20.962Z</time>
      </trkpt>
      <trkpt lat="44.74377" lon="5.13874">
        <ele>336</ele>
        <time>2026-08-23T17:37:21.962Z</time>
      </trkpt>
      <trkpt lat="44.74378" lon="5.13872">
        <ele>336</ele>
        <time>2026-08-23T17:37:22.962Z</time>
      </trkpt>
      <trkpt lat="44.74379" lon="5.13871">
        <ele>336</ele>
        <time>2026-08-23T17:37:23.962Z</time>
      </trkpt>
      <trkpt lat="44.74379" lon="5.1387">
        <ele>336</ele>
        <time>2026-08-23T17:37:24.962Z</time>
      </trkpt>
      <trkpt lat="44.7438" lon="5.13869">
        <ele>336</ele>
        <time>2026-08-23T17:37:25.962Z</time>
      </trkpt>
      <trkpt lat="44.74381" lon="5.13867">
        <ele>336</ele>
        <time>2026-08-23T17:37:26.962Z</time>
      </trkpt>
      <trkpt lat="44.74382" lon="5.13866">
        <ele>336</ele>
        <time>2026-08-23T17:37:27.962Z</time>
      </trkpt>
      <trkpt lat="44.74383" lon="5.13865">
        <ele>336</ele>
        <time>2026-08-23T17:37:28.962Z</time>
      </trkpt>
      <trkpt lat="44.74383" lon="5.13864">
        <ele>336</ele>
        <time>2026-08-23T17:37:29.962Z</time>
      </trkpt>
      <trkpt lat="44.74384" lon="5.13863">
        <ele>336</ele>
        <time>2026-08-23T17:37:30.962Z</time>
      </trkpt>
      <trkpt lat="44.74385" lon="5.13862">
        <ele>336</ele>
        <time>2026-08-23T17:37:31.962Z</time>
      </trkpt>
      <trkpt lat="44.74386" lon="5.13861">
        <ele>336</ele>
        <time>2026-08-23T17:37:32.962Z</time>
      </trkpt>
      <trkpt lat="44.74387" lon="5.1386">
        <ele>336</ele>
        <time>2026-08-23T17:37:33.962Z</time>
      </trkpt>
      <trkpt lat="44.74388" lon="5.13858">
        <ele>336</ele>
        <time>2026-08-23T17:37:34.962Z</time>
      </trkpt>
      <trkpt lat="44.74389" lon="5.13857">
        <ele>336</ele>
        <time>2026-08-23T17:37:35.962Z</time>
      </trkpt>
      <trkpt lat="44.74389" lon="5.13856">
        <ele>336</ele>
        <time>2026-08-23T17:37:36.962Z</time>
      </trkpt>
      <trkpt lat="44.7439" lon="5.13855">
        <ele>336</ele>
        <time>2026-08-23T17:37:37.962Z</time>
      </trkpt>
      <trkpt lat="44.74391" lon="5.13854">
        <ele>336</ele>
        <time>2026-08-23T17:37:38.962Z</time>
      </trkpt>
      <trkpt lat="44.74392" lon="5.13853">
        <ele>336</ele>
        <time>2026-08-23T17:37:39.962Z</time>
      </trkpt>
      <trkpt lat="44.74393" lon="5.13852">
        <ele>336</ele>
        <time>2026-08-23T17:37:40.962Z</time>
      </trkpt>
      <trkpt lat="44.74394" lon="5.13851">
        <ele>336</ele>
        <time>2026-08-23T17:37:41.962Z</time>
      </trkpt>
      <trkpt lat="44.74395" lon="5.1385">
        <ele>336</ele>
        <time>2026-08-23T17:37:42.962Z</time>
      </trkpt>
      <trkpt lat="44.74396" lon="5.13849">
        <ele>336</ele>
        <time>2026-08-23T17:37:43.962Z</time>
      </trkpt>
      <trkpt lat="44.74397" lon="5.13848">
        <ele>336</ele>
        <time>2026-08-23T17:37:44.962Z</time>
      </trkpt>
      <trkpt lat="44.74397" lon="5.13847">
        <ele>336</ele>
        <time>2026-08-23T17:37:45.962Z</time>
      </trkpt>
      <trkpt lat="44.74398" lon="5.13846">
        <ele>336</ele>
        <time>2026-08-23T17:37:46.962Z</time>
      </trkpt>
      <trkpt lat="44.74399" lon="5.13845">
        <ele>336</ele>
        <time>2026-08-23T17:37:47.962Z</time>
      </trkpt>
      <trkpt lat="44.744" lon="5.13844">
        <ele>336</ele>
        <time>2026-08-23T17:37:48.962Z</time>
      </trkpt>
      <trkpt lat="44.74401" lon="5.13843">
        <ele>336</ele>
        <time>2026-08-23T17:37:49.962Z</time>
      </trkpt>
      <trkpt lat="44.74402" lon="5.13842">
        <ele>336</ele>
        <time>2026-08-23T17:37:50.962Z</time>
      </trkpt>
      <trkpt lat="44.74403" lon="5.13841">
        <ele>336</ele>
        <time>2026-08-23T17:37:51.962Z</time>
      </trkpt>
      <trkpt lat="44.74404" lon="5.1384">
        <ele>336</ele>
        <time>2026-08-23T17:37:52.962Z</time>
      </trkpt>
      <trkpt lat="44.74405" lon="5.13839">
        <ele>336</ele>
        <time>2026-08-23T17:37:53.962Z</time>
      </trkpt>
      <trkpt lat="44.74406" lon="5.13838">
        <ele>336</ele>
        <time>2026-08-23T17:37:54.962Z</time>
      </trkpt>
      <trkpt lat="44.74407" lon="5.13837">
        <ele>336</ele>
        <time>2026-08-23T17:37:55.962Z</time>
      </trkpt>
      <trkpt lat="44.74408" lon="5.13837">
        <ele>336</ele>
        <time>2026-08-23T17:37:56.962Z</time>
      </trkpt>
      <trkpt lat="44.74408" lon="5.13836">
        <ele>336</ele>
        <time>2026-08-23T17:37:57.962Z</time>
      </trkpt>
      <trkpt lat="44.74409" lon="5.13835">
        <ele>336</ele>
        <time>2026-08-23T17:37:58.962Z</time>
      </trkpt>
      <trkpt lat="44.7441" lon="5.13834">
        <ele>336</ele>
        <time>2026-08-23T17:37:59.962Z</time>
      </trkpt>
      <trkpt lat="44.74411" lon="5.13833">
        <ele>336</ele>
        <time>2026-08-23T17:38:00.962Z</time>
      </trkpt>
      <trkpt lat="44.74412" lon="5.13832">
        <ele>336</ele>
        <time>2026-08-23T17:38:01.962Z</time>
      </trkpt>
      <trkpt lat="44.74413" lon="5.13831">
        <ele>336</ele>
        <time>2026-08-23T17:38:02.962Z</time>
      </trkpt>
      <trkpt lat="44.74414" lon="5.1383">
        <ele>336</ele>
        <time>2026-08-23T17:38:03.962Z</time>
      </trkpt>
      <trkpt lat="44.74415" lon="5.13829">
        <ele>336</ele>
        <time>2026-08-23T17:38:04.962Z</time>
      </trkpt>
      <trkpt lat="44.74416" lon="5.13828">
        <ele>336</ele>
        <time>2026-08-23T17:38:05.962Z</time>
      </trkpt>
      <trkpt lat="44.74416" lon="5.13827">
        <ele>336</ele>
        <time>2026-08-23T17:38:06.962Z</time>
      </trkpt>
      <trkpt lat="44.74417" lon="5.13826">
        <ele>336</ele>
        <time>2026-08-23T17:38:07.962Z</time>
      </trkpt>
      <trkpt lat="44.74418" lon="5.13825">
        <ele>336</ele>
        <time>2026-08-23T17:38:08.962Z</time>
      </trkpt>
      <trkpt lat="44.74419" lon="5.13824">
        <ele>336</ele>
        <time>2026-08-23T17:38:09.962Z</time>
      </trkpt>
      <trkpt lat="44.7442" lon="5.13823">
        <ele>336</ele>
        <time>2026-08-23T17:38:10.962Z</time>
      </trkpt>
      <trkpt lat="44.74421" lon="5.13822">
        <ele>336</ele>
        <time>2026-08-23T17:38:11.962Z</time>
      </trkpt>
      <trkpt lat="44.74422" lon="5.13821">
        <ele>336</ele>
        <time>2026-08-23T17:38:12.962Z</time>
      </trkpt>
      <trkpt lat="44.74423" lon="5.1382">
        <ele>336</ele>
        <time>2026-08-23T17:38:13.962Z</time>
      </trkpt>
      <trkpt lat="44.74424" lon="5.13819">
        <ele>336</ele>
        <time>2026-08-23T17:38:14.962Z</time>
      </trkpt>
      <trkpt lat="44.74425" lon="5.13818">
        <ele>336</ele>
        <time>2026-08-23T17:38:15.962Z</time>
      </trkpt>
      <trkpt lat="44.74425" lon="5.13817">
        <ele>335</ele>
        <time>2026-08-23T17:38:16.962Z</time>
      </trkpt>
      <trkpt lat="44.74426" lon="5.13816">
        <ele>335</ele>
        <time>2026-08-23T17:38:17.962Z</time>
      </trkpt>
      <trkpt lat="44.74427" lon="5.13815">
        <ele>335</ele>
        <time>2026-08-23T17:38:18.962Z</time>
      </trkpt>
      <trkpt lat="44.74428" lon="5.13814">
        <ele>335</ele>
        <time>2026-08-23T17:38:19.962Z</time>
      </trkpt>
      <trkpt lat="44.74429" lon="5.13813">
        <ele>335</ele>
        <time>2026-08-23T17:38:20.962Z</time>
      </trkpt>
      <trkpt lat="44.7443" lon="5.13812">
        <ele>335</ele>
        <time>2026-08-23T17:38:21.962Z</time>
      </trkpt>
      <trkpt lat="44.74431" lon="5.13811">
        <ele>335</ele>
        <time>2026-08-23T17:38:22.962Z</time>
      </trkpt>
      <trkpt lat="44.74432" lon="5.1381">
        <ele>335</ele>
        <time>2026-08-23T17:38:23.962Z</time>
      </trkpt>
      <trkpt lat="44.74432" lon="5.13809">
        <ele>335</ele>
        <time>2026-08-23T17:38:24.962Z</time>
      </trkpt>
      <trkpt lat="44.74433" lon="5.13808">
        <ele>335</ele>
        <time>2026-08-23T17:38:25.962Z</time>
      </trkpt>
      <trkpt lat="44.74434" lon="5.13807">
        <ele>335</ele>
        <time>2026-08-23T17:38:26.962Z</time>
      </trkpt>
      <trkpt lat="44.74435" lon="5.13806">
        <ele>335</ele>
        <time>2026-08-23T17:38:27.962Z</time>
      </trkpt>
      <trkpt lat="44.74436" lon="5.13805">
        <ele>335</ele>
        <time>2026-08-23T17:38:28.962Z</time>
      </trkpt>
      <trkpt lat="44.74437" lon="5.13804">
        <ele>335</ele>
        <time>2026-08-23T17:38:29.962Z</time>
      </trkpt>
      <trkpt lat="44.74438" lon="5.13803">
        <ele>335</ele>
        <time>2026-08-23T17:38:30.962Z</time>
      </trkpt>
      <trkpt lat="44.74439" lon="5.13802">
        <ele>335</ele>
        <time>2026-08-23T17:38:31.962Z</time>
      </trkpt>
      <trkpt lat="44.7444" lon="5.13802">
        <ele>335</ele>
        <time>2026-08-23T17:38:32.962Z</time>
      </trkpt>
      <trkpt lat="44.74441" lon="5.13801">
        <ele>335</ele>
        <time>2026-08-23T17:38:33.962Z</time>
      </trkpt>
      <trkpt lat="44.74442" lon="5.138">
        <ele>335</ele>
        <time>2026-08-23T17:38:34.962Z</time>
      </trkpt>
      <trkpt lat="44.74443" lon="5.13799">
        <ele>335</ele>
        <time>2026-08-23T17:38:35.962Z</time>
      </trkpt>
      <trkpt lat="44.74444" lon="5.13798">
        <ele>335</ele>
        <time>2026-08-23T17:38:36.962Z</time>
      </trkpt>
      <trkpt lat="44.74445" lon="5.13797">
        <ele>335</ele>
        <time>2026-08-23T17:38:37.962Z</time>
      </trkpt>
      <trkpt lat="44.74446" lon="5.13796">
        <ele>335</ele>
        <time>2026-08-23T17:38:38.962Z</time>
      </trkpt>
      <trkpt lat="44.74446" lon="5.13795">
        <ele>335</ele>
        <time>2026-08-23T17:38:39.962Z</time>
      </trkpt>
      <trkpt lat="44.74447" lon="5.13794">
        <ele>335</ele>
        <time>2026-08-23T17:38:40.962Z</time>
      </trkpt>
      <trkpt lat="44.74448" lon="5.13793">
        <ele>335</ele>
        <time>2026-08-23T17:38:41.962Z</time>
      </trkpt>
      <trkpt lat="44.74449" lon="5.13792">
        <ele>335</ele>
        <time>2026-08-23T17:38:42.962Z</time>
      </trkpt>
      <trkpt lat="44.7445" lon="5.13791">
        <ele>335</ele>
        <time>2026-08-23T17:38:43.962Z</time>
      </trkpt>
      <trkpt lat="44.74451" lon="5.1379">
        <ele>335</ele>
        <time>2026-08-23T17:38:44.962Z</time>
      </trkpt>
      <trkpt lat="44.74452" lon="5.13789">
        <ele>335</ele>
        <time>2026-08-23T17:38:45.962Z</time>
      </trkpt>
      <trkpt lat="44.74452" lon="5.13788">
        <ele>335</ele>
        <time>2026-08-23T17:38:46.962Z</time>
      </trkpt>
      <trkpt lat="44.74453" lon="5.13787">
        <ele>335</ele>
        <time>2026-08-23T17:38:47.962Z</time>
      </trkpt>
      <trkpt lat="44.74454" lon="5.13786">
        <ele>335</ele>
        <time>2026-08-23T17:38:48.962Z</time>
      </trkpt>
      <trkpt lat="44.74455" lon="5.13785">
        <ele>335</ele>
        <time>2026-08-23T17:38:49.962Z</time>
      </trkpt>
      <trkpt lat="44.74456" lon="5.13784">
        <ele>335</ele>
        <time>2026-08-23T17:38:50.962Z</time>
      </trkpt>
      <trkpt lat="44.74457" lon="5.13783">
        <ele>336</ele>
        <time>2026-08-23T17:38:51.962Z</time>
      </trkpt>
      <trkpt lat="44.74458" lon="5.13782">
        <ele>336</ele>
        <time>2026-08-23T17:38:52.962Z</time>
      </trkpt>
      <trkpt lat="44.74459" lon="5.13781">
        <ele>336</ele>
        <time>2026-08-23T17:38:53.962Z</time>
      </trkpt>
      <trkpt lat="44.7446" lon="5.1378">
        <ele>336</ele>
        <time>2026-08-23T17:38:54.962Z</time>
      </trkpt>
      <trkpt lat="44.74461" lon="5.13779">
        <ele>336</ele>
        <time>2026-08-23T17:38:55.962Z</time>
      </trkpt>
      <trkpt lat="44.74461" lon="5.13778">
        <ele>336</ele>
        <time>2026-08-23T17:38:56.962Z</time>
      </trkpt>
      <trkpt lat="44.74462" lon="5.13778">
        <ele>336</ele>
        <time>2026-08-23T17:38:57.962Z</time>
      </trkpt>
      <trkpt lat="44.74463" lon="5.13777">
        <ele>336</ele>
        <time>2026-08-23T17:38:58.962Z</time>
      </trkpt>
      <trkpt lat="44.74464" lon="5.13776">
        <ele>336</ele>
        <time>2026-08-23T17:38:59.962Z</time>
      </trkpt>
      <trkpt lat="44.74465" lon="5.13775">
        <ele>336</ele>
        <time>2026-08-23T17:39:00.962Z</time>
      </trkpt>
      <trkpt lat="44.74465" lon="5.13774">
        <ele>336</ele>
        <time>2026-08-23T17:39:01.962Z</time>
      </trkpt>
      <trkpt lat="44.74466" lon="5.13773">
        <ele>336</ele>
        <time>2026-08-23T17:39:02.962Z</time>
      </trkpt>
      <trkpt lat="44.74467" lon="5.13772">
        <ele>336</ele>
        <time>2026-08-23T17:39:03.962Z</time>
      </trkpt>
      <trkpt lat="44.74468" lon="5.13771">
        <ele>336</ele>
        <time>2026-08-23T17:39:04.962Z</time>
      </trkpt>
      <trkpt lat="44.74469" lon="5.1377">
        <ele>336</ele>
        <time>2026-08-23T17:39:05.962Z</time>
      </trkpt>
      <trkpt lat="44.7447" lon="5.13769">
        <ele>336</ele>
        <time>2026-08-23T17:39:06.962Z</time>
      </trkpt>
      <trkpt lat="44.74471" lon="5.13769">
        <ele>336</ele>
        <time>2026-08-23T17:39:07.962Z</time>
      </trkpt>
      <trkpt lat="44.74472" lon="5.13768">
        <ele>336</ele>
        <time>2026-08-23T17:39:08.962Z</time>
      </trkpt>
      <trkpt lat="44.74473" lon="5.13767">
        <ele>337</ele>
        <time>2026-08-23T17:39:09.962Z</time>
      </trkpt>
      <trkpt lat="44.74474" lon="5.13766">
        <ele>337</ele>
        <time>2026-08-23T17:39:10.962Z</time>
      </trkpt>
      <trkpt lat="44.74474" lon="5.13765">
        <ele>337</ele>
        <time>2026-08-23T17:39:11.962Z</time>
      </trkpt>
      <trkpt lat="44.74475" lon="5.13765">
        <ele>337</ele>
        <time>2026-08-23T17:39:12.962Z</time>
      </trkpt>
      <trkpt lat="44.74476" lon="5.13764">
        <ele>337</ele>
        <time>2026-08-23T17:39:13.962Z</time>
      </trkpt>
      <trkpt lat="44.74477" lon="5.13763">
        <ele>337</ele>
        <time>2026-08-23T17:39:14.962Z</time>
      </trkpt>
      <trkpt lat="44.74478" lon="5.13762">
        <ele>337</ele>
        <time>2026-08-23T17:39:15.962Z</time>
      </trkpt>
      <trkpt lat="44.74478" lon="5.13761">
        <ele>337</ele>
        <time>2026-08-23T17:39:16.962Z</time>
      </trkpt>
      <trkpt lat="44.74479" lon="5.1376">
        <ele>337</ele>
        <time>2026-08-23T17:39:17.962Z</time>
      </trkpt>
      <trkpt lat="44.7448" lon="5.13759">
        <ele>337</ele>
        <time>2026-08-23T17:39:18.962Z</time>
      </trkpt>
      <trkpt lat="44.74481" lon="5.13758">
        <ele>337</ele>
        <time>2026-08-23T17:39:19.962Z</time>
      </trkpt>
      <trkpt lat="44.74482" lon="5.13758">
        <ele>337</ele>
        <time>2026-08-23T17:39:20.962Z</time>
      </trkpt>
      <trkpt lat="44.74483" lon="5.13757">
        <ele>337</ele>
        <time>2026-08-23T17:39:21.962Z</time>
      </trkpt>
      <trkpt lat="44.74483" lon="5.13756">
        <ele>337</ele>
        <time>2026-08-23T17:39:22.962Z</time>
      </trkpt>
      <trkpt lat="44.74484" lon="5.13755">
        <ele>337</ele>
        <time>2026-08-23T17:39:23.962Z</time>
      </trkpt>
      <trkpt lat="44.74485" lon="5.13754">
        <ele>337</ele>
        <time>2026-08-23T17:39:24.962Z</time>
      </trkpt>
      <trkpt lat="44.74486" lon="5.13754">
        <ele>337</ele>
        <time>2026-08-23T17:39:25.962Z</time>
      </trkpt>
      <trkpt lat="44.74487" lon="5.13753">
        <ele>337</ele>
        <time>2026-08-23T17:39:26.962Z</time>
      </trkpt>
      <trkpt lat="44.74488" lon="5.13752">
        <ele>337</ele>
        <time>2026-08-23T17:39:27.962Z</time>
      </trkpt>
      <trkpt lat="44.74489" lon="5.13752">
        <ele>337</ele>
        <time>2026-08-23T17:39:28.962Z</time>
      </trkpt>
      <trkpt lat="44.7449" lon="5.13751">
        <ele>337</ele>
        <time>2026-08-23T17:39:29.962Z</time>
      </trkpt>
      <trkpt lat="44.74491" lon="5.13751">
        <ele>337</ele>
        <time>2026-08-23T17:39:30.962Z</time>
      </trkpt>
      <trkpt lat="44.74492" lon="5.1375">
        <ele>337</ele>
        <time>2026-08-23T17:39:31.962Z</time>
      </trkpt>
      <trkpt lat="44.74493" lon="5.13749">
        <ele>337</ele>
        <time>2026-08-23T17:39:32.962Z</time>
      </trkpt>
      <trkpt lat="44.74494" lon="5.13749">
        <ele>337</ele>
        <time>2026-08-23T17:39:33.962Z</time>
      </trkpt>
      <trkpt lat="44.74495" lon="5.13748">
        <ele>337</ele>
        <time>2026-08-23T17:39:34.962Z</time>
      </trkpt>
      <trkpt lat="44.74496" lon="5.13748">
        <ele>338</ele>
        <time>2026-08-23T17:39:35.962Z</time>
      </trkpt>
      <trkpt lat="44.74497" lon="5.13747">
        <ele>338</ele>
        <time>2026-08-23T17:39:36.962Z</time>
      </trkpt>
      <trkpt lat="44.74498" lon="5.13747">
        <ele>338</ele>
        <time>2026-08-23T17:39:37.962Z</time>
      </trkpt>
      <trkpt lat="44.74499" lon="5.13746">
        <ele>338</ele>
        <time>2026-08-23T17:39:38.962Z</time>
      </trkpt>
      <trkpt lat="44.745" lon="5.13745">
        <ele>338</ele>
        <time>2026-08-23T17:39:39.962Z</time>
      </trkpt>
      <trkpt lat="44.74501" lon="5.13745">
        <ele>338</ele>
        <time>2026-08-23T17:39:40.962Z</time>
      </trkpt>
      <trkpt lat="44.74502" lon="5.13744">
        <ele>338</ele>
        <time>2026-08-23T17:39:41.962Z</time>
      </trkpt>
      <trkpt lat="44.74503" lon="5.13744">
        <ele>338</ele>
        <time>2026-08-23T17:39:42.962Z</time>
      </trkpt>
      <trkpt lat="44.74504" lon="5.13744">
        <ele>338</ele>
        <time>2026-08-23T17:39:43.962Z</time>
      </trkpt>
      <trkpt lat="44.74505" lon="5.13743">
        <ele>338</ele>
        <time>2026-08-23T17:39:44.962Z</time>
      </trkpt>
      <trkpt lat="44.74506" lon="5.13743">
        <ele>338</ele>
        <time>2026-08-23T17:39:45.962Z</time>
      </trkpt>
      <trkpt lat="44.74508" lon="5.13742">
        <ele>338</ele>
        <time>2026-08-23T17:39:46.962Z</time>
      </trkpt>
      <trkpt lat="44.74509" lon="5.13742">
        <ele>338</ele>
        <time>2026-08-23T17:39:47.962Z</time>
      </trkpt>
      <trkpt lat="44.7451" lon="5.13742">
        <ele>338</ele>
        <time>2026-08-23T17:39:48.962Z</time>
      </trkpt>
      <trkpt lat="44.74511" lon="5.13741">
        <ele>338</ele>
        <time>2026-08-23T17:39:49.962Z</time>
      </trkpt>
      <trkpt lat="44.74512" lon="5.13741">
        <ele>338</ele>
        <time>2026-08-23T17:39:50.962Z</time>
      </trkpt>
      <trkpt lat="44.74513" lon="5.13741">
        <ele>338</ele>
        <time>2026-08-23T17:39:51.962Z</time>
      </trkpt>
      <trkpt lat="44.74514" lon="5.13741">
        <ele>338</ele>
        <time>2026-08-23T17:39:52.962Z</time>
      </trkpt>
      <trkpt lat="44.74515" lon="5.13741">
        <ele>338</ele>
        <time>2026-08-23T17:39:53.962Z</time>
      </trkpt>
      <trkpt lat="44.74516" lon="5.1374">
        <ele>338</ele>
        <time>2026-08-23T17:39:54.962Z</time>
      </trkpt>
      <trkpt lat="44.74517" lon="5.1374">
        <ele>338</ele>
        <time>2026-08-23T17:39:55.962Z</time>
      </trkpt>
      <trkpt lat="44.74518" lon="5.1374">
        <ele>338</ele>
        <time>2026-08-23T17:39:56.962Z</time>
      </trkpt>
      <trkpt lat="44.74519" lon="5.13739">
        <ele>338</ele>
        <time>2026-08-23T17:39:57.962Z</time>
      </trkpt>
      <trkpt lat="44.7452" lon="5.13739">
        <ele>338</ele>
        <time>2026-08-23T17:39:58.962Z</time>
      </trkpt>
      <trkpt lat="44.74522" lon="5.13738">
        <ele>338</ele>
        <time>2026-08-23T17:39:59.962Z</time>
      </trkpt>
      <trkpt lat="44.74523" lon="5.13738">
        <ele>338</ele>
        <time>2026-08-23T17:40:00.962Z</time>
      </trkpt>
      <trkpt lat="44.74524" lon="5.13738">
        <ele>338</ele>
        <time>2026-08-23T17:40:01.962Z</time>
      </trkpt>
      <trkpt lat="44.74525" lon="5.13738">
        <ele>338</ele>
        <time>2026-08-23T17:40:02.962Z</time>
      </trkpt>
      <trkpt lat="44.74526" lon="5.13738">
        <ele>338</ele>
        <time>2026-08-23T17:40:03.962Z</time>
      </trkpt>
      <trkpt lat="44.74527" lon="5.13737">
        <ele>338</ele>
        <time>2026-08-23T17:40:04.962Z</time>
      </trkpt>
      <trkpt lat="44.74528" lon="5.13737">
        <ele>338</ele>
        <time>2026-08-23T17:40:05.962Z</time>
      </trkpt>
      <trkpt lat="44.7453" lon="5.13737">
        <ele>338</ele>
        <time>2026-08-23T17:40:06.962Z</time>
      </trkpt>
      <trkpt lat="44.74531" lon="5.13737">
        <ele>338</ele>
        <time>2026-08-23T17:40:07.962Z</time>
      </trkpt>
      <trkpt lat="44.74532" lon="5.13737">
        <ele>338</ele>
        <time>2026-08-23T17:40:08.962Z</time>
      </trkpt>
      <trkpt lat="44.74533" lon="5.13737">
        <ele>338</ele>
        <time>2026-08-23T17:40:09.962Z</time>
      </trkpt>
      <trkpt lat="44.74534" lon="5.13737">
        <ele>338</ele>
        <time>2026-08-23T17:40:10.962Z</time>
      </trkpt>
      <trkpt lat="44.74535" lon="5.13736">
        <ele>338</ele>
        <time>2026-08-23T17:40:11.962Z</time>
      </trkpt>
      <trkpt lat="44.74536" lon="5.13736">
        <ele>338</ele>
        <time>2026-08-23T17:40:12.962Z</time>
      </trkpt>
      <trkpt lat="44.74537" lon="5.13736">
        <ele>338</ele>
        <time>2026-08-23T17:40:13.962Z</time>
      </trkpt>
      <trkpt lat="44.74538" lon="5.13735">
        <ele>338</ele>
        <time>2026-08-23T17:40:14.962Z</time>
      </trkpt>
      <trkpt lat="44.74539" lon="5.13736">
        <ele>338</ele>
        <time>2026-08-23T17:40:15.962Z</time>
      </trkpt>
      <trkpt lat="44.7454" lon="5.13736">
        <ele>338</ele>
        <time>2026-08-23T17:40:16.962Z</time>
      </trkpt>
      <trkpt lat="44.74541" lon="5.13737">
        <ele>338</ele>
        <time>2026-08-23T17:40:17.962Z</time>
      </trkpt>
      <trkpt lat="44.74542" lon="5.13737">
        <ele>338</ele>
        <time>2026-08-23T17:40:18.962Z</time>
      </trkpt>
      <trkpt lat="44.74543" lon="5.13738">
        <ele>338</ele>
        <time>2026-08-23T17:40:19.962Z</time>
      </trkpt>
      <trkpt lat="44.74544" lon="5.13739">
        <ele>338</ele>
        <time>2026-08-23T17:40:20.962Z</time>
      </trkpt>
      <trkpt lat="44.74544" lon="5.1374">
        <ele>338</ele>
        <time>2026-08-23T17:40:21.962Z</time>
      </trkpt>
      <trkpt lat="44.74545" lon="5.13741">
        <ele>338</ele>
        <time>2026-08-23T17:40:22.962Z</time>
      </trkpt>
      <trkpt lat="44.74545" lon="5.13742">
        <ele>338</ele>
        <time>2026-08-23T17:40:23.962Z</time>
      </trkpt>
      <trkpt lat="44.74545" lon="5.13743">
        <ele>338</ele>
        <time>2026-08-23T17:40:24.962Z</time>
      </trkpt>
      <trkpt lat="44.74546" lon="5.13744">
        <ele>338</ele>
        <time>2026-08-23T17:40:25.962Z</time>
      </trkpt>
      <trkpt lat="44.74546" lon="5.13745">
        <ele>338</ele>
        <time>2026-08-23T17:40:26.962Z</time>
      </trkpt>
      <trkpt lat="44.74546" lon="5.13746">
        <ele>338</ele>
        <time>2026-08-23T17:40:27.962Z</time>
      </trkpt>
      <trkpt lat="44.74546" lon="5.13747">
        <ele>338</ele>
        <time>2026-08-23T17:40:28.962Z</time>
      </trkpt>
      <trkpt lat="44.74546" lon="5.13748">
        <ele>338</ele>
        <time>2026-08-23T17:40:29.962Z</time>
      </trkpt>
      <trkpt lat="44.74546" lon="5.13748">
        <ele>338</ele>
        <time>2026-08-23T17:40:30.962Z</time>
      </trkpt>
      <trkpt lat="44.74546" lon="5.13748">
        <ele>337</ele>
        <time>2026-08-23T17:40:31.962Z</time>
      </trkpt>
      <trkpt lat="44.74546" lon="5.13748">
        <ele>337</ele>
        <time>2026-08-23T17:40:32.962Z</time>
      </trkpt>
      <trkpt lat="44.74546" lon="5.13748">
        <ele>337</ele>
        <time>2026-08-23T17:40:33.962Z</time>
      </trkpt>
      <trkpt lat="44.74546" lon="5.1375">
        <ele>337</ele>
        <time>2026-08-23T17:40:38.967Z</time>
      </trkpt>
      <trkpt lat="44.74546" lon="5.13751">
        <ele>337</ele>
        <time>2026-08-23T17:40:39.967Z</time>
      </trkpt>
      <trkpt lat="44.74546" lon="5.13752">
        <ele>337</ele>
        <time>2026-08-23T17:40:40.967Z</time>
      </trkpt>
      <trkpt lat="44.74546" lon="5.13753">
        <ele>337</ele>
        <time>2026-08-23T17:40:41.967Z</time>
      </trkpt>
      <trkpt lat="44.74547" lon="5.13753">
        <ele>337</ele>
        <time>2026-08-23T17:40:42.967Z</time>
      </trkpt>
      <trkpt lat="44.74547" lon="5.13754">
        <ele>337</ele>
        <time>2026-08-23T17:40:43.967Z</time>
      </trkpt>
      <trkpt lat="44.74547" lon="5.13755">
        <ele>337</ele>
        <time>2026-08-23T17:40:44.967Z</time>
      </trkpt>
      <trkpt lat="44.74547" lon="5.13755">
        <ele>337</ele>
        <time>2026-08-23T17:40:45.967Z</time>
      </trkpt>
      <trkpt lat="44.74547" lon="5.13756">
        <ele>337</ele>
        <time>2026-08-23T17:40:46.967Z</time>
      </trkpt>
      <trkpt lat="44.74547" lon="5.13757">
        <ele>337</ele>
        <time>2026-08-23T17:40:47.967Z</time>
      </trkpt>
      <trkpt lat="44.74547" lon="5.13758">
        <ele>338</ele>
        <time>2026-08-23T17:40:48.967Z</time>
      </trkpt>
      <trkpt lat="44.74547" lon="5.13759">
        <ele>338</ele>
        <time>2026-08-23T17:40:49.967Z</time>
      </trkpt>
      <trkpt lat="44.74547" lon="5.1376">
        <ele>338</ele>
        <time>2026-08-23T17:40:50.967Z</time>
      </trkpt>
      <trkpt lat="44.74547" lon="5.13761">
        <ele>338</ele>
        <time>2026-08-23T17:40:51.967Z</time>
      </trkpt>
      <trkpt lat="44.74547" lon="5.13762">
        <ele>338</ele>
        <time>2026-08-23T17:40:52.967Z</time>
      </trkpt>
      <trkpt lat="44.74547" lon="5.13763">
        <ele>338</ele>
        <time>2026-08-23T17:40:53.967Z</time>
      </trkpt>
      <trkpt lat="44.74547" lon="5.13765">
        <ele>338</ele>
        <time>2026-08-23T17:40:54.967Z</time>
      </trkpt>
      <trkpt lat="44.74547" lon="5.13765">
        <ele>338</ele>
        <time>2026-08-23T17:40:55.967Z</time>
      </trkpt>
      <trkpt lat="44.74547" lon="5.13766">
        <ele>338</ele>
        <time>2026-08-23T17:40:56.967Z</time>
      </trkpt>
      <trkpt lat="44.74547" lon="5.13768">
        <ele>337</ele>
        <time>2026-08-23T17:40:57.967Z</time>
      </trkpt>
      <trkpt lat="44.74547" lon="5.13769">
        <ele>337</ele>
        <time>2026-08-23T17:40:58.967Z</time>
      </trkpt>
      <trkpt lat="44.74547" lon="5.1377">
        <ele>337</ele>
        <time>2026-08-23T17:40:59.967Z</time>
      </trkpt>
      <trkpt lat="44.74547" lon="5.13771">
        <ele>337</ele>
        <time>2026-08-23T17:41:00.967Z</time>
      </trkpt>
      <trkpt lat="44.74547" lon="5.13772">
        <ele>337</ele>
        <time>2026-08-23T17:41:01.967Z</time>
      </trkpt>
      <trkpt lat="44.74547" lon="5.13773">
        <ele>337</ele>
        <time>2026-08-23T17:41:02.967Z</time>
      </trkpt>
      <trkpt lat="44.74547" lon="5.13774">
        <ele>337</ele>
        <time>2026-08-23T17:41:03.967Z</time>
      </trkpt>
      <trkpt lat="44.74547" lon="5.13774">
        <ele>337</ele>
        <time>2026-08-23T17:41:04.967Z</time>
      </trkpt>
      <trkpt lat="44.74548" lon="5.13774">
        <ele>337</ele>
        <time>2026-08-23T17:41:05.967Z</time>
      </trkpt>
      <trkpt lat="44.74548" lon="5.13775">
        <ele>337</ele>
        <time>2026-08-23T17:41:06.967Z</time>
      </trkpt>
      <trkpt lat="44.74547" lon="5.13776">
        <ele>338</ele>
        <time>2026-08-23T17:41:07.967Z</time>
      </trkpt>
      <trkpt lat="44.74547" lon="5.13777">
        <ele>338</ele>
        <time>2026-08-23T17:41:08.967Z</time>
      </trkpt>
      <trkpt lat="44.74547" lon="5.13778">
        <ele>338</ele>
        <time>2026-08-23T17:41:09.967Z</time>
      </trkpt>
      <trkpt lat="44.74547" lon="5.13779">
        <ele>338</ele>
        <time>2026-08-23T17:41:10.967Z</time>
      </trkpt>
      <trkpt lat="44.74547" lon="5.13781">
        <ele>338</ele>
        <time>2026-08-23T17:41:11.967Z</time>
      </trkpt>
      <trkpt lat="44.74547" lon="5.13782">
        <ele>338</ele>
        <time>2026-08-23T17:41:12.967Z</time>
      </trkpt>
      <trkpt lat="44.74547" lon="5.13783">
        <ele>338</ele>
        <time>2026-08-23T17:41:13.967Z</time>
      </trkpt>
      <trkpt lat="44.74547" lon="5.13784">
        <ele>338</ele>
        <time>2026-08-23T17:41:14.967Z</time>
      </trkpt>
      <trkpt lat="44.74546" lon="5.13785">
        <ele>338</ele>
        <time>2026-08-23T17:41:15.967Z</time>
      </trkpt>
      <trkpt lat="44.74546" lon="5.13786">
        <ele>338</ele>
        <time>2026-08-23T17:41:16.967Z</time>
      </trkpt>
      <trkpt lat="44.74546" lon="5.13787">
        <ele>338</ele>
        <time>2026-08-23T17:41:17.967Z</time>
      </trkpt>
      <trkpt lat="44.74545" lon="5.13788">
        <ele>338</ele>
        <time>2026-08-23T17:41:18.967Z</time>
      </trkpt>
      <trkpt lat="44.74545" lon="5.1379">
        <ele>338</ele>
        <time>2026-08-23T17:41:19.967Z</time>
      </trkpt>
      <trkpt lat="44.74545" lon="5.13791">
        <ele>338</ele>
        <time>2026-08-23T17:41:20.967Z</time>
      </trkpt>
      <trkpt lat="44.74544" lon="5.13792">
        <ele>338</ele>
        <time>2026-08-23T17:41:21.967Z</time>
      </trkpt>
      <trkpt lat="44.74544" lon="5.13793">
        <ele>338</ele>
        <time>2026-08-23T17:41:22.967Z</time>
      </trkpt>
      <trkpt lat="44.74544" lon="5.13794">
        <ele>338</ele>
        <time>2026-08-23T17:41:23.967Z</time>
      </trkpt>
      <trkpt lat="44.74544" lon="5.13795">
        <ele>338</ele>
        <time>2026-08-23T17:41:24.967Z</time>
      </trkpt>
      <trkpt lat="44.74544" lon="5.13797">
        <ele>338</ele>
        <time>2026-08-23T17:41:25.967Z</time>
      </trkpt>
      <trkpt lat="44.74544" lon="5.13798">
        <ele>338</ele>
        <time>2026-08-23T17:41:26.967Z</time>
      </trkpt>
      <trkpt lat="44.74544" lon="5.13799">
        <ele>338</ele>
        <time>2026-08-23T17:41:27.967Z</time>
      </trkpt>
      <trkpt lat="44.74544" lon="5.138">
        <ele>339</ele>
        <time>2026-08-23T17:41:28.967Z</time>
      </trkpt>
      <trkpt lat="44.74544" lon="5.13801">
        <ele>339</ele>
        <time>2026-08-23T17:41:29.967Z</time>
      </trkpt>
      <trkpt lat="44.74545" lon="5.13803">
        <ele>339</ele>
        <time>2026-08-23T17:41:30.967Z</time>
      </trkpt>
      <trkpt lat="44.74545" lon="5.13804">
        <ele>339</ele>
        <time>2026-08-23T17:41:31.967Z</time>
      </trkpt>
      <trkpt lat="44.74545" lon="5.13805">
        <ele>339</ele>
        <time>2026-08-23T17:41:32.967Z</time>
      </trkpt>
      <trkpt lat="44.74545" lon="5.13806">
        <ele>339</ele>
        <time>2026-08-23T17:41:33.967Z</time>
      </trkpt>
      <trkpt lat="44.74545" lon="5.13807">
        <ele>339</ele>
        <time>2026-08-23T17:41:34.967Z</time>
      </trkpt>
      <trkpt lat="44.74545" lon="5.13809">
        <ele>339</ele>
        <time>2026-08-23T17:41:35.967Z</time>
      </trkpt>
      <trkpt lat="44.74545" lon="5.1381">
        <ele>339</ele>
        <time>2026-08-23T17:41:36.967Z</time>
      </trkpt>
      <trkpt lat="44.74544" lon="5.1381">
        <ele>339</ele>
        <time>2026-08-23T17:41:37.967Z</time>
      </trkpt>
      <trkpt lat="44.74544" lon="5.13811">
        <ele>339</ele>
        <time>2026-08-23T17:41:38.967Z</time>
      </trkpt>
      <trkpt lat="44.74544" lon="5.13812">
        <ele>339</ele>
        <time>2026-08-23T17:41:39.967Z</time>
      </trkpt>
      <trkpt lat="44.74544" lon="5.13814">
        <ele>339</ele>
        <time>2026-08-23T17:41:40.967Z</time>
      </trkpt>
      <trkpt lat="44.74544" lon="5.13815">
        <ele>339</ele>
        <time>2026-08-23T17:41:41.967Z</time>
      </trkpt>
      <trkpt lat="44.74544" lon="5.13816">
        <ele>339</ele>
        <time>2026-08-23T17:41:42.967Z</time>
      </trkpt>
      <trkpt lat="44.74544" lon="5.13817">
        <ele>339</ele>
        <time>2026-08-23T17:41:43.967Z</time>
      </trkpt>
      <trkpt lat="44.74544" lon="5.13818">
        <ele>340</ele>
        <time>2026-08-23T17:41:44.967Z</time>
      </trkpt>
      <trkpt lat="44.74544" lon="5.13819">
        <ele>340</ele>
        <time>2026-08-23T17:41:45.967Z</time>
      </trkpt>
      <trkpt lat="44.74544" lon="5.13821">
        <ele>340</ele>
        <time>2026-08-23T17:41:46.967Z</time>
      </trkpt>
      <trkpt lat="44.74544" lon="5.13822">
        <ele>340</ele>
        <time>2026-08-23T17:41:47.967Z</time>
      </trkpt>
      <trkpt lat="44.74544" lon="5.13823">
        <ele>340</ele>
        <time>2026-08-23T17:41:48.967Z</time>
      </trkpt>
      <trkpt lat="44.74544" lon="5.13824">
        <ele>340</ele>
        <time>2026-08-23T17:41:49.967Z</time>
      </trkpt>
      <trkpt lat="44.74544" lon="5.13825">
        <ele>340</ele>
        <time>2026-08-23T17:41:50.967Z</time>
      </trkpt>
      <trkpt lat="44.74545" lon="5.13826">
        <ele>340</ele>
        <time>2026-08-23T17:41:51.967Z</time>
      </trkpt>
      <trkpt lat="44.74545" lon="5.13828">
        <ele>340</ele>
        <time>2026-08-23T17:41:52.967Z</time>
      </trkpt>
      <trkpt lat="44.74545" lon="5.13829">
        <ele>340</ele>
        <time>2026-08-23T17:41:53.967Z</time>
      </trkpt>
      <trkpt lat="44.74544" lon="5.1383">
        <ele>340</ele>
        <time>2026-08-23T17:41:54.967Z</time>
      </trkpt>
      <trkpt lat="44.74544" lon="5.13831">
        <ele>340</ele>
        <time>2026-08-23T17:41:55.967Z</time>
      </trkpt>
      <trkpt lat="44.74544" lon="5.13832">
        <ele>340</ele>
        <time>2026-08-23T17:41:56.967Z</time>
      </trkpt>
      <trkpt lat="44.74544" lon="5.13833">
        <ele>340</ele>
        <time>2026-08-23T17:41:57.967Z</time>
      </trkpt>
      <trkpt lat="44.74544" lon="5.13834">
        <ele>340</ele>
        <time>2026-08-23T17:41:58.967Z</time>
      </trkpt>
      <trkpt lat="44.74544" lon="5.13835">
        <ele>340</ele>
        <time>2026-08-23T17:41:59.967Z</time>
      </trkpt>
      <trkpt lat="44.74544" lon="5.13836">
        <ele>341</ele>
        <time>2026-08-23T17:42:00.967Z</time>
      </trkpt>
      <trkpt lat="44.74544" lon="5.13837">
        <ele>341</ele>
        <time>2026-08-23T17:42:01.967Z</time>
      </trkpt>
      <trkpt lat="44.74544" lon="5.13838">
        <ele>341</ele>
        <time>2026-08-23T17:42:02.967Z</time>
      </trkpt>
      <trkpt lat="44.74544" lon="5.13839">
        <ele>341</ele>
        <time>2026-08-23T17:42:03.967Z</time>
      </trkpt>
      <trkpt lat="44.74544" lon="5.1384">
        <ele>341</ele>
        <time>2026-08-23T17:42:04.967Z</time>
      </trkpt>
      <trkpt lat="44.74544" lon="5.13841">
        <ele>341</ele>
        <time>2026-08-23T17:42:05.967Z</time>
      </trkpt>
      <trkpt lat="44.74544" lon="5.13842">
        <ele>341</ele>
        <time>2026-08-23T17:42:06.967Z</time>
      </trkpt>
      <trkpt lat="44.74544" lon="5.13843">
        <ele>341</ele>
        <time>2026-08-23T17:42:07.967Z</time>
      </trkpt>
      <trkpt lat="44.74543" lon="5.13844">
        <ele>341</ele>
        <time>2026-08-23T17:42:08.967Z</time>
      </trkpt>
      <trkpt lat="44.74543" lon="5.13845">
        <ele>341</ele>
        <time>2026-08-23T17:42:09.967Z</time>
      </trkpt>
      <trkpt lat="44.74543" lon="5.13847">
        <ele>341</ele>
        <time>2026-08-23T17:42:10.967Z</time>
      </trkpt>
      <trkpt lat="44.74543" lon="5.13848">
        <ele>341</ele>
        <time>2026-08-23T17:42:11.967Z</time>
      </trkpt>
      <trkpt lat="44.74543" lon="5.13849">
        <ele>341</ele>
        <time>2026-08-23T17:42:12.967Z</time>
      </trkpt>
      <trkpt lat="44.74543" lon="5.1385">
        <ele>342</ele>
        <time>2026-08-23T17:42:13.967Z</time>
      </trkpt>
      <trkpt lat="44.74543" lon="5.13851">
        <ele>342</ele>
        <time>2026-08-23T17:42:14.967Z</time>
      </trkpt>
      <trkpt lat="44.74543" lon="5.13852">
        <ele>342</ele>
        <time>2026-08-23T17:42:15.967Z</time>
      </trkpt>
      <trkpt lat="44.74543" lon="5.13853">
        <ele>342</ele>
        <time>2026-08-23T17:42:16.967Z</time>
      </trkpt>
      <trkpt lat="44.74543" lon="5.13854">
        <ele>342</ele>
        <time>2026-08-23T17:42:17.967Z</time>
      </trkpt>
      <trkpt lat="44.74543" lon="5.13855">
        <ele>342</ele>
        <time>2026-08-23T17:42:18.967Z</time>
      </trkpt>
      <trkpt lat="44.74543" lon="5.13856">
        <ele>342</ele>
        <time>2026-08-23T17:42:19.967Z</time>
      </trkpt>
      <trkpt lat="44.74543" lon="5.13857">
        <ele>342</ele>
        <time>2026-08-23T17:42:20.967Z</time>
      </trkpt>
      <trkpt lat="44.74543" lon="5.13859">
        <ele>343</ele>
        <time>2026-08-23T17:42:21.967Z</time>
      </trkpt>
      <trkpt lat="44.74543" lon="5.1386">
        <ele>343</ele>
        <time>2026-08-23T17:42:22.967Z</time>
      </trkpt>
      <trkpt lat="44.74543" lon="5.13861">
        <ele>343</ele>
        <time>2026-08-23T17:42:23.967Z</time>
      </trkpt>
      <trkpt lat="44.74543" lon="5.13862">
        <ele>343</ele>
        <time>2026-08-23T17:42:24.967Z</time>
      </trkpt>
      <trkpt lat="44.74543" lon="5.13863">
        <ele>343</ele>
        <time>2026-08-23T17:42:25.967Z</time>
      </trkpt>
      <trkpt lat="44.74542" lon="5.13864">
        <ele>343</ele>
        <time>2026-08-23T17:42:26.967Z</time>
      </trkpt>
      <trkpt lat="44.74542" lon="5.13864">
        <ele>343</ele>
        <time>2026-08-23T17:42:27.967Z</time>
      </trkpt>
      <trkpt lat="44.74541" lon="5.13865">
        <ele>344</ele>
        <time>2026-08-23T17:42:28.967Z</time>
      </trkpt>
      <trkpt lat="44.74541" lon="5.13866">
        <ele>344</ele>
        <time>2026-08-23T17:42:29.967Z</time>
      </trkpt>
      <trkpt lat="44.74541" lon="5.13868">
        <ele>344</ele>
        <time>2026-08-23T17:42:30.967Z</time>
      </trkpt>
      <trkpt lat="44.74541" lon="5.13869">
        <ele>344</ele>
        <time>2026-08-23T17:42:31.967Z</time>
      </trkpt>
      <trkpt lat="44.74541" lon="5.1387">
        <ele>344</ele>
        <time>2026-08-23T17:42:32.967Z</time>
      </trkpt>
      <trkpt lat="44.7454" lon="5.13871">
        <ele>344</ele>
        <time>2026-08-23T17:42:33.967Z</time>
      </trkpt>
      <trkpt lat="44.7454" lon="5.13872">
        <ele>345</ele>
        <time>2026-08-23T17:42:34.967Z</time>
      </trkpt>
      <trkpt lat="44.7454" lon="5.13874">
        <ele>345</ele>
        <time>2026-08-23T17:42:35.967Z</time>
      </trkpt>
      <trkpt lat="44.74541" lon="5.13875">
        <ele>345</ele>
        <time>2026-08-23T17:42:36.967Z</time>
      </trkpt>
      <trkpt lat="44.74541" lon="5.13876">
        <ele>345</ele>
        <time>2026-08-23T17:42:37.967Z</time>
      </trkpt>
      <trkpt lat="44.74541" lon="5.13877">
        <ele>345</ele>
        <time>2026-08-23T17:42:38.967Z</time>
      </trkpt>
      <trkpt lat="44.74541" lon="5.13878">
        <ele>346</ele>
        <time>2026-08-23T17:42:39.967Z</time>
      </trkpt>
      <trkpt lat="44.74541" lon="5.13879">
        <ele>346</ele>
        <time>2026-08-23T17:42:40.967Z</time>
      </trkpt>
      <trkpt lat="44.74541" lon="5.1388">
        <ele>346</ele>
        <time>2026-08-23T17:42:41.967Z</time>
      </trkpt>
      <trkpt lat="44.74541" lon="5.13882">
        <ele>346</ele>
        <time>2026-08-23T17:42:42.967Z</time>
      </trkpt>
      <trkpt lat="44.74541" lon="5.13883">
        <ele>346</ele>
        <time>2026-08-23T17:42:43.967Z</time>
      </trkpt>
      <trkpt lat="44.74541" lon="5.13884">
        <ele>347</ele>
        <time>2026-08-23T17:42:44.967Z</time>
      </trkpt>
      <trkpt lat="44.7454" lon="5.13885">
        <ele>347</ele>
        <time>2026-08-23T17:42:45.967Z</time>
      </trkpt>
      <trkpt lat="44.7454" lon="5.13886">
        <ele>347</ele>
        <time>2026-08-23T17:42:46.967Z</time>
      </trkpt>
      <trkpt lat="44.7454" lon="5.13887">
        <ele>347</ele>
        <time>2026-08-23T17:42:47.967Z</time>
      </trkpt>
      <trkpt lat="44.7454" lon="5.13888">
        <ele>347</ele>
        <time>2026-08-23T17:42:48.967Z</time>
      </trkpt>
      <trkpt lat="44.7454" lon="5.13889">
        <ele>347</ele>
        <time>2026-08-23T17:42:49.967Z</time>
      </trkpt>
      <trkpt lat="44.7454" lon="5.1389">
        <ele>348</ele>
        <time>2026-08-23T17:42:50.967Z</time>
      </trkpt>
      <trkpt lat="44.7454" lon="5.13891">
        <ele>348</ele>
        <time>2026-08-23T17:42:51.967Z</time>
      </trkpt>
      <trkpt lat="44.7454" lon="5.13892">
        <ele>348</ele>
        <time>2026-08-23T17:42:52.967Z</time>
      </trkpt>
      <trkpt lat="44.7454" lon="5.13893">
        <ele>348</ele>
        <time>2026-08-23T17:42:53.967Z</time>
      </trkpt>
      <trkpt lat="44.7454" lon="5.13894">
        <ele>348</ele>
        <time>2026-08-23T17:42:54.967Z</time>
      </trkpt>
      <trkpt lat="44.7454" lon="5.13895">
        <ele>348</ele>
        <time>2026-08-23T17:42:55.967Z</time>
      </trkpt>
      <trkpt lat="44.7454" lon="5.13896">
        <ele>348</ele>
        <time>2026-08-23T17:42:56.967Z</time>
      </trkpt>
      <trkpt lat="44.74541" lon="5.13897">
        <ele>348</ele>
        <time>2026-08-23T17:42:57.967Z</time>
      </trkpt>
      <trkpt lat="44.74541" lon="5.13897">
        <ele>348</ele>
        <time>2026-08-23T17:42:58.967Z</time>
      </trkpt>
      <trkpt lat="44.74541" lon="5.13897">
        <ele>349</ele>
        <time>2026-08-23T17:42:59.967Z</time>
      </trkpt>
      <trkpt lat="44.74541" lon="5.139">
        <ele>349</ele>
        <time>2026-08-23T17:43:18.973Z</time>
      </trkpt>
      <trkpt lat="44.74541" lon="5.13901">
        <ele>349</ele>
        <time>2026-08-23T17:43:19.973Z</time>
      </trkpt>
      <trkpt lat="44.7454" lon="5.13902">
        <ele>349</ele>
        <time>2026-08-23T17:43:20.973Z</time>
      </trkpt>
      <trkpt lat="44.7454" lon="5.13903">
        <ele>349</ele>
        <time>2026-08-23T17:43:21.973Z</time>
      </trkpt>
      <trkpt lat="44.7454" lon="5.13904">
        <ele>349</ele>
        <time>2026-08-23T17:43:22.973Z</time>
      </trkpt>
      <trkpt lat="44.7454" lon="5.13905">
        <ele>349</ele>
        <time>2026-08-23T17:43:23.973Z</time>
      </trkpt>
      <trkpt lat="44.74539" lon="5.13906">
        <ele>349</ele>
        <time>2026-08-23T17:43:24.973Z</time>
      </trkpt>
      <trkpt lat="44.74539" lon="5.13907">
        <ele>349</ele>
        <time>2026-08-23T17:43:25.973Z</time>
      </trkpt>
      <trkpt lat="44.74539" lon="5.13908">
        <ele>349</ele>
        <time>2026-08-23T17:43:26.973Z</time>
      </trkpt>
      <trkpt lat="44.74539" lon="5.13909">
        <ele>349</ele>
        <time>2026-08-23T17:43:27.973Z</time>
      </trkpt>
      <trkpt lat="44.74539" lon="5.1391">
        <ele>349</ele>
        <time>2026-08-23T17:43:28.973Z</time>
      </trkpt>
      <trkpt lat="44.74539" lon="5.13912">
        <ele>349</ele>
        <time>2026-08-23T17:43:29.973Z</time>
      </trkpt>
      <trkpt lat="44.74539" lon="5.13913">
        <ele>349</ele>
        <time>2026-08-23T17:43:30.973Z</time>
      </trkpt>
      <trkpt lat="44.74539" lon="5.13914">
        <ele>349</ele>
        <time>2026-08-23T17:43:31.973Z</time>
      </trkpt>
      <trkpt lat="44.74539" lon="5.13915">
        <ele>349</ele>
        <time>2026-08-23T17:43:32.973Z</time>
      </trkpt>
      <trkpt lat="44.74539" lon="5.13916">
        <ele>349</ele>
        <time>2026-08-23T17:43:33.973Z</time>
      </trkpt>
      <trkpt lat="44.74539" lon="5.13918">
        <ele>350</ele>
        <time>2026-08-23T17:43:34.973Z</time>
      </trkpt>
      <trkpt lat="44.74539" lon="5.13919">
        <ele>350</ele>
        <time>2026-08-23T17:43:35.973Z</time>
      </trkpt>
      <trkpt lat="44.74539" lon="5.1392">
        <ele>350</ele>
        <time>2026-08-23T17:43:36.973Z</time>
      </trkpt>
      <trkpt lat="44.74539" lon="5.13921">
        <ele>350</ele>
        <time>2026-08-23T17:43:37.973Z</time>
      </trkpt>
      <trkpt lat="44.74538" lon="5.13922">
        <ele>350</ele>
        <time>2026-08-23T17:43:38.973Z</time>
      </trkpt>
      <trkpt lat="44.74538" lon="5.13923">
        <ele>350</ele>
        <time>2026-08-23T17:43:39.973Z</time>
      </trkpt>
      <trkpt lat="44.74538" lon="5.13925">
        <ele>350</ele>
        <time>2026-08-23T17:43:40.973Z</time>
      </trkpt>
      <trkpt lat="44.74538" lon="5.13926">
        <ele>350</ele>
        <time>2026-08-23T17:43:41.973Z</time>
      </trkpt>
      <trkpt lat="44.74538" lon="5.13927">
        <ele>350</ele>
        <time>2026-08-23T17:43:42.973Z</time>
      </trkpt>
      <trkpt lat="44.74538" lon="5.13928">
        <ele>350</ele>
        <time>2026-08-23T17:43:43.973Z</time>
      </trkpt>
      <trkpt lat="44.74538" lon="5.13929">
        <ele>350</ele>
        <time>2026-08-23T17:43:44.973Z</time>
      </trkpt>
      <trkpt lat="44.74538" lon="5.1393">
        <ele>350</ele>
        <time>2026-08-23T17:43:45.973Z</time>
      </trkpt>
      <trkpt lat="44.74538" lon="5.13931">
        <ele>350</ele>
        <time>2026-08-23T17:43:46.973Z</time>
      </trkpt>
      <trkpt lat="44.74538" lon="5.13933">
        <ele>350</ele>
        <time>2026-08-23T17:43:47.973Z</time>
      </trkpt>
      <trkpt lat="44.74538" lon="5.13934">
        <ele>351</ele>
        <time>2026-08-23T17:43:48.973Z</time>
      </trkpt>
      <trkpt lat="44.74538" lon="5.13935">
        <ele>351</ele>
        <time>2026-08-23T17:43:49.973Z</time>
      </trkpt>
      <trkpt lat="44.74538" lon="5.13936">
        <ele>351</ele>
        <time>2026-08-23T17:43:50.973Z</time>
      </trkpt>
      <trkpt lat="44.74538" lon="5.13937">
        <ele>351</ele>
        <time>2026-08-23T17:43:51.973Z</time>
      </trkpt>
      <trkpt lat="44.74538" lon="5.13938">
        <ele>351</ele>
        <time>2026-08-23T17:43:52.973Z</time>
      </trkpt>
      <trkpt lat="44.74538" lon="5.13939">
        <ele>351</ele>
        <time>2026-08-23T17:43:53.973Z</time>
      </trkpt>
      <trkpt lat="44.74538" lon="5.13939">
        <ele>351</ele>
        <time>2026-08-23T17:43:54.973Z</time>
      </trkpt>
      <trkpt lat="44.74538" lon="5.13939">
        <ele>351</ele>
        <time>2026-08-23T17:43:55.973Z</time>
      </trkpt>
      <trkpt lat="44.74537" lon="5.13942">
        <ele>351</ele>
        <time>2026-08-23T17:43:59.452Z</time>
      </trkpt>
      <trkpt lat="44.74537" lon="5.13943">
        <ele>351</ele>
        <time>2026-08-23T17:44:00.452Z</time>
      </trkpt>
      <trkpt lat="44.74537" lon="5.13944">
        <ele>351</ele>
        <time>2026-08-23T17:44:01.452Z</time>
      </trkpt>
      <trkpt lat="44.74537" lon="5.13945">
        <ele>351</ele>
        <time>2026-08-23T17:44:02.452Z</time>
      </trkpt>
      <trkpt lat="44.74537" lon="5.13945">
        <ele>351</ele>
        <time>2026-08-23T17:44:03.452Z</time>
      </trkpt>
      <trkpt lat="44.74537" lon="5.13946">
        <ele>351</ele>
        <time>2026-08-23T17:44:04.452Z</time>
      </trkpt>
      <trkpt lat="44.74537" lon="5.13947">
        <ele>351</ele>
        <time>2026-08-23T17:44:05.452Z</time>
      </trkpt>
      <trkpt lat="44.74537" lon="5.13948">
        <ele>351</ele>
        <time>2026-08-23T17:44:06.452Z</time>
      </trkpt>
      <trkpt lat="44.74537" lon="5.13949">
        <ele>351</ele>
        <time>2026-08-23T17:44:07.452Z</time>
      </trkpt>
      <trkpt lat="44.74536" lon="5.13949">
        <ele>351</ele>
        <time>2026-08-23T17:44:08.452Z</time>
      </trkpt>
      <trkpt lat="44.74536" lon="5.1395">
        <ele>351</ele>
        <time>2026-08-23T17:44:09.452Z</time>
      </trkpt>
      <trkpt lat="44.74536" lon="5.13951">
        <ele>351</ele>
        <time>2026-08-23T17:44:10.452Z</time>
      </trkpt>
      <trkpt lat="44.74536" lon="5.13952">
        <ele>351</ele>
        <time>2026-08-23T17:44:11.452Z</time>
      </trkpt>
      <trkpt lat="44.74536" lon="5.13953">
        <ele>351</ele>
        <time>2026-08-23T17:44:12.452Z</time>
      </trkpt>
      <trkpt lat="44.74536" lon="5.13954">
        <ele>352</ele>
        <time>2026-08-23T17:44:13.452Z</time>
      </trkpt>
      <trkpt lat="44.74536" lon="5.13955">
        <ele>352</ele>
        <time>2026-08-23T17:44:14.452Z</time>
      </trkpt>
      <trkpt lat="44.74536" lon="5.13956">
        <ele>352</ele>
        <time>2026-08-23T17:44:15.452Z</time>
      </trkpt>
      <trkpt lat="44.74536" lon="5.13957">
        <ele>352</ele>
        <time>2026-08-23T17:44:16.452Z</time>
      </trkpt>
      <trkpt lat="44.74536" lon="5.13957">
        <ele>352</ele>
        <time>2026-08-23T17:44:17.452Z</time>
      </trkpt>
      <trkpt lat="44.74536" lon="5.13958">
        <ele>352</ele>
        <time>2026-08-23T17:44:18.452Z</time>
      </trkpt>
      <trkpt lat="44.74536" lon="5.13958">
        <ele>352</ele>
        <time>2026-08-23T17:44:19.452Z</time>
      </trkpt>
      <trkpt lat="44.74536" lon="5.13958">
        <ele>352</ele>
        <time>2026-08-23T17:44:20.452Z</time>
      </trkpt>
      <trkpt lat="44.74536" lon="5.13958">
        <ele>352</ele>
        <time>2026-08-23T17:44:21.452Z</time>
      </trkpt>
      <trkpt lat="44.74536" lon="5.1396">
        <ele>352</ele>
        <time>2026-08-23T17:44:31.458Z</time>
      </trkpt>
      <trkpt lat="44.74537" lon="5.13961">
        <ele>352</ele>
        <time>2026-08-23T17:44:32.458Z</time>
      </trkpt>
      <trkpt lat="44.74537" lon="5.13962">
        <ele>352</ele>
        <time>2026-08-23T17:44:33.458Z</time>
      </trkpt>
      <trkpt lat="44.74537" lon="5.13963">
        <ele>352</ele>
        <time>2026-08-23T17:44:34.458Z</time>
      </trkpt>
      <trkpt lat="44.74536" lon="5.13964">
        <ele>352</ele>
        <time>2026-08-23T17:44:35.458Z</time>
      </trkpt>
      <trkpt lat="44.74536" lon="5.13965">
        <ele>352</ele>
        <time>2026-08-23T17:44:36.458Z</time>
      </trkpt>
      <trkpt lat="44.74536" lon="5.13966">
        <ele>352</ele>
        <time>2026-08-23T17:44:37.458Z</time>
      </trkpt>
      <trkpt lat="44.74536" lon="5.13967">
        <ele>352</ele>
        <time>2026-08-23T17:44:38.458Z</time>
      </trkpt>
      <trkpt lat="44.74536" lon="5.13968">
        <ele>352</ele>
        <time>2026-08-23T17:44:39.458Z</time>
      </trkpt>
      <trkpt lat="44.74536" lon="5.13969">
        <ele>352</ele>
        <time>2026-08-23T17:44:40.458Z</time>
      </trkpt>
      <trkpt lat="44.74536" lon="5.1397">
        <ele>352</ele>
        <time>2026-08-23T17:44:41.458Z</time>
      </trkpt>
      <trkpt lat="44.74536" lon="5.13972">
        <ele>352</ele>
        <time>2026-08-23T17:44:42.458Z</time>
      </trkpt>
      <trkpt lat="44.74536" lon="5.13973">
        <ele>352</ele>
        <time>2026-08-23T17:44:43.458Z</time>
      </trkpt>
      <trkpt lat="44.74536" lon="5.13974">
        <ele>352</ele>
        <time>2026-08-23T17:44:44.458Z</time>
      </trkpt>
      <trkpt lat="44.74536" lon="5.13975">
        <ele>352</ele>
        <time>2026-08-23T17:44:45.458Z</time>
      </trkpt>
      <trkpt lat="44.74536" lon="5.13976">
        <ele>353</ele>
        <time>2026-08-23T17:44:46.458Z</time>
      </trkpt>
      <trkpt lat="44.74536" lon="5.13976">
        <ele>353</ele>
        <time>2026-08-23T17:44:47.458Z</time>
      </trkpt>
      <trkpt lat="44.74536" lon="5.13976">
        <ele>353</ele>
        <time>2026-08-23T17:44:48.458Z</time>
      </trkpt>
      <trkpt lat="44.74536" lon="5.13976">
        <ele>353</ele>
        <time>2026-08-23T17:44:49.458Z</time>
      </trkpt>
      <trkpt lat="44.74536" lon="5.13976">
        <ele>353</ele>
        <time>2026-08-23T17:44:50.458Z</time>
      </trkpt>
      <trkpt lat="44.74536" lon="5.13979">
        <ele>353</ele>
        <time>2026-08-23T17:45:00.469Z</time>
      </trkpt>
      <trkpt lat="44.74536" lon="5.1398">
        <ele>353</ele>
        <time>2026-08-23T17:45:01.469Z</time>
      </trkpt>
      <trkpt lat="44.74536" lon="5.13981">
        <ele>353</ele>
        <time>2026-08-23T17:45:02.469Z</time>
      </trkpt>
      <trkpt lat="44.74536" lon="5.13982">
        <ele>353</ele>
        <time>2026-08-23T17:45:03.469Z</time>
      </trkpt>
      <trkpt lat="44.74536" lon="5.13983">
        <ele>353</ele>
        <time>2026-08-23T17:45:04.469Z</time>
      </trkpt>
      <trkpt lat="44.74536" lon="5.13984">
        <ele>353</ele>
        <time>2026-08-23T17:45:05.469Z</time>
      </trkpt>
      <trkpt lat="44.74536" lon="5.13985">
        <ele>353</ele>
        <time>2026-08-23T17:45:06.469Z</time>
      </trkpt>
      <trkpt lat="44.74536" lon="5.13986">
        <ele>353</ele>
        <time>2026-08-23T17:45:07.469Z</time>
      </trkpt>
      <trkpt lat="44.74536" lon="5.13987">
        <ele>353</ele>
        <time>2026-08-23T17:45:08.469Z</time>
      </trkpt>
      <trkpt lat="44.74536" lon="5.13988">
        <ele>353</ele>
        <time>2026-08-23T17:45:09.469Z</time>
      </trkpt>
      <trkpt lat="44.74537" lon="5.13989">
        <ele>353</ele>
        <time>2026-08-23T17:45:10.469Z</time>
      </trkpt>
      <trkpt lat="44.74537" lon="5.1399">
        <ele>353</ele>
        <time>2026-08-23T17:45:11.469Z</time>
      </trkpt>
      <trkpt lat="44.74537" lon="5.13991">
        <ele>353</ele>
        <time>2026-08-23T17:45:12.469Z</time>
      </trkpt>
      <trkpt lat="44.74538" lon="5.13992">
        <ele>353</ele>
        <time>2026-08-23T17:45:13.469Z</time>
      </trkpt>
      <trkpt lat="44.74538" lon="5.13993">
        <ele>353</ele>
        <time>2026-08-23T17:45:14.469Z</time>
      </trkpt>
      <trkpt lat="44.74538" lon="5.13994">
        <ele>353</ele>
        <time>2026-08-23T17:45:15.469Z</time>
      </trkpt>
      <trkpt lat="44.74538" lon="5.13996">
        <ele>353</ele>
        <time>2026-08-23T17:45:16.469Z</time>
      </trkpt>
      <trkpt lat="44.74539" lon="5.13997">
        <ele>353</ele>
        <time>2026-08-23T17:45:17.469Z</time>
      </trkpt>
      <trkpt lat="44.74539" lon="5.13998">
        <ele>353</ele>
        <time>2026-08-23T17:45:18.469Z</time>
      </trkpt>
      <trkpt lat="44.74539" lon="5.13999">
        <ele>353</ele>
        <time>2026-08-23T17:45:19.469Z</time>
      </trkpt>
      <trkpt lat="44.74539" lon="5.14001">
        <ele>353</ele>
        <time>2026-08-23T17:45:20.469Z</time>
      </trkpt>
      <trkpt lat="44.74539" lon="5.14002">
        <ele>353</ele>
        <time>2026-08-23T17:45:21.469Z</time>
      </trkpt>
      <trkpt lat="44.74539" lon="5.14003">
        <ele>353</ele>
        <time>2026-08-23T17:45:22.469Z</time>
      </trkpt>
      <trkpt lat="44.74539" lon="5.14004">
        <ele>353</ele>
        <time>2026-08-23T17:45:23.469Z</time>
      </trkpt>
      <trkpt lat="44.7454" lon="5.14005">
        <ele>353</ele>
        <time>2026-08-23T17:45:24.469Z</time>
      </trkpt>
      <trkpt lat="44.7454" lon="5.14007">
        <ele>353</ele>
        <time>2026-08-23T17:45:25.469Z</time>
      </trkpt>
      <trkpt lat="44.7454" lon="5.14008">
        <ele>353</ele>
        <time>2026-08-23T17:45:26.469Z</time>
      </trkpt>
      <trkpt lat="44.74541" lon="5.1401">
        <ele>353</ele>
        <time>2026-08-23T17:45:27.469Z</time>
      </trkpt>
      <trkpt lat="44.74541" lon="5.14011">
        <ele>353</ele>
        <time>2026-08-23T17:45:28.469Z</time>
      </trkpt>
      <trkpt lat="44.74541" lon="5.14012">
        <ele>354</ele>
        <time>2026-08-23T17:45:29.469Z</time>
      </trkpt>
      <trkpt lat="44.74542" lon="5.14013">
        <ele>354</ele>
        <time>2026-08-23T17:45:30.469Z</time>
      </trkpt>
      <trkpt lat="44.74542" lon="5.14015">
        <ele>354</ele>
        <time>2026-08-23T17:45:31.469Z</time>
      </trkpt>
      <trkpt lat="44.74542" lon="5.14016">
        <ele>354</ele>
        <time>2026-08-23T17:45:32.469Z</time>
      </trkpt>
      <trkpt lat="44.74542" lon="5.14017">
        <ele>354</ele>
        <time>2026-08-23T17:45:33.469Z</time>
      </trkpt>
      <trkpt lat="44.74542" lon="5.14019">
        <ele>354</ele>
        <time>2026-08-23T17:45:34.469Z</time>
      </trkpt>
      <trkpt lat="44.74542" lon="5.1402">
        <ele>354</ele>
        <time>2026-08-23T17:45:35.469Z</time>
      </trkpt>
      <trkpt lat="44.74542" lon="5.14021">
        <ele>354</ele>
        <time>2026-08-23T17:45:36.469Z</time>
      </trkpt>
      <trkpt lat="44.74542" lon="5.14023">
        <ele>354</ele>
        <time>2026-08-23T17:45:37.469Z</time>
      </trkpt>
      <trkpt lat="44.74542" lon="5.14024">
        <ele>354</ele>
        <time>2026-08-23T17:45:38.469Z</time>
      </trkpt>
      <trkpt lat="44.74543" lon="5.14025">
        <ele>354</ele>
        <time>2026-08-23T17:45:39.469Z</time>
      </trkpt>
      <trkpt lat="44.74543" lon="5.14026">
        <ele>354</ele>
        <time>2026-08-23T17:45:40.469Z</time>
      </trkpt>
      <trkpt lat="44.74544" lon="5.14027">
        <ele>354</ele>
        <time>2026-08-23T17:45:41.469Z</time>
      </trkpt>
      <trkpt lat="44.74545" lon="5.14028">
        <ele>354</ele>
        <time>2026-08-23T17:45:42.469Z</time>
      </trkpt>
      <trkpt lat="44.74546" lon="5.14029">
        <ele>355</ele>
        <time>2026-08-23T17:45:43.469Z</time>
      </trkpt>
      <trkpt lat="44.74546" lon="5.14029">
        <ele>355</ele>
        <time>2026-08-23T17:45:44.469Z</time>
      </trkpt>
      <trkpt lat="44.74547" lon="5.1403">
        <ele>355</ele>
        <time>2026-08-23T17:45:45.469Z</time>
      </trkpt>
      <trkpt lat="44.74548" lon="5.14032">
        <ele>355</ele>
        <time>2026-08-23T17:45:46.469Z</time>
      </trkpt>
      <trkpt lat="44.74548" lon="5.14033">
        <ele>355</ele>
        <time>2026-08-23T17:45:47.469Z</time>
      </trkpt>
      <trkpt lat="44.74549" lon="5.14034">
        <ele>355</ele>
        <time>2026-08-23T17:45:48.469Z</time>
      </trkpt>
      <trkpt lat="44.7455" lon="5.14035">
        <ele>355</ele>
        <time>2026-08-23T17:45:49.469Z</time>
      </trkpt>
      <trkpt lat="44.74551" lon="5.14036">
        <ele>355</ele>
        <time>2026-08-23T17:45:50.469Z</time>
      </trkpt>
      <trkpt lat="44.74551" lon="5.14037">
        <ele>355</ele>
        <time>2026-08-23T17:45:51.469Z</time>
      </trkpt>
      <trkpt lat="44.74552" lon="5.14038">
        <ele>355</ele>
        <time>2026-08-23T17:45:52.469Z</time>
      </trkpt>
      <trkpt lat="44.74552" lon="5.14039">
        <ele>355</ele>
        <time>2026-08-23T17:45:53.469Z</time>
      </trkpt>
      <trkpt lat="44.74553" lon="5.1404">
        <ele>355</ele>
        <time>2026-08-23T17:45:54.469Z</time>
      </trkpt>
      <trkpt lat="44.74554" lon="5.14042">
        <ele>355</ele>
        <time>2026-08-23T17:45:55.469Z</time>
      </trkpt>
      <trkpt lat="44.74554" lon="5.14043">
        <ele>355</ele>
        <time>2026-08-23T17:45:56.469Z</time>
      </trkpt>
      <trkpt lat="44.74555" lon="5.14044">
        <ele>355</ele>
        <time>2026-08-23T17:45:57.469Z</time>
      </trkpt>
      <trkpt lat="44.74556" lon="5.14045">
        <ele>355</ele>
        <time>2026-08-23T17:45:58.469Z</time>
      </trkpt>
      <trkpt lat="44.74556" lon="5.14047">
        <ele>356</ele>
        <time>2026-08-23T17:45:59.469Z</time>
      </trkpt>
      <trkpt lat="44.74557" lon="5.14048">
        <ele>356</ele>
        <time>2026-08-23T17:46:00.469Z</time>
      </trkpt>
      <trkpt lat="44.74558" lon="5.14049">
        <ele>356</ele>
        <time>2026-08-23T17:46:01.469Z</time>
      </trkpt>
      <trkpt lat="44.74559" lon="5.1405">
        <ele>356</ele>
        <time>2026-08-23T17:46:02.469Z</time>
      </trkpt>
      <trkpt lat="44.74559" lon="5.14051">
        <ele>356</ele>
        <time>2026-08-23T17:46:03.469Z</time>
      </trkpt>
      <trkpt lat="44.7456" lon="5.14053">
        <ele>356</ele>
        <time>2026-08-23T17:46:04.469Z</time>
      </trkpt>
      <trkpt lat="44.7456" lon="5.14054">
        <ele>356</ele>
        <time>2026-08-23T17:46:05.469Z</time>
      </trkpt>
      <trkpt lat="44.74561" lon="5.14055">
        <ele>356</ele>
        <time>2026-08-23T17:46:06.469Z</time>
      </trkpt>
      <trkpt lat="44.74561" lon="5.14056">
        <ele>356</ele>
        <time>2026-08-23T17:46:07.469Z</time>
      </trkpt>
      <trkpt lat="44.74562" lon="5.14057">
        <ele>356</ele>
        <time>2026-08-23T17:46:08.469Z</time>
      </trkpt>
      <trkpt lat="44.74562" lon="5.14058">
        <ele>356</ele>
        <time>2026-08-23T17:46:09.469Z</time>
      </trkpt>
      <trkpt lat="44.74563" lon="5.1406">
        <ele>356</ele>
        <time>2026-08-23T17:46:10.469Z</time>
      </trkpt>
      <trkpt lat="44.74564" lon="5.14061">
        <ele>356</ele>
        <time>2026-08-23T17:46:11.469Z</time>
      </trkpt>
      <trkpt lat="44.74564" lon="5.14062">
        <ele>356</ele>
        <time>2026-08-23T17:46:12.469Z</time>
      </trkpt>
      <trkpt lat="44.74565" lon="5.14063">
        <ele>356</ele>
        <time>2026-08-23T17:46:13.469Z</time>
      </trkpt>
      <trkpt lat="44.74566" lon="5.14064">
        <ele>357</ele>
        <time>2026-08-23T17:46:14.469Z</time>
      </trkpt>
      <trkpt lat="44.74566" lon="5.14065">
        <ele>357</ele>
        <time>2026-08-23T17:46:15.469Z</time>
      </trkpt>
      <trkpt lat="44.74567" lon="5.14066">
        <ele>357</ele>
        <time>2026-08-23T17:46:16.469Z</time>
      </trkpt>
      <trkpt lat="44.74568" lon="5.14067">
        <ele>357</ele>
        <time>2026-08-23T17:46:17.469Z</time>
      </trkpt>
      <trkpt lat="44.74569" lon="5.14068">
        <ele>357</ele>
        <time>2026-08-23T17:46:18.469Z</time>
      </trkpt>
      <trkpt lat="44.74569" lon="5.14069">
        <ele>357</ele>
        <time>2026-08-23T17:46:19.469Z</time>
      </trkpt>
      <trkpt lat="44.7457" lon="5.1407">
        <ele>357</ele>
        <time>2026-08-23T17:46:20.469Z</time>
      </trkpt>
      <trkpt lat="44.7457" lon="5.14071">
        <ele>357</ele>
        <time>2026-08-23T17:46:21.469Z</time>
      </trkpt>
      <trkpt lat="44.74571" lon="5.14072">
        <ele>357</ele>
        <time>2026-08-23T17:46:22.469Z</time>
      </trkpt>
      <trkpt lat="44.74571" lon="5.14072">
        <ele>357</ele>
        <time>2026-08-23T17:46:23.469Z</time>
      </trkpt>
      <trkpt lat="44.74572" lon="5.14073">
        <ele>357</ele>
        <time>2026-08-23T17:46:24.469Z</time>
      </trkpt>
      <trkpt lat="44.74573" lon="5.14074">
        <ele>357</ele>
        <time>2026-08-23T17:46:25.469Z</time>
      </trkpt>
      <trkpt lat="44.74573" lon="5.14075">
        <ele>357</ele>
        <time>2026-08-23T17:46:26.469Z</time>
      </trkpt>
      <trkpt lat="44.74574" lon="5.14076">
        <ele>357</ele>
        <time>2026-08-23T17:46:27.469Z</time>
      </trkpt>
      <trkpt lat="44.74574" lon="5.14077">
        <ele>357</ele>
        <time>2026-08-23T17:46:28.469Z</time>
      </trkpt>
      <trkpt lat="44.74575" lon="5.14078">
        <ele>358</ele>
        <time>2026-08-23T17:46:29.469Z</time>
      </trkpt>
      <trkpt lat="44.74575" lon="5.14079">
        <ele>358</ele>
        <time>2026-08-23T17:46:30.469Z</time>
      </trkpt>
      <trkpt lat="44.74576" lon="5.1408">
        <ele>358</ele>
        <time>2026-08-23T17:46:31.469Z</time>
      </trkpt>
      <trkpt lat="44.74577" lon="5.14081">
        <ele>358</ele>
        <time>2026-08-23T17:46:32.469Z</time>
      </trkpt>
      <trkpt lat="44.74577" lon="5.14082">
        <ele>358</ele>
        <time>2026-08-23T17:46:33.469Z</time>
      </trkpt>
      <trkpt lat="44.74578" lon="5.14083">
        <ele>358</ele>
        <time>2026-08-23T17:46:34.469Z</time>
      </trkpt>
      <trkpt lat="44.74578" lon="5.14084">
        <ele>358</ele>
        <time>2026-08-23T17:46:35.469Z</time>
      </trkpt>
      <trkpt lat="44.74579" lon="5.14085">
        <ele>358</ele>
        <time>2026-08-23T17:46:36.469Z</time>
      </trkpt>
      <trkpt lat="44.74579" lon="5.14086">
        <ele>358</ele>
        <time>2026-08-23T17:46:37.469Z</time>
      </trkpt>
      <trkpt lat="44.7458" lon="5.14087">
        <ele>358</ele>
        <time>2026-08-23T17:46:38.469Z</time>
      </trkpt>
      <trkpt lat="44.7458" lon="5.14088">
        <ele>358</ele>
        <time>2026-08-23T17:46:39.469Z</time>
      </trkpt>
      <trkpt lat="44.74581" lon="5.14089">
        <ele>359</ele>
        <time>2026-08-23T17:46:40.469Z</time>
      </trkpt>
      <trkpt lat="44.74581" lon="5.1409">
        <ele>359</ele>
        <time>2026-08-23T17:46:41.469Z</time>
      </trkpt>
      <trkpt lat="44.74582" lon="5.14091">
        <ele>359</ele>
        <time>2026-08-23T17:46:42.469Z</time>
      </trkpt>
      <trkpt lat="44.74583" lon="5.14092">
        <ele>359</ele>
        <time>2026-08-23T17:46:43.469Z</time>
      </trkpt>
      <trkpt lat="44.74583" lon="5.14093">
        <ele>359</ele>
        <time>2026-08-23T17:46:44.469Z</time>
      </trkpt>
      <trkpt lat="44.74584" lon="5.14094">
        <ele>359</ele>
        <time>2026-08-23T17:46:45.469Z</time>
      </trkpt>
      <trkpt lat="44.74584" lon="5.14095">
        <ele>359</ele>
        <time>2026-08-23T17:46:46.469Z</time>
      </trkpt>
      <trkpt lat="44.74585" lon="5.14097">
        <ele>359</ele>
        <time>2026-08-23T17:46:47.469Z</time>
      </trkpt>
      <trkpt lat="44.74585" lon="5.14098">
        <ele>359</ele>
        <time>2026-08-23T17:46:48.469Z</time>
      </trkpt>
      <trkpt lat="44.74586" lon="5.14099">
        <ele>359</ele>
        <time>2026-08-23T17:46:49.469Z</time>
      </trkpt>
      <trkpt lat="44.74586" lon="5.141">
        <ele>359</ele>
        <time>2026-08-23T17:46:50.469Z</time>
      </trkpt>
      <trkpt lat="44.74587" lon="5.14102">
        <ele>359</ele>
        <time>2026-08-23T17:46:51.469Z</time>
      </trkpt>
      <trkpt lat="44.74587" lon="5.14103">
        <ele>359</ele>
        <time>2026-08-23T17:46:52.469Z</time>
      </trkpt>
      <trkpt lat="44.74588" lon="5.14104">
        <ele>359</ele>
        <time>2026-08-23T17:46:53.469Z</time>
      </trkpt>
      <trkpt lat="44.74588" lon="5.14105">
        <ele>359</ele>
        <time>2026-08-23T17:46:54.469Z</time>
      </trkpt>
      <trkpt lat="44.74589" lon="5.14106">
        <ele>359</ele>
        <time>2026-08-23T17:46:55.469Z</time>
      </trkpt>
      <trkpt lat="44.74589" lon="5.14107">
        <ele>359</ele>
        <time>2026-08-23T17:46:56.469Z</time>
      </trkpt>
      <trkpt lat="44.7459" lon="5.14108">
        <ele>359</ele>
        <time>2026-08-23T17:46:57.469Z</time>
      </trkpt>
      <trkpt lat="44.74591" lon="5.14109">
        <ele>359</ele>
        <time>2026-08-23T17:46:58.469Z</time>
      </trkpt>
      <trkpt lat="44.74591" lon="5.1411">
        <ele>359</ele>
        <time>2026-08-23T17:46:59.469Z</time>
      </trkpt>
      <trkpt lat="44.74592" lon="5.14111">
        <ele>359</ele>
        <time>2026-08-23T17:47:00.469Z</time>
      </trkpt>
      <trkpt lat="44.74592" lon="5.14113">
        <ele>359</ele>
        <time>2026-08-23T17:47:01.469Z</time>
      </trkpt>
      <trkpt lat="44.74593" lon="5.14114">
        <ele>359</ele>
        <time>2026-08-23T17:47:02.469Z</time>
      </trkpt>
      <trkpt lat="44.74593" lon="5.14115">
        <ele>359</ele>
        <time>2026-08-23T17:47:03.469Z</time>
      </trkpt>
      <trkpt lat="44.74594" lon="5.14116">
        <ele>359</ele>
        <time>2026-08-23T17:47:04.469Z</time>
      </trkpt>
      <trkpt lat="44.74594" lon="5.14117">
        <ele>360</ele>
        <time>2026-08-23T17:47:05.469Z</time>
      </trkpt>
      <trkpt lat="44.74595" lon="5.14118">
        <ele>360</ele>
        <time>2026-08-23T17:47:06.469Z</time>
      </trkpt>
      <trkpt lat="44.74596" lon="5.14119">
        <ele>360</ele>
        <time>2026-08-23T17:47:07.469Z</time>
      </trkpt>
      <trkpt lat="44.74596" lon="5.1412">
        <ele>360</ele>
        <time>2026-08-23T17:47:08.469Z</time>
      </trkpt>
      <trkpt lat="44.74597" lon="5.14121">
        <ele>360</ele>
        <time>2026-08-23T17:47:09.469Z</time>
      </trkpt>
      <trkpt lat="44.74598" lon="5.14122">
        <ele>360</ele>
        <time>2026-08-23T17:47:10.469Z</time>
      </trkpt>
      <trkpt lat="44.74598" lon="5.14123">
        <ele>360</ele>
        <time>2026-08-23T17:47:11.469Z</time>
      </trkpt>
      <trkpt lat="44.74599" lon="5.14125">
        <ele>360</ele>
        <time>2026-08-23T17:47:12.469Z</time>
      </trkpt>
      <trkpt lat="44.74599" lon="5.14126">
        <ele>360</ele>
        <time>2026-08-23T17:47:13.469Z</time>
      </trkpt>
      <trkpt lat="44.746" lon="5.14127">
        <ele>360</ele>
        <time>2026-08-23T17:47:14.469Z</time>
      </trkpt>
      <trkpt lat="44.74601" lon="5.14128">
        <ele>360</ele>
        <time>2026-08-23T17:47:15.469Z</time>
      </trkpt>
      <trkpt lat="44.74601" lon="5.14128">
        <ele>360</ele>
        <time>2026-08-23T17:47:16.469Z</time>
      </trkpt>
      <trkpt lat="44.74602" lon="5.14129">
        <ele>361</ele>
        <time>2026-08-23T17:47:17.469Z</time>
      </trkpt>
      <trkpt lat="44.74603" lon="5.1413">
        <ele>361</ele>
        <time>2026-08-23T17:47:18.469Z</time>
      </trkpt>
      <trkpt lat="44.74604" lon="5.14131">
        <ele>361</ele>
        <time>2026-08-23T17:47:19.469Z</time>
      </trkpt>
      <trkpt lat="44.74604" lon="5.14132">
        <ele>361</ele>
        <time>2026-08-23T17:47:20.469Z</time>
      </trkpt>
      <trkpt lat="44.74604" lon="5.14133">
        <ele>361</ele>
        <time>2026-08-23T17:47:21.469Z</time>
      </trkpt>
      <trkpt lat="44.74605" lon="5.14134">
        <ele>361</ele>
        <time>2026-08-23T17:47:22.469Z</time>
      </trkpt>
      <trkpt lat="44.74605" lon="5.14136">
        <ele>361</ele>
        <time>2026-08-23T17:47:23.469Z</time>
      </trkpt>
      <trkpt lat="44.74606" lon="5.14137">
        <ele>361</ele>
        <time>2026-08-23T17:47:24.469Z</time>
      </trkpt>
      <trkpt lat="44.74606" lon="5.14138">
        <ele>361</ele>
        <time>2026-08-23T17:47:25.469Z</time>
      </trkpt>
      <trkpt lat="44.74607" lon="5.14139">
        <ele>361</ele>
        <time>2026-08-23T17:47:26.469Z</time>
      </trkpt>
      <trkpt lat="44.74607" lon="5.1414">
        <ele>361</ele>
        <time>2026-08-23T17:47:27.469Z</time>
      </trkpt>
      <trkpt lat="44.74607" lon="5.14141">
        <ele>362</ele>
        <time>2026-08-23T17:47:28.469Z</time>
      </trkpt>
      <trkpt lat="44.74608" lon="5.14142">
        <ele>362</ele>
        <time>2026-08-23T17:47:29.469Z</time>
      </trkpt>
      <trkpt lat="44.74608" lon="5.14144">
        <ele>362</ele>
        <time>2026-08-23T17:47:30.469Z</time>
      </trkpt>
      <trkpt lat="44.74609" lon="5.14145">
        <ele>362</ele>
        <time>2026-08-23T17:47:31.469Z</time>
      </trkpt>
      <trkpt lat="44.74609" lon="5.14146">
        <ele>362</ele>
        <time>2026-08-23T17:47:32.469Z</time>
      </trkpt>
      <trkpt lat="44.7461" lon="5.14147">
        <ele>362</ele>
        <time>2026-08-23T17:47:33.469Z</time>
      </trkpt>
      <trkpt lat="44.74611" lon="5.14148">
        <ele>362</ele>
        <time>2026-08-23T17:47:34.469Z</time>
      </trkpt>
      <trkpt lat="44.74611" lon="5.14149">
        <ele>362</ele>
        <time>2026-08-23T17:47:35.469Z</time>
      </trkpt>
      <trkpt lat="44.74612" lon="5.1415">
        <ele>362</ele>
        <time>2026-08-23T17:47:36.469Z</time>
      </trkpt>
      <trkpt lat="44.74612" lon="5.14151">
        <ele>362</ele>
        <time>2026-08-23T17:47:37.469Z</time>
      </trkpt>
      <trkpt lat="44.74613" lon="5.14152">
        <ele>362</ele>
        <time>2026-08-23T17:47:38.469Z</time>
      </trkpt>
      <trkpt lat="44.74613" lon="5.14153">
        <ele>362</ele>
        <time>2026-08-23T17:47:39.469Z</time>
      </trkpt>
      <trkpt lat="44.74614" lon="5.14154">
        <ele>362</ele>
        <time>2026-08-23T17:47:40.469Z</time>
      </trkpt>
      <trkpt lat="44.74615" lon="5.14154">
        <ele>363</ele>
        <time>2026-08-23T17:47:41.469Z</time>
      </trkpt>
      <trkpt lat="44.74615" lon="5.14155">
        <ele>363</ele>
        <time>2026-08-23T17:47:42.469Z</time>
      </trkpt>
      <trkpt lat="44.74616" lon="5.14156">
        <ele>363</ele>
        <time>2026-08-23T17:47:43.469Z</time>
      </trkpt>
      <trkpt lat="44.74616" lon="5.14157">
        <ele>363</ele>
        <time>2026-08-23T17:47:44.469Z</time>
      </trkpt>
      <trkpt lat="44.74616" lon="5.14159">
        <ele>363</ele>
        <time>2026-08-23T17:47:45.469Z</time>
      </trkpt>
      <trkpt lat="44.74617" lon="5.1416">
        <ele>363</ele>
        <time>2026-08-23T17:47:46.469Z</time>
      </trkpt>
      <trkpt lat="44.74617" lon="5.14161">
        <ele>363</ele>
        <time>2026-08-23T17:47:47.469Z</time>
      </trkpt>
      <trkpt lat="44.74618" lon="5.14162">
        <ele>363</ele>
        <time>2026-08-23T17:47:48.469Z</time>
      </trkpt>
      <trkpt lat="44.74618" lon="5.14163">
        <ele>363</ele>
        <time>2026-08-23T17:47:49.469Z</time>
      </trkpt>
      <trkpt lat="44.74619" lon="5.14164">
        <ele>363</ele>
        <time>2026-08-23T17:47:50.469Z</time>
      </trkpt>
      <trkpt lat="44.74619" lon="5.14165">
        <ele>363</ele>
        <time>2026-08-23T17:47:51.469Z</time>
      </trkpt>
      <trkpt lat="44.7462" lon="5.14166">
        <ele>363</ele>
        <time>2026-08-23T17:47:52.469Z</time>
      </trkpt>
      <trkpt lat="44.74621" lon="5.14166">
        <ele>363</ele>
        <time>2026-08-23T17:47:53.469Z</time>
      </trkpt>
      <trkpt lat="44.74621" lon="5.14167">
        <ele>363</ele>
        <time>2026-08-23T17:47:54.469Z</time>
      </trkpt>
      <trkpt lat="44.74622" lon="5.14168">
        <ele>363</ele>
        <time>2026-08-23T17:47:55.469Z</time>
      </trkpt>
      <trkpt lat="44.74623" lon="5.14169">
        <ele>363</ele>
        <time>2026-08-23T17:47:56.469Z</time>
      </trkpt>
      <trkpt lat="44.74623" lon="5.1417">
        <ele>364</ele>
        <time>2026-08-23T17:47:57.469Z</time>
      </trkpt>
      <trkpt lat="44.74624" lon="5.14171">
        <ele>364</ele>
        <time>2026-08-23T17:47:58.469Z</time>
      </trkpt>
      <trkpt lat="44.74624" lon="5.14172">
        <ele>364</ele>
        <time>2026-08-23T17:47:59.469Z</time>
      </trkpt>
      <trkpt lat="44.74625" lon="5.14173">
        <ele>364</ele>
        <time>2026-08-23T17:48:00.469Z</time>
      </trkpt>
      <trkpt lat="44.74625" lon="5.14174">
        <ele>364</ele>
        <time>2026-08-23T17:48:01.469Z</time>
      </trkpt>
      <trkpt lat="44.74626" lon="5.14175">
        <ele>364</ele>
        <time>2026-08-23T17:48:02.469Z</time>
      </trkpt>
      <trkpt lat="44.74626" lon="5.14176">
        <ele>364</ele>
        <time>2026-08-23T17:48:03.469Z</time>
      </trkpt>
      <trkpt lat="44.74627" lon="5.14177">
        <ele>364</ele>
        <time>2026-08-23T17:48:04.469Z</time>
      </trkpt>
      <trkpt lat="44.74627" lon="5.14178">
        <ele>364</ele>
        <time>2026-08-23T17:48:05.469Z</time>
      </trkpt>
      <trkpt lat="44.74627" lon="5.14178">
        <ele>364</ele>
        <time>2026-08-23T17:48:06.469Z</time>
      </trkpt>
      <trkpt lat="44.74627" lon="5.14178">
        <ele>364</ele>
        <time>2026-08-23T17:48:07.469Z</time>
      </trkpt>
      <trkpt lat="44.74627" lon="5.14179">
        <ele>364</ele>
        <time>2026-08-23T17:48:08.469Z</time>
      </trkpt>
      <trkpt lat="44.74628" lon="5.1418">
        <ele>364</ele>
        <time>2026-08-23T17:48:09.469Z</time>
      </trkpt>
      <trkpt lat="44.74629" lon="5.14181">
        <ele>365</ele>
        <time>2026-08-23T17:48:10.469Z</time>
      </trkpt>
      <trkpt lat="44.74629" lon="5.14182">
        <ele>365</ele>
        <time>2026-08-23T17:48:11.469Z</time>
      </trkpt>
      <trkpt lat="44.7463" lon="5.14183">
        <ele>365</ele>
        <time>2026-08-23T17:48:12.469Z</time>
      </trkpt>
      <trkpt lat="44.74631" lon="5.14184">
        <ele>365</ele>
        <time>2026-08-23T17:48:13.469Z</time>
      </trkpt>
      <trkpt lat="44.74631" lon="5.14185">
        <ele>365</ele>
        <time>2026-08-23T17:48:14.469Z</time>
      </trkpt>
      <trkpt lat="44.74632" lon="5.14186">
        <ele>365</ele>
        <time>2026-08-23T17:48:15.469Z</time>
      </trkpt>
      <trkpt lat="44.74633" lon="5.14187">
        <ele>365</ele>
        <time>2026-08-23T17:48:16.469Z</time>
      </trkpt>
      <trkpt lat="44.74633" lon="5.14188">
        <ele>365</ele>
        <time>2026-08-23T17:48:17.469Z</time>
      </trkpt>
      <trkpt lat="44.74634" lon="5.14189">
        <ele>365</ele>
        <time>2026-08-23T17:48:18.469Z</time>
      </trkpt>
      <trkpt lat="44.74635" lon="5.1419">
        <ele>366</ele>
        <time>2026-08-23T17:48:19.469Z</time>
      </trkpt>
      <trkpt lat="44.74635" lon="5.14191">
        <ele>366</ele>
        <time>2026-08-23T17:48:20.469Z</time>
      </trkpt>
      <trkpt lat="44.74636" lon="5.14192">
        <ele>366</ele>
        <time>2026-08-23T17:48:21.469Z</time>
      </trkpt>
      <trkpt lat="44.74637" lon="5.14193">
        <ele>366</ele>
        <time>2026-08-23T17:48:22.469Z</time>
      </trkpt>
      <trkpt lat="44.74637" lon="5.14195">
        <ele>366</ele>
        <time>2026-08-23T17:48:23.469Z</time>
      </trkpt>
      <trkpt lat="44.74638" lon="5.14196">
        <ele>366</ele>
        <time>2026-08-23T17:48:24.469Z</time>
      </trkpt>
      <trkpt lat="44.74639" lon="5.14197">
        <ele>366</ele>
        <time>2026-08-23T17:48:25.469Z</time>
      </trkpt>
      <trkpt lat="44.7464" lon="5.14198">
        <ele>366</ele>
        <time>2026-08-23T17:48:26.469Z</time>
      </trkpt>
      <trkpt lat="44.7464" lon="5.14199">
        <ele>366</ele>
        <time>2026-08-23T17:48:27.469Z</time>
      </trkpt>
      <trkpt lat="44.74641" lon="5.142">
        <ele>366</ele>
        <time>2026-08-23T17:48:28.469Z</time>
      </trkpt>
      <trkpt lat="44.74641" lon="5.14201">
        <ele>366</ele>
        <time>2026-08-23T17:48:29.469Z</time>
      </trkpt>
      <trkpt lat="44.74641" lon="5.14201">
        <ele>367</ele>
        <time>2026-08-23T17:48:30.469Z</time>
      </trkpt>
      <trkpt lat="44.74642" lon="5.14202">
        <ele>367</ele>
        <time>2026-08-23T17:48:31.469Z</time>
      </trkpt>
      <trkpt lat="44.74643" lon="5.14203">
        <ele>367</ele>
        <time>2026-08-23T17:48:32.469Z</time>
      </trkpt>
      <trkpt lat="44.74643" lon="5.14204">
        <ele>367</ele>
        <time>2026-08-23T17:48:33.469Z</time>
      </trkpt>
      <trkpt lat="44.74643" lon="5.14204">
        <ele>367</ele>
        <time>2026-08-23T17:48:34.469Z</time>
      </trkpt>
      <trkpt lat="44.74643" lon="5.14204">
        <ele>367</ele>
        <time>2026-08-23T17:48:35.469Z</time>
      </trkpt>
      <trkpt lat="44.74643" lon="5.14205">
        <ele>367</ele>
        <time>2026-08-23T17:48:36.469Z</time>
      </trkpt>
      <trkpt lat="44.74643" lon="5.14206">
        <ele>367</ele>
        <time>2026-08-23T17:48:37.469Z</time>
      </trkpt>
      <trkpt lat="44.74644" lon="5.14206">
        <ele>368</ele>
        <time>2026-08-23T17:48:38.469Z</time>
      </trkpt>
      <trkpt lat="44.74645" lon="5.14207">
        <ele>368</ele>
        <time>2026-08-23T17:48:39.469Z</time>
      </trkpt>
      <trkpt lat="44.74645" lon="5.14207">
        <ele>368</ele>
        <time>2026-08-23T17:48:40.469Z</time>
      </trkpt>
      <trkpt lat="44.74646" lon="5.14208">
        <ele>368</ele>
        <time>2026-08-23T17:48:41.469Z</time>
      </trkpt>
      <trkpt lat="44.74646" lon="5.14209">
        <ele>368</ele>
        <time>2026-08-23T17:48:42.469Z</time>
      </trkpt>
      <trkpt lat="44.74647" lon="5.1421">
        <ele>368</ele>
        <time>2026-08-23T17:48:43.469Z</time>
      </trkpt>
      <trkpt lat="44.74647" lon="5.14211">
        <ele>368</ele>
        <time>2026-08-23T17:48:44.469Z</time>
      </trkpt>
      <trkpt lat="44.74648" lon="5.14212">
        <ele>368</ele>
        <time>2026-08-23T17:48:45.469Z</time>
      </trkpt>
      <trkpt lat="44.74648" lon="5.14212">
        <ele>368</ele>
        <time>2026-08-23T17:48:46.469Z</time>
      </trkpt>
      <trkpt lat="44.74648" lon="5.14213">
        <ele>369</ele>
        <time>2026-08-23T17:48:47.469Z</time>
      </trkpt>
      <trkpt lat="44.74648" lon="5.14213">
        <ele>369</ele>
        <time>2026-08-23T17:48:48.469Z</time>
      </trkpt>
      <trkpt lat="44.74648" lon="5.14213">
        <ele>369</ele>
        <time>2026-08-23T17:48:49.469Z</time>
      </trkpt>
      <trkpt lat="44.74648" lon="5.14214">
        <ele>369</ele>
        <time>2026-08-23T17:48:50.469Z</time>
      </trkpt>
      <trkpt lat="44.74649" lon="5.14215">
        <ele>369</ele>
        <time>2026-08-23T17:48:51.469Z</time>
      </trkpt>
      <trkpt lat="44.74649" lon="5.14216">
        <ele>369</ele>
        <time>2026-08-23T17:48:52.469Z</time>
      </trkpt>
      <trkpt lat="44.74649" lon="5.14217">
        <ele>369</ele>
        <time>2026-08-23T17:48:53.469Z</time>
      </trkpt>
      <trkpt lat="44.7465" lon="5.14218">
        <ele>369</ele>
        <time>2026-08-23T17:48:54.469Z</time>
      </trkpt>
      <trkpt lat="44.7465" lon="5.14218">
        <ele>369</ele>
        <time>2026-08-23T17:48:55.469Z</time>
      </trkpt>
      <trkpt lat="44.74651" lon="5.14219">
        <ele>369</ele>
        <time>2026-08-23T17:48:56.469Z</time>
      </trkpt>
      <trkpt lat="44.74651" lon="5.1422">
        <ele>369</ele>
        <time>2026-08-23T17:48:57.469Z</time>
      </trkpt>
      <trkpt lat="44.74652" lon="5.14221">
        <ele>369</ele>
        <time>2026-08-23T17:48:58.469Z</time>
      </trkpt>
      <trkpt lat="44.74652" lon="5.14222">
        <ele>369</ele>
        <time>2026-08-23T17:48:59.469Z</time>
      </trkpt>
      <trkpt lat="44.74653" lon="5.14222">
        <ele>370</ele>
        <time>2026-08-23T17:49:00.469Z</time>
      </trkpt>
      <trkpt lat="44.74653" lon="5.14223">
        <ele>370</ele>
        <time>2026-08-23T17:49:01.469Z</time>
      </trkpt>
      <trkpt lat="44.74654" lon="5.14224">
        <ele>370</ele>
        <time>2026-08-23T17:49:02.469Z</time>
      </trkpt>
      <trkpt lat="44.74654" lon="5.14225">
        <ele>370</ele>
        <time>2026-08-23T17:49:03.469Z</time>
      </trkpt>
      <trkpt lat="44.74654" lon="5.14226">
        <ele>370</ele>
        <time>2026-08-23T17:49:04.469Z</time>
      </trkpt>
      <trkpt lat="44.74655" lon="5.14227">
        <ele>370</ele>
        <time>2026-08-23T17:49:05.469Z</time>
      </trkpt>
      <trkpt lat="44.74655" lon="5.14228">
        <ele>370</ele>
        <time>2026-08-23T17:49:06.469Z</time>
      </trkpt>
      <trkpt lat="44.74656" lon="5.14229">
        <ele>370</ele>
        <time>2026-08-23T17:49:07.469Z</time>
      </trkpt>
      <trkpt lat="44.74656" lon="5.1423">
        <ele>370</ele>
        <time>2026-08-23T17:49:08.469Z</time>
      </trkpt>
      <trkpt lat="44.74656" lon="5.14231">
        <ele>370</ele>
        <time>2026-08-23T17:49:09.469Z</time>
      </trkpt>
      <trkpt lat="44.74657" lon="5.14232">
        <ele>370</ele>
        <time>2026-08-23T17:49:10.469Z</time>
      </trkpt>
      <trkpt lat="44.74657" lon="5.14233">
        <ele>370</ele>
        <time>2026-08-23T17:49:11.469Z</time>
      </trkpt>
      <trkpt lat="44.74658" lon="5.14234">
        <ele>370</ele>
        <time>2026-08-23T17:49:12.469Z</time>
      </trkpt>
      <trkpt lat="44.74658" lon="5.14235">
        <ele>371</ele>
        <time>2026-08-23T17:49:13.469Z</time>
      </trkpt>
      <trkpt lat="44.74658" lon="5.14236">
        <ele>371</ele>
        <time>2026-08-23T17:49:14.469Z</time>
      </trkpt>
      <trkpt lat="44.74658" lon="5.14237">
        <ele>371</ele>
        <time>2026-08-23T17:49:15.469Z</time>
      </trkpt>
      <trkpt lat="44.74658" lon="5.14238">
        <ele>371</ele>
        <time>2026-08-23T17:49:16.469Z</time>
      </trkpt>
      <trkpt lat="44.74658" lon="5.14239">
        <ele>371</ele>
        <time>2026-08-23T17:49:17.469Z</time>
      </trkpt>
      <trkpt lat="44.74658" lon="5.1424">
        <ele>371</ele>
        <time>2026-08-23T17:49:18.469Z</time>
      </trkpt>
      <trkpt lat="44.74658" lon="5.14241">
        <ele>371</ele>
        <time>2026-08-23T17:49:19.469Z</time>
      </trkpt>
      <trkpt lat="44.74658" lon="5.14243">
        <ele>371</ele>
        <time>2026-08-23T17:49:20.469Z</time>
      </trkpt>
      <trkpt lat="44.74657" lon="5.14244">
        <ele>371</ele>
        <time>2026-08-23T17:49:21.469Z</time>
      </trkpt>
      <trkpt lat="44.74657" lon="5.14245">
        <ele>371</ele>
        <time>2026-08-23T17:49:22.469Z</time>
      </trkpt>
      <trkpt lat="44.74657" lon="5.14246">
        <ele>371</ele>
        <time>2026-08-23T17:49:23.469Z</time>
      </trkpt>
      <trkpt lat="44.74656" lon="5.14247">
        <ele>371</ele>
        <time>2026-08-23T17:49:24.469Z</time>
      </trkpt>
      <trkpt lat="44.74656" lon="5.14248">
        <ele>371</ele>
        <time>2026-08-23T17:49:25.469Z</time>
      </trkpt>
      <trkpt lat="44.74655" lon="5.14249">
        <ele>372</ele>
        <time>2026-08-23T17:49:26.469Z</time>
      </trkpt>
      <trkpt lat="44.74655" lon="5.1425">
        <ele>372</ele>
        <time>2026-08-23T17:49:27.469Z</time>
      </trkpt>
      <trkpt lat="44.74655" lon="5.14252">
        <ele>372</ele>
        <time>2026-08-23T17:49:28.469Z</time>
      </trkpt>
      <trkpt lat="44.74654" lon="5.14253">
        <ele>372</ele>
        <time>2026-08-23T17:49:29.469Z</time>
      </trkpt>
      <trkpt lat="44.74654" lon="5.14253">
        <ele>372</ele>
        <time>2026-08-23T17:49:30.469Z</time>
      </trkpt>
      <trkpt lat="44.74653" lon="5.14254">
        <ele>372</ele>
        <time>2026-08-23T17:49:31.469Z</time>
      </trkpt>
      <trkpt lat="44.74653" lon="5.14255">
        <ele>372</ele>
        <time>2026-08-23T17:49:32.469Z</time>
      </trkpt>
      <trkpt lat="44.74653" lon="5.14256">
        <ele>372</ele>
        <time>2026-08-23T17:49:33.469Z</time>
      </trkpt>
      <trkpt lat="44.74652" lon="5.14257">
        <ele>373</ele>
        <time>2026-08-23T17:49:34.469Z</time>
      </trkpt>
      <trkpt lat="44.74652" lon="5.14258">
        <ele>373</ele>
        <time>2026-08-23T17:49:35.469Z</time>
      </trkpt>
      <trkpt lat="44.74651" lon="5.14259">
        <ele>373</ele>
        <time>2026-08-23T17:49:36.469Z</time>
      </trkpt>
      <trkpt lat="44.7465" lon="5.1426">
        <ele>373</ele>
        <time>2026-08-23T17:49:37.469Z</time>
      </trkpt>
      <trkpt lat="44.7465" lon="5.14261">
        <ele>373</ele>
        <time>2026-08-23T17:49:38.469Z</time>
      </trkpt>
      <trkpt lat="44.74649" lon="5.14262">
        <ele>373</ele>
        <time>2026-08-23T17:49:39.469Z</time>
      </trkpt>
      <trkpt lat="44.74649" lon="5.14263">
        <ele>373</ele>
        <time>2026-08-23T17:49:40.469Z</time>
      </trkpt>
      <trkpt lat="44.74649" lon="5.14265">
        <ele>374</ele>
        <time>2026-08-23T17:49:41.469Z</time>
      </trkpt>
      <trkpt lat="44.74648" lon="5.14266">
        <ele>374</ele>
        <time>2026-08-23T17:49:42.469Z</time>
      </trkpt>
      <trkpt lat="44.74648" lon="5.14267">
        <ele>374</ele>
        <time>2026-08-23T17:49:43.469Z</time>
      </trkpt>
      <trkpt lat="44.74648" lon="5.14269">
        <ele>374</ele>
        <time>2026-08-23T17:49:44.469Z</time>
      </trkpt>
      <trkpt lat="44.74648" lon="5.1427">
        <ele>374</ele>
        <time>2026-08-23T17:49:45.469Z</time>
      </trkpt>
      <trkpt lat="44.74648" lon="5.14271">
        <ele>374</ele>
        <time>2026-08-23T17:49:46.469Z</time>
      </trkpt>
      <trkpt lat="44.74647" lon="5.14271">
        <ele>374</ele>
        <time>2026-08-23T17:49:47.469Z</time>
      </trkpt>
      <trkpt lat="44.74647" lon="5.14272">
        <ele>374</ele>
        <time>2026-08-23T17:49:48.469Z</time>
      </trkpt>
      <trkpt lat="44.74646" lon="5.14272">
        <ele>375</ele>
        <time>2026-08-23T17:49:49.469Z</time>
      </trkpt>
      <trkpt lat="44.74646" lon="5.14273">
        <ele>375</ele>
        <time>2026-08-23T17:49:50.469Z</time>
      </trkpt>
      <trkpt lat="44.74646" lon="5.14274">
        <ele>375</ele>
        <time>2026-08-23T17:49:51.469Z</time>
      </trkpt>
      <trkpt lat="44.74646" lon="5.14275">
        <ele>375</ele>
        <time>2026-08-23T17:49:52.469Z</time>
      </trkpt>
      <trkpt lat="44.74646" lon="5.14276">
        <ele>375</ele>
        <time>2026-08-23T17:49:53.469Z</time>
      </trkpt>
      <trkpt lat="44.74646" lon="5.14277">
        <ele>375</ele>
        <time>2026-08-23T17:49:54.469Z</time>
      </trkpt>
      <trkpt lat="44.74646" lon="5.14279">
        <ele>376</ele>
        <time>2026-08-23T17:49:55.469Z</time>
      </trkpt>
      <trkpt lat="44.74646" lon="5.1428">
        <ele>376</ele>
        <time>2026-08-23T17:49:56.469Z</time>
      </trkpt>
      <trkpt lat="44.74646" lon="5.14282">
        <ele>376</ele>
        <time>2026-08-23T17:49:57.469Z</time>
      </trkpt>
      <trkpt lat="44.74646" lon="5.14283">
        <ele>376</ele>
        <time>2026-08-23T17:49:58.469Z</time>
      </trkpt>
      <trkpt lat="44.74646" lon="5.14284">
        <ele>376</ele>
        <time>2026-08-23T17:49:59.469Z</time>
      </trkpt>
      <trkpt lat="44.74646" lon="5.14286">
        <ele>376</ele>
        <time>2026-08-23T17:50:00.469Z</time>
      </trkpt>
      <trkpt lat="44.74646" lon="5.14287">
        <ele>376</ele>
        <time>2026-08-23T17:50:01.469Z</time>
      </trkpt>
      <trkpt lat="44.74646" lon="5.14288">
        <ele>376</ele>
        <time>2026-08-23T17:50:02.469Z</time>
      </trkpt>
      <trkpt lat="44.74647" lon="5.14289">
        <ele>376</ele>
        <time>2026-08-23T17:50:03.469Z</time>
      </trkpt>
      <trkpt lat="44.74647" lon="5.1429">
        <ele>376</ele>
        <time>2026-08-23T17:50:04.469Z</time>
      </trkpt>
      <trkpt lat="44.74647" lon="5.14291">
        <ele>376</ele>
        <time>2026-08-23T17:50:05.469Z</time>
      </trkpt>
      <trkpt lat="44.74648" lon="5.14292">
        <ele>377</ele>
        <time>2026-08-23T17:50:06.469Z</time>
      </trkpt>
      <trkpt lat="44.74648" lon="5.14293">
        <ele>377</ele>
        <time>2026-08-23T17:50:07.469Z</time>
      </trkpt>
      <trkpt lat="44.74648" lon="5.14295">
        <ele>377</ele>
        <time>2026-08-23T17:50:08.469Z</time>
      </trkpt>
      <trkpt lat="44.74648" lon="5.14296">
        <ele>377</ele>
        <time>2026-08-23T17:50:09.469Z</time>
      </trkpt>
      <trkpt lat="44.74649" lon="5.14297">
        <ele>377</ele>
        <time>2026-08-23T17:50:10.469Z</time>
      </trkpt>
      <trkpt lat="44.74649" lon="5.14297">
        <ele>377</ele>
        <time>2026-08-23T17:50:11.469Z</time>
      </trkpt>
      <trkpt lat="44.7465" lon="5.14297">
        <ele>377</ele>
        <time>2026-08-23T17:50:12.469Z</time>
      </trkpt>
      <trkpt lat="44.74651" lon="5.14297">
        <ele>377</ele>
        <time>2026-08-23T17:50:13.469Z</time>
      </trkpt>
      <trkpt lat="44.74652" lon="5.14297">
        <ele>377</ele>
        <time>2026-08-23T17:50:14.469Z</time>
      </trkpt>
      <trkpt lat="44.74653" lon="5.14297">
        <ele>378</ele>
        <time>2026-08-23T17:50:15.469Z</time>
      </trkpt>
      <trkpt lat="44.74653" lon="5.14297">
        <ele>378</ele>
        <time>2026-08-23T17:50:16.469Z</time>
      </trkpt>
      <trkpt lat="44.74654" lon="5.14296">
        <ele>378</ele>
        <time>2026-08-23T17:50:17.469Z</time>
      </trkpt>
      <trkpt lat="44.74655" lon="5.14296">
        <ele>378</ele>
        <time>2026-08-23T17:50:18.469Z</time>
      </trkpt>
      <trkpt lat="44.74655" lon="5.14296">
        <ele>378</ele>
        <time>2026-08-23T17:50:19.469Z</time>
      </trkpt>
      <trkpt lat="44.74655" lon="5.14296">
        <ele>378</ele>
        <time>2026-08-23T17:50:20.469Z</time>
      </trkpt>
      <trkpt lat="44.74655" lon="5.14296">
        <ele>378</ele>
        <time>2026-08-23T17:50:21.469Z</time>
      </trkpt>
      <trkpt lat="44.74655" lon="5.14296">
        <ele>379</ele>
        <time>2026-08-23T17:50:22.469Z</time>
      </trkpt>
      <trkpt lat="44.74657" lon="5.14294">
        <ele>379</ele>
        <time>2026-08-23T17:50:25.768Z</time>
      </trkpt>
      <trkpt lat="44.74657" lon="5.14293">
        <ele>379</ele>
        <time>2026-08-23T17:50:26.768Z</time>
      </trkpt>
      <trkpt lat="44.74658" lon="5.14292">
        <ele>379</ele>
        <time>2026-08-23T17:50:27.768Z</time>
      </trkpt>
      <trkpt lat="44.74659" lon="5.14292">
        <ele>379</ele>
        <time>2026-08-23T17:50:28.768Z</time>
      </trkpt>
      <trkpt lat="44.7466" lon="5.14291">
        <ele>379</ele>
        <time>2026-08-23T17:50:29.768Z</time>
      </trkpt>
      <trkpt lat="44.7466" lon="5.1429">
        <ele>379</ele>
        <time>2026-08-23T17:50:30.768Z</time>
      </trkpt>
      <trkpt lat="44.74661" lon="5.1429">
        <ele>379</ele>
        <time>2026-08-23T17:50:31.768Z</time>
      </trkpt>
      <trkpt lat="44.74661" lon="5.14289">
        <ele>379</ele>
        <time>2026-08-23T17:50:32.768Z</time>
      </trkpt>
      <trkpt lat="44.74661" lon="5.14289">
        <ele>379</ele>
        <time>2026-08-23T17:50:33.768Z</time>
      </trkpt>
      <trkpt lat="44.74661" lon="5.14289">
        <ele>379</ele>
        <time>2026-08-23T17:50:34.768Z</time>
      </trkpt>
    </trkseg>
  </trk>
</gpx>